<?xml version="1.0" encoding="utf-8"?>
<gpx xmlns:xsi="http://www.w3.org/2001/XMLSchema-instance" xmlns:xsd="http://www.w3.org/2001/XMLSchema" version="1.1" creator="Shapelink.com" xmlns="http://www.topografix.com/GPX/1/1" xmlns:gpxtpx="http://www.garmin.com/xmlschemas/TrackPointExtension/v1">
  <metadata>
    <name>Sykling 23.99 km, 2013-05-30</name>
    <desc></desc>
    <author><name>Mikael Blom</name></author> 
    <time>2013-05-30T16:10:11Z</time>
  </metadata>
  <trk>
    <name>Sykling 23.99 km, 2013-05-30</name>
    <trkseg>
      <trkpt lat="59.979132" lon="17.7391886">
        <ele>32.8223</ele>
        <time>2013-05-30T16:10:11Z</time>
      </trkpt>
      <trkpt lat="59.979104" lon="17.7392082">
        <ele>32.3416</ele>
        <time>2013-05-30T16:10:12Z</time>
      </trkpt>
      <trkpt lat="59.9790661" lon="17.7392315">
        <ele>31.8607</ele>
        <time>2013-05-30T16:10:13Z</time>
      </trkpt>
      <trkpt lat="59.9790203" lon="17.7392454">
        <ele>30.8995</ele>
        <time>2013-05-30T16:10:14Z</time>
      </trkpt>
      <trkpt lat="59.9789721" lon="17.7392539">
        <ele>30.8995</ele>
        <time>2013-05-30T16:10:15Z</time>
      </trkpt>
      <trkpt lat="59.9789237" lon="17.7392568">
        <ele>30.8995</ele>
        <time>2013-05-30T16:10:16Z</time>
      </trkpt>
      <trkpt lat="59.9788718" lon="17.7392575">
        <ele>30.8995</ele>
        <time>2013-05-30T16:10:17Z</time>
      </trkpt>
      <trkpt lat="59.978819" lon="17.7392574">
        <ele>31.3801</ele>
        <time>2013-05-30T16:10:18Z</time>
      </trkpt>
      <trkpt lat="59.9787682" lon="17.7392569">
        <ele>31.8607</ele>
        <time>2013-05-30T16:10:19Z</time>
      </trkpt>
      <trkpt lat="59.9787185" lon="17.739256">
        <ele>31.8607</ele>
        <time>2013-05-30T16:10:20Z</time>
      </trkpt>
      <trkpt lat="59.978673" lon="17.7392471">
        <ele>32.8223</ele>
        <time>2013-05-30T16:10:21Z</time>
      </trkpt>
      <trkpt lat="59.9786247" lon="17.7392278">
        <ele>32.3416</ele>
        <time>2013-05-30T16:10:22Z</time>
      </trkpt>
      <trkpt lat="59.9785741" lon="17.7392181">
        <ele>32.8223</ele>
        <time>2013-05-30T16:10:23Z</time>
      </trkpt>
      <trkpt lat="59.9785248" lon="17.7392104">
        <ele>33.3029</ele>
        <time>2013-05-30T16:10:24Z</time>
      </trkpt>
      <trkpt lat="59.9784748" lon="17.7392023">
        <ele>33.7834</ele>
        <time>2013-05-30T16:10:25Z</time>
      </trkpt>
      <trkpt lat="59.9784241" lon="17.7391959">
        <ele>34.7449</ele>
        <time>2013-05-30T16:10:26Z</time>
      </trkpt>
      <trkpt lat="59.9783751" lon="17.7391953">
        <ele>35.2255</ele>
        <time>2013-05-30T16:10:27Z</time>
      </trkpt>
      <trkpt lat="59.9783316" lon="17.7391863">
        <ele>36.1868</ele>
        <time>2013-05-30T16:10:28Z</time>
      </trkpt>
      <trkpt lat="59.9782879" lon="17.7391793">
        <ele>37.1481</ele>
        <time>2013-05-30T16:10:29Z</time>
      </trkpt>
      <trkpt lat="59.9782398" lon="17.7391678">
        <ele>37.1481</ele>
        <time>2013-05-30T16:10:30Z</time>
      </trkpt>
      <trkpt lat="59.9781912" lon="17.7391632">
        <ele>37.6287</ele>
        <time>2013-05-30T16:10:31Z</time>
      </trkpt>
      <trkpt lat="59.9781464" lon="17.7391563">
        <ele>38.1094</ele>
        <time>2013-05-30T16:10:32Z</time>
      </trkpt>
      <trkpt lat="59.9781014" lon="17.7391393">
        <ele>38.5901</ele>
        <time>2013-05-30T16:10:33Z</time>
      </trkpt>
      <trkpt lat="59.9780564" lon="17.7391103">
        <ele>38.5901</ele>
        <time>2013-05-30T16:10:34Z</time>
      </trkpt>
      <trkpt lat="59.9780098" lon="17.7390787">
        <ele>38.5901</ele>
        <time>2013-05-30T16:10:35Z</time>
      </trkpt>
      <trkpt lat="59.9779644" lon="17.7390469">
        <ele>38.1094</ele>
        <time>2013-05-30T16:10:36Z</time>
      </trkpt>
      <trkpt lat="59.9779118" lon="17.7390136">
        <ele>37.6287</ele>
        <time>2013-05-30T16:10:37Z</time>
      </trkpt>
      <trkpt lat="59.9778524" lon="17.7389886">
        <ele>37.6287</ele>
        <time>2013-05-30T16:10:38Z</time>
      </trkpt>
      <trkpt lat="59.9777939" lon="17.7389658">
        <ele>37.1481</ele>
        <time>2013-05-30T16:10:39Z</time>
      </trkpt>
      <trkpt lat="59.9777343" lon="17.7389504">
        <ele>36.6675</ele>
        <time>2013-05-30T16:10:40Z</time>
      </trkpt>
      <trkpt lat="59.977672" lon="17.7389466">
        <ele>36.1868</ele>
        <time>2013-05-30T16:10:41Z</time>
      </trkpt>
      <trkpt lat="59.9776068" lon="17.7389514">
        <ele>35.7061</ele>
        <time>2013-05-30T16:10:42Z</time>
      </trkpt>
      <trkpt lat="59.9775394" lon="17.7389643">
        <ele>35.7061</ele>
        <time>2013-05-30T16:10:43Z</time>
      </trkpt>
      <trkpt lat="59.9774723" lon="17.7389891">
        <ele>35.7061</ele>
        <time>2013-05-30T16:10:44Z</time>
      </trkpt>
      <trkpt lat="59.9774048" lon="17.7390161">
        <ele>35.7061</ele>
        <time>2013-05-30T16:10:45Z</time>
      </trkpt>
      <trkpt lat="59.9773347" lon="17.7390535">
        <ele>36.1868</ele>
        <time>2013-05-30T16:10:46Z</time>
      </trkpt>
      <trkpt lat="59.9772608" lon="17.739093">
        <ele>36.6675</ele>
        <time>2013-05-30T16:10:47Z</time>
      </trkpt>
      <trkpt lat="59.9771846" lon="17.7391334">
        <ele>36.6675</ele>
        <time>2013-05-30T16:10:48Z</time>
      </trkpt>
      <trkpt lat="59.9771116" lon="17.7391834">
        <ele>37.1481</ele>
        <time>2013-05-30T16:10:49Z</time>
      </trkpt>
      <trkpt lat="59.9770315" lon="17.7392293">
        <ele>37.1481</ele>
        <time>2013-05-30T16:10:50Z</time>
      </trkpt>
      <trkpt lat="59.9769485" lon="17.7392698">
        <ele>36.6675</ele>
        <time>2013-05-30T16:10:51Z</time>
      </trkpt>
      <trkpt lat="59.9768718" lon="17.739306">
        <ele>36.6675</ele>
        <time>2013-05-30T16:10:52Z</time>
      </trkpt>
      <trkpt lat="59.9767925" lon="17.7393383">
        <ele>35.7061</ele>
        <time>2013-05-30T16:10:53Z</time>
      </trkpt>
      <trkpt lat="59.9767116" lon="17.7393642">
        <ele>34.2642</ele>
        <time>2013-05-30T16:10:54Z</time>
      </trkpt>
      <trkpt lat="59.9766284" lon="17.7394128">
        <ele>32.3416</ele>
        <time>2013-05-30T16:10:55Z</time>
      </trkpt>
      <trkpt lat="59.9765494" lon="17.7394798">
        <ele>31.3801</ele>
        <time>2013-05-30T16:10:56Z</time>
      </trkpt>
      <trkpt lat="59.9764759" lon="17.7395621">
        <ele>30.8995</ele>
        <time>2013-05-30T16:10:57Z</time>
      </trkpt>
      <trkpt lat="59.9764102" lon="17.7396657">
        <ele>30.4188</ele>
        <time>2013-05-30T16:10:58Z</time>
      </trkpt>
      <trkpt lat="59.9763516" lon="17.7397784">
        <ele>29.9381</ele>
        <time>2013-05-30T16:10:59Z</time>
      </trkpt>
      <trkpt lat="59.9763041" lon="17.7399024">
        <ele>30.4188</ele>
        <time>2013-05-30T16:11:00Z</time>
      </trkpt>
      <trkpt lat="59.9762579" lon="17.7400252">
        <ele>30.4188</ele>
        <time>2013-05-30T16:11:01Z</time>
      </trkpt>
      <trkpt lat="59.976217" lon="17.7401498">
        <ele>30.8995</ele>
        <time>2013-05-30T16:11:02Z</time>
      </trkpt>
      <trkpt lat="59.9761802" lon="17.7402701">
        <ele>30.8995</ele>
        <time>2013-05-30T16:11:03Z</time>
      </trkpt>
      <trkpt lat="59.976143" lon="17.7403841">
        <ele>30.8995</ele>
        <time>2013-05-30T16:11:04Z</time>
      </trkpt>
      <trkpt lat="59.9761075" lon="17.7404979">
        <ele>30.8995</ele>
        <time>2013-05-30T16:11:05Z</time>
      </trkpt>
      <trkpt lat="59.976071" lon="17.7406044">
        <ele>30.4188</ele>
        <time>2013-05-30T16:11:06Z</time>
      </trkpt>
      <trkpt lat="59.9760373" lon="17.7407116">
        <ele>29.9381</ele>
        <time>2013-05-30T16:11:07Z</time>
      </trkpt>
      <trkpt lat="59.9760057" lon="17.7408204">
        <ele>29.9381</ele>
        <time>2013-05-30T16:11:08Z</time>
      </trkpt>
      <trkpt lat="59.9759752" lon="17.7409306">
        <ele>29.9381</ele>
        <time>2013-05-30T16:11:09Z</time>
      </trkpt>
      <trkpt lat="59.9759457" lon="17.7410392">
        <ele>29.4575</ele>
        <time>2013-05-30T16:11:10Z</time>
      </trkpt>
      <trkpt lat="59.975918" lon="17.7411503">
        <ele>29.9381</ele>
        <time>2013-05-30T16:11:11Z</time>
      </trkpt>
      <trkpt lat="59.9758921" lon="17.7412609">
        <ele>30.4188</ele>
        <time>2013-05-30T16:11:12Z</time>
      </trkpt>
      <trkpt lat="59.9758672" lon="17.7413709">
        <ele>30.8995</ele>
        <time>2013-05-30T16:11:13Z</time>
      </trkpt>
      <trkpt lat="59.9758485" lon="17.7414791">
        <ele>33.3029</ele>
        <time>2013-05-30T16:11:14Z</time>
      </trkpt>
      <trkpt lat="59.9758252" lon="17.7415767">
        <ele>33.3029</ele>
        <time>2013-05-30T16:11:15Z</time>
      </trkpt>
      <trkpt lat="59.9758038" lon="17.7416771">
        <ele>34.2642</ele>
        <time>2013-05-30T16:11:16Z</time>
      </trkpt>
      <trkpt lat="59.9757876" lon="17.7417823">
        <ele>36.1868</ele>
        <time>2013-05-30T16:11:17Z</time>
      </trkpt>
      <trkpt lat="59.9757664" lon="17.7418801">
        <ele>36.6675</ele>
        <time>2013-05-30T16:11:18Z</time>
      </trkpt>
      <trkpt lat="59.9757439" lon="17.7419752">
        <ele>37.1481</ele>
        <time>2013-05-30T16:11:19Z</time>
      </trkpt>
      <trkpt lat="59.9757209" lon="17.742069">
        <ele>37.6287</ele>
        <time>2013-05-30T16:11:20Z</time>
      </trkpt>
      <trkpt lat="59.9756986" lon="17.7421613">
        <ele>37.6287</ele>
        <time>2013-05-30T16:11:21Z</time>
      </trkpt>
      <trkpt lat="59.9756762" lon="17.7422522">
        <ele>38.1094</ele>
        <time>2013-05-30T16:11:22Z</time>
      </trkpt>
      <trkpt lat="59.9756502" lon="17.7423361">
        <ele>37.6287</ele>
        <time>2013-05-30T16:11:23Z</time>
      </trkpt>
      <trkpt lat="59.975625" lon="17.7424229">
        <ele>37.1481</ele>
        <time>2013-05-30T16:11:24Z</time>
      </trkpt>
      <trkpt lat="59.9755985" lon="17.7425049">
        <ele>36.1868</ele>
        <time>2013-05-30T16:11:25Z</time>
      </trkpt>
      <trkpt lat="59.9755747" lon="17.7425945">
        <ele>36.1868</ele>
        <time>2013-05-30T16:11:26Z</time>
      </trkpt>
      <trkpt lat="59.97555" lon="17.7426819">
        <ele>35.7061</ele>
        <time>2013-05-30T16:11:27Z</time>
      </trkpt>
      <trkpt lat="59.9755248" lon="17.7427727">
        <ele>35.7061</ele>
        <time>2013-05-30T16:11:28Z</time>
      </trkpt>
      <trkpt lat="59.975498" lon="17.7428565">
        <ele>34.7449</ele>
        <time>2013-05-30T16:11:29Z</time>
      </trkpt>
      <trkpt lat="59.9754732" lon="17.742941">
        <ele>34.2642</ele>
        <time>2013-05-30T16:11:30Z</time>
      </trkpt>
      <trkpt lat="59.9754488" lon="17.743029">
        <ele>33.7834</ele>
        <time>2013-05-30T16:11:31Z</time>
      </trkpt>
      <trkpt lat="59.9754253" lon="17.7431239">
        <ele>33.7834</ele>
        <time>2013-05-30T16:11:32Z</time>
      </trkpt>
      <trkpt lat="59.9754038" lon="17.7432195">
        <ele>33.7834</ele>
        <time>2013-05-30T16:11:33Z</time>
      </trkpt>
      <trkpt lat="59.9753831" lon="17.7433134">
        <ele>34.2642</ele>
        <time>2013-05-30T16:11:34Z</time>
      </trkpt>
      <trkpt lat="59.9753633" lon="17.7434051">
        <ele>34.2642</ele>
        <time>2013-05-30T16:11:35Z</time>
      </trkpt>
      <trkpt lat="59.9753445" lon="17.7434977">
        <ele>34.2642</ele>
        <time>2013-05-30T16:11:36Z</time>
      </trkpt>
      <trkpt lat="59.9753272" lon="17.743593">
        <ele>34.2642</ele>
        <time>2013-05-30T16:11:37Z</time>
      </trkpt>
      <trkpt lat="59.9753101" lon="17.7436883">
        <ele>34.2642</ele>
        <time>2013-05-30T16:11:38Z</time>
      </trkpt>
      <trkpt lat="59.9752928" lon="17.7437817">
        <ele>34.2642</ele>
        <time>2013-05-30T16:11:39Z</time>
      </trkpt>
      <trkpt lat="59.9752764" lon="17.7438712">
        <ele>33.7834</ele>
        <time>2013-05-30T16:11:40Z</time>
      </trkpt>
      <trkpt lat="59.9752595" lon="17.7439556">
        <ele>33.7834</ele>
        <time>2013-05-30T16:11:41Z</time>
      </trkpt>
      <trkpt lat="59.9752412" lon="17.7440375">
        <ele>33.7834</ele>
        <time>2013-05-30T16:11:42Z</time>
      </trkpt>
      <trkpt lat="59.9752239" lon="17.7441169">
        <ele>33.3029</ele>
        <time>2013-05-30T16:11:43Z</time>
      </trkpt>
      <trkpt lat="59.975208" lon="17.7441947">
        <ele>33.3029</ele>
        <time>2013-05-30T16:11:44Z</time>
      </trkpt>
      <trkpt lat="59.9751917" lon="17.7442796">
        <ele>33.3029</ele>
        <time>2013-05-30T16:11:45Z</time>
      </trkpt>
      <trkpt lat="59.9751748" lon="17.7443644">
        <ele>33.7834</ele>
        <time>2013-05-30T16:11:46Z</time>
      </trkpt>
      <trkpt lat="59.9751546" lon="17.7444417">
        <ele>33.3029</ele>
        <time>2013-05-30T16:11:47Z</time>
      </trkpt>
      <trkpt lat="59.9751328" lon="17.7445218">
        <ele>32.8223</ele>
        <time>2013-05-30T16:11:48Z</time>
      </trkpt>
      <trkpt lat="59.9751093" lon="17.7446091">
        <ele>32.8223</ele>
        <time>2013-05-30T16:11:49Z</time>
      </trkpt>
      <trkpt lat="59.975085" lon="17.7446969">
        <ele>32.8223</ele>
        <time>2013-05-30T16:11:50Z</time>
      </trkpt>
      <trkpt lat="59.9750602" lon="17.7447858">
        <ele>32.8223</ele>
        <time>2013-05-30T16:11:51Z</time>
      </trkpt>
      <trkpt lat="59.9750334" lon="17.7448723">
        <ele>32.8223</ele>
        <time>2013-05-30T16:11:52Z</time>
      </trkpt>
      <trkpt lat="59.9750062" lon="17.7449576">
        <ele>32.8223</ele>
        <time>2013-05-30T16:11:53Z</time>
      </trkpt>
      <trkpt lat="59.9749795" lon="17.7450432">
        <ele>32.8223</ele>
        <time>2013-05-30T16:11:54Z</time>
      </trkpt>
      <trkpt lat="59.9749534" lon="17.7451217">
        <ele>32.8223</ele>
        <time>2013-05-30T16:11:55Z</time>
      </trkpt>
      <trkpt lat="59.9749271" lon="17.7451996">
        <ele>32.8223</ele>
        <time>2013-05-30T16:11:56Z</time>
      </trkpt>
      <trkpt lat="59.9748992" lon="17.7452762">
        <ele>33.3029</ele>
        <time>2013-05-30T16:11:57Z</time>
      </trkpt>
      <trkpt lat="59.9748712" lon="17.7453548">
        <ele>33.3029</ele>
        <time>2013-05-30T16:11:58Z</time>
      </trkpt>
      <trkpt lat="59.9748417" lon="17.7454224">
        <ele>33.3029</ele>
        <time>2013-05-30T16:11:59Z</time>
      </trkpt>
      <trkpt lat="59.9748135" lon="17.7454942">
        <ele>32.8223</ele>
        <time>2013-05-30T16:12:00Z</time>
      </trkpt>
      <trkpt lat="59.9747854" lon="17.7455652">
        <ele>33.3029</ele>
        <time>2013-05-30T16:12:01Z</time>
      </trkpt>
      <trkpt lat="59.9747556" lon="17.7456367">
        <ele>33.3029</ele>
        <time>2013-05-30T16:12:02Z</time>
      </trkpt>
      <trkpt lat="59.9747255" lon="17.7457093">
        <ele>33.3029</ele>
        <time>2013-05-30T16:12:03Z</time>
      </trkpt>
      <trkpt lat="59.9746951" lon="17.7457793">
        <ele>33.3029</ele>
        <time>2013-05-30T16:12:04Z</time>
      </trkpt>
      <trkpt lat="59.9746641" lon="17.745847">
        <ele>33.3029</ele>
        <time>2013-05-30T16:12:05Z</time>
      </trkpt>
      <trkpt lat="59.9746304" lon="17.7459098">
        <ele>33.3029</ele>
        <time>2013-05-30T16:12:06Z</time>
      </trkpt>
      <trkpt lat="59.9745996" lon="17.7459824">
        <ele>34.7449</ele>
        <time>2013-05-30T16:12:07Z</time>
      </trkpt>
      <trkpt lat="59.9745665" lon="17.7460445">
        <ele>34.7449</ele>
        <time>2013-05-30T16:12:08Z</time>
      </trkpt>
      <trkpt lat="59.9745325" lon="17.7461059">
        <ele>35.2255</ele>
        <time>2013-05-30T16:12:09Z</time>
      </trkpt>
      <trkpt lat="59.9744992" lon="17.7461832">
        <ele>36.6675</ele>
        <time>2013-05-30T16:12:10Z</time>
      </trkpt>
      <trkpt lat="59.9744625" lon="17.7462546">
        <ele>37.1481</ele>
        <time>2013-05-30T16:12:11Z</time>
      </trkpt>
      <trkpt lat="59.9744251" lon="17.7463333">
        <ele>38.5901</ele>
        <time>2013-05-30T16:12:12Z</time>
      </trkpt>
      <trkpt lat="59.9743843" lon="17.7463985">
        <ele>38.5901</ele>
        <time>2013-05-30T16:12:13Z</time>
      </trkpt>
      <trkpt lat="59.9743438" lon="17.7464687">
        <ele>38.5901</ele>
        <time>2013-05-30T16:12:14Z</time>
      </trkpt>
      <trkpt lat="59.9743" lon="17.7465201">
        <ele>38.1094</ele>
        <time>2013-05-30T16:12:15Z</time>
      </trkpt>
      <trkpt lat="59.9742577" lon="17.7465722">
        <ele>37.1481</ele>
        <time>2013-05-30T16:12:16Z</time>
      </trkpt>
      <trkpt lat="59.9742166" lon="17.7466264">
        <ele>36.6675</ele>
        <time>2013-05-30T16:12:17Z</time>
      </trkpt>
      <trkpt lat="59.974174" lon="17.746679">
        <ele>36.6675</ele>
        <time>2013-05-30T16:12:18Z</time>
      </trkpt>
      <trkpt lat="59.9741304" lon="17.7467344">
        <ele>36.1868</ele>
        <time>2013-05-30T16:12:19Z</time>
      </trkpt>
      <trkpt lat="59.9740871" lon="17.7467893">
        <ele>36.1868</ele>
        <time>2013-05-30T16:12:20Z</time>
      </trkpt>
      <trkpt lat="59.9740436" lon="17.7468428">
        <ele>35.7061</ele>
        <time>2013-05-30T16:12:21Z</time>
      </trkpt>
      <trkpt lat="59.9739978" lon="17.7468914">
        <ele>35.7061</ele>
        <time>2013-05-30T16:12:22Z</time>
      </trkpt>
      <trkpt lat="59.9739543" lon="17.7469458">
        <ele>35.7061</ele>
        <time>2013-05-30T16:12:23Z</time>
      </trkpt>
      <trkpt lat="59.9739088" lon="17.7470031">
        <ele>35.2255</ele>
        <time>2013-05-30T16:12:24Z</time>
      </trkpt>
      <trkpt lat="59.9738636" lon="17.7470618">
        <ele>34.7449</ele>
        <time>2013-05-30T16:12:25Z</time>
      </trkpt>
      <trkpt lat="59.9738172" lon="17.7471188">
        <ele>34.7449</ele>
        <time>2013-05-30T16:12:26Z</time>
      </trkpt>
      <trkpt lat="59.9737701" lon="17.7471695">
        <ele>34.2642</ele>
        <time>2013-05-30T16:12:27Z</time>
      </trkpt>
      <trkpt lat="59.9737258" lon="17.7472323">
        <ele>34.7449</ele>
        <time>2013-05-30T16:12:28Z</time>
      </trkpt>
      <trkpt lat="59.9736791" lon="17.747282">
        <ele>34.2642</ele>
        <time>2013-05-30T16:12:29Z</time>
      </trkpt>
      <trkpt lat="59.9736312" lon="17.7473282">
        <ele>34.2642</ele>
        <time>2013-05-30T16:12:30Z</time>
      </trkpt>
      <trkpt lat="59.9735797" lon="17.7473755">
        <ele>33.7834</ele>
        <time>2013-05-30T16:12:31Z</time>
      </trkpt>
      <trkpt lat="59.973529" lon="17.747426">
        <ele>33.3029</ele>
        <time>2013-05-30T16:12:32Z</time>
      </trkpt>
      <trkpt lat="59.9734758" lon="17.7474762">
        <ele>32.8223</ele>
        <time>2013-05-30T16:12:33Z</time>
      </trkpt>
      <trkpt lat="59.973418" lon="17.7475247">
        <ele>32.3416</ele>
        <time>2013-05-30T16:12:34Z</time>
      </trkpt>
      <trkpt lat="59.9733611" lon="17.7475781">
        <ele>31.8607</ele>
        <time>2013-05-30T16:12:35Z</time>
      </trkpt>
      <trkpt lat="59.9733044" lon="17.7476324">
        <ele>31.8607</ele>
        <time>2013-05-30T16:12:36Z</time>
      </trkpt>
      <trkpt lat="59.9732474" lon="17.7476885">
        <ele>31.3801</ele>
        <time>2013-05-30T16:12:37Z</time>
      </trkpt>
      <trkpt lat="59.9731919" lon="17.7477481">
        <ele>31.3801</ele>
        <time>2013-05-30T16:12:38Z</time>
      </trkpt>
      <trkpt lat="59.9731367" lon="17.7478086">
        <ele>30.8995</ele>
        <time>2013-05-30T16:12:39Z</time>
      </trkpt>
      <trkpt lat="59.9730777" lon="17.7478689">
        <ele>30.8995</ele>
        <time>2013-05-30T16:12:40Z</time>
      </trkpt>
      <trkpt lat="59.9730187" lon="17.7479434">
        <ele>30.4188</ele>
        <time>2013-05-30T16:12:41Z</time>
      </trkpt>
      <trkpt lat="59.9729656" lon="17.748029">
        <ele>30.8995</ele>
        <time>2013-05-30T16:12:42Z</time>
      </trkpt>
      <trkpt lat="59.9729132" lon="17.7481122">
        <ele>30.8995</ele>
        <time>2013-05-30T16:12:43Z</time>
      </trkpt>
      <trkpt lat="59.9728715" lon="17.7482049">
        <ele>31.8607</ele>
        <time>2013-05-30T16:12:44Z</time>
      </trkpt>
      <trkpt lat="59.9728297" lon="17.7482946">
        <ele>32.3416</ele>
        <time>2013-05-30T16:12:45Z</time>
      </trkpt>
      <trkpt lat="59.9727852" lon="17.7483816">
        <ele>31.8607</ele>
        <time>2013-05-30T16:12:46Z</time>
      </trkpt>
      <trkpt lat="59.9727448" lon="17.7484757">
        <ele>32.8223</ele>
        <time>2013-05-30T16:12:47Z</time>
      </trkpt>
      <trkpt lat="59.9727095" lon="17.7485677">
        <ele>33.3029</ele>
        <time>2013-05-30T16:12:48Z</time>
      </trkpt>
      <trkpt lat="59.9726752" lon="17.7486546">
        <ele>34.2642</ele>
        <time>2013-05-30T16:12:49Z</time>
      </trkpt>
      <trkpt lat="59.9726403" lon="17.7487205">
        <ele>33.3029</ele>
        <time>2013-05-30T16:12:50Z</time>
      </trkpt>
      <trkpt lat="59.9726053" lon="17.7488016">
        <ele>33.7834</ele>
        <time>2013-05-30T16:12:51Z</time>
      </trkpt>
      <trkpt lat="59.9725707" lon="17.7488897">
        <ele>34.2642</ele>
        <time>2013-05-30T16:12:52Z</time>
      </trkpt>
      <trkpt lat="59.9725365" lon="17.7489748">
        <ele>34.7449</ele>
        <time>2013-05-30T16:12:53Z</time>
      </trkpt>
      <trkpt lat="59.9725019" lon="17.7490511">
        <ele>34.7449</ele>
        <time>2013-05-30T16:12:54Z</time>
      </trkpt>
      <trkpt lat="59.9724672" lon="17.7491394">
        <ele>35.7061</ele>
        <time>2013-05-30T16:12:55Z</time>
      </trkpt>
      <trkpt lat="59.972434" lon="17.7492328">
        <ele>37.1481</ele>
        <time>2013-05-30T16:12:56Z</time>
      </trkpt>
      <trkpt lat="59.972403" lon="17.7493103">
        <ele>38.1094</ele>
        <time>2013-05-30T16:12:57Z</time>
      </trkpt>
      <trkpt lat="59.9723689" lon="17.7493928">
        <ele>38.5901</ele>
        <time>2013-05-30T16:12:58Z</time>
      </trkpt>
      <trkpt lat="59.9723335" lon="17.7494665">
        <ele>38.5901</ele>
        <time>2013-05-30T16:12:59Z</time>
      </trkpt>
      <trkpt lat="59.9723019" lon="17.7495239">
        <ele>37.6287</ele>
        <time>2013-05-30T16:13:00Z</time>
      </trkpt>
      <trkpt lat="59.9722688" lon="17.7496">
        <ele>38.1094</ele>
        <time>2013-05-30T16:13:01Z</time>
      </trkpt>
      <trkpt lat="59.9722372" lon="17.7496646">
        <ele>37.6287</ele>
        <time>2013-05-30T16:13:02Z</time>
      </trkpt>
      <trkpt lat="59.9722081" lon="17.7497228">
        <ele>36.6675</ele>
        <time>2013-05-30T16:13:03Z</time>
      </trkpt>
      <trkpt lat="59.9721758" lon="17.7497762">
        <ele>35.2255</ele>
        <time>2013-05-30T16:13:04Z</time>
      </trkpt>
      <trkpt lat="59.9721435" lon="17.7498372">
        <ele>34.7449</ele>
        <time>2013-05-30T16:13:05Z</time>
      </trkpt>
      <trkpt lat="59.9721076" lon="17.7499112">
        <ele>34.2642</ele>
        <time>2013-05-30T16:13:06Z</time>
      </trkpt>
      <trkpt lat="59.9720741" lon="17.7499741">
        <ele>32.8223</ele>
        <time>2013-05-30T16:13:07Z</time>
      </trkpt>
      <trkpt lat="59.9720445" lon="17.7500621">
        <ele>33.7834</ele>
        <time>2013-05-30T16:13:08Z</time>
      </trkpt>
      <trkpt lat="59.9720108" lon="17.7501196">
        <ele>30.8995</ele>
        <time>2013-05-30T16:13:09Z</time>
      </trkpt>
      <trkpt lat="59.971971" lon="17.7501927">
        <ele>28.9769</ele>
        <time>2013-05-30T16:13:10Z</time>
      </trkpt>
      <trkpt lat="59.9719316" lon="17.7502631">
        <ele>28.0155</ele>
        <time>2013-05-30T16:13:11Z</time>
      </trkpt>
      <trkpt lat="59.9718875" lon="17.7503536">
        <ele>27.5349</ele>
        <time>2013-05-30T16:13:12Z</time>
      </trkpt>
      <trkpt lat="59.9718413" lon="17.7504385">
        <ele>26.5736</ele>
        <time>2013-05-30T16:13:13Z</time>
      </trkpt>
      <trkpt lat="59.9717917" lon="17.7505185">
        <ele>25.1317</ele>
        <time>2013-05-30T16:13:14Z</time>
      </trkpt>
      <trkpt lat="59.971744" lon="17.7506198">
        <ele>26.0929</ele>
        <time>2013-05-30T16:13:15Z</time>
      </trkpt>
      <trkpt lat="59.9716869" lon="17.7507047">
        <ele>25.1317</ele>
        <time>2013-05-30T16:13:16Z</time>
      </trkpt>
      <trkpt lat="59.9716335" lon="17.7508053">
        <ele>26.0929</ele>
        <time>2013-05-30T16:13:17Z</time>
      </trkpt>
      <trkpt lat="59.9715775" lon="17.7508992">
        <ele>26.0929</ele>
        <time>2013-05-30T16:13:18Z</time>
      </trkpt>
      <trkpt lat="59.9715197" lon="17.7509888">
        <ele>26.5736</ele>
        <time>2013-05-30T16:13:19Z</time>
      </trkpt>
      <trkpt lat="59.9714585" lon="17.7510701">
        <ele>26.5736</ele>
        <time>2013-05-30T16:13:20Z</time>
      </trkpt>
      <trkpt lat="59.9713957" lon="17.7511495">
        <ele>27.0543</ele>
        <time>2013-05-30T16:13:21Z</time>
      </trkpt>
      <trkpt lat="59.9713296" lon="17.751227">
        <ele>27.5349</ele>
        <time>2013-05-30T16:13:22Z</time>
      </trkpt>
      <trkpt lat="59.9712615" lon="17.7513003">
        <ele>27.5349</ele>
        <time>2013-05-30T16:13:23Z</time>
      </trkpt>
      <trkpt lat="59.971198" lon="17.7513776">
        <ele>28.4962</ele>
        <time>2013-05-30T16:13:24Z</time>
      </trkpt>
      <trkpt lat="59.9711264" lon="17.7514462">
        <ele>28.9769</ele>
        <time>2013-05-30T16:13:25Z</time>
      </trkpt>
      <trkpt lat="59.971058" lon="17.7515265">
        <ele>28.9769</ele>
        <time>2013-05-30T16:13:26Z</time>
      </trkpt>
      <trkpt lat="59.9709877" lon="17.7515954">
        <ele>28.9769</ele>
        <time>2013-05-30T16:13:27Z</time>
      </trkpt>
      <trkpt lat="59.9709158" lon="17.7516742">
        <ele>29.4575</ele>
        <time>2013-05-30T16:13:28Z</time>
      </trkpt>
      <trkpt lat="59.9708488" lon="17.7517506">
        <ele>29.4575</ele>
        <time>2013-05-30T16:13:29Z</time>
      </trkpt>
      <trkpt lat="59.9707863" lon="17.7518309">
        <ele>29.4575</ele>
        <time>2013-05-30T16:13:30Z</time>
      </trkpt>
      <trkpt lat="59.9707327" lon="17.7519221">
        <ele>28.4962</ele>
        <time>2013-05-30T16:13:31Z</time>
      </trkpt>
      <trkpt lat="59.970678" lon="17.7520084">
        <ele>27.5349</ele>
        <time>2013-05-30T16:13:32Z</time>
      </trkpt>
      <trkpt lat="59.9706254" lon="17.7520799">
        <ele>26.5736</ele>
        <time>2013-05-30T16:13:33Z</time>
      </trkpt>
      <trkpt lat="59.9705718" lon="17.752166">
        <ele>26.0929</ele>
        <time>2013-05-30T16:13:34Z</time>
      </trkpt>
      <trkpt lat="59.9705273" lon="17.752242">
        <ele>25.1317</ele>
        <time>2013-05-30T16:13:35Z</time>
      </trkpt>
      <trkpt lat="59.970494" lon="17.7523495">
        <ele>25.1317</ele>
        <time>2013-05-30T16:13:36Z</time>
      </trkpt>
      <trkpt lat="59.9704592" lon="17.7524445">
        <ele>24.651</ele>
        <time>2013-05-30T16:13:37Z</time>
      </trkpt>
      <trkpt lat="59.970424" lon="17.7525382">
        <ele>24.1703</ele>
        <time>2013-05-30T16:13:38Z</time>
      </trkpt>
      <trkpt lat="59.9703864" lon="17.7526262">
        <ele>23.209</ele>
        <time>2013-05-30T16:13:39Z</time>
      </trkpt>
      <trkpt lat="59.9703532" lon="17.7527163">
        <ele>22.7283</ele>
        <time>2013-05-30T16:13:40Z</time>
      </trkpt>
      <trkpt lat="59.970325" lon="17.7528148">
        <ele>22.7283</ele>
        <time>2013-05-30T16:13:41Z</time>
      </trkpt>
      <trkpt lat="59.9702949" lon="17.7529013">
        <ele>22.7283</ele>
        <time>2013-05-30T16:13:42Z</time>
      </trkpt>
      <trkpt lat="59.9702661" lon="17.7529829">
        <ele>21.767</ele>
        <time>2013-05-30T16:13:43Z</time>
      </trkpt>
      <trkpt lat="59.9702419" lon="17.753065">
        <ele>21.2864</ele>
        <time>2013-05-30T16:13:44Z</time>
      </trkpt>
      <trkpt lat="59.9702154" lon="17.75315">
        <ele>21.2864</ele>
        <time>2013-05-30T16:13:45Z</time>
      </trkpt>
      <trkpt lat="59.9701837" lon="17.7532307">
        <ele>19.8444</ele>
        <time>2013-05-30T16:13:46Z</time>
      </trkpt>
      <trkpt lat="59.9701556" lon="17.7533147">
        <ele>19.8444</ele>
        <time>2013-05-30T16:13:47Z</time>
      </trkpt>
      <trkpt lat="59.9701276" lon="17.7533943">
        <ele>19.3638</ele>
        <time>2013-05-30T16:13:48Z</time>
      </trkpt>
      <trkpt lat="59.9700971" lon="17.7534789">
        <ele>19.3638</ele>
        <time>2013-05-30T16:13:49Z</time>
      </trkpt>
      <trkpt lat="59.9700662" lon="17.7535582">
        <ele>18.8831</ele>
        <time>2013-05-30T16:13:50Z</time>
      </trkpt>
      <trkpt lat="59.9700344" lon="17.753647">
        <ele>19.8444</ele>
        <time>2013-05-30T16:13:51Z</time>
      </trkpt>
      <trkpt lat="59.9700025" lon="17.7537297">
        <ele>20.325</ele>
        <time>2013-05-30T16:13:52Z</time>
      </trkpt>
      <trkpt lat="59.9699696" lon="17.7538098">
        <ele>20.8057</ele>
        <time>2013-05-30T16:13:53Z</time>
      </trkpt>
      <trkpt lat="59.9699372" lon="17.7538901">
        <ele>20.8057</ele>
        <time>2013-05-30T16:13:54Z</time>
      </trkpt>
      <trkpt lat="59.9699046" lon="17.7539674">
        <ele>21.2864</ele>
        <time>2013-05-30T16:13:55Z</time>
      </trkpt>
      <trkpt lat="59.9698739" lon="17.7540491">
        <ele>21.2864</ele>
        <time>2013-05-30T16:13:56Z</time>
      </trkpt>
      <trkpt lat="59.9698424" lon="17.7541239">
        <ele>21.2864</ele>
        <time>2013-05-30T16:13:57Z</time>
      </trkpt>
      <trkpt lat="59.9698143" lon="17.7542182">
        <ele>23.209</ele>
        <time>2013-05-30T16:13:58Z</time>
      </trkpt>
      <trkpt lat="59.9697777" lon="17.7542901">
        <ele>23.209</ele>
        <time>2013-05-30T16:13:59Z</time>
      </trkpt>
      <trkpt lat="59.9697436" lon="17.7543591">
        <ele>23.209</ele>
        <time>2013-05-30T16:14:00Z</time>
      </trkpt>
      <trkpt lat="59.9697106" lon="17.7544252">
        <ele>22.7283</ele>
        <time>2013-05-30T16:14:01Z</time>
      </trkpt>
      <trkpt lat="59.9696795" lon="17.7545003">
        <ele>22.7283</ele>
        <time>2013-05-30T16:14:02Z</time>
      </trkpt>
      <trkpt lat="59.9696454" lon="17.7545776">
        <ele>23.209</ele>
        <time>2013-05-30T16:14:03Z</time>
      </trkpt>
      <trkpt lat="59.9696098" lon="17.7546551">
        <ele>23.209</ele>
        <time>2013-05-30T16:14:04Z</time>
      </trkpt>
      <trkpt lat="59.969573" lon="17.7547314">
        <ele>23.209</ele>
        <time>2013-05-30T16:14:05Z</time>
      </trkpt>
      <trkpt lat="59.9695357" lon="17.7548093">
        <ele>23.6896</ele>
        <time>2013-05-30T16:14:06Z</time>
      </trkpt>
      <trkpt lat="59.9694982" lon="17.7548888">
        <ele>23.6896</ele>
        <time>2013-05-30T16:14:07Z</time>
      </trkpt>
      <trkpt lat="59.9694607" lon="17.7549678">
        <ele>23.6896</ele>
        <time>2013-05-30T16:14:08Z</time>
      </trkpt>
      <trkpt lat="59.969426" lon="17.7550599">
        <ele>24.651</ele>
        <time>2013-05-30T16:14:09Z</time>
      </trkpt>
      <trkpt lat="59.9693921" lon="17.7551545">
        <ele>26.0929</ele>
        <time>2013-05-30T16:14:10Z</time>
      </trkpt>
      <trkpt lat="59.9693555" lon="17.7552251">
        <ele>25.1317</ele>
        <time>2013-05-30T16:14:11Z</time>
      </trkpt>
      <trkpt lat="59.9693198" lon="17.755295">
        <ele>24.1703</ele>
        <time>2013-05-30T16:14:12Z</time>
      </trkpt>
      <trkpt lat="59.9692794" lon="17.7553644">
        <ele>23.6896</ele>
        <time>2013-05-30T16:14:13Z</time>
      </trkpt>
      <trkpt lat="59.9692441" lon="17.7554604">
        <ele>25.1317</ele>
        <time>2013-05-30T16:14:14Z</time>
      </trkpt>
      <trkpt lat="59.9692103" lon="17.7555566">
        <ele>26.5736</ele>
        <time>2013-05-30T16:14:15Z</time>
      </trkpt>
      <trkpt lat="59.9691738" lon="17.7556385">
        <ele>26.5736</ele>
        <time>2013-05-30T16:14:16Z</time>
      </trkpt>
      <trkpt lat="59.9691368" lon="17.7557186">
        <ele>26.5736</ele>
        <time>2013-05-30T16:14:17Z</time>
      </trkpt>
      <trkpt lat="59.9690996" lon="17.7557968">
        <ele>26.5736</ele>
        <time>2013-05-30T16:14:18Z</time>
      </trkpt>
      <trkpt lat="59.9690617" lon="17.7558722">
        <ele>26.5736</ele>
        <time>2013-05-30T16:14:19Z</time>
      </trkpt>
      <trkpt lat="59.9690233" lon="17.7559491">
        <ele>26.5736</ele>
        <time>2013-05-30T16:14:20Z</time>
      </trkpt>
      <trkpt lat="59.968985" lon="17.7560275">
        <ele>26.5736</ele>
        <time>2013-05-30T16:14:21Z</time>
      </trkpt>
      <trkpt lat="59.9689469" lon="17.7561037">
        <ele>26.5736</ele>
        <time>2013-05-30T16:14:22Z</time>
      </trkpt>
      <trkpt lat="59.9689094" lon="17.7561793">
        <ele>27.0543</ele>
        <time>2013-05-30T16:14:23Z</time>
      </trkpt>
      <trkpt lat="59.9688722" lon="17.7562534">
        <ele>27.0543</ele>
        <time>2013-05-30T16:14:24Z</time>
      </trkpt>
      <trkpt lat="59.968835" lon="17.7563259">
        <ele>27.0543</ele>
        <time>2013-05-30T16:14:25Z</time>
      </trkpt>
      <trkpt lat="59.9687979" lon="17.7563992">
        <ele>27.0543</ele>
        <time>2013-05-30T16:14:26Z</time>
      </trkpt>
      <trkpt lat="59.9687603" lon="17.7564715">
        <ele>27.0543</ele>
        <time>2013-05-30T16:14:27Z</time>
      </trkpt>
      <trkpt lat="59.9687205" lon="17.7565396">
        <ele>27.0543</ele>
        <time>2013-05-30T16:14:28Z</time>
      </trkpt>
      <trkpt lat="59.9686798" lon="17.7566066">
        <ele>27.0543</ele>
        <time>2013-05-30T16:14:29Z</time>
      </trkpt>
      <trkpt lat="59.9686386" lon="17.756677">
        <ele>27.0543</ele>
        <time>2013-05-30T16:14:30Z</time>
      </trkpt>
      <trkpt lat="59.9686013" lon="17.7567668">
        <ele>28.0155</ele>
        <time>2013-05-30T16:14:31Z</time>
      </trkpt>
      <trkpt lat="59.9685587" lon="17.7568381">
        <ele>28.0155</ele>
        <time>2013-05-30T16:14:32Z</time>
      </trkpt>
      <trkpt lat="59.9685135" lon="17.7568992">
        <ele>27.5349</ele>
        <time>2013-05-30T16:14:33Z</time>
      </trkpt>
      <trkpt lat="59.9684676" lon="17.7569558">
        <ele>27.0543</ele>
        <time>2013-05-30T16:14:34Z</time>
      </trkpt>
      <trkpt lat="59.968422" lon="17.7570112">
        <ele>26.5736</ele>
        <time>2013-05-30T16:14:35Z</time>
      </trkpt>
      <trkpt lat="59.968374" lon="17.7570677">
        <ele>26.0929</ele>
        <time>2013-05-30T16:14:36Z</time>
      </trkpt>
      <trkpt lat="59.9683271" lon="17.7571263">
        <ele>25.6123</ele>
        <time>2013-05-30T16:14:37Z</time>
      </trkpt>
      <trkpt lat="59.9682837" lon="17.7571889">
        <ele>25.6123</ele>
        <time>2013-05-30T16:14:38Z</time>
      </trkpt>
      <trkpt lat="59.9682397" lon="17.7572586">
        <ele>25.6123</ele>
        <time>2013-05-30T16:14:39Z</time>
      </trkpt>
      <trkpt lat="59.9681925" lon="17.7573265">
        <ele>25.6123</ele>
        <time>2013-05-30T16:14:40Z</time>
      </trkpt>
      <trkpt lat="59.9681438" lon="17.7573955">
        <ele>25.6123</ele>
        <time>2013-05-30T16:14:41Z</time>
      </trkpt>
      <trkpt lat="59.9680931" lon="17.757465">
        <ele>25.6123</ele>
        <time>2013-05-30T16:14:42Z</time>
      </trkpt>
      <trkpt lat="59.9680385" lon="17.7575389">
        <ele>25.6123</ele>
        <time>2013-05-30T16:14:43Z</time>
      </trkpt>
      <trkpt lat="59.9679812" lon="17.757609">
        <ele>25.6123</ele>
        <time>2013-05-30T16:14:44Z</time>
      </trkpt>
      <trkpt lat="59.9679211" lon="17.7576778">
        <ele>25.1317</ele>
        <time>2013-05-30T16:14:45Z</time>
      </trkpt>
      <trkpt lat="59.9678598" lon="17.757751">
        <ele>25.1317</ele>
        <time>2013-05-30T16:14:46Z</time>
      </trkpt>
      <trkpt lat="59.9677952" lon="17.7578217">
        <ele>25.1317</ele>
        <time>2013-05-30T16:14:47Z</time>
      </trkpt>
      <trkpt lat="59.967728" lon="17.7578913">
        <ele>25.1317</ele>
        <time>2013-05-30T16:14:48Z</time>
      </trkpt>
      <trkpt lat="59.9676585" lon="17.7579619">
        <ele>25.1317</ele>
        <time>2013-05-30T16:14:49Z</time>
      </trkpt>
      <trkpt lat="59.9675807" lon="17.7580275">
        <ele>25.1317</ele>
        <time>2013-05-30T16:14:50Z</time>
      </trkpt>
      <trkpt lat="59.9674941" lon="17.7581155">
        <ele>25.1317</ele>
        <time>2013-05-30T16:14:51Z</time>
      </trkpt>
      <trkpt lat="59.9674321" lon="17.7581927">
        <ele>24.651</ele>
        <time>2013-05-30T16:14:52Z</time>
      </trkpt>
      <trkpt lat="59.967373" lon="17.7582596">
        <ele>24.1703</ele>
        <time>2013-05-30T16:14:53Z</time>
      </trkpt>
      <trkpt lat="59.9673057" lon="17.7583351">
        <ele>23.6896</ele>
        <time>2013-05-30T16:14:54Z</time>
      </trkpt>
      <trkpt lat="59.9672319" lon="17.7583832">
        <ele>23.6896</ele>
        <time>2013-05-30T16:14:55Z</time>
      </trkpt>
      <trkpt lat="59.9671642" lon="17.7584383">
        <ele>23.209</ele>
        <time>2013-05-30T16:14:56Z</time>
      </trkpt>
      <trkpt lat="59.9670931" lon="17.758485">
        <ele>23.6896</ele>
        <time>2013-05-30T16:14:57Z</time>
      </trkpt>
      <trkpt lat="59.9670245" lon="17.7585343">
        <ele>23.6896</ele>
        <time>2013-05-30T16:14:58Z</time>
      </trkpt>
      <trkpt lat="59.966955" lon="17.7585821">
        <ele>23.209</ele>
        <time>2013-05-30T16:14:59Z</time>
      </trkpt>
      <trkpt lat="59.9668912" lon="17.758634">
        <ele>23.209</ele>
        <time>2013-05-30T16:15:00Z</time>
      </trkpt>
      <trkpt lat="59.9668306" lon="17.7586709">
        <ele>24.651</ele>
        <time>2013-05-30T16:15:01Z</time>
      </trkpt>
      <trkpt lat="59.9667717" lon="17.7587144">
        <ele>25.6123</ele>
        <time>2013-05-30T16:15:02Z</time>
      </trkpt>
      <trkpt lat="59.9667098" lon="17.7587744">
        <ele>26.5736</ele>
        <time>2013-05-30T16:15:03Z</time>
      </trkpt>
      <trkpt lat="59.96665" lon="17.7588302">
        <ele>28.0155</ele>
        <time>2013-05-30T16:15:04Z</time>
      </trkpt>
      <trkpt lat="59.9665888" lon="17.7589019">
        <ele>29.4575</ele>
        <time>2013-05-30T16:15:05Z</time>
      </trkpt>
      <trkpt lat="59.9665275" lon="17.7589769">
        <ele>29.4575</ele>
        <time>2013-05-30T16:15:06Z</time>
      </trkpt>
      <trkpt lat="59.9664639" lon="17.7590568">
        <ele>30.4188</ele>
        <time>2013-05-30T16:15:07Z</time>
      </trkpt>
      <trkpt lat="59.9663992" lon="17.7591485">
        <ele>29.9381</ele>
        <time>2013-05-30T16:15:08Z</time>
      </trkpt>
      <trkpt lat="59.9663453" lon="17.7592479">
        <ele>29.4575</ele>
        <time>2013-05-30T16:15:09Z</time>
      </trkpt>
      <trkpt lat="59.9662879" lon="17.7593443">
        <ele>29.4575</ele>
        <time>2013-05-30T16:15:10Z</time>
      </trkpt>
      <trkpt lat="59.9662292" lon="17.7594499">
        <ele>29.4575</ele>
        <time>2013-05-30T16:15:11Z</time>
      </trkpt>
      <trkpt lat="59.9661686" lon="17.7595612">
        <ele>29.9381</ele>
        <time>2013-05-30T16:15:12Z</time>
      </trkpt>
      <trkpt lat="59.9661107" lon="17.7596785">
        <ele>30.8995</ele>
        <time>2013-05-30T16:15:13Z</time>
      </trkpt>
      <trkpt lat="59.9660594" lon="17.7597937">
        <ele>30.8995</ele>
        <time>2013-05-30T16:15:14Z</time>
      </trkpt>
      <trkpt lat="59.9660019" lon="17.7599051">
        <ele>30.8995</ele>
        <time>2013-05-30T16:15:15Z</time>
      </trkpt>
      <trkpt lat="59.9659416" lon="17.7600171">
        <ele>31.8607</ele>
        <time>2013-05-30T16:15:16Z</time>
      </trkpt>
      <trkpt lat="59.9658792" lon="17.7601286">
        <ele>32.3416</ele>
        <time>2013-05-30T16:15:17Z</time>
      </trkpt>
      <trkpt lat="59.9658181" lon="17.760228">
        <ele>31.8607</ele>
        <time>2013-05-30T16:15:18Z</time>
      </trkpt>
      <trkpt lat="59.9657573" lon="17.7603288">
        <ele>31.8607</ele>
        <time>2013-05-30T16:15:19Z</time>
      </trkpt>
      <trkpt lat="59.9657004" lon="17.7604234">
        <ele>31.3801</ele>
        <time>2013-05-30T16:15:20Z</time>
      </trkpt>
      <trkpt lat="59.9656385" lon="17.7605048">
        <ele>30.8995</ele>
        <time>2013-05-30T16:15:21Z</time>
      </trkpt>
      <trkpt lat="59.9655819" lon="17.7605901">
        <ele>29.9381</ele>
        <time>2013-05-30T16:15:22Z</time>
      </trkpt>
      <trkpt lat="59.9655295" lon="17.7606834">
        <ele>29.9381</ele>
        <time>2013-05-30T16:15:23Z</time>
      </trkpt>
      <trkpt lat="59.965479" lon="17.7607911">
        <ele>30.8995</ele>
        <time>2013-05-30T16:15:24Z</time>
      </trkpt>
      <trkpt lat="59.9654264" lon="17.7608881">
        <ele>30.8995</ele>
        <time>2013-05-30T16:15:25Z</time>
      </trkpt>
      <trkpt lat="59.9653766" lon="17.7609906">
        <ele>30.8995</ele>
        <time>2013-05-30T16:15:26Z</time>
      </trkpt>
      <trkpt lat="59.9653296" lon="17.761106">
        <ele>31.3801</ele>
        <time>2013-05-30T16:15:27Z</time>
      </trkpt>
      <trkpt lat="59.965285" lon="17.761234">
        <ele>32.8223</ele>
        <time>2013-05-30T16:15:28Z</time>
      </trkpt>
      <trkpt lat="59.9652405" lon="17.7613493">
        <ele>32.8223</ele>
        <time>2013-05-30T16:15:29Z</time>
      </trkpt>
      <trkpt lat="59.9651983" lon="17.7614546">
        <ele>32.8223</ele>
        <time>2013-05-30T16:15:30Z</time>
      </trkpt>
      <trkpt lat="59.9651576" lon="17.7615558">
        <ele>32.3416</ele>
        <time>2013-05-30T16:15:31Z</time>
      </trkpt>
      <trkpt lat="59.9651161" lon="17.761654">
        <ele>31.3801</ele>
        <time>2013-05-30T16:15:32Z</time>
      </trkpt>
      <trkpt lat="59.9650724" lon="17.7617562">
        <ele>30.8995</ele>
        <time>2013-05-30T16:15:33Z</time>
      </trkpt>
      <trkpt lat="59.9650363" lon="17.7618443">
        <ele>29.4575</ele>
        <time>2013-05-30T16:15:34Z</time>
      </trkpt>
      <trkpt lat="59.9649984" lon="17.7619355">
        <ele>28.4962</ele>
        <time>2013-05-30T16:15:35Z</time>
      </trkpt>
      <trkpt lat="59.9649592" lon="17.7620302">
        <ele>27.5349</ele>
        <time>2013-05-30T16:15:36Z</time>
      </trkpt>
      <trkpt lat="59.9649199" lon="17.7621296">
        <ele>26.0929</ele>
        <time>2013-05-30T16:15:37Z</time>
      </trkpt>
      <trkpt lat="59.9648779" lon="17.7622348">
        <ele>25.1317</ele>
        <time>2013-05-30T16:15:38Z</time>
      </trkpt>
      <trkpt lat="59.9648393" lon="17.7623332">
        <ele>23.6896</ele>
        <time>2013-05-30T16:15:39Z</time>
      </trkpt>
      <trkpt lat="59.9648012" lon="17.7624307">
        <ele>22.7283</ele>
        <time>2013-05-30T16:15:40Z</time>
      </trkpt>
      <trkpt lat="59.9647597" lon="17.7625281">
        <ele>21.767</ele>
        <time>2013-05-30T16:15:41Z</time>
      </trkpt>
      <trkpt lat="59.9647246" lon="17.7626351">
        <ele>21.2864</ele>
        <time>2013-05-30T16:15:42Z</time>
      </trkpt>
      <trkpt lat="59.9646918" lon="17.7627457">
        <ele>21.767</ele>
        <time>2013-05-30T16:15:43Z</time>
      </trkpt>
      <trkpt lat="59.9646655" lon="17.7628585">
        <ele>22.2476</ele>
        <time>2013-05-30T16:15:44Z</time>
      </trkpt>
      <trkpt lat="59.9646433" lon="17.7629751">
        <ele>22.2476</ele>
        <time>2013-05-30T16:15:45Z</time>
      </trkpt>
      <trkpt lat="59.9646172" lon="17.7630864">
        <ele>22.2476</ele>
        <time>2013-05-30T16:15:46Z</time>
      </trkpt>
      <trkpt lat="59.9645929" lon="17.7632019">
        <ele>22.2476</ele>
        <time>2013-05-30T16:15:47Z</time>
      </trkpt>
      <trkpt lat="59.9645679" lon="17.76332">
        <ele>22.7283</ele>
        <time>2013-05-30T16:15:48Z</time>
      </trkpt>
      <trkpt lat="59.9645433" lon="17.7634365">
        <ele>22.7283</ele>
        <time>2013-05-30T16:15:49Z</time>
      </trkpt>
      <trkpt lat="59.9645152" lon="17.7635485">
        <ele>23.209</ele>
        <time>2013-05-30T16:15:50Z</time>
      </trkpt>
      <trkpt lat="59.9644893" lon="17.7636555">
        <ele>22.7283</ele>
        <time>2013-05-30T16:15:51Z</time>
      </trkpt>
      <trkpt lat="59.9644606" lon="17.7637655">
        <ele>23.209</ele>
        <time>2013-05-30T16:15:52Z</time>
      </trkpt>
      <trkpt lat="59.9644317" lon="17.7638843">
        <ele>23.6896</ele>
        <time>2013-05-30T16:15:53Z</time>
      </trkpt>
      <trkpt lat="59.9644041" lon="17.764">
        <ele>24.1703</ele>
        <time>2013-05-30T16:15:54Z</time>
      </trkpt>
      <trkpt lat="59.9643726" lon="17.7641115">
        <ele>24.1703</ele>
        <time>2013-05-30T16:15:55Z</time>
      </trkpt>
      <trkpt lat="59.9643406" lon="17.7642167">
        <ele>24.1703</ele>
        <time>2013-05-30T16:15:56Z</time>
      </trkpt>
      <trkpt lat="59.9643075" lon="17.7643203">
        <ele>23.6896</ele>
        <time>2013-05-30T16:15:57Z</time>
      </trkpt>
      <trkpt lat="59.9642762" lon="17.7644339">
        <ele>24.651</ele>
        <time>2013-05-30T16:15:58Z</time>
      </trkpt>
      <trkpt lat="59.9642448" lon="17.7645372">
        <ele>24.1703</ele>
        <time>2013-05-30T16:15:59Z</time>
      </trkpt>
      <trkpt lat="59.9642189" lon="17.7646528">
        <ele>25.1317</ele>
        <time>2013-05-30T16:16:00Z</time>
      </trkpt>
      <trkpt lat="59.9641893" lon="17.7647584">
        <ele>25.1317</ele>
        <time>2013-05-30T16:16:01Z</time>
      </trkpt>
      <trkpt lat="59.9641588" lon="17.7648601">
        <ele>25.1317</ele>
        <time>2013-05-30T16:16:02Z</time>
      </trkpt>
      <trkpt lat="59.964134" lon="17.7649699">
        <ele>25.1317</ele>
        <time>2013-05-30T16:16:03Z</time>
      </trkpt>
      <trkpt lat="59.9641141" lon="17.7650766">
        <ele>25.6123</ele>
        <time>2013-05-30T16:16:04Z</time>
      </trkpt>
      <trkpt lat="59.9640992" lon="17.7651745">
        <ele>25.6123</ele>
        <time>2013-05-30T16:16:05Z</time>
      </trkpt>
      <trkpt lat="59.9640832" lon="17.7652687">
        <ele>26.0929</ele>
        <time>2013-05-30T16:16:06Z</time>
      </trkpt>
      <trkpt lat="59.9640722" lon="17.7653649">
        <ele>27.0543</ele>
        <time>2013-05-30T16:16:07Z</time>
      </trkpt>
      <trkpt lat="59.9640591" lon="17.7654444">
        <ele>27.0543</ele>
        <time>2013-05-30T16:16:08Z</time>
      </trkpt>
      <trkpt lat="59.9640484" lon="17.7655173">
        <ele>25.6123</ele>
        <time>2013-05-30T16:16:09Z</time>
      </trkpt>
      <trkpt lat="59.9640355" lon="17.7655925">
        <ele>25.1317</ele>
        <time>2013-05-30T16:16:10Z</time>
      </trkpt>
      <trkpt lat="59.9640319" lon="17.7656739">
        <ele>25.1317</ele>
        <time>2013-05-30T16:16:11Z</time>
      </trkpt>
      <trkpt lat="59.9640267" lon="17.7657465">
        <ele>25.1317</ele>
        <time>2013-05-30T16:16:12Z</time>
      </trkpt>
      <trkpt lat="59.9640179" lon="17.7658272">
        <ele>26.0929</ele>
        <time>2013-05-30T16:16:13Z</time>
      </trkpt>
      <trkpt lat="59.9640142" lon="17.7658863">
        <ele>26.0929</ele>
        <time>2013-05-30T16:16:14Z</time>
      </trkpt>
      <trkpt lat="59.9640123" lon="17.7659506">
        <ele>26.5736</ele>
        <time>2013-05-30T16:16:15Z</time>
      </trkpt>
      <trkpt lat="59.9640074" lon="17.7660068">
        <ele>27.0543</ele>
        <time>2013-05-30T16:16:16Z</time>
      </trkpt>
      <trkpt lat="59.9640079" lon="17.7660717">
        <ele>27.5349</ele>
        <time>2013-05-30T16:16:17Z</time>
      </trkpt>
      <trkpt lat="59.9640089" lon="17.766119">
        <ele>27.5349</ele>
        <time>2013-05-30T16:16:18Z</time>
      </trkpt>
      <trkpt lat="59.9640123" lon="17.7661622">
        <ele>28.0155</ele>
        <time>2013-05-30T16:16:19Z</time>
      </trkpt>
      <trkpt lat="59.9640144" lon="17.7662265">
        <ele>28.9769</ele>
        <time>2013-05-30T16:16:20Z</time>
      </trkpt>
      <trkpt lat="59.9640142" lon="17.7662766">
        <ele>28.9769</ele>
        <time>2013-05-30T16:16:21Z</time>
      </trkpt>
      <trkpt lat="59.9640127" lon="17.7663249">
        <ele>28.4962</ele>
        <time>2013-05-30T16:16:22Z</time>
      </trkpt>
      <trkpt lat="59.9640122" lon="17.7663824">
        <ele>28.4962</ele>
        <time>2013-05-30T16:16:23Z</time>
      </trkpt>
      <trkpt lat="59.9640122" lon="17.7664455">
        <ele>28.9769</ele>
        <time>2013-05-30T16:16:24Z</time>
      </trkpt>
      <trkpt lat="59.9640132" lon="17.7665214">
        <ele>29.9381</ele>
        <time>2013-05-30T16:16:25Z</time>
      </trkpt>
      <trkpt lat="59.9640157" lon="17.7665813">
        <ele>29.4575</ele>
        <time>2013-05-30T16:16:26Z</time>
      </trkpt>
      <trkpt lat="59.96402" lon="17.7666638">
        <ele>30.4188</ele>
        <time>2013-05-30T16:16:27Z</time>
      </trkpt>
      <trkpt lat="59.9640235" lon="17.766748">
        <ele>30.8995</ele>
        <time>2013-05-30T16:16:28Z</time>
      </trkpt>
      <trkpt lat="59.9640273" lon="17.7668384">
        <ele>31.8607</ele>
        <time>2013-05-30T16:16:29Z</time>
      </trkpt>
      <trkpt lat="59.9640294" lon="17.7669273">
        <ele>32.8223</ele>
        <time>2013-05-30T16:16:30Z</time>
      </trkpt>
      <trkpt lat="59.9640292" lon="17.7670162">
        <ele>33.3029</ele>
        <time>2013-05-30T16:16:31Z</time>
      </trkpt>
      <trkpt lat="59.9640265" lon="17.7671062">
        <ele>33.7834</ele>
        <time>2013-05-30T16:16:32Z</time>
      </trkpt>
      <trkpt lat="59.9640205" lon="17.7671946">
        <ele>33.7834</ele>
        <time>2013-05-30T16:16:33Z</time>
      </trkpt>
      <trkpt lat="59.9640105" lon="17.7672821">
        <ele>33.7834</ele>
        <time>2013-05-30T16:16:34Z</time>
      </trkpt>
      <trkpt lat="59.9639972" lon="17.7673735">
        <ele>33.7834</ele>
        <time>2013-05-30T16:16:35Z</time>
      </trkpt>
      <trkpt lat="59.9639816" lon="17.7674579">
        <ele>33.3029</ele>
        <time>2013-05-30T16:16:36Z</time>
      </trkpt>
      <trkpt lat="59.9639667" lon="17.7675481">
        <ele>33.7834</ele>
        <time>2013-05-30T16:16:37Z</time>
      </trkpt>
      <trkpt lat="59.9639515" lon="17.7676432">
        <ele>33.7834</ele>
        <time>2013-05-30T16:16:38Z</time>
      </trkpt>
      <trkpt lat="59.9639356" lon="17.7677364">
        <ele>33.7834</ele>
        <time>2013-05-30T16:16:39Z</time>
      </trkpt>
      <trkpt lat="59.963919" lon="17.7678277">
        <ele>33.7834</ele>
        <time>2013-05-30T16:16:40Z</time>
      </trkpt>
      <trkpt lat="59.9639006" lon="17.7679158">
        <ele>33.3029</ele>
        <time>2013-05-30T16:16:41Z</time>
      </trkpt>
      <trkpt lat="59.9638786" lon="17.7680153">
        <ele>33.3029</ele>
        <time>2013-05-30T16:16:42Z</time>
      </trkpt>
      <trkpt lat="59.9638525" lon="17.7681132">
        <ele>31.8607</ele>
        <time>2013-05-30T16:16:43Z</time>
      </trkpt>
      <trkpt lat="59.9638262" lon="17.7682163">
        <ele>30.8995</ele>
        <time>2013-05-30T16:16:44Z</time>
      </trkpt>
      <trkpt lat="59.9637989" lon="17.7683221">
        <ele>30.4188</ele>
        <time>2013-05-30T16:16:45Z</time>
      </trkpt>
      <trkpt lat="59.9637697" lon="17.7684302">
        <ele>29.9381</ele>
        <time>2013-05-30T16:16:46Z</time>
      </trkpt>
      <trkpt lat="59.9637369" lon="17.7685396">
        <ele>28.9769</ele>
        <time>2013-05-30T16:16:47Z</time>
      </trkpt>
      <trkpt lat="59.963703" lon="17.76865">
        <ele>28.0155</ele>
        <time>2013-05-30T16:16:48Z</time>
      </trkpt>
      <trkpt lat="59.9636698" lon="17.7687581">
        <ele>27.5349</ele>
        <time>2013-05-30T16:16:49Z</time>
      </trkpt>
      <trkpt lat="59.9636372" lon="17.7688627">
        <ele>28.0155</ele>
        <time>2013-05-30T16:16:50Z</time>
      </trkpt>
      <trkpt lat="59.9636056" lon="17.7689688">
        <ele>27.5349</ele>
        <time>2013-05-30T16:16:51Z</time>
      </trkpt>
      <trkpt lat="59.9635761" lon="17.7690736">
        <ele>27.5349</ele>
        <time>2013-05-30T16:16:52Z</time>
      </trkpt>
      <trkpt lat="59.9635466" lon="17.7691777">
        <ele>27.0543</ele>
        <time>2013-05-30T16:16:53Z</time>
      </trkpt>
      <trkpt lat="59.9635174" lon="17.7692792">
        <ele>27.0543</ele>
        <time>2013-05-30T16:16:54Z</time>
      </trkpt>
      <trkpt lat="59.96349" lon="17.7693807">
        <ele>26.5736</ele>
        <time>2013-05-30T16:16:55Z</time>
      </trkpt>
      <trkpt lat="59.9634643" lon="17.7694765">
        <ele>26.5736</ele>
        <time>2013-05-30T16:16:56Z</time>
      </trkpt>
      <trkpt lat="59.9634408" lon="17.7695735">
        <ele>26.0929</ele>
        <time>2013-05-30T16:16:57Z</time>
      </trkpt>
      <trkpt lat="59.9634222" lon="17.7696795">
        <ele>26.5736</ele>
        <time>2013-05-30T16:16:58Z</time>
      </trkpt>
      <trkpt lat="59.9634139" lon="17.7697934">
        <ele>27.0543</ele>
        <time>2013-05-30T16:16:59Z</time>
      </trkpt>
      <trkpt lat="59.9634087" lon="17.769898">
        <ele>27.0543</ele>
        <time>2013-05-30T16:17:00Z</time>
      </trkpt>
      <trkpt lat="59.9634041" lon="17.7700013">
        <ele>27.0543</ele>
        <time>2013-05-30T16:17:01Z</time>
      </trkpt>
      <trkpt lat="59.9634028" lon="17.7701063">
        <ele>27.0543</ele>
        <time>2013-05-30T16:17:02Z</time>
      </trkpt>
      <trkpt lat="59.9634041" lon="17.7702154">
        <ele>27.0543</ele>
        <time>2013-05-30T16:17:03Z</time>
      </trkpt>
      <trkpt lat="59.9634072" lon="17.7703277">
        <ele>27.5349</ele>
        <time>2013-05-30T16:17:04Z</time>
      </trkpt>
      <trkpt lat="59.9634129" lon="17.7704417">
        <ele>28.0155</ele>
        <time>2013-05-30T16:17:05Z</time>
      </trkpt>
      <trkpt lat="59.9634202" lon="17.7705601">
        <ele>28.4962</ele>
        <time>2013-05-30T16:17:06Z</time>
      </trkpt>
      <trkpt lat="59.9634324" lon="17.7706823">
        <ele>28.9769</ele>
        <time>2013-05-30T16:17:07Z</time>
      </trkpt>
      <trkpt lat="59.9634466" lon="17.7708101">
        <ele>29.9381</ele>
        <time>2013-05-30T16:17:08Z</time>
      </trkpt>
      <trkpt lat="59.9634626" lon="17.77094">
        <ele>30.8995</ele>
        <time>2013-05-30T16:17:09Z</time>
      </trkpt>
      <trkpt lat="59.9634864" lon="17.7710667">
        <ele>31.3801</ele>
        <time>2013-05-30T16:17:10Z</time>
      </trkpt>
      <trkpt lat="59.9635123" lon="17.7711929">
        <ele>31.8607</ele>
        <time>2013-05-30T16:17:11Z</time>
      </trkpt>
      <trkpt lat="59.9635398" lon="17.7713166">
        <ele>31.8607</ele>
        <time>2013-05-30T16:17:12Z</time>
      </trkpt>
      <trkpt lat="59.9635686" lon="17.7714357">
        <ele>31.8607</ele>
        <time>2013-05-30T16:17:13Z</time>
      </trkpt>
      <trkpt lat="59.9635967" lon="17.7715527">
        <ele>32.3416</ele>
        <time>2013-05-30T16:17:14Z</time>
      </trkpt>
      <trkpt lat="59.9636251" lon="17.7716699">
        <ele>32.3416</ele>
        <time>2013-05-30T16:17:15Z</time>
      </trkpt>
      <trkpt lat="59.9636544" lon="17.771788">
        <ele>32.3416</ele>
        <time>2013-05-30T16:17:16Z</time>
      </trkpt>
      <trkpt lat="59.9636839" lon="17.7719077">
        <ele>32.8223</ele>
        <time>2013-05-30T16:17:17Z</time>
      </trkpt>
      <trkpt lat="59.9637133" lon="17.7720294">
        <ele>32.8223</ele>
        <time>2013-05-30T16:17:18Z</time>
      </trkpt>
      <trkpt lat="59.9637427" lon="17.7721557">
        <ele>32.3416</ele>
        <time>2013-05-30T16:17:19Z</time>
      </trkpt>
      <trkpt lat="59.9637706" lon="17.7722862">
        <ele>32.3416</ele>
        <time>2013-05-30T16:17:20Z</time>
      </trkpt>
      <trkpt lat="59.9637957" lon="17.7724197">
        <ele>32.3416</ele>
        <time>2013-05-30T16:17:21Z</time>
      </trkpt>
      <trkpt lat="59.9638185" lon="17.7725556">
        <ele>32.3416</ele>
        <time>2013-05-30T16:17:22Z</time>
      </trkpt>
      <trkpt lat="59.9638381" lon="17.7726929">
        <ele>32.3416</ele>
        <time>2013-05-30T16:17:23Z</time>
      </trkpt>
      <trkpt lat="59.9638515" lon="17.7728289">
        <ele>32.3416</ele>
        <time>2013-05-30T16:17:24Z</time>
      </trkpt>
      <trkpt lat="59.9638609" lon="17.7729616">
        <ele>31.8607</ele>
        <time>2013-05-30T16:17:25Z</time>
      </trkpt>
      <trkpt lat="59.9638625" lon="17.7730901">
        <ele>31.3801</ele>
        <time>2013-05-30T16:17:26Z</time>
      </trkpt>
      <trkpt lat="59.9638582" lon="17.7732159">
        <ele>30.8995</ele>
        <time>2013-05-30T16:17:27Z</time>
      </trkpt>
      <trkpt lat="59.9638489" lon="17.7733395">
        <ele>30.4188</ele>
        <time>2013-05-30T16:17:28Z</time>
      </trkpt>
      <trkpt lat="59.9638354" lon="17.7734637">
        <ele>29.9381</ele>
        <time>2013-05-30T16:17:29Z</time>
      </trkpt>
      <trkpt lat="59.9638186" lon="17.7735875">
        <ele>29.9381</ele>
        <time>2013-05-30T16:17:30Z</time>
      </trkpt>
      <trkpt lat="59.9638003" lon="17.7737099">
        <ele>29.9381</ele>
        <time>2013-05-30T16:17:31Z</time>
      </trkpt>
      <trkpt lat="59.9637776" lon="17.7738228">
        <ele>29.4575</ele>
        <time>2013-05-30T16:17:32Z</time>
      </trkpt>
      <trkpt lat="59.9637532" lon="17.7739336">
        <ele>28.9769</ele>
        <time>2013-05-30T16:17:33Z</time>
      </trkpt>
      <trkpt lat="59.9637282" lon="17.7740444">
        <ele>28.4962</ele>
        <time>2013-05-30T16:17:34Z</time>
      </trkpt>
      <trkpt lat="59.9637067" lon="17.7741642">
        <ele>28.9769</ele>
        <time>2013-05-30T16:17:35Z</time>
      </trkpt>
      <trkpt lat="59.9636865" lon="17.7742792">
        <ele>28.9769</ele>
        <time>2013-05-30T16:17:36Z</time>
      </trkpt>
      <trkpt lat="59.9636704" lon="17.7743998">
        <ele>28.4962</ele>
        <time>2013-05-30T16:17:37Z</time>
      </trkpt>
      <trkpt lat="59.9636549" lon="17.7745251">
        <ele>28.9769</ele>
        <time>2013-05-30T16:17:38Z</time>
      </trkpt>
      <trkpt lat="59.9636366" lon="17.7746474">
        <ele>28.4962</ele>
        <time>2013-05-30T16:17:39Z</time>
      </trkpt>
      <trkpt lat="59.9636162" lon="17.7747716">
        <ele>28.4962</ele>
        <time>2013-05-30T16:17:40Z</time>
      </trkpt>
      <trkpt lat="59.9635932" lon="17.7748958">
        <ele>28.4962</ele>
        <time>2013-05-30T16:17:41Z</time>
      </trkpt>
      <trkpt lat="59.9635672" lon="17.7750146">
        <ele>28.0155</ele>
        <time>2013-05-30T16:17:42Z</time>
      </trkpt>
      <trkpt lat="59.9635386" lon="17.7751306">
        <ele>28.0155</ele>
        <time>2013-05-30T16:17:43Z</time>
      </trkpt>
      <trkpt lat="59.9635113" lon="17.775256">
        <ele>28.4962</ele>
        <time>2013-05-30T16:17:44Z</time>
      </trkpt>
      <trkpt lat="59.9634785" lon="17.7753689">
        <ele>28.0155</ele>
        <time>2013-05-30T16:17:45Z</time>
      </trkpt>
      <trkpt lat="59.9634439" lon="17.7754767">
        <ele>28.0155</ele>
        <time>2013-05-30T16:17:46Z</time>
      </trkpt>
      <trkpt lat="59.9634093" lon="17.7755823">
        <ele>28.0155</ele>
        <time>2013-05-30T16:17:47Z</time>
      </trkpt>
      <trkpt lat="59.9633751" lon="17.7756855">
        <ele>28.0155</ele>
        <time>2013-05-30T16:17:48Z</time>
      </trkpt>
      <trkpt lat="59.9633417" lon="17.7757865">
        <ele>28.0155</ele>
        <time>2013-05-30T16:17:49Z</time>
      </trkpt>
      <trkpt lat="59.9633104" lon="17.7758884">
        <ele>28.0155</ele>
        <time>2013-05-30T16:17:50Z</time>
      </trkpt>
      <trkpt lat="59.963279" lon="17.7759883">
        <ele>28.0155</ele>
        <time>2013-05-30T16:17:51Z</time>
      </trkpt>
      <trkpt lat="59.9632459" lon="17.7760854">
        <ele>28.0155</ele>
        <time>2013-05-30T16:17:52Z</time>
      </trkpt>
      <trkpt lat="59.963214" lon="17.7761833">
        <ele>28.0155</ele>
        <time>2013-05-30T16:17:53Z</time>
      </trkpt>
      <trkpt lat="59.9631835" lon="17.7762826">
        <ele>28.0155</ele>
        <time>2013-05-30T16:17:54Z</time>
      </trkpt>
      <trkpt lat="59.9631528" lon="17.7763815">
        <ele>27.5349</ele>
        <time>2013-05-30T16:17:55Z</time>
      </trkpt>
      <trkpt lat="59.9631218" lon="17.7764799">
        <ele>27.5349</ele>
        <time>2013-05-30T16:17:56Z</time>
      </trkpt>
      <trkpt lat="59.9630927" lon="17.7765801">
        <ele>27.0543</ele>
        <time>2013-05-30T16:17:57Z</time>
      </trkpt>
      <trkpt lat="59.9630648" lon="17.7766765">
        <ele>26.5736</ele>
        <time>2013-05-30T16:17:58Z</time>
      </trkpt>
      <trkpt lat="59.9630352" lon="17.7767742">
        <ele>26.5736</ele>
        <time>2013-05-30T16:17:59Z</time>
      </trkpt>
      <trkpt lat="59.9630024" lon="17.7768774">
        <ele>26.0929</ele>
        <time>2013-05-30T16:18:00Z</time>
      </trkpt>
      <trkpt lat="59.9629665" lon="17.7769826">
        <ele>25.6123</ele>
        <time>2013-05-30T16:18:01Z</time>
      </trkpt>
      <trkpt lat="59.9629265" lon="17.7770871">
        <ele>25.6123</ele>
        <time>2013-05-30T16:18:02Z</time>
      </trkpt>
      <trkpt lat="59.9628829" lon="17.7771903">
        <ele>25.1317</ele>
        <time>2013-05-30T16:18:03Z</time>
      </trkpt>
      <trkpt lat="59.962837" lon="17.7772935">
        <ele>25.1317</ele>
        <time>2013-05-30T16:18:04Z</time>
      </trkpt>
      <trkpt lat="59.9627898" lon="17.7773985">
        <ele>25.1317</ele>
        <time>2013-05-30T16:18:05Z</time>
      </trkpt>
      <trkpt lat="59.9627414" lon="17.7774985">
        <ele>25.1317</ele>
        <time>2013-05-30T16:18:06Z</time>
      </trkpt>
      <trkpt lat="59.9626931" lon="17.777597">
        <ele>25.1317</ele>
        <time>2013-05-30T16:18:07Z</time>
      </trkpt>
      <trkpt lat="59.9626456" lon="17.7776964">
        <ele>25.1317</ele>
        <time>2013-05-30T16:18:08Z</time>
      </trkpt>
      <trkpt lat="59.962598" lon="17.7777964">
        <ele>25.1317</ele>
        <time>2013-05-30T16:18:09Z</time>
      </trkpt>
      <trkpt lat="59.9625504" lon="17.7778985">
        <ele>25.1317</ele>
        <time>2013-05-30T16:18:10Z</time>
      </trkpt>
      <trkpt lat="59.9625033" lon="17.7780023">
        <ele>25.1317</ele>
        <time>2013-05-30T16:18:11Z</time>
      </trkpt>
      <trkpt lat="59.9624566" lon="17.7781067">
        <ele>25.1317</ele>
        <time>2013-05-30T16:18:12Z</time>
      </trkpt>
      <trkpt lat="59.9624098" lon="17.7782108">
        <ele>25.1317</ele>
        <time>2013-05-30T16:18:13Z</time>
      </trkpt>
      <trkpt lat="59.9623629" lon="17.7783147">
        <ele>25.1317</ele>
        <time>2013-05-30T16:18:14Z</time>
      </trkpt>
      <trkpt lat="59.9623174" lon="17.7784194">
        <ele>25.1317</ele>
        <time>2013-05-30T16:18:15Z</time>
      </trkpt>
      <trkpt lat="59.9622741" lon="17.7785252">
        <ele>25.1317</ele>
        <time>2013-05-30T16:18:16Z</time>
      </trkpt>
      <trkpt lat="59.9622318" lon="17.7786308">
        <ele>25.6123</ele>
        <time>2013-05-30T16:18:17Z</time>
      </trkpt>
      <trkpt lat="59.9621894" lon="17.7787344">
        <ele>25.6123</ele>
        <time>2013-05-30T16:18:18Z</time>
      </trkpt>
      <trkpt lat="59.962147" lon="17.7788355">
        <ele>25.6123</ele>
        <time>2013-05-30T16:18:19Z</time>
      </trkpt>
      <trkpt lat="59.962105" lon="17.7789354">
        <ele>26.0929</ele>
        <time>2013-05-30T16:18:20Z</time>
      </trkpt>
      <trkpt lat="59.9620628" lon="17.7790327">
        <ele>26.0929</ele>
        <time>2013-05-30T16:18:21Z</time>
      </trkpt>
      <trkpt lat="59.9620189" lon="17.7791262">
        <ele>26.0929</ele>
        <time>2013-05-30T16:18:22Z</time>
      </trkpt>
      <trkpt lat="59.9619747" lon="17.7792178">
        <ele>26.5736</ele>
        <time>2013-05-30T16:18:23Z</time>
      </trkpt>
      <trkpt lat="59.9619317" lon="17.779311">
        <ele>26.5736</ele>
        <time>2013-05-30T16:18:24Z</time>
      </trkpt>
      <trkpt lat="59.9618893" lon="17.7794043">
        <ele>27.0543</ele>
        <time>2013-05-30T16:18:25Z</time>
      </trkpt>
      <trkpt lat="59.9618474" lon="17.779499">
        <ele>27.0543</ele>
        <time>2013-05-30T16:18:26Z</time>
      </trkpt>
      <trkpt lat="59.9618055" lon="17.7795939">
        <ele>27.0543</ele>
        <time>2013-05-30T16:18:27Z</time>
      </trkpt>
      <trkpt lat="59.9617639" lon="17.7796898">
        <ele>27.5349</ele>
        <time>2013-05-30T16:18:28Z</time>
      </trkpt>
      <trkpt lat="59.9617239" lon="17.7797881">
        <ele>27.5349</ele>
        <time>2013-05-30T16:18:29Z</time>
      </trkpt>
      <trkpt lat="59.9616858" lon="17.7798879">
        <ele>27.5349</ele>
        <time>2013-05-30T16:18:30Z</time>
      </trkpt>
      <trkpt lat="59.9616473" lon="17.7799843">
        <ele>27.5349</ele>
        <time>2013-05-30T16:18:31Z</time>
      </trkpt>
      <trkpt lat="59.961606" lon="17.7800756">
        <ele>27.5349</ele>
        <time>2013-05-30T16:18:32Z</time>
      </trkpt>
      <trkpt lat="59.9615636" lon="17.7801648">
        <ele>27.5349</ele>
        <time>2013-05-30T16:18:33Z</time>
      </trkpt>
      <trkpt lat="59.9615206" lon="17.7802523">
        <ele>27.5349</ele>
        <time>2013-05-30T16:18:34Z</time>
      </trkpt>
      <trkpt lat="59.9614764" lon="17.7803393">
        <ele>27.5349</ele>
        <time>2013-05-30T16:18:35Z</time>
      </trkpt>
      <trkpt lat="59.9614311" lon="17.7804256">
        <ele>28.0155</ele>
        <time>2013-05-30T16:18:36Z</time>
      </trkpt>
      <trkpt lat="59.9613854" lon="17.7805106">
        <ele>28.0155</ele>
        <time>2013-05-30T16:18:37Z</time>
      </trkpt>
      <trkpt lat="59.9613389" lon="17.780596">
        <ele>28.0155</ele>
        <time>2013-05-30T16:18:38Z</time>
      </trkpt>
      <trkpt lat="59.9612922" lon="17.780683">
        <ele>28.0155</ele>
        <time>2013-05-30T16:18:39Z</time>
      </trkpt>
      <trkpt lat="59.961245" lon="17.7807702">
        <ele>28.0155</ele>
        <time>2013-05-30T16:18:40Z</time>
      </trkpt>
      <trkpt lat="59.9611973" lon="17.7808588">
        <ele>28.0155</ele>
        <time>2013-05-30T16:18:41Z</time>
      </trkpt>
      <trkpt lat="59.9611491" lon="17.7809474">
        <ele>28.0155</ele>
        <time>2013-05-30T16:18:42Z</time>
      </trkpt>
      <trkpt lat="59.961101" lon="17.7810365">
        <ele>28.0155</ele>
        <time>2013-05-30T16:18:43Z</time>
      </trkpt>
      <trkpt lat="59.9610534" lon="17.7811261">
        <ele>28.4962</ele>
        <time>2013-05-30T16:18:44Z</time>
      </trkpt>
      <trkpt lat="59.9610053" lon="17.7812131">
        <ele>28.4962</ele>
        <time>2013-05-30T16:18:45Z</time>
      </trkpt>
      <trkpt lat="59.9609568" lon="17.7812977">
        <ele>28.4962</ele>
        <time>2013-05-30T16:18:46Z</time>
      </trkpt>
      <trkpt lat="59.9609084" lon="17.7813832">
        <ele>28.4962</ele>
        <time>2013-05-30T16:18:47Z</time>
      </trkpt>
      <trkpt lat="59.9608602" lon="17.7814704">
        <ele>28.4962</ele>
        <time>2013-05-30T16:18:48Z</time>
      </trkpt>
      <trkpt lat="59.9608118" lon="17.7815571">
        <ele>28.4962</ele>
        <time>2013-05-30T16:18:49Z</time>
      </trkpt>
      <trkpt lat="59.9607622" lon="17.7816426">
        <ele>28.4962</ele>
        <time>2013-05-30T16:18:50Z</time>
      </trkpt>
      <trkpt lat="59.9607144" lon="17.7817322">
        <ele>28.9769</ele>
        <time>2013-05-30T16:18:51Z</time>
      </trkpt>
      <trkpt lat="59.9606677" lon="17.7818232">
        <ele>28.9769</ele>
        <time>2013-05-30T16:18:52Z</time>
      </trkpt>
      <trkpt lat="59.9606229" lon="17.7819174">
        <ele>29.4575</ele>
        <time>2013-05-30T16:18:53Z</time>
      </trkpt>
      <trkpt lat="59.9605794" lon="17.7820096">
        <ele>29.4575</ele>
        <time>2013-05-30T16:18:54Z</time>
      </trkpt>
      <trkpt lat="59.9605387" lon="17.7821084">
        <ele>29.9381</ele>
        <time>2013-05-30T16:18:55Z</time>
      </trkpt>
      <trkpt lat="59.9605006" lon="17.7822067">
        <ele>29.9381</ele>
        <time>2013-05-30T16:18:56Z</time>
      </trkpt>
      <trkpt lat="59.9604668" lon="17.7823067">
        <ele>30.4188</ele>
        <time>2013-05-30T16:18:57Z</time>
      </trkpt>
      <trkpt lat="59.9604344" lon="17.7824062">
        <ele>30.4188</ele>
        <time>2013-05-30T16:18:58Z</time>
      </trkpt>
      <trkpt lat="59.9604017" lon="17.7825029">
        <ele>30.4188</ele>
        <time>2013-05-30T16:18:59Z</time>
      </trkpt>
      <trkpt lat="59.9603695" lon="17.7825989">
        <ele>30.4188</ele>
        <time>2013-05-30T16:19:00Z</time>
      </trkpt>
      <trkpt lat="59.9603372" lon="17.7826953">
        <ele>30.4188</ele>
        <time>2013-05-30T16:19:01Z</time>
      </trkpt>
      <trkpt lat="59.9603041" lon="17.7827927">
        <ele>30.4188</ele>
        <time>2013-05-30T16:19:02Z</time>
      </trkpt>
      <trkpt lat="59.9602705" lon="17.782891">
        <ele>30.4188</ele>
        <time>2013-05-30T16:19:03Z</time>
      </trkpt>
      <trkpt lat="59.9602373" lon="17.782993">
        <ele>30.4188</ele>
        <time>2013-05-30T16:19:04Z</time>
      </trkpt>
      <trkpt lat="59.9602049" lon="17.7831002">
        <ele>30.4188</ele>
        <time>2013-05-30T16:19:05Z</time>
      </trkpt>
      <trkpt lat="59.9601717" lon="17.7832059">
        <ele>30.4188</ele>
        <time>2013-05-30T16:19:06Z</time>
      </trkpt>
      <trkpt lat="59.960136" lon="17.7833106">
        <ele>29.9381</ele>
        <time>2013-05-30T16:19:07Z</time>
      </trkpt>
      <trkpt lat="59.9600984" lon="17.7834162">
        <ele>29.4575</ele>
        <time>2013-05-30T16:19:08Z</time>
      </trkpt>
      <trkpt lat="59.9600614" lon="17.7835321">
        <ele>29.9381</ele>
        <time>2013-05-30T16:19:09Z</time>
      </trkpt>
      <trkpt lat="59.9600256" lon="17.7836497">
        <ele>30.4188</ele>
        <time>2013-05-30T16:19:10Z</time>
      </trkpt>
      <trkpt lat="59.9599899" lon="17.783769">
        <ele>30.8995</ele>
        <time>2013-05-30T16:19:11Z</time>
      </trkpt>
      <trkpt lat="59.9599515" lon="17.7838633">
        <ele>30.4188</ele>
        <time>2013-05-30T16:19:12Z</time>
      </trkpt>
      <trkpt lat="59.9599109" lon="17.7839534">
        <ele>29.4575</ele>
        <time>2013-05-30T16:19:13Z</time>
      </trkpt>
      <trkpt lat="59.9598686" lon="17.784046">
        <ele>28.4962</ele>
        <time>2013-05-30T16:19:14Z</time>
      </trkpt>
      <trkpt lat="59.9598231" lon="17.7841426">
        <ele>28.9769</ele>
        <time>2013-05-30T16:19:15Z</time>
      </trkpt>
      <trkpt lat="59.959776" lon="17.7842331">
        <ele>28.4962</ele>
        <time>2013-05-30T16:19:16Z</time>
      </trkpt>
      <trkpt lat="59.9597273" lon="17.7843203">
        <ele>28.9769</ele>
        <time>2013-05-30T16:19:17Z</time>
      </trkpt>
      <trkpt lat="59.9596766" lon="17.7844001">
        <ele>28.4962</ele>
        <time>2013-05-30T16:19:18Z</time>
      </trkpt>
      <trkpt lat="59.9596262" lon="17.7844813">
        <ele>28.4962</ele>
        <time>2013-05-30T16:19:19Z</time>
      </trkpt>
      <trkpt lat="59.9595758" lon="17.7845617">
        <ele>28.4962</ele>
        <time>2013-05-30T16:19:20Z</time>
      </trkpt>
      <trkpt lat="59.9595261" lon="17.7846453">
        <ele>28.4962</ele>
        <time>2013-05-30T16:19:21Z</time>
      </trkpt>
      <trkpt lat="59.959476" lon="17.7847293">
        <ele>28.4962</ele>
        <time>2013-05-30T16:19:22Z</time>
      </trkpt>
      <trkpt lat="59.9594267" lon="17.7848191">
        <ele>28.9769</ele>
        <time>2013-05-30T16:19:23Z</time>
      </trkpt>
      <trkpt lat="59.9593745" lon="17.7849058">
        <ele>28.9769</ele>
        <time>2013-05-30T16:19:24Z</time>
      </trkpt>
      <trkpt lat="59.9593183" lon="17.7849843">
        <ele>28.9769</ele>
        <time>2013-05-30T16:19:25Z</time>
      </trkpt>
      <trkpt lat="59.9592588" lon="17.7850599">
        <ele>28.9769</ele>
        <time>2013-05-30T16:19:26Z</time>
      </trkpt>
      <trkpt lat="59.9591963" lon="17.7851266">
        <ele>28.4962</ele>
        <time>2013-05-30T16:19:27Z</time>
      </trkpt>
      <trkpt lat="59.9591308" lon="17.7851811">
        <ele>28.0155</ele>
        <time>2013-05-30T16:19:28Z</time>
      </trkpt>
      <trkpt lat="59.9590638" lon="17.7852301">
        <ele>28.0155</ele>
        <time>2013-05-30T16:19:29Z</time>
      </trkpt>
      <trkpt lat="59.9589968" lon="17.7852786">
        <ele>28.0155</ele>
        <time>2013-05-30T16:19:30Z</time>
      </trkpt>
      <trkpt lat="59.9589296" lon="17.7853271">
        <ele>28.0155</ele>
        <time>2013-05-30T16:19:31Z</time>
      </trkpt>
      <trkpt lat="59.9588627" lon="17.7853768">
        <ele>28.0155</ele>
        <time>2013-05-30T16:19:32Z</time>
      </trkpt>
      <trkpt lat="59.9587964" lon="17.7854267">
        <ele>28.0155</ele>
        <time>2013-05-30T16:19:33Z</time>
      </trkpt>
      <trkpt lat="59.9587309" lon="17.7854795">
        <ele>27.5349</ele>
        <time>2013-05-30T16:19:34Z</time>
      </trkpt>
      <trkpt lat="59.9586659" lon="17.7855369">
        <ele>27.0543</ele>
        <time>2013-05-30T16:19:35Z</time>
      </trkpt>
      <trkpt lat="59.9586011" lon="17.7855979">
        <ele>27.0543</ele>
        <time>2013-05-30T16:19:36Z</time>
      </trkpt>
      <trkpt lat="59.9585368" lon="17.7856644">
        <ele>26.5736</ele>
        <time>2013-05-30T16:19:37Z</time>
      </trkpt>
      <trkpt lat="59.958472" lon="17.7857353">
        <ele>26.5736</ele>
        <time>2013-05-30T16:19:38Z</time>
      </trkpt>
      <trkpt lat="59.9584079" lon="17.7858092">
        <ele>26.0929</ele>
        <time>2013-05-30T16:19:39Z</time>
      </trkpt>
      <trkpt lat="59.9583441" lon="17.785884">
        <ele>26.0929</ele>
        <time>2013-05-30T16:19:40Z</time>
      </trkpt>
      <trkpt lat="59.9582804" lon="17.785957">
        <ele>26.0929</ele>
        <time>2013-05-30T16:19:41Z</time>
      </trkpt>
      <trkpt lat="59.9582172" lon="17.7860312">
        <ele>26.0929</ele>
        <time>2013-05-30T16:19:42Z</time>
      </trkpt>
      <trkpt lat="59.9581533" lon="17.7861055">
        <ele>25.6123</ele>
        <time>2013-05-30T16:19:43Z</time>
      </trkpt>
      <trkpt lat="59.9580894" lon="17.7861798">
        <ele>25.6123</ele>
        <time>2013-05-30T16:19:44Z</time>
      </trkpt>
      <trkpt lat="59.9580255" lon="17.786257">
        <ele>25.6123</ele>
        <time>2013-05-30T16:19:45Z</time>
      </trkpt>
      <trkpt lat="59.9579609" lon="17.7863347">
        <ele>25.6123</ele>
        <time>2013-05-30T16:19:46Z</time>
      </trkpt>
      <trkpt lat="59.957897" lon="17.7864143">
        <ele>25.6123</ele>
        <time>2013-05-30T16:19:47Z</time>
      </trkpt>
      <trkpt lat="59.9578348" lon="17.7864987">
        <ele>25.6123</ele>
        <time>2013-05-30T16:19:48Z</time>
      </trkpt>
      <trkpt lat="59.9577747" lon="17.7865869">
        <ele>25.6123</ele>
        <time>2013-05-30T16:19:49Z</time>
      </trkpt>
      <trkpt lat="59.9577232" lon="17.7866853">
        <ele>25.6123</ele>
        <time>2013-05-30T16:19:50Z</time>
      </trkpt>
      <trkpt lat="59.9576788" lon="17.7867909">
        <ele>25.6123</ele>
        <time>2013-05-30T16:19:51Z</time>
      </trkpt>
      <trkpt lat="59.9576407" lon="17.7869029">
        <ele>25.6123</ele>
        <time>2013-05-30T16:19:52Z</time>
      </trkpt>
      <trkpt lat="59.9576101" lon="17.78702">
        <ele>25.6123</ele>
        <time>2013-05-30T16:19:53Z</time>
      </trkpt>
      <trkpt lat="59.9575856" lon="17.7871438">
        <ele>25.1317</ele>
        <time>2013-05-30T16:19:54Z</time>
      </trkpt>
      <trkpt lat="59.9575688" lon="17.7872693">
        <ele>25.1317</ele>
        <time>2013-05-30T16:19:55Z</time>
      </trkpt>
      <trkpt lat="59.9575489" lon="17.7873941">
        <ele>25.1317</ele>
        <time>2013-05-30T16:19:56Z</time>
      </trkpt>
      <trkpt lat="59.9575205" lon="17.7875178">
        <ele>25.1317</ele>
        <time>2013-05-30T16:19:57Z</time>
      </trkpt>
      <trkpt lat="59.9574874" lon="17.7876394">
        <ele>25.1317</ele>
        <time>2013-05-30T16:19:58Z</time>
      </trkpt>
      <trkpt lat="59.9574532" lon="17.7877582">
        <ele>24.651</ele>
        <time>2013-05-30T16:19:59Z</time>
      </trkpt>
      <trkpt lat="59.9574179" lon="17.7878704">
        <ele>24.651</ele>
        <time>2013-05-30T16:20:00Z</time>
      </trkpt>
      <trkpt lat="59.9573827" lon="17.7879872">
        <ele>23.6896</ele>
        <time>2013-05-30T16:20:01Z</time>
      </trkpt>
      <trkpt lat="59.9573488" lon="17.7881031">
        <ele>23.209</ele>
        <time>2013-05-30T16:20:02Z</time>
      </trkpt>
      <trkpt lat="59.9573146" lon="17.7882182">
        <ele>22.7283</ele>
        <time>2013-05-30T16:20:03Z</time>
      </trkpt>
      <trkpt lat="59.9572823" lon="17.7883311">
        <ele>22.7283</ele>
        <time>2013-05-30T16:20:04Z</time>
      </trkpt>
      <trkpt lat="59.9572495" lon="17.7884477">
        <ele>22.2476</ele>
        <time>2013-05-30T16:20:05Z</time>
      </trkpt>
      <trkpt lat="59.9572184" lon="17.7885787">
        <ele>23.209</ele>
        <time>2013-05-30T16:20:06Z</time>
      </trkpt>
      <trkpt lat="59.9571828" lon="17.7887003">
        <ele>23.6896</ele>
        <time>2013-05-30T16:20:07Z</time>
      </trkpt>
      <trkpt lat="59.9571442" lon="17.7888217">
        <ele>24.1703</ele>
        <time>2013-05-30T16:20:08Z</time>
      </trkpt>
      <trkpt lat="59.9570984" lon="17.7889306">
        <ele>24.1703</ele>
        <time>2013-05-30T16:20:09Z</time>
      </trkpt>
      <trkpt lat="59.9570502" lon="17.7890455">
        <ele>25.6123</ele>
        <time>2013-05-30T16:20:10Z</time>
      </trkpt>
      <trkpt lat="59.9569921" lon="17.7891362">
        <ele>25.6123</ele>
        <time>2013-05-30T16:20:11Z</time>
      </trkpt>
      <trkpt lat="59.9569356" lon="17.78922">
        <ele>25.6123</ele>
        <time>2013-05-30T16:20:12Z</time>
      </trkpt>
      <trkpt lat="59.9568803" lon="17.7892811">
        <ele>25.1317</ele>
        <time>2013-05-30T16:20:13Z</time>
      </trkpt>
      <trkpt lat="59.9568258" lon="17.7893509">
        <ele>25.6123</ele>
        <time>2013-05-30T16:20:14Z</time>
      </trkpt>
      <trkpt lat="59.9567658" lon="17.7894173">
        <ele>24.651</ele>
        <time>2013-05-30T16:20:15Z</time>
      </trkpt>
      <trkpt lat="59.9567066" lon="17.7894908">
        <ele>24.651</ele>
        <time>2013-05-30T16:20:16Z</time>
      </trkpt>
      <trkpt lat="59.9566532" lon="17.7895753">
        <ele>24.1703</ele>
        <time>2013-05-30T16:20:17Z</time>
      </trkpt>
      <trkpt lat="59.9566092" lon="17.7896777">
        <ele>25.1317</ele>
        <time>2013-05-30T16:20:18Z</time>
      </trkpt>
      <trkpt lat="59.9565736" lon="17.78978">
        <ele>24.651</ele>
        <time>2013-05-30T16:20:19Z</time>
      </trkpt>
      <trkpt lat="59.9565481" lon="17.7898933">
        <ele>24.1703</ele>
        <time>2013-05-30T16:20:20Z</time>
      </trkpt>
      <trkpt lat="59.9565348" lon="17.7900173">
        <ele>24.651</ele>
        <time>2013-05-30T16:20:21Z</time>
      </trkpt>
      <trkpt lat="59.9565368" lon="17.790144">
        <ele>24.651</ele>
        <time>2013-05-30T16:20:22Z</time>
      </trkpt>
      <trkpt lat="59.9565513" lon="17.7902743">
        <ele>25.1317</ele>
        <time>2013-05-30T16:20:23Z</time>
      </trkpt>
      <trkpt lat="59.9565705" lon="17.79039">
        <ele>24.1703</ele>
        <time>2013-05-30T16:20:24Z</time>
      </trkpt>
      <trkpt lat="59.9565934" lon="17.7905003">
        <ele>23.6896</ele>
        <time>2013-05-30T16:20:25Z</time>
      </trkpt>
      <trkpt lat="59.9566171" lon="17.790605">
        <ele>24.1703</ele>
        <time>2013-05-30T16:20:26Z</time>
      </trkpt>
      <trkpt lat="59.95664" lon="17.7907155">
        <ele>24.651</ele>
        <time>2013-05-30T16:20:27Z</time>
      </trkpt>
      <trkpt lat="59.9566611" lon="17.7908213">
        <ele>25.6123</ele>
        <time>2013-05-30T16:20:28Z</time>
      </trkpt>
      <trkpt lat="59.9566808" lon="17.7909215">
        <ele>26.0929</ele>
        <time>2013-05-30T16:20:29Z</time>
      </trkpt>
      <trkpt lat="59.9566972" lon="17.7910201">
        <ele>26.5736</ele>
        <time>2013-05-30T16:20:30Z</time>
      </trkpt>
      <trkpt lat="59.9567098" lon="17.7911191">
        <ele>27.5349</ele>
        <time>2013-05-30T16:20:31Z</time>
      </trkpt>
      <trkpt lat="59.9567196" lon="17.7912196">
        <ele>28.0155</ele>
        <time>2013-05-30T16:20:32Z</time>
      </trkpt>
      <trkpt lat="59.9567258" lon="17.7913242">
        <ele>28.4962</ele>
        <time>2013-05-30T16:20:33Z</time>
      </trkpt>
      <trkpt lat="59.9567249" lon="17.7914315">
        <ele>28.9769</ele>
        <time>2013-05-30T16:20:34Z</time>
      </trkpt>
      <trkpt lat="59.9567171" lon="17.791539">
        <ele>28.9769</ele>
        <time>2013-05-30T16:20:35Z</time>
      </trkpt>
      <trkpt lat="59.9567037" lon="17.791649">
        <ele>29.4575</ele>
        <time>2013-05-30T16:20:36Z</time>
      </trkpt>
      <trkpt lat="59.9566869" lon="17.7917603">
        <ele>29.9381</ele>
        <time>2013-05-30T16:20:37Z</time>
      </trkpt>
      <trkpt lat="59.9566693" lon="17.7918701">
        <ele>29.9381</ele>
        <time>2013-05-30T16:20:38Z</time>
      </trkpt>
      <trkpt lat="59.9566504" lon="17.7919852">
        <ele>30.4188</ele>
        <time>2013-05-30T16:20:39Z</time>
      </trkpt>
      <trkpt lat="59.9566301" lon="17.7921017">
        <ele>30.8995</ele>
        <time>2013-05-30T16:20:40Z</time>
      </trkpt>
      <trkpt lat="59.9566083" lon="17.7922027">
        <ele>30.8995</ele>
        <time>2013-05-30T16:20:41Z</time>
      </trkpt>
      <trkpt lat="59.9565886" lon="17.7923062">
        <ele>30.4188</ele>
        <time>2013-05-30T16:20:42Z</time>
      </trkpt>
      <trkpt lat="59.9565689" lon="17.7924093">
        <ele>30.4188</ele>
        <time>2013-05-30T16:20:43Z</time>
      </trkpt>
      <trkpt lat="59.9565487" lon="17.792512">
        <ele>29.9381</ele>
        <time>2013-05-30T16:20:44Z</time>
      </trkpt>
      <trkpt lat="59.9565275" lon="17.7926169">
        <ele>29.9381</ele>
        <time>2013-05-30T16:20:45Z</time>
      </trkpt>
      <trkpt lat="59.956506" lon="17.7927242">
        <ele>29.4575</ele>
        <time>2013-05-30T16:20:46Z</time>
      </trkpt>
      <trkpt lat="59.9564845" lon="17.792834">
        <ele>29.4575</ele>
        <time>2013-05-30T16:20:47Z</time>
      </trkpt>
      <trkpt lat="59.9564631" lon="17.7929433">
        <ele>28.9769</ele>
        <time>2013-05-30T16:20:48Z</time>
      </trkpt>
      <trkpt lat="59.956441" lon="17.7930523">
        <ele>28.9769</ele>
        <time>2013-05-30T16:20:49Z</time>
      </trkpt>
      <trkpt lat="59.9564185" lon="17.793163">
        <ele>28.9769</ele>
        <time>2013-05-30T16:20:50Z</time>
      </trkpt>
      <trkpt lat="59.9563957" lon="17.7932776">
        <ele>28.9769</ele>
        <time>2013-05-30T16:20:51Z</time>
      </trkpt>
      <trkpt lat="59.9563714" lon="17.7933932">
        <ele>28.9769</ele>
        <time>2013-05-30T16:20:52Z</time>
      </trkpt>
      <trkpt lat="59.9563467" lon="17.7935106">
        <ele>28.4962</ele>
        <time>2013-05-30T16:20:53Z</time>
      </trkpt>
      <trkpt lat="59.9563208" lon="17.793626">
        <ele>28.4962</ele>
        <time>2013-05-30T16:20:54Z</time>
      </trkpt>
      <trkpt lat="59.9562954" lon="17.7937474">
        <ele>28.0155</ele>
        <time>2013-05-30T16:20:55Z</time>
      </trkpt>
      <trkpt lat="59.9562695" lon="17.793869">
        <ele>28.0155</ele>
        <time>2013-05-30T16:20:56Z</time>
      </trkpt>
      <trkpt lat="59.9562436" lon="17.7939874">
        <ele>28.0155</ele>
        <time>2013-05-30T16:20:57Z</time>
      </trkpt>
      <trkpt lat="59.956218" lon="17.7941026">
        <ele>28.4962</ele>
        <time>2013-05-30T16:20:58Z</time>
      </trkpt>
      <trkpt lat="59.9561934" lon="17.7942161">
        <ele>28.9769</ele>
        <time>2013-05-30T16:20:59Z</time>
      </trkpt>
      <trkpt lat="59.9561689" lon="17.7943359">
        <ele>28.9769</ele>
        <time>2013-05-30T16:21:00Z</time>
      </trkpt>
      <trkpt lat="59.9561405" lon="17.7944522">
        <ele>29.4575</ele>
        <time>2013-05-30T16:21:01Z</time>
      </trkpt>
      <trkpt lat="59.956112" lon="17.7945725">
        <ele>30.4188</ele>
        <time>2013-05-30T16:21:02Z</time>
      </trkpt>
      <trkpt lat="59.9560807" lon="17.7946845">
        <ele>30.8995</ele>
        <time>2013-05-30T16:21:03Z</time>
      </trkpt>
      <trkpt lat="59.95605" lon="17.794805">
        <ele>32.3416</ele>
        <time>2013-05-30T16:21:04Z</time>
      </trkpt>
      <trkpt lat="59.9560197" lon="17.794921">
        <ele>32.3416</ele>
        <time>2013-05-30T16:21:05Z</time>
      </trkpt>
      <trkpt lat="59.9559893" lon="17.7950337">
        <ele>33.3029</ele>
        <time>2013-05-30T16:21:06Z</time>
      </trkpt>
      <trkpt lat="59.9559616" lon="17.7951532">
        <ele>34.2642</ele>
        <time>2013-05-30T16:21:07Z</time>
      </trkpt>
      <trkpt lat="59.9559324" lon="17.7952652">
        <ele>34.7449</ele>
        <time>2013-05-30T16:21:08Z</time>
      </trkpt>
      <trkpt lat="59.9559043" lon="17.7953738">
        <ele>35.2255</ele>
        <time>2013-05-30T16:21:09Z</time>
      </trkpt>
      <trkpt lat="59.9558789" lon="17.7954869">
        <ele>35.7061</ele>
        <time>2013-05-30T16:21:10Z</time>
      </trkpt>
      <trkpt lat="59.9558573" lon="17.7956045">
        <ele>36.1868</ele>
        <time>2013-05-30T16:21:11Z</time>
      </trkpt>
      <trkpt lat="59.9558365" lon="17.7957247">
        <ele>37.1481</ele>
        <time>2013-05-30T16:21:12Z</time>
      </trkpt>
      <trkpt lat="59.955816" lon="17.7958509">
        <ele>38.5901</ele>
        <time>2013-05-30T16:21:13Z</time>
      </trkpt>
      <trkpt lat="59.9557966" lon="17.7959755">
        <ele>38.5901</ele>
        <time>2013-05-30T16:21:14Z</time>
      </trkpt>
      <trkpt lat="59.9557758" lon="17.7961012">
        <ele>38.5901</ele>
        <time>2013-05-30T16:21:15Z</time>
      </trkpt>
      <trkpt lat="59.9557563" lon="17.7962313">
        <ele>38.5901</ele>
        <time>2013-05-30T16:21:16Z</time>
      </trkpt>
      <trkpt lat="59.9557343" lon="17.7963564">
        <ele>38.5901</ele>
        <time>2013-05-30T16:21:17Z</time>
      </trkpt>
      <trkpt lat="59.9557122" lon="17.796483">
        <ele>38.1094</ele>
        <time>2013-05-30T16:21:18Z</time>
      </trkpt>
      <trkpt lat="59.9556886" lon="17.7966089">
        <ele>38.1094</ele>
        <time>2013-05-30T16:21:19Z</time>
      </trkpt>
      <trkpt lat="59.955666" lon="17.7967302">
        <ele>38.5901</ele>
        <time>2013-05-30T16:21:20Z</time>
      </trkpt>
      <trkpt lat="59.9556438" lon="17.7968446">
        <ele>38.5901</ele>
        <time>2013-05-30T16:21:21Z</time>
      </trkpt>
      <trkpt lat="59.9556215" lon="17.796953">
        <ele>37.6287</ele>
        <time>2013-05-30T16:21:22Z</time>
      </trkpt>
      <trkpt lat="59.9555945" lon="17.7970705">
        <ele>37.6287</ele>
        <time>2013-05-30T16:21:23Z</time>
      </trkpt>
      <trkpt lat="59.9555659" lon="17.7971832">
        <ele>37.1481</ele>
        <time>2013-05-30T16:21:24Z</time>
      </trkpt>
      <trkpt lat="59.955536" lon="17.7972901">
        <ele>37.1481</ele>
        <time>2013-05-30T16:21:25Z</time>
      </trkpt>
      <trkpt lat="59.9555055" lon="17.7973931">
        <ele>36.1868</ele>
        <time>2013-05-30T16:21:26Z</time>
      </trkpt>
      <trkpt lat="59.9554764" lon="17.7974952">
        <ele>35.2255</ele>
        <time>2013-05-30T16:21:27Z</time>
      </trkpt>
      <trkpt lat="59.9554479" lon="17.7975957">
        <ele>34.7449</ele>
        <time>2013-05-30T16:21:28Z</time>
      </trkpt>
      <trkpt lat="59.9554194" lon="17.7976935">
        <ele>34.2642</ele>
        <time>2013-05-30T16:21:29Z</time>
      </trkpt>
      <trkpt lat="59.9553908" lon="17.7977877">
        <ele>34.2642</ele>
        <time>2013-05-30T16:21:30Z</time>
      </trkpt>
      <trkpt lat="59.9553621" lon="17.7978809">
        <ele>33.7834</ele>
        <time>2013-05-30T16:21:31Z</time>
      </trkpt>
      <trkpt lat="59.9553345" lon="17.7979716">
        <ele>33.3029</ele>
        <time>2013-05-30T16:21:32Z</time>
      </trkpt>
      <trkpt lat="59.9553076" lon="17.7980586">
        <ele>33.7834</ele>
        <time>2013-05-30T16:21:33Z</time>
      </trkpt>
      <trkpt lat="59.9552802" lon="17.7981458">
        <ele>33.7834</ele>
        <time>2013-05-30T16:21:34Z</time>
      </trkpt>
      <trkpt lat="59.9552527" lon="17.7982334">
        <ele>33.7834</ele>
        <time>2013-05-30T16:21:35Z</time>
      </trkpt>
      <trkpt lat="59.9552252" lon="17.7983266">
        <ele>33.7834</ele>
        <time>2013-05-30T16:21:36Z</time>
      </trkpt>
      <trkpt lat="59.9551952" lon="17.7984126">
        <ele>33.7834</ele>
        <time>2013-05-30T16:21:37Z</time>
      </trkpt>
      <trkpt lat="59.9551623" lon="17.7984975">
        <ele>33.7834</ele>
        <time>2013-05-30T16:21:38Z</time>
      </trkpt>
      <trkpt lat="59.9551295" lon="17.7985814">
        <ele>33.7834</ele>
        <time>2013-05-30T16:21:39Z</time>
      </trkpt>
      <trkpt lat="59.9550939" lon="17.7986471">
        <ele>32.8223</ele>
        <time>2013-05-30T16:21:40Z</time>
      </trkpt>
      <trkpt lat="59.9550609" lon="17.7987233">
        <ele>32.8223</ele>
        <time>2013-05-30T16:21:41Z</time>
      </trkpt>
      <trkpt lat="59.9550272" lon="17.798804">
        <ele>33.3029</ele>
        <time>2013-05-30T16:21:42Z</time>
      </trkpt>
      <trkpt lat="59.9549899" lon="17.7988737">
        <ele>33.3029</ele>
        <time>2013-05-30T16:21:43Z</time>
      </trkpt>
      <trkpt lat="59.9549517" lon="17.7989519">
        <ele>33.3029</ele>
        <time>2013-05-30T16:21:44Z</time>
      </trkpt>
      <trkpt lat="59.9549134" lon="17.7990374">
        <ele>33.7834</ele>
        <time>2013-05-30T16:21:45Z</time>
      </trkpt>
      <trkpt lat="59.9548746" lon="17.7991283">
        <ele>35.2255</ele>
        <time>2013-05-30T16:21:46Z</time>
      </trkpt>
      <trkpt lat="59.954834" lon="17.799226">
        <ele>36.1868</ele>
        <time>2013-05-30T16:21:47Z</time>
      </trkpt>
      <trkpt lat="59.9547905" lon="17.7993109">
        <ele>36.1868</ele>
        <time>2013-05-30T16:21:48Z</time>
      </trkpt>
      <trkpt lat="59.9547455" lon="17.7993954">
        <ele>35.7061</ele>
        <time>2013-05-30T16:21:49Z</time>
      </trkpt>
      <trkpt lat="59.9546993" lon="17.7994863">
        <ele>35.7061</ele>
        <time>2013-05-30T16:21:50Z</time>
      </trkpt>
      <trkpt lat="59.9546537" lon="17.7995824">
        <ele>35.7061</ele>
        <time>2013-05-30T16:21:51Z</time>
      </trkpt>
      <trkpt lat="59.9546093" lon="17.7996801">
        <ele>35.7061</ele>
        <time>2013-05-30T16:21:52Z</time>
      </trkpt>
      <trkpt lat="59.9545653" lon="17.7997786">
        <ele>35.2255</ele>
        <time>2013-05-30T16:21:53Z</time>
      </trkpt>
      <trkpt lat="59.9545181" lon="17.7998917">
        <ele>34.7449</ele>
        <time>2013-05-30T16:21:54Z</time>
      </trkpt>
      <trkpt lat="59.9544778" lon="17.7999749">
        <ele>34.7449</ele>
        <time>2013-05-30T16:21:55Z</time>
      </trkpt>
      <trkpt lat="59.9544364" lon="17.8000729">
        <ele>34.7449</ele>
        <time>2013-05-30T16:21:56Z</time>
      </trkpt>
      <trkpt lat="59.9543964" lon="17.8001569">
        <ele>34.7449</ele>
        <time>2013-05-30T16:21:57Z</time>
      </trkpt>
      <trkpt lat="59.9543553" lon="17.8002537">
        <ele>34.7449</ele>
        <time>2013-05-30T16:21:58Z</time>
      </trkpt>
      <trkpt lat="59.9543162" lon="17.8003401">
        <ele>34.7449</ele>
        <time>2013-05-30T16:21:59Z</time>
      </trkpt>
      <trkpt lat="59.9542773" lon="17.8004375">
        <ele>34.7449</ele>
        <time>2013-05-30T16:22:00Z</time>
      </trkpt>
      <trkpt lat="59.9542399" lon="17.800549">
        <ele>34.2642</ele>
        <time>2013-05-30T16:22:01Z</time>
      </trkpt>
      <trkpt lat="59.9542002" lon="17.8006599">
        <ele>34.2642</ele>
        <time>2013-05-30T16:22:02Z</time>
      </trkpt>
      <trkpt lat="59.9541621" lon="17.8007676">
        <ele>33.7834</ele>
        <time>2013-05-30T16:22:03Z</time>
      </trkpt>
      <trkpt lat="59.9541217" lon="17.8008637">
        <ele>33.3029</ele>
        <time>2013-05-30T16:22:04Z</time>
      </trkpt>
      <trkpt lat="59.9540809" lon="17.8009647">
        <ele>32.8223</ele>
        <time>2013-05-30T16:22:05Z</time>
      </trkpt>
      <trkpt lat="59.9540421" lon="17.8010637">
        <ele>32.8223</ele>
        <time>2013-05-30T16:22:06Z</time>
      </trkpt>
      <trkpt lat="59.9540038" lon="17.8011538">
        <ele>32.8223</ele>
        <time>2013-05-30T16:22:07Z</time>
      </trkpt>
      <trkpt lat="59.9539638" lon="17.8012414">
        <ele>32.3416</ele>
        <time>2013-05-30T16:22:08Z</time>
      </trkpt>
      <trkpt lat="59.9539272" lon="17.8013156">
        <ele>32.3416</ele>
        <time>2013-05-30T16:22:09Z</time>
      </trkpt>
      <trkpt lat="59.9538953" lon="17.8014026">
        <ele>32.3416</ele>
        <time>2013-05-30T16:22:10Z</time>
      </trkpt>
      <trkpt lat="59.9538634" lon="17.8014953">
        <ele>31.8607</ele>
        <time>2013-05-30T16:22:11Z</time>
      </trkpt>
      <trkpt lat="59.9538347" lon="17.8015769">
        <ele>31.8607</ele>
        <time>2013-05-30T16:22:12Z</time>
      </trkpt>
      <trkpt lat="59.9538002" lon="17.8016621">
        <ele>31.3801</ele>
        <time>2013-05-30T16:22:13Z</time>
      </trkpt>
      <trkpt lat="59.9537634" lon="17.801742">
        <ele>31.8607</ele>
        <time>2013-05-30T16:22:14Z</time>
      </trkpt>
      <trkpt lat="59.9537219" lon="17.8018008">
        <ele>29.9381</ele>
        <time>2013-05-30T16:22:15Z</time>
      </trkpt>
      <trkpt lat="59.9536909" lon="17.8018683">
        <ele>29.4575</ele>
        <time>2013-05-30T16:22:16Z</time>
      </trkpt>
      <trkpt lat="59.9536707" lon="17.80195">
        <ele>29.4575</ele>
        <time>2013-05-30T16:22:17Z</time>
      </trkpt>
      <trkpt lat="59.9536511" lon="17.8020439">
        <ele>28.9769</ele>
        <time>2013-05-30T16:22:18Z</time>
      </trkpt>
      <trkpt lat="59.9536308" lon="17.8021366">
        <ele>27.5349</ele>
        <time>2013-05-30T16:22:19Z</time>
      </trkpt>
      <trkpt lat="59.9536102" lon="17.8022412">
        <ele>28.0155</ele>
        <time>2013-05-30T16:22:20Z</time>
      </trkpt>
      <trkpt lat="59.9535872" lon="17.80232">
        <ele>26.0929</ele>
        <time>2013-05-30T16:22:21Z</time>
      </trkpt>
      <trkpt lat="59.9535674" lon="17.8024075">
        <ele>25.1317</ele>
        <time>2013-05-30T16:22:22Z</time>
      </trkpt>
      <trkpt lat="59.9535483" lon="17.8024982">
        <ele>24.1703</ele>
        <time>2013-05-30T16:22:23Z</time>
      </trkpt>
      <trkpt lat="59.9535257" lon="17.8025966">
        <ele>22.7283</ele>
        <time>2013-05-30T16:22:24Z</time>
      </trkpt>
      <trkpt lat="59.9535028" lon="17.8026919">
        <ele>22.2476</ele>
        <time>2013-05-30T16:22:25Z</time>
      </trkpt>
      <trkpt lat="59.9534786" lon="17.8027813">
        <ele>21.2864</ele>
        <time>2013-05-30T16:22:26Z</time>
      </trkpt>
      <trkpt lat="59.953457" lon="17.8028654">
        <ele>21.2864</ele>
        <time>2013-05-30T16:22:27Z</time>
      </trkpt>
      <trkpt lat="59.9534361" lon="17.8029426">
        <ele>19.8444</ele>
        <time>2013-05-30T16:22:28Z</time>
      </trkpt>
      <trkpt lat="59.9534188" lon="17.8030166">
        <ele>19.8444</ele>
        <time>2013-05-30T16:22:29Z</time>
      </trkpt>
      <trkpt lat="59.9533996" lon="17.8030831">
        <ele>19.8444</ele>
        <time>2013-05-30T16:22:30Z</time>
      </trkpt>
      <trkpt lat="59.9533785" lon="17.8031426">
        <ele>19.8444</ele>
        <time>2013-05-30T16:22:31Z</time>
      </trkpt>
      <trkpt lat="59.9533598" lon="17.8031897">
        <ele>19.3638</ele>
        <time>2013-05-30T16:22:32Z</time>
      </trkpt>
      <trkpt lat="59.9533472" lon="17.8032177">
        <ele>19.3638</ele>
        <time>2013-05-30T16:22:33Z</time>
      </trkpt>
      <trkpt lat="59.9533431" lon="17.8032312">
        <ele>18.8831</ele>
        <time>2013-05-30T16:22:34Z</time>
      </trkpt>
      <trkpt lat="59.9533437" lon="17.8032357">
        <ele>18.8831</ele>
        <time>2013-05-30T16:22:35Z</time>
      </trkpt>
      <trkpt lat="59.9533391" lon="17.803237">
        <ele>17.4412</ele>
        <time>2013-05-30T16:22:36Z</time>
      </trkpt>
      <trkpt lat="59.953341" lon="17.8032423">
        <ele>18.4023</ele>
        <time>2013-05-30T16:22:37Z</time>
      </trkpt>
      <trkpt lat="59.9533421" lon="17.8032486">
        <ele>18.4023</ele>
        <time>2013-05-30T16:22:38Z</time>
      </trkpt>
      <trkpt lat="59.9533453" lon="17.8033043">
        <ele>18.8831</ele>
        <time>2013-05-30T16:22:47Z</time>
      </trkpt>
      <trkpt lat="59.9533449" lon="17.8033063">
        <ele>18.4023</ele>
        <time>2013-05-30T16:22:48Z</time>
      </trkpt>
      <trkpt lat="59.9533462" lon="17.8033097">
        <ele>18.8831</ele>
        <time>2013-05-30T16:22:49Z</time>
      </trkpt>
      <trkpt lat="59.9533311" lon="17.8034828">
        <ele>29.9381</ele>
        <time>2013-05-30T16:23:12Z</time>
      </trkpt>
      <trkpt lat="59.9533173" lon="17.8035264">
        <ele>30.4188</ele>
        <time>2013-05-30T16:23:13Z</time>
      </trkpt>
      <trkpt lat="59.9533013" lon="17.803569">
        <ele>30.4188</ele>
        <time>2013-05-30T16:23:14Z</time>
      </trkpt>
      <trkpt lat="59.953281" lon="17.8036018">
        <ele>29.4575</ele>
        <time>2013-05-30T16:23:15Z</time>
      </trkpt>
      <trkpt lat="59.9532573" lon="17.8036433">
        <ele>29.4575</ele>
        <time>2013-05-30T16:23:16Z</time>
      </trkpt>
      <trkpt lat="59.9532313" lon="17.8036956">
        <ele>28.9769</ele>
        <time>2013-05-30T16:23:17Z</time>
      </trkpt>
      <trkpt lat="59.9532035" lon="17.803758">
        <ele>28.4962</ele>
        <time>2013-05-30T16:23:18Z</time>
      </trkpt>
      <trkpt lat="59.9531717" lon="17.803821">
        <ele>28.4962</ele>
        <time>2013-05-30T16:23:19Z</time>
      </trkpt>
      <trkpt lat="59.9531355" lon="17.8038821">
        <ele>28.0155</ele>
        <time>2013-05-30T16:23:20Z</time>
      </trkpt>
      <trkpt lat="59.9530973" lon="17.8039494">
        <ele>27.5349</ele>
        <time>2013-05-30T16:23:21Z</time>
      </trkpt>
      <trkpt lat="59.9530584" lon="17.8040204">
        <ele>28.0155</ele>
        <time>2013-05-30T16:23:22Z</time>
      </trkpt>
      <trkpt lat="59.9530195" lon="17.8040989">
        <ele>27.5349</ele>
        <time>2013-05-30T16:23:23Z</time>
      </trkpt>
      <trkpt lat="59.9529791" lon="17.8041781">
        <ele>26.5736</ele>
        <time>2013-05-30T16:23:24Z</time>
      </trkpt>
      <trkpt lat="59.9529406" lon="17.8042698">
        <ele>26.0929</ele>
        <time>2013-05-30T16:23:25Z</time>
      </trkpt>
      <trkpt lat="59.9529045" lon="17.8043775">
        <ele>25.1317</ele>
        <time>2013-05-30T16:23:26Z</time>
      </trkpt>
      <trkpt lat="59.9528719" lon="17.8044889">
        <ele>24.1703</ele>
        <time>2013-05-30T16:23:27Z</time>
      </trkpt>
      <trkpt lat="59.9528447" lon="17.8046158">
        <ele>24.1703</ele>
        <time>2013-05-30T16:23:28Z</time>
      </trkpt>
      <trkpt lat="59.9528212" lon="17.804758">
        <ele>24.651</ele>
        <time>2013-05-30T16:23:29Z</time>
      </trkpt>
      <trkpt lat="59.9528009" lon="17.8049137">
        <ele>25.1317</ele>
        <time>2013-05-30T16:23:30Z</time>
      </trkpt>
      <trkpt lat="59.9527822" lon="17.8050654">
        <ele>25.6123</ele>
        <time>2013-05-30T16:23:31Z</time>
      </trkpt>
      <trkpt lat="59.952765" lon="17.805216">
        <ele>26.0929</ele>
        <time>2013-05-30T16:23:32Z</time>
      </trkpt>
      <trkpt lat="59.952749" lon="17.8053681">
        <ele>26.5736</ele>
        <time>2013-05-30T16:23:33Z</time>
      </trkpt>
      <trkpt lat="59.9527332" lon="17.8055135">
        <ele>26.0929</ele>
        <time>2013-05-30T16:23:34Z</time>
      </trkpt>
      <trkpt lat="59.9527113" lon="17.8057167">
        <ele>26.5736</ele>
        <time>2013-05-30T16:23:35Z</time>
      </trkpt>
      <trkpt lat="59.9526832" lon="17.8058708">
        <ele>27.0543</ele>
        <time>2013-05-30T16:23:36Z</time>
      </trkpt>
      <trkpt lat="59.9526548" lon="17.8060432">
        <ele>27.5349</ele>
        <time>2013-05-30T16:23:37Z</time>
      </trkpt>
      <trkpt lat="59.9526327" lon="17.8061755">
        <ele>27.5349</ele>
        <time>2013-05-30T16:23:38Z</time>
      </trkpt>
      <trkpt lat="59.952609" lon="17.8063026">
        <ele>27.5349</ele>
        <time>2013-05-30T16:23:39Z</time>
      </trkpt>
      <trkpt lat="59.9525885" lon="17.8064143">
        <ele>27.5349</ele>
        <time>2013-05-30T16:23:40Z</time>
      </trkpt>
      <trkpt lat="59.9525646" lon="17.8065296">
        <ele>27.5349</ele>
        <time>2013-05-30T16:23:41Z</time>
      </trkpt>
      <trkpt lat="59.9525389" lon="17.8066537">
        <ele>27.5349</ele>
        <time>2013-05-30T16:23:42Z</time>
      </trkpt>
      <trkpt lat="59.9525094" lon="17.8067793">
        <ele>27.5349</ele>
        <time>2013-05-30T16:23:43Z</time>
      </trkpt>
      <trkpt lat="59.9524807" lon="17.8069095">
        <ele>27.5349</ele>
        <time>2013-05-30T16:23:44Z</time>
      </trkpt>
      <trkpt lat="59.9524501" lon="17.8070463">
        <ele>27.5349</ele>
        <time>2013-05-30T16:23:45Z</time>
      </trkpt>
      <trkpt lat="59.9524161" lon="17.8071824">
        <ele>27.5349</ele>
        <time>2013-05-30T16:23:46Z</time>
      </trkpt>
      <trkpt lat="59.9523793" lon="17.8073063">
        <ele>26.5736</ele>
        <time>2013-05-30T16:23:47Z</time>
      </trkpt>
      <trkpt lat="59.9523445" lon="17.807439">
        <ele>26.0929</ele>
        <time>2013-05-30T16:23:48Z</time>
      </trkpt>
      <trkpt lat="59.9523109" lon="17.8075799">
        <ele>26.5736</ele>
        <time>2013-05-30T16:23:49Z</time>
      </trkpt>
      <trkpt lat="59.9522776" lon="17.8077208">
        <ele>26.5736</ele>
        <time>2013-05-30T16:23:50Z</time>
      </trkpt>
      <trkpt lat="59.9522442" lon="17.8078579">
        <ele>26.5736</ele>
        <time>2013-05-30T16:23:51Z</time>
      </trkpt>
      <trkpt lat="59.95221" lon="17.8079912">
        <ele>26.5736</ele>
        <time>2013-05-30T16:23:52Z</time>
      </trkpt>
      <trkpt lat="59.9521748" lon="17.8081216">
        <ele>26.5736</ele>
        <time>2013-05-30T16:23:53Z</time>
      </trkpt>
      <trkpt lat="59.9521399" lon="17.8082546">
        <ele>26.0929</ele>
        <time>2013-05-30T16:23:54Z</time>
      </trkpt>
      <trkpt lat="59.9521042" lon="17.8083912">
        <ele>26.0929</ele>
        <time>2013-05-30T16:23:55Z</time>
      </trkpt>
      <trkpt lat="59.952067" lon="17.8085264">
        <ele>26.0929</ele>
        <time>2013-05-30T16:23:56Z</time>
      </trkpt>
      <trkpt lat="59.9520304" lon="17.8086607">
        <ele>26.0929</ele>
        <time>2013-05-30T16:23:57Z</time>
      </trkpt>
      <trkpt lat="59.951995" lon="17.8087921">
        <ele>26.0929</ele>
        <time>2013-05-30T16:23:58Z</time>
      </trkpt>
      <trkpt lat="59.9519608" lon="17.8089218">
        <ele>26.0929</ele>
        <time>2013-05-30T16:23:59Z</time>
      </trkpt>
      <trkpt lat="59.9519277" lon="17.8090495">
        <ele>26.0929</ele>
        <time>2013-05-30T16:24:00Z</time>
      </trkpt>
      <trkpt lat="59.9518965" lon="17.8091743">
        <ele>26.5736</ele>
        <time>2013-05-30T16:24:01Z</time>
      </trkpt>
      <trkpt lat="59.9518659" lon="17.809296">
        <ele>26.5736</ele>
        <time>2013-05-30T16:24:02Z</time>
      </trkpt>
      <trkpt lat="59.9518359" lon="17.8094157">
        <ele>27.0543</ele>
        <time>2013-05-30T16:24:03Z</time>
      </trkpt>
      <trkpt lat="59.9518052" lon="17.8095346">
        <ele>27.5349</ele>
        <time>2013-05-30T16:24:04Z</time>
      </trkpt>
      <trkpt lat="59.9517737" lon="17.8096528">
        <ele>27.5349</ele>
        <time>2013-05-30T16:24:05Z</time>
      </trkpt>
      <trkpt lat="59.9517427" lon="17.809771">
        <ele>28.0155</ele>
        <time>2013-05-30T16:24:06Z</time>
      </trkpt>
      <trkpt lat="59.9517121" lon="17.8098895">
        <ele>28.0155</ele>
        <time>2013-05-30T16:24:07Z</time>
      </trkpt>
      <trkpt lat="59.9516811" lon="17.8100083">
        <ele>28.0155</ele>
        <time>2013-05-30T16:24:08Z</time>
      </trkpt>
      <trkpt lat="59.9516508" lon="17.8101281">
        <ele>28.4962</ele>
        <time>2013-05-30T16:24:09Z</time>
      </trkpt>
      <trkpt lat="59.951621" lon="17.8102486">
        <ele>28.4962</ele>
        <time>2013-05-30T16:24:10Z</time>
      </trkpt>
      <trkpt lat="59.9515928" lon="17.8103702">
        <ele>28.4962</ele>
        <time>2013-05-30T16:24:11Z</time>
      </trkpt>
      <trkpt lat="59.9515656" lon="17.8104927">
        <ele>28.4962</ele>
        <time>2013-05-30T16:24:12Z</time>
      </trkpt>
      <trkpt lat="59.9515391" lon="17.8106165">
        <ele>28.4962</ele>
        <time>2013-05-30T16:24:13Z</time>
      </trkpt>
      <trkpt lat="59.9515142" lon="17.8107422">
        <ele>28.4962</ele>
        <time>2013-05-30T16:24:14Z</time>
      </trkpt>
      <trkpt lat="59.9514904" lon="17.8108702">
        <ele>28.9769</ele>
        <time>2013-05-30T16:24:15Z</time>
      </trkpt>
      <trkpt lat="59.9514676" lon="17.8109967">
        <ele>28.4962</ele>
        <time>2013-05-30T16:24:16Z</time>
      </trkpt>
      <trkpt lat="59.9514463" lon="17.8111251">
        <ele>28.4962</ele>
        <time>2013-05-30T16:24:17Z</time>
      </trkpt>
      <trkpt lat="59.9514256" lon="17.8112547">
        <ele>28.4962</ele>
        <time>2013-05-30T16:24:18Z</time>
      </trkpt>
      <trkpt lat="59.9514068" lon="17.8113861">
        <ele>28.4962</ele>
        <time>2013-05-30T16:24:19Z</time>
      </trkpt>
      <trkpt lat="59.9513903" lon="17.8115233">
        <ele>28.4962</ele>
        <time>2013-05-30T16:24:20Z</time>
      </trkpt>
      <trkpt lat="59.9513741" lon="17.8116581">
        <ele>28.4962</ele>
        <time>2013-05-30T16:24:21Z</time>
      </trkpt>
      <trkpt lat="59.9513591" lon="17.8117933">
        <ele>28.4962</ele>
        <time>2013-05-30T16:24:22Z</time>
      </trkpt>
      <trkpt lat="59.9513469" lon="17.811928">
        <ele>28.4962</ele>
        <time>2013-05-30T16:24:23Z</time>
      </trkpt>
      <trkpt lat="59.9513375" lon="17.8120736">
        <ele>28.4962</ele>
        <time>2013-05-30T16:24:24Z</time>
      </trkpt>
      <trkpt lat="59.9513309" lon="17.8122197">
        <ele>28.4962</ele>
        <time>2013-05-30T16:24:25Z</time>
      </trkpt>
      <trkpt lat="59.951327" lon="17.8123667">
        <ele>28.4962</ele>
        <time>2013-05-30T16:24:26Z</time>
      </trkpt>
      <trkpt lat="59.9513241" lon="17.8125152">
        <ele>28.9769</ele>
        <time>2013-05-30T16:24:27Z</time>
      </trkpt>
      <trkpt lat="59.9513226" lon="17.8126639">
        <ele>28.9769</ele>
        <time>2013-05-30T16:24:28Z</time>
      </trkpt>
      <trkpt lat="59.951322" lon="17.8128097">
        <ele>28.9769</ele>
        <time>2013-05-30T16:24:29Z</time>
      </trkpt>
      <trkpt lat="59.951321" lon="17.8129525">
        <ele>28.9769</ele>
        <time>2013-05-30T16:24:30Z</time>
      </trkpt>
      <trkpt lat="59.9513198" lon="17.8130934">
        <ele>28.9769</ele>
        <time>2013-05-30T16:24:31Z</time>
      </trkpt>
      <trkpt lat="59.9513188" lon="17.8132342">
        <ele>28.9769</ele>
        <time>2013-05-30T16:24:32Z</time>
      </trkpt>
      <trkpt lat="59.9513192" lon="17.8133765">
        <ele>29.4575</ele>
        <time>2013-05-30T16:24:33Z</time>
      </trkpt>
      <trkpt lat="59.9513204" lon="17.8135207">
        <ele>29.4575</ele>
        <time>2013-05-30T16:24:34Z</time>
      </trkpt>
      <trkpt lat="59.9513205" lon="17.813665">
        <ele>29.4575</ele>
        <time>2013-05-30T16:24:35Z</time>
      </trkpt>
      <trkpt lat="59.9513194" lon="17.8138088">
        <ele>29.4575</ele>
        <time>2013-05-30T16:24:36Z</time>
      </trkpt>
      <trkpt lat="59.951319" lon="17.813955">
        <ele>29.4575</ele>
        <time>2013-05-30T16:24:37Z</time>
      </trkpt>
      <trkpt lat="59.9513205" lon="17.8141026">
        <ele>29.9381</ele>
        <time>2013-05-30T16:24:38Z</time>
      </trkpt>
      <trkpt lat="59.9513219" lon="17.814249">
        <ele>29.9381</ele>
        <time>2013-05-30T16:24:39Z</time>
      </trkpt>
      <trkpt lat="59.9513215" lon="17.8143935">
        <ele>29.9381</ele>
        <time>2013-05-30T16:24:40Z</time>
      </trkpt>
      <trkpt lat="59.9513215" lon="17.8145372">
        <ele>29.9381</ele>
        <time>2013-05-30T16:24:41Z</time>
      </trkpt>
      <trkpt lat="59.9513203" lon="17.8146787">
        <ele>29.9381</ele>
        <time>2013-05-30T16:24:42Z</time>
      </trkpt>
      <trkpt lat="59.9513189" lon="17.8148202">
        <ele>29.9381</ele>
        <time>2013-05-30T16:24:43Z</time>
      </trkpt>
      <trkpt lat="59.9513173" lon="17.8149608">
        <ele>29.9381</ele>
        <time>2013-05-30T16:24:44Z</time>
      </trkpt>
      <trkpt lat="59.9513145" lon="17.8151008">
        <ele>29.9381</ele>
        <time>2013-05-30T16:24:45Z</time>
      </trkpt>
      <trkpt lat="59.9513104" lon="17.8152403">
        <ele>29.9381</ele>
        <time>2013-05-30T16:24:46Z</time>
      </trkpt>
      <trkpt lat="59.951306" lon="17.815379">
        <ele>29.9381</ele>
        <time>2013-05-30T16:24:47Z</time>
      </trkpt>
      <trkpt lat="59.9513013" lon="17.8155174">
        <ele>29.9381</ele>
        <time>2013-05-30T16:24:48Z</time>
      </trkpt>
      <trkpt lat="59.9512956" lon="17.8156556">
        <ele>29.9381</ele>
        <time>2013-05-30T16:24:49Z</time>
      </trkpt>
      <trkpt lat="59.9512887" lon="17.8157934">
        <ele>29.9381</ele>
        <time>2013-05-30T16:24:50Z</time>
      </trkpt>
      <trkpt lat="59.9512806" lon="17.8159302">
        <ele>29.9381</ele>
        <time>2013-05-30T16:24:51Z</time>
      </trkpt>
      <trkpt lat="59.9512722" lon="17.8160663">
        <ele>29.9381</ele>
        <time>2013-05-30T16:24:52Z</time>
      </trkpt>
      <trkpt lat="59.9512634" lon="17.8162011">
        <ele>29.9381</ele>
        <time>2013-05-30T16:24:53Z</time>
      </trkpt>
      <trkpt lat="59.9512531" lon="17.8163342">
        <ele>29.9381</ele>
        <time>2013-05-30T16:24:54Z</time>
      </trkpt>
      <trkpt lat="59.951242" lon="17.8164658">
        <ele>30.4188</ele>
        <time>2013-05-30T16:24:55Z</time>
      </trkpt>
      <trkpt lat="59.9512303" lon="17.8165963">
        <ele>30.4188</ele>
        <time>2013-05-30T16:24:56Z</time>
      </trkpt>
      <trkpt lat="59.9512185" lon="17.8167253">
        <ele>30.4188</ele>
        <time>2013-05-30T16:24:57Z</time>
      </trkpt>
      <trkpt lat="59.9512065" lon="17.8168541">
        <ele>30.4188</ele>
        <time>2013-05-30T16:24:58Z</time>
      </trkpt>
      <trkpt lat="59.9511944" lon="17.8169824">
        <ele>30.4188</ele>
        <time>2013-05-30T16:24:59Z</time>
      </trkpt>
      <trkpt lat="59.9511821" lon="17.8171102">
        <ele>30.4188</ele>
        <time>2013-05-30T16:25:00Z</time>
      </trkpt>
      <trkpt lat="59.9511698" lon="17.8172367">
        <ele>30.4188</ele>
        <time>2013-05-30T16:25:01Z</time>
      </trkpt>
      <trkpt lat="59.9511571" lon="17.817366">
        <ele>30.8995</ele>
        <time>2013-05-30T16:25:02Z</time>
      </trkpt>
      <trkpt lat="59.9511437" lon="17.8174944">
        <ele>30.8995</ele>
        <time>2013-05-30T16:25:03Z</time>
      </trkpt>
      <trkpt lat="59.9511315" lon="17.8176215">
        <ele>30.8995</ele>
        <time>2013-05-30T16:25:04Z</time>
      </trkpt>
      <trkpt lat="59.9511201" lon="17.8177484">
        <ele>30.8995</ele>
        <time>2013-05-30T16:25:05Z</time>
      </trkpt>
      <trkpt lat="59.9511089" lon="17.8178793">
        <ele>31.3801</ele>
        <time>2013-05-30T16:25:06Z</time>
      </trkpt>
      <trkpt lat="59.9510946" lon="17.8180017">
        <ele>31.3801</ele>
        <time>2013-05-30T16:25:07Z</time>
      </trkpt>
      <trkpt lat="59.9510796" lon="17.8181224">
        <ele>30.8995</ele>
        <time>2013-05-30T16:25:08Z</time>
      </trkpt>
      <trkpt lat="59.9510652" lon="17.8182414">
        <ele>30.8995</ele>
        <time>2013-05-30T16:25:09Z</time>
      </trkpt>
      <trkpt lat="59.9510505" lon="17.8183559">
        <ele>30.8995</ele>
        <time>2013-05-30T16:25:10Z</time>
      </trkpt>
      <trkpt lat="59.9510375" lon="17.8184757">
        <ele>30.8995</ele>
        <time>2013-05-30T16:25:11Z</time>
      </trkpt>
      <trkpt lat="59.951023" lon="17.8185886">
        <ele>30.4188</ele>
        <time>2013-05-30T16:25:12Z</time>
      </trkpt>
      <trkpt lat="59.9510099" lon="17.8187099">
        <ele>30.4188</ele>
        <time>2013-05-30T16:25:13Z</time>
      </trkpt>
      <trkpt lat="59.9509983" lon="17.8188326">
        <ele>30.4188</ele>
        <time>2013-05-30T16:25:14Z</time>
      </trkpt>
      <trkpt lat="59.9509862" lon="17.8189579">
        <ele>30.4188</ele>
        <time>2013-05-30T16:25:15Z</time>
      </trkpt>
      <trkpt lat="59.9509765" lon="17.8190854">
        <ele>30.4188</ele>
        <time>2013-05-30T16:25:16Z</time>
      </trkpt>
      <trkpt lat="59.9509707" lon="17.8192169">
        <ele>30.4188</ele>
        <time>2013-05-30T16:25:17Z</time>
      </trkpt>
      <trkpt lat="59.9509676" lon="17.8193489">
        <ele>30.4188</ele>
        <time>2013-05-30T16:25:18Z</time>
      </trkpt>
      <trkpt lat="59.9509656" lon="17.8194841">
        <ele>30.4188</ele>
        <time>2013-05-30T16:25:19Z</time>
      </trkpt>
      <trkpt lat="59.9509641" lon="17.8196199">
        <ele>30.4188</ele>
        <time>2013-05-30T16:25:20Z</time>
      </trkpt>
      <trkpt lat="59.9509626" lon="17.819756">
        <ele>30.4188</ele>
        <time>2013-05-30T16:25:21Z</time>
      </trkpt>
      <trkpt lat="59.9509613" lon="17.8198946">
        <ele>30.4188</ele>
        <time>2013-05-30T16:25:22Z</time>
      </trkpt>
      <trkpt lat="59.9509585" lon="17.8200343">
        <ele>30.4188</ele>
        <time>2013-05-30T16:25:23Z</time>
      </trkpt>
      <trkpt lat="59.9509536" lon="17.8201746">
        <ele>29.9381</ele>
        <time>2013-05-30T16:25:24Z</time>
      </trkpt>
      <trkpt lat="59.9509475" lon="17.8203166">
        <ele>29.9381</ele>
        <time>2013-05-30T16:25:25Z</time>
      </trkpt>
      <trkpt lat="59.9509408" lon="17.8204584">
        <ele>30.4188</ele>
        <time>2013-05-30T16:25:26Z</time>
      </trkpt>
      <trkpt lat="59.9509328" lon="17.8205984">
        <ele>29.9381</ele>
        <time>2013-05-30T16:25:27Z</time>
      </trkpt>
      <trkpt lat="59.9509248" lon="17.8207379">
        <ele>29.9381</ele>
        <time>2013-05-30T16:25:28Z</time>
      </trkpt>
      <trkpt lat="59.9509163" lon="17.8208777">
        <ele>29.9381</ele>
        <time>2013-05-30T16:25:29Z</time>
      </trkpt>
      <trkpt lat="59.9509066" lon="17.8210173">
        <ele>29.9381</ele>
        <time>2013-05-30T16:25:30Z</time>
      </trkpt>
      <trkpt lat="59.950896" lon="17.8211559">
        <ele>29.9381</ele>
        <time>2013-05-30T16:25:31Z</time>
      </trkpt>
      <trkpt lat="59.9508846" lon="17.8212951">
        <ele>29.9381</ele>
        <time>2013-05-30T16:25:32Z</time>
      </trkpt>
      <trkpt lat="59.9508719" lon="17.8214344">
        <ele>29.9381</ele>
        <time>2013-05-30T16:25:33Z</time>
      </trkpt>
      <trkpt lat="59.9508584" lon="17.8215721">
        <ele>29.9381</ele>
        <time>2013-05-30T16:25:34Z</time>
      </trkpt>
      <trkpt lat="59.950845" lon="17.8217095">
        <ele>29.9381</ele>
        <time>2013-05-30T16:25:35Z</time>
      </trkpt>
      <trkpt lat="59.9508312" lon="17.821848">
        <ele>29.9381</ele>
        <time>2013-05-30T16:25:36Z</time>
      </trkpt>
      <trkpt lat="59.9508164" lon="17.8219872">
        <ele>29.9381</ele>
        <time>2013-05-30T16:25:37Z</time>
      </trkpt>
      <trkpt lat="59.9508015" lon="17.8221269">
        <ele>29.9381</ele>
        <time>2013-05-30T16:25:38Z</time>
      </trkpt>
      <trkpt lat="59.950787" lon="17.8222661">
        <ele>29.9381</ele>
        <time>2013-05-30T16:25:39Z</time>
      </trkpt>
      <trkpt lat="59.9507729" lon="17.8224031">
        <ele>29.9381</ele>
        <time>2013-05-30T16:25:40Z</time>
      </trkpt>
      <trkpt lat="59.9507578" lon="17.8225401">
        <ele>29.9381</ele>
        <time>2013-05-30T16:25:41Z</time>
      </trkpt>
      <trkpt lat="59.9507365" lon="17.8226657">
        <ele>27.5349</ele>
        <time>2013-05-30T16:25:42Z</time>
      </trkpt>
      <trkpt lat="59.9507175" lon="17.8227898">
        <ele>26.0929</ele>
        <time>2013-05-30T16:25:43Z</time>
      </trkpt>
      <trkpt lat="59.950704" lon="17.8229151">
        <ele>26.0929</ele>
        <time>2013-05-30T16:25:44Z</time>
      </trkpt>
      <trkpt lat="59.9506917" lon="17.8230378">
        <ele>26.0929</ele>
        <time>2013-05-30T16:25:45Z</time>
      </trkpt>
      <trkpt lat="59.9506802" lon="17.8231626">
        <ele>25.6123</ele>
        <time>2013-05-30T16:25:46Z</time>
      </trkpt>
      <trkpt lat="59.9506693" lon="17.823291">
        <ele>25.6123</ele>
        <time>2013-05-30T16:25:47Z</time>
      </trkpt>
      <trkpt lat="59.9506554" lon="17.8234191">
        <ele>25.6123</ele>
        <time>2013-05-30T16:25:48Z</time>
      </trkpt>
      <trkpt lat="59.9506408" lon="17.8235507">
        <ele>25.6123</ele>
        <time>2013-05-30T16:25:49Z</time>
      </trkpt>
      <trkpt lat="59.9506243" lon="17.8236784">
        <ele>25.6123</ele>
        <time>2013-05-30T16:25:50Z</time>
      </trkpt>
      <trkpt lat="59.9506056" lon="17.8238024">
        <ele>25.6123</ele>
        <time>2013-05-30T16:25:51Z</time>
      </trkpt>
      <trkpt lat="59.9505811" lon="17.8239262">
        <ele>24.1703</ele>
        <time>2013-05-30T16:25:52Z</time>
      </trkpt>
      <trkpt lat="59.9505578" lon="17.8240545">
        <ele>24.1703</ele>
        <time>2013-05-30T16:25:53Z</time>
      </trkpt>
      <trkpt lat="59.950532" lon="17.8241763">
        <ele>23.209</ele>
        <time>2013-05-30T16:25:54Z</time>
      </trkpt>
      <trkpt lat="59.9505047" lon="17.8242966">
        <ele>22.7283</ele>
        <time>2013-05-30T16:25:55Z</time>
      </trkpt>
      <trkpt lat="59.9504764" lon="17.82441">
        <ele>22.2476</ele>
        <time>2013-05-30T16:25:56Z</time>
      </trkpt>
      <trkpt lat="59.9504495" lon="17.8245279">
        <ele>22.2476</ele>
        <time>2013-05-30T16:25:57Z</time>
      </trkpt>
      <trkpt lat="59.9504239" lon="17.8246467">
        <ele>22.2476</ele>
        <time>2013-05-30T16:25:58Z</time>
      </trkpt>
      <trkpt lat="59.9503978" lon="17.8247648">
        <ele>21.767</ele>
        <time>2013-05-30T16:25:59Z</time>
      </trkpt>
      <trkpt lat="59.9503716" lon="17.824882">
        <ele>21.767</ele>
        <time>2013-05-30T16:26:00Z</time>
      </trkpt>
      <trkpt lat="59.9503462" lon="17.8249986">
        <ele>21.767</ele>
        <time>2013-05-30T16:26:01Z</time>
      </trkpt>
      <trkpt lat="59.9503206" lon="17.8251155">
        <ele>21.767</ele>
        <time>2013-05-30T16:26:02Z</time>
      </trkpt>
      <trkpt lat="59.9502942" lon="17.8252321">
        <ele>21.767</ele>
        <time>2013-05-30T16:26:03Z</time>
      </trkpt>
      <trkpt lat="59.9502677" lon="17.8253492">
        <ele>21.767</ele>
        <time>2013-05-30T16:26:04Z</time>
      </trkpt>
      <trkpt lat="59.9502414" lon="17.8254661">
        <ele>21.767</ele>
        <time>2013-05-30T16:26:05Z</time>
      </trkpt>
      <trkpt lat="59.9502156" lon="17.8255841">
        <ele>22.2476</ele>
        <time>2013-05-30T16:26:06Z</time>
      </trkpt>
      <trkpt lat="59.9501896" lon="17.8257024">
        <ele>22.2476</ele>
        <time>2013-05-30T16:26:07Z</time>
      </trkpt>
      <trkpt lat="59.9501632" lon="17.8258203">
        <ele>22.7283</ele>
        <time>2013-05-30T16:26:08Z</time>
      </trkpt>
      <trkpt lat="59.9501362" lon="17.8259392">
        <ele>22.7283</ele>
        <time>2013-05-30T16:26:09Z</time>
      </trkpt>
      <trkpt lat="59.9501088" lon="17.8260578">
        <ele>22.7283</ele>
        <time>2013-05-30T16:26:10Z</time>
      </trkpt>
      <trkpt lat="59.9500837" lon="17.8261794">
        <ele>22.7283</ele>
        <time>2013-05-30T16:26:11Z</time>
      </trkpt>
      <trkpt lat="59.9500622" lon="17.8263044">
        <ele>22.7283</ele>
        <time>2013-05-30T16:26:12Z</time>
      </trkpt>
      <trkpt lat="59.9500435" lon="17.8264311">
        <ele>22.7283</ele>
        <time>2013-05-30T16:26:13Z</time>
      </trkpt>
      <trkpt lat="59.9500279" lon="17.8265586">
        <ele>22.7283</ele>
        <time>2013-05-30T16:26:14Z</time>
      </trkpt>
      <trkpt lat="59.9500159" lon="17.8266867">
        <ele>22.7283</ele>
        <time>2013-05-30T16:26:15Z</time>
      </trkpt>
      <trkpt lat="59.9500068" lon="17.8268142">
        <ele>22.7283</ele>
        <time>2013-05-30T16:26:16Z</time>
      </trkpt>
      <trkpt lat="59.949999" lon="17.8269445">
        <ele>23.209</ele>
        <time>2013-05-30T16:26:17Z</time>
      </trkpt>
      <trkpt lat="59.9499933" lon="17.8270751">
        <ele>23.209</ele>
        <time>2013-05-30T16:26:18Z</time>
      </trkpt>
      <trkpt lat="59.9499896" lon="17.8272073">
        <ele>23.209</ele>
        <time>2013-05-30T16:26:19Z</time>
      </trkpt>
      <trkpt lat="59.9499871" lon="17.8273413">
        <ele>23.6896</ele>
        <time>2013-05-30T16:26:20Z</time>
      </trkpt>
      <trkpt lat="59.9499862" lon="17.8274762">
        <ele>23.6896</ele>
        <time>2013-05-30T16:26:21Z</time>
      </trkpt>
      <trkpt lat="59.9499862" lon="17.8276111">
        <ele>23.6896</ele>
        <time>2013-05-30T16:26:22Z</time>
      </trkpt>
      <trkpt lat="59.949987" lon="17.827746">
        <ele>24.1703</ele>
        <time>2013-05-30T16:26:23Z</time>
      </trkpt>
      <trkpt lat="59.9499876" lon="17.8278789">
        <ele>24.1703</ele>
        <time>2013-05-30T16:26:24Z</time>
      </trkpt>
      <trkpt lat="59.9499884" lon="17.8280116">
        <ele>24.1703</ele>
        <time>2013-05-30T16:26:25Z</time>
      </trkpt>
      <trkpt lat="59.9499902" lon="17.8281431">
        <ele>24.1703</ele>
        <time>2013-05-30T16:26:26Z</time>
      </trkpt>
      <trkpt lat="59.9499936" lon="17.8282736">
        <ele>24.651</ele>
        <time>2013-05-30T16:26:27Z</time>
      </trkpt>
      <trkpt lat="59.9499974" lon="17.8284019">
        <ele>24.651</ele>
        <time>2013-05-30T16:26:28Z</time>
      </trkpt>
      <trkpt lat="59.9500015" lon="17.8285292">
        <ele>25.1317</ele>
        <time>2013-05-30T16:26:29Z</time>
      </trkpt>
      <trkpt lat="59.950005" lon="17.8286552">
        <ele>25.1317</ele>
        <time>2013-05-30T16:26:30Z</time>
      </trkpt>
      <trkpt lat="59.9500078" lon="17.82878">
        <ele>25.1317</ele>
        <time>2013-05-30T16:26:31Z</time>
      </trkpt>
      <trkpt lat="59.9500107" lon="17.828904">
        <ele>25.6123</ele>
        <time>2013-05-30T16:26:32Z</time>
      </trkpt>
      <trkpt lat="59.9500117" lon="17.829026">
        <ele>25.6123</ele>
        <time>2013-05-30T16:26:33Z</time>
      </trkpt>
      <trkpt lat="59.9500104" lon="17.829146">
        <ele>25.6123</ele>
        <time>2013-05-30T16:26:34Z</time>
      </trkpt>
      <trkpt lat="59.9500078" lon="17.8292616">
        <ele>26.0929</ele>
        <time>2013-05-30T16:26:35Z</time>
      </trkpt>
      <trkpt lat="59.9500041" lon="17.8293723">
        <ele>26.0929</ele>
        <time>2013-05-30T16:26:36Z</time>
      </trkpt>
      <trkpt lat="59.9499985" lon="17.8294794">
        <ele>26.5736</ele>
        <time>2013-05-30T16:26:37Z</time>
      </trkpt>
      <trkpt lat="59.949985" lon="17.8295718">
        <ele>26.5736</ele>
        <time>2013-05-30T16:26:38Z</time>
      </trkpt>
      <trkpt lat="59.9499657" lon="17.8296549">
        <ele>26.5736</ele>
        <time>2013-05-30T16:26:39Z</time>
      </trkpt>
      <trkpt lat="59.949941" lon="17.8297256">
        <ele>26.5736</ele>
        <time>2013-05-30T16:26:40Z</time>
      </trkpt>
      <trkpt lat="59.9499108" lon="17.8297787">
        <ele>26.5736</ele>
        <time>2013-05-30T16:26:41Z</time>
      </trkpt>
      <trkpt lat="59.9498756" lon="17.8298092">
        <ele>26.5736</ele>
        <time>2013-05-30T16:26:42Z</time>
      </trkpt>
      <trkpt lat="59.9498374" lon="17.8298184">
        <ele>26.5736</ele>
        <time>2013-05-30T16:26:43Z</time>
      </trkpt>
      <trkpt lat="59.9497968" lon="17.8297928">
        <ele>26.0929</ele>
        <time>2013-05-30T16:26:44Z</time>
      </trkpt>
      <trkpt lat="59.9497576" lon="17.829747">
        <ele>25.6123</ele>
        <time>2013-05-30T16:26:45Z</time>
      </trkpt>
      <trkpt lat="59.9497199" lon="17.8296897">
        <ele>25.6123</ele>
        <time>2013-05-30T16:26:46Z</time>
      </trkpt>
      <trkpt lat="59.949681" lon="17.8296237">
        <ele>25.6123</ele>
        <time>2013-05-30T16:26:47Z</time>
      </trkpt>
      <trkpt lat="59.9496408" lon="17.8295542">
        <ele>25.6123</ele>
        <time>2013-05-30T16:26:48Z</time>
      </trkpt>
      <trkpt lat="59.949599" lon="17.8294829">
        <ele>25.6123</ele>
        <time>2013-05-30T16:26:49Z</time>
      </trkpt>
      <trkpt lat="59.9495554" lon="17.829407">
        <ele>24.651</ele>
        <time>2013-05-30T16:26:50Z</time>
      </trkpt>
      <trkpt lat="59.9495083" lon="17.8293316">
        <ele>23.6896</ele>
        <time>2013-05-30T16:26:51Z</time>
      </trkpt>
      <trkpt lat="59.949457" lon="17.8292596">
        <ele>23.209</ele>
        <time>2013-05-30T16:26:52Z</time>
      </trkpt>
      <trkpt lat="59.9494023" lon="17.82919">
        <ele>22.7283</ele>
        <time>2013-05-30T16:26:53Z</time>
      </trkpt>
      <trkpt lat="59.9493448" lon="17.8291202">
        <ele>22.7283</ele>
        <time>2013-05-30T16:26:54Z</time>
      </trkpt>
      <trkpt lat="59.9492852" lon="17.8290519">
        <ele>22.7283</ele>
        <time>2013-05-30T16:26:55Z</time>
      </trkpt>
      <trkpt lat="59.9492245" lon="17.8289829">
        <ele>22.7283</ele>
        <time>2013-05-30T16:26:56Z</time>
      </trkpt>
      <trkpt lat="59.949163" lon="17.8289123">
        <ele>22.7283</ele>
        <time>2013-05-30T16:26:57Z</time>
      </trkpt>
      <trkpt lat="59.9490996" lon="17.8288395">
        <ele>23.209</ele>
        <time>2013-05-30T16:26:58Z</time>
      </trkpt>
      <trkpt lat="59.9490343" lon="17.8287647">
        <ele>23.209</ele>
        <time>2013-05-30T16:26:59Z</time>
      </trkpt>
      <trkpt lat="59.948968" lon="17.8286886">
        <ele>23.209</ele>
        <time>2013-05-30T16:27:00Z</time>
      </trkpt>
      <trkpt lat="59.9489002" lon="17.8286124">
        <ele>23.209</ele>
        <time>2013-05-30T16:27:01Z</time>
      </trkpt>
      <trkpt lat="59.9488319" lon="17.8285344">
        <ele>23.209</ele>
        <time>2013-05-30T16:27:02Z</time>
      </trkpt>
      <trkpt lat="59.9487631" lon="17.8284565">
        <ele>23.209</ele>
        <time>2013-05-30T16:27:03Z</time>
      </trkpt>
      <trkpt lat="59.9486934" lon="17.8283781">
        <ele>23.6896</ele>
        <time>2013-05-30T16:27:04Z</time>
      </trkpt>
      <trkpt lat="59.948622" lon="17.8282996">
        <ele>23.6896</ele>
        <time>2013-05-30T16:27:05Z</time>
      </trkpt>
      <trkpt lat="59.9485494" lon="17.8282213">
        <ele>23.209</ele>
        <time>2013-05-30T16:27:06Z</time>
      </trkpt>
      <trkpt lat="59.9484764" lon="17.8281467">
        <ele>23.6896</ele>
        <time>2013-05-30T16:27:07Z</time>
      </trkpt>
      <trkpt lat="59.9484056" lon="17.8280692">
        <ele>23.6896</ele>
        <time>2013-05-30T16:27:08Z</time>
      </trkpt>
      <trkpt lat="59.9483352" lon="17.8279926">
        <ele>23.6896</ele>
        <time>2013-05-30T16:27:09Z</time>
      </trkpt>
      <trkpt lat="59.948262" lon="17.8279116">
        <ele>22.2476</ele>
        <time>2013-05-30T16:27:10Z</time>
      </trkpt>
      <trkpt lat="59.948188" lon="17.8278355">
        <ele>21.767</ele>
        <time>2013-05-30T16:27:11Z</time>
      </trkpt>
      <trkpt lat="59.9481128" lon="17.827762">
        <ele>21.2864</ele>
        <time>2013-05-30T16:27:12Z</time>
      </trkpt>
      <trkpt lat="59.9480399" lon="17.8276917">
        <ele>21.767</ele>
        <time>2013-05-30T16:27:13Z</time>
      </trkpt>
      <trkpt lat="59.9479687" lon="17.8276179">
        <ele>22.2476</ele>
        <time>2013-05-30T16:27:14Z</time>
      </trkpt>
      <trkpt lat="59.9478964" lon="17.8275445">
        <ele>22.7283</ele>
        <time>2013-05-30T16:27:15Z</time>
      </trkpt>
      <trkpt lat="59.9478224" lon="17.8274688">
        <ele>22.7283</ele>
        <time>2013-05-30T16:27:16Z</time>
      </trkpt>
      <trkpt lat="59.9477475" lon="17.8273935">
        <ele>23.209</ele>
        <time>2013-05-30T16:27:17Z</time>
      </trkpt>
      <trkpt lat="59.9476717" lon="17.827318">
        <ele>23.6896</ele>
        <time>2013-05-30T16:27:18Z</time>
      </trkpt>
      <trkpt lat="59.9475963" lon="17.827242">
        <ele>24.1703</ele>
        <time>2013-05-30T16:27:19Z</time>
      </trkpt>
      <trkpt lat="59.9475214" lon="17.8271675">
        <ele>24.651</ele>
        <time>2013-05-30T16:27:20Z</time>
      </trkpt>
      <trkpt lat="59.9474462" lon="17.8270902">
        <ele>23.209</ele>
        <time>2013-05-30T16:27:21Z</time>
      </trkpt>
      <trkpt lat="59.9473753" lon="17.8270172">
        <ele>23.6896</ele>
        <time>2013-05-30T16:27:22Z</time>
      </trkpt>
      <trkpt lat="59.9473057" lon="17.8269452">
        <ele>23.6896</ele>
        <time>2013-05-30T16:27:23Z</time>
      </trkpt>
      <trkpt lat="59.9472359" lon="17.8268737">
        <ele>24.1703</ele>
        <time>2013-05-30T16:27:24Z</time>
      </trkpt>
      <trkpt lat="59.947166" lon="17.8268017">
        <ele>24.651</ele>
        <time>2013-05-30T16:27:25Z</time>
      </trkpt>
      <trkpt lat="59.9470962" lon="17.8267301">
        <ele>24.651</ele>
        <time>2013-05-30T16:27:26Z</time>
      </trkpt>
      <trkpt lat="59.9470257" lon="17.8266578">
        <ele>25.1317</ele>
        <time>2013-05-30T16:27:27Z</time>
      </trkpt>
      <trkpt lat="59.9469551" lon="17.8265856">
        <ele>25.6123</ele>
        <time>2013-05-30T16:27:28Z</time>
      </trkpt>
      <trkpt lat="59.9468841" lon="17.8265127">
        <ele>26.0929</ele>
        <time>2013-05-30T16:27:29Z</time>
      </trkpt>
      <trkpt lat="59.9468131" lon="17.8264392">
        <ele>26.5736</ele>
        <time>2013-05-30T16:27:30Z</time>
      </trkpt>
      <trkpt lat="59.9467418" lon="17.826366">
        <ele>27.0543</ele>
        <time>2013-05-30T16:27:31Z</time>
      </trkpt>
      <trkpt lat="59.9466703" lon="17.8262919">
        <ele>27.0543</ele>
        <time>2013-05-30T16:27:32Z</time>
      </trkpt>
      <trkpt lat="59.9465988" lon="17.8262179">
        <ele>27.5349</ele>
        <time>2013-05-30T16:27:33Z</time>
      </trkpt>
      <trkpt lat="59.9465273" lon="17.8261449">
        <ele>28.0155</ele>
        <time>2013-05-30T16:27:34Z</time>
      </trkpt>
      <trkpt lat="59.9464558" lon="17.8260718">
        <ele>28.0155</ele>
        <time>2013-05-30T16:27:35Z</time>
      </trkpt>
      <trkpt lat="59.9463854" lon="17.8259985">
        <ele>28.4962</ele>
        <time>2013-05-30T16:27:36Z</time>
      </trkpt>
      <trkpt lat="59.9463164" lon="17.8259267">
        <ele>28.4962</ele>
        <time>2013-05-30T16:27:37Z</time>
      </trkpt>
      <trkpt lat="59.9462486" lon="17.8258572">
        <ele>28.9769</ele>
        <time>2013-05-30T16:27:38Z</time>
      </trkpt>
      <trkpt lat="59.9461814" lon="17.8257891">
        <ele>29.4575</ele>
        <time>2013-05-30T16:27:39Z</time>
      </trkpt>
      <trkpt lat="59.946115" lon="17.8257216">
        <ele>29.4575</ele>
        <time>2013-05-30T16:27:40Z</time>
      </trkpt>
      <trkpt lat="59.9460492" lon="17.8256539">
        <ele>29.9381</ele>
        <time>2013-05-30T16:27:41Z</time>
      </trkpt>
      <trkpt lat="59.9459839" lon="17.825587">
        <ele>30.4188</ele>
        <time>2013-05-30T16:27:42Z</time>
      </trkpt>
      <trkpt lat="59.9459195" lon="17.8255207">
        <ele>30.8995</ele>
        <time>2013-05-30T16:27:43Z</time>
      </trkpt>
      <trkpt lat="59.9458559" lon="17.8254553">
        <ele>30.8995</ele>
        <time>2013-05-30T16:27:44Z</time>
      </trkpt>
      <trkpt lat="59.9457931" lon="17.8253896">
        <ele>30.8995</ele>
        <time>2013-05-30T16:27:45Z</time>
      </trkpt>
      <trkpt lat="59.9457309" lon="17.8253246">
        <ele>30.8995</ele>
        <time>2013-05-30T16:27:46Z</time>
      </trkpt>
      <trkpt lat="59.9456685" lon="17.8252596">
        <ele>30.8995</ele>
        <time>2013-05-30T16:27:47Z</time>
      </trkpt>
      <trkpt lat="59.9456062" lon="17.8251938">
        <ele>31.3801</ele>
        <time>2013-05-30T16:27:48Z</time>
      </trkpt>
      <trkpt lat="59.9455434" lon="17.825128">
        <ele>31.3801</ele>
        <time>2013-05-30T16:27:49Z</time>
      </trkpt>
      <trkpt lat="59.9454787" lon="17.8250632">
        <ele>31.3801</ele>
        <time>2013-05-30T16:27:50Z</time>
      </trkpt>
      <trkpt lat="59.945414" lon="17.8249985">
        <ele>31.8607</ele>
        <time>2013-05-30T16:27:51Z</time>
      </trkpt>
      <trkpt lat="59.9453499" lon="17.8249322">
        <ele>32.3416</ele>
        <time>2013-05-30T16:27:52Z</time>
      </trkpt>
      <trkpt lat="59.9452859" lon="17.8248649">
        <ele>32.3416</ele>
        <time>2013-05-30T16:27:53Z</time>
      </trkpt>
      <trkpt lat="59.9452227" lon="17.8247995">
        <ele>32.8223</ele>
        <time>2013-05-30T16:27:54Z</time>
      </trkpt>
      <trkpt lat="59.9451595" lon="17.8247353">
        <ele>33.3029</ele>
        <time>2013-05-30T16:27:55Z</time>
      </trkpt>
      <trkpt lat="59.9450964" lon="17.8246695">
        <ele>33.7834</ele>
        <time>2013-05-30T16:27:56Z</time>
      </trkpt>
      <trkpt lat="59.9450339" lon="17.8246053">
        <ele>34.2642</ele>
        <time>2013-05-30T16:27:57Z</time>
      </trkpt>
      <trkpt lat="59.9449707" lon="17.8245442">
        <ele>34.2642</ele>
        <time>2013-05-30T16:27:58Z</time>
      </trkpt>
      <trkpt lat="59.9449088" lon="17.8244785">
        <ele>34.7449</ele>
        <time>2013-05-30T16:27:59Z</time>
      </trkpt>
      <trkpt lat="59.9448472" lon="17.8244136">
        <ele>34.7449</ele>
        <time>2013-05-30T16:28:00Z</time>
      </trkpt>
      <trkpt lat="59.9447868" lon="17.8243489">
        <ele>35.2255</ele>
        <time>2013-05-30T16:28:01Z</time>
      </trkpt>
      <trkpt lat="59.9447265" lon="17.8242825">
        <ele>35.7061</ele>
        <time>2013-05-30T16:28:02Z</time>
      </trkpt>
      <trkpt lat="59.9446654" lon="17.8242167">
        <ele>35.7061</ele>
        <time>2013-05-30T16:28:03Z</time>
      </trkpt>
      <trkpt lat="59.9446049" lon="17.8241521">
        <ele>35.7061</ele>
        <time>2013-05-30T16:28:04Z</time>
      </trkpt>
      <trkpt lat="59.9445449" lon="17.8240862">
        <ele>36.1868</ele>
        <time>2013-05-30T16:28:05Z</time>
      </trkpt>
      <trkpt lat="59.9444858" lon="17.8240189">
        <ele>36.1868</ele>
        <time>2013-05-30T16:28:06Z</time>
      </trkpt>
      <trkpt lat="59.9444251" lon="17.8239521">
        <ele>36.1868</ele>
        <time>2013-05-30T16:28:07Z</time>
      </trkpt>
      <trkpt lat="59.9443651" lon="17.8238822">
        <ele>36.1868</ele>
        <time>2013-05-30T16:28:08Z</time>
      </trkpt>
      <trkpt lat="59.9443048" lon="17.8238156">
        <ele>36.6675</ele>
        <time>2013-05-30T16:28:09Z</time>
      </trkpt>
      <trkpt lat="59.9442454" lon="17.8237454">
        <ele>36.6675</ele>
        <time>2013-05-30T16:28:10Z</time>
      </trkpt>
      <trkpt lat="59.9441828" lon="17.8236682">
        <ele>36.6675</ele>
        <time>2013-05-30T16:28:11Z</time>
      </trkpt>
      <trkpt lat="59.9441209" lon="17.8235896">
        <ele>36.1868</ele>
        <time>2013-05-30T16:28:12Z</time>
      </trkpt>
      <trkpt lat="59.9440584" lon="17.8235111">
        <ele>35.7061</ele>
        <time>2013-05-30T16:28:13Z</time>
      </trkpt>
      <trkpt lat="59.9439982" lon="17.8234361">
        <ele>35.7061</ele>
        <time>2013-05-30T16:28:14Z</time>
      </trkpt>
      <trkpt lat="59.9439306" lon="17.8233527">
        <ele>33.3029</ele>
        <time>2013-05-30T16:28:15Z</time>
      </trkpt>
      <trkpt lat="59.9438642" lon="17.8232674">
        <ele>30.8995</ele>
        <time>2013-05-30T16:28:16Z</time>
      </trkpt>
      <trkpt lat="59.9437978" lon="17.8231802">
        <ele>28.9769</ele>
        <time>2013-05-30T16:28:17Z</time>
      </trkpt>
      <trkpt lat="59.9437306" lon="17.8230936">
        <ele>27.0543</ele>
        <time>2013-05-30T16:28:18Z</time>
      </trkpt>
      <trkpt lat="59.9436633" lon="17.8230077">
        <ele>25.6123</ele>
        <time>2013-05-30T16:28:19Z</time>
      </trkpt>
      <trkpt lat="59.9435959" lon="17.8229226">
        <ele>24.1703</ele>
        <time>2013-05-30T16:28:20Z</time>
      </trkpt>
      <trkpt lat="59.9435292" lon="17.8228389">
        <ele>22.7283</ele>
        <time>2013-05-30T16:28:21Z</time>
      </trkpt>
      <trkpt lat="59.9434637" lon="17.8227574">
        <ele>21.767</ele>
        <time>2013-05-30T16:28:22Z</time>
      </trkpt>
      <trkpt lat="59.9433985" lon="17.8226761">
        <ele>21.2864</ele>
        <time>2013-05-30T16:28:23Z</time>
      </trkpt>
      <trkpt lat="59.9433317" lon="17.8225944">
        <ele>20.325</ele>
        <time>2013-05-30T16:28:24Z</time>
      </trkpt>
      <trkpt lat="59.9432631" lon="17.8225114">
        <ele>19.8444</ele>
        <time>2013-05-30T16:28:25Z</time>
      </trkpt>
      <trkpt lat="59.943195" lon="17.8224275">
        <ele>18.8831</ele>
        <time>2013-05-30T16:28:26Z</time>
      </trkpt>
      <trkpt lat="59.9431276" lon="17.8223426">
        <ele>18.4023</ele>
        <time>2013-05-30T16:28:27Z</time>
      </trkpt>
      <trkpt lat="59.943059" lon="17.8222582">
        <ele>18.4023</ele>
        <time>2013-05-30T16:28:28Z</time>
      </trkpt>
      <trkpt lat="59.9429889" lon="17.8221737">
        <ele>18.4023</ele>
        <time>2013-05-30T16:28:29Z</time>
      </trkpt>
      <trkpt lat="59.9429172" lon="17.8220855">
        <ele>17.9218</ele>
        <time>2013-05-30T16:28:30Z</time>
      </trkpt>
      <trkpt lat="59.9428444" lon="17.821998">
        <ele>17.9218</ele>
        <time>2013-05-30T16:28:31Z</time>
      </trkpt>
      <trkpt lat="59.94277" lon="17.821909">
        <ele>17.9218</ele>
        <time>2013-05-30T16:28:32Z</time>
      </trkpt>
      <trkpt lat="59.9426948" lon="17.8218193">
        <ele>17.4412</ele>
        <time>2013-05-30T16:28:33Z</time>
      </trkpt>
      <trkpt lat="59.9426215" lon="17.8217297">
        <ele>16.9604</ele>
        <time>2013-05-30T16:28:34Z</time>
      </trkpt>
      <trkpt lat="59.9425506" lon="17.8216407">
        <ele>16.4797</ele>
        <time>2013-05-30T16:28:35Z</time>
      </trkpt>
      <trkpt lat="59.9424801" lon="17.8215526">
        <ele>15.999</ele>
        <time>2013-05-30T16:28:36Z</time>
      </trkpt>
      <trkpt lat="59.9424091" lon="17.8214641">
        <ele>15.5184</ele>
        <time>2013-05-30T16:28:37Z</time>
      </trkpt>
      <trkpt lat="59.9423381" lon="17.8213753">
        <ele>14.557</ele>
        <time>2013-05-30T16:28:38Z</time>
      </trkpt>
      <trkpt lat="59.9422682" lon="17.8212885">
        <ele>14.0764</ele>
        <time>2013-05-30T16:28:39Z</time>
      </trkpt>
      <trkpt lat="59.9421981" lon="17.8212033">
        <ele>14.557</ele>
        <time>2013-05-30T16:28:40Z</time>
      </trkpt>
      <trkpt lat="59.9421253" lon="17.821115">
        <ele>14.557</ele>
        <time>2013-05-30T16:28:41Z</time>
      </trkpt>
      <trkpt lat="59.9420516" lon="17.8210227">
        <ele>13.1151</ele>
        <time>2013-05-30T16:28:42Z</time>
      </trkpt>
      <trkpt lat="59.9419808" lon="17.8209332">
        <ele>12.1538</ele>
        <time>2013-05-30T16:28:43Z</time>
      </trkpt>
      <trkpt lat="59.9419082" lon="17.8208425">
        <ele>11.1925</ele>
        <time>2013-05-30T16:28:44Z</time>
      </trkpt>
      <trkpt lat="59.9418353" lon="17.8207547">
        <ele>11.1925</ele>
        <time>2013-05-30T16:28:45Z</time>
      </trkpt>
      <trkpt lat="59.9417648" lon="17.8206685">
        <ele>11.1925</ele>
        <time>2013-05-30T16:28:46Z</time>
      </trkpt>
      <trkpt lat="59.9416948" lon="17.8205817">
        <ele>11.1925</ele>
        <time>2013-05-30T16:28:47Z</time>
      </trkpt>
      <trkpt lat="59.9416236" lon="17.8204933">
        <ele>11.6732</ele>
        <time>2013-05-30T16:28:48Z</time>
      </trkpt>
      <trkpt lat="59.9415504" lon="17.8204043">
        <ele>12.1538</ele>
        <time>2013-05-30T16:28:49Z</time>
      </trkpt>
      <trkpt lat="59.9414778" lon="17.8203154">
        <ele>12.6344</ele>
        <time>2013-05-30T16:28:50Z</time>
      </trkpt>
      <trkpt lat="59.9414053" lon="17.8202255">
        <ele>13.1151</ele>
        <time>2013-05-30T16:28:51Z</time>
      </trkpt>
      <trkpt lat="59.9413337" lon="17.8201374">
        <ele>13.5958</ele>
        <time>2013-05-30T16:28:52Z</time>
      </trkpt>
      <trkpt lat="59.9412633" lon="17.8200507">
        <ele>14.557</ele>
        <time>2013-05-30T16:28:53Z</time>
      </trkpt>
      <trkpt lat="59.9411937" lon="17.8199644">
        <ele>15.0377</ele>
        <time>2013-05-30T16:28:54Z</time>
      </trkpt>
      <trkpt lat="59.9411251" lon="17.81988">
        <ele>15.0377</ele>
        <time>2013-05-30T16:28:55Z</time>
      </trkpt>
      <trkpt lat="59.9410577" lon="17.8197972">
        <ele>15.999</ele>
        <time>2013-05-30T16:28:56Z</time>
      </trkpt>
      <trkpt lat="59.940992" lon="17.8197142">
        <ele>16.4797</ele>
        <time>2013-05-30T16:28:57Z</time>
      </trkpt>
      <trkpt lat="59.9409279" lon="17.8196324">
        <ele>16.9604</ele>
        <time>2013-05-30T16:28:58Z</time>
      </trkpt>
      <trkpt lat="59.9408639" lon="17.8195522">
        <ele>17.4412</ele>
        <time>2013-05-30T16:28:59Z</time>
      </trkpt>
      <trkpt lat="59.9407998" lon="17.8194734">
        <ele>18.4023</ele>
        <time>2013-05-30T16:29:00Z</time>
      </trkpt>
      <trkpt lat="59.9407363" lon="17.8193966">
        <ele>18.8831</ele>
        <time>2013-05-30T16:29:01Z</time>
      </trkpt>
      <trkpt lat="59.9406727" lon="17.819319">
        <ele>19.8444</ele>
        <time>2013-05-30T16:29:02Z</time>
      </trkpt>
      <trkpt lat="59.9406094" lon="17.8192417">
        <ele>20.325</ele>
        <time>2013-05-30T16:29:03Z</time>
      </trkpt>
      <trkpt lat="59.9405464" lon="17.8191651">
        <ele>21.2864</ele>
        <time>2013-05-30T16:29:04Z</time>
      </trkpt>
      <trkpt lat="59.9404845" lon="17.8190886">
        <ele>21.767</ele>
        <time>2013-05-30T16:29:05Z</time>
      </trkpt>
      <trkpt lat="59.9404236" lon="17.8190124">
        <ele>22.7283</ele>
        <time>2013-05-30T16:29:06Z</time>
      </trkpt>
      <trkpt lat="59.9403641" lon="17.8189326">
        <ele>23.209</ele>
        <time>2013-05-30T16:29:07Z</time>
      </trkpt>
      <trkpt lat="59.9403055" lon="17.8188567">
        <ele>23.6896</ele>
        <time>2013-05-30T16:29:08Z</time>
      </trkpt>
      <trkpt lat="59.9402464" lon="17.8187834">
        <ele>24.1703</ele>
        <time>2013-05-30T16:29:09Z</time>
      </trkpt>
      <trkpt lat="59.9401873" lon="17.8187104">
        <ele>24.651</ele>
        <time>2013-05-30T16:29:10Z</time>
      </trkpt>
      <trkpt lat="59.9401283" lon="17.8186368">
        <ele>25.1317</ele>
        <time>2013-05-30T16:29:11Z</time>
      </trkpt>
      <trkpt lat="59.9400697" lon="17.8185621">
        <ele>25.6123</ele>
        <time>2013-05-30T16:29:12Z</time>
      </trkpt>
      <trkpt lat="59.9400101" lon="17.818488">
        <ele>26.5736</ele>
        <time>2013-05-30T16:29:13Z</time>
      </trkpt>
      <trkpt lat="59.9399494" lon="17.8184134">
        <ele>27.0543</ele>
        <time>2013-05-30T16:29:14Z</time>
      </trkpt>
      <trkpt lat="59.9398885" lon="17.8183399">
        <ele>27.5349</ele>
        <time>2013-05-30T16:29:15Z</time>
      </trkpt>
      <trkpt lat="59.9398279" lon="17.8182659">
        <ele>28.4962</ele>
        <time>2013-05-30T16:29:16Z</time>
      </trkpt>
      <trkpt lat="59.9397674" lon="17.8181932">
        <ele>28.9769</ele>
        <time>2013-05-30T16:29:17Z</time>
      </trkpt>
      <trkpt lat="59.939708" lon="17.8181196">
        <ele>29.4575</ele>
        <time>2013-05-30T16:29:18Z</time>
      </trkpt>
      <trkpt lat="59.9396492" lon="17.8180456">
        <ele>29.9381</ele>
        <time>2013-05-30T16:29:19Z</time>
      </trkpt>
      <trkpt lat="59.9395907" lon="17.8179709">
        <ele>29.9381</ele>
        <time>2013-05-30T16:29:20Z</time>
      </trkpt>
      <trkpt lat="59.9395322" lon="17.8178975">
        <ele>30.4188</ele>
        <time>2013-05-30T16:29:21Z</time>
      </trkpt>
      <trkpt lat="59.9394737" lon="17.8178256">
        <ele>30.8995</ele>
        <time>2013-05-30T16:29:22Z</time>
      </trkpt>
      <trkpt lat="59.9394149" lon="17.8177477">
        <ele>30.8995</ele>
        <time>2013-05-30T16:29:23Z</time>
      </trkpt>
      <trkpt lat="59.9393575" lon="17.8176758">
        <ele>31.8607</ele>
        <time>2013-05-30T16:29:24Z</time>
      </trkpt>
      <trkpt lat="59.9392995" lon="17.8176021">
        <ele>32.3416</ele>
        <time>2013-05-30T16:29:25Z</time>
      </trkpt>
      <trkpt lat="59.939241" lon="17.8175286">
        <ele>32.8223</ele>
        <time>2013-05-30T16:29:26Z</time>
      </trkpt>
      <trkpt lat="59.9391824" lon="17.8174557">
        <ele>33.3029</ele>
        <time>2013-05-30T16:29:27Z</time>
      </trkpt>
      <trkpt lat="59.9391237" lon="17.8173842">
        <ele>33.3029</ele>
        <time>2013-05-30T16:29:28Z</time>
      </trkpt>
      <trkpt lat="59.9390654" lon="17.8173122">
        <ele>33.7834</ele>
        <time>2013-05-30T16:29:29Z</time>
      </trkpt>
      <trkpt lat="59.939008" lon="17.8172418">
        <ele>34.2642</ele>
        <time>2013-05-30T16:29:30Z</time>
      </trkpt>
      <trkpt lat="59.9389512" lon="17.8171718">
        <ele>34.7449</ele>
        <time>2013-05-30T16:29:31Z</time>
      </trkpt>
      <trkpt lat="59.9388944" lon="17.8171045">
        <ele>35.2255</ele>
        <time>2013-05-30T16:29:32Z</time>
      </trkpt>
      <trkpt lat="59.9388373" lon="17.8170334">
        <ele>34.7449</ele>
        <time>2013-05-30T16:29:33Z</time>
      </trkpt>
      <trkpt lat="59.9387795" lon="17.8169618">
        <ele>34.2642</ele>
        <time>2013-05-30T16:29:34Z</time>
      </trkpt>
      <trkpt lat="59.9387241" lon="17.8168935">
        <ele>34.7449</ele>
        <time>2013-05-30T16:29:35Z</time>
      </trkpt>
      <trkpt lat="59.9386696" lon="17.8168284">
        <ele>36.1868</ele>
        <time>2013-05-30T16:29:36Z</time>
      </trkpt>
      <trkpt lat="59.938616" lon="17.8167666">
        <ele>37.6287</ele>
        <time>2013-05-30T16:29:37Z</time>
      </trkpt>
      <trkpt lat="59.9385597" lon="17.8166912">
        <ele>36.1868</ele>
        <time>2013-05-30T16:29:38Z</time>
      </trkpt>
      <trkpt lat="59.938501" lon="17.8166217">
        <ele>35.2255</ele>
        <time>2013-05-30T16:29:39Z</time>
      </trkpt>
      <trkpt lat="59.938443" lon="17.816546">
        <ele>32.8223</ele>
        <time>2013-05-30T16:29:40Z</time>
      </trkpt>
      <trkpt lat="59.9383861" lon="17.816475">
        <ele>31.8607</ele>
        <time>2013-05-30T16:29:41Z</time>
      </trkpt>
      <trkpt lat="59.9383298" lon="17.8164067">
        <ele>31.8607</ele>
        <time>2013-05-30T16:29:42Z</time>
      </trkpt>
      <trkpt lat="59.9382736" lon="17.8163335">
        <ele>31.8607</ele>
        <time>2013-05-30T16:29:43Z</time>
      </trkpt>
      <trkpt lat="59.9382144" lon="17.8162592">
        <ele>29.9381</ele>
        <time>2013-05-30T16:29:44Z</time>
      </trkpt>
      <trkpt lat="59.938155" lon="17.8161861">
        <ele>28.9769</ele>
        <time>2013-05-30T16:29:45Z</time>
      </trkpt>
      <trkpt lat="59.9380958" lon="17.8161093">
        <ele>28.4962</ele>
        <time>2013-05-30T16:29:46Z</time>
      </trkpt>
      <trkpt lat="59.9380374" lon="17.8160378">
        <ele>28.0155</ele>
        <time>2013-05-30T16:29:47Z</time>
      </trkpt>
      <trkpt lat="59.9379879" lon="17.8159458">
        <ele>28.0155</ele>
        <time>2013-05-30T16:29:48Z</time>
      </trkpt>
      <trkpt lat="59.9379263" lon="17.8158647">
        <ele>27.0543</ele>
        <time>2013-05-30T16:29:49Z</time>
      </trkpt>
      <trkpt lat="59.9378734" lon="17.8157845">
        <ele>27.0543</ele>
        <time>2013-05-30T16:29:50Z</time>
      </trkpt>
      <trkpt lat="59.9378132" lon="17.8157054">
        <ele>26.5736</ele>
        <time>2013-05-30T16:29:51Z</time>
      </trkpt>
      <trkpt lat="59.9377534" lon="17.8156245">
        <ele>26.0929</ele>
        <time>2013-05-30T16:29:52Z</time>
      </trkpt>
      <trkpt lat="59.9376999" lon="17.8155354">
        <ele>25.1317</ele>
        <time>2013-05-30T16:29:53Z</time>
      </trkpt>
      <trkpt lat="59.9376406" lon="17.8154432">
        <ele>24.651</ele>
        <time>2013-05-30T16:29:54Z</time>
      </trkpt>
      <trkpt lat="59.9375757" lon="17.8153503">
        <ele>24.1703</ele>
        <time>2013-05-30T16:29:55Z</time>
      </trkpt>
      <trkpt lat="59.9375159" lon="17.8152576">
        <ele>25.1317</ele>
        <time>2013-05-30T16:29:56Z</time>
      </trkpt>
      <trkpt lat="59.9374588" lon="17.8151578">
        <ele>25.1317</ele>
        <time>2013-05-30T16:29:57Z</time>
      </trkpt>
      <trkpt lat="59.9374041" lon="17.8150558">
        <ele>25.1317</ele>
        <time>2013-05-30T16:29:58Z</time>
      </trkpt>
      <trkpt lat="59.9373517" lon="17.8149517">
        <ele>25.1317</ele>
        <time>2013-05-30T16:29:59Z</time>
      </trkpt>
      <trkpt lat="59.9373056" lon="17.8148454">
        <ele>24.1703</ele>
        <time>2013-05-30T16:30:00Z</time>
      </trkpt>
      <trkpt lat="59.9372549" lon="17.8147351">
        <ele>23.6896</ele>
        <time>2013-05-30T16:30:01Z</time>
      </trkpt>
      <trkpt lat="59.9372026" lon="17.8146215">
        <ele>23.6896</ele>
        <time>2013-05-30T16:30:02Z</time>
      </trkpt>
      <trkpt lat="59.9371497" lon="17.8145036">
        <ele>22.2476</ele>
        <time>2013-05-30T16:30:03Z</time>
      </trkpt>
      <trkpt lat="59.9370991" lon="17.8143865">
        <ele>21.767</ele>
        <time>2013-05-30T16:30:04Z</time>
      </trkpt>
      <trkpt lat="59.9370488" lon="17.8142674">
        <ele>21.2864</ele>
        <time>2013-05-30T16:30:05Z</time>
      </trkpt>
      <trkpt lat="59.936999" lon="17.8141457">
        <ele>20.8057</ele>
        <time>2013-05-30T16:30:06Z</time>
      </trkpt>
      <trkpt lat="59.9369527" lon="17.8140224">
        <ele>20.8057</ele>
        <time>2013-05-30T16:30:07Z</time>
      </trkpt>
      <trkpt lat="59.9369053" lon="17.8138952">
        <ele>20.8057</ele>
        <time>2013-05-30T16:30:08Z</time>
      </trkpt>
      <trkpt lat="59.9368589" lon="17.813766">
        <ele>21.2864</ele>
        <time>2013-05-30T16:30:09Z</time>
      </trkpt>
      <trkpt lat="59.9368136" lon="17.8136355">
        <ele>21.2864</ele>
        <time>2013-05-30T16:30:10Z</time>
      </trkpt>
      <trkpt lat="59.9367667" lon="17.8135028">
        <ele>20.8057</ele>
        <time>2013-05-30T16:30:11Z</time>
      </trkpt>
      <trkpt lat="59.9367233" lon="17.8133687">
        <ele>20.325</ele>
        <time>2013-05-30T16:30:12Z</time>
      </trkpt>
      <trkpt lat="59.9366737" lon="17.8132356">
        <ele>20.325</ele>
        <time>2013-05-30T16:30:13Z</time>
      </trkpt>
      <trkpt lat="59.9366219" lon="17.8131043">
        <ele>20.325</ele>
        <time>2013-05-30T16:30:14Z</time>
      </trkpt>
      <trkpt lat="59.9365767" lon="17.8129734">
        <ele>19.8444</ele>
        <time>2013-05-30T16:30:15Z</time>
      </trkpt>
      <trkpt lat="59.936529" lon="17.8128423">
        <ele>19.3638</ele>
        <time>2013-05-30T16:30:16Z</time>
      </trkpt>
      <trkpt lat="59.936482" lon="17.8127124">
        <ele>19.3638</ele>
        <time>2013-05-30T16:30:17Z</time>
      </trkpt>
      <trkpt lat="59.9364349" lon="17.8125838">
        <ele>18.4023</ele>
        <time>2013-05-30T16:30:18Z</time>
      </trkpt>
      <trkpt lat="59.9363868" lon="17.8124568">
        <ele>17.9218</ele>
        <time>2013-05-30T16:30:19Z</time>
      </trkpt>
      <trkpt lat="59.936338" lon="17.8123316">
        <ele>17.9218</ele>
        <time>2013-05-30T16:30:20Z</time>
      </trkpt>
      <trkpt lat="59.9362915" lon="17.8122062">
        <ele>17.9218</ele>
        <time>2013-05-30T16:30:21Z</time>
      </trkpt>
      <trkpt lat="59.9362511" lon="17.8120822">
        <ele>17.9218</ele>
        <time>2013-05-30T16:30:22Z</time>
      </trkpt>
      <trkpt lat="59.9362099" lon="17.8119584">
        <ele>18.4023</ele>
        <time>2013-05-30T16:30:23Z</time>
      </trkpt>
      <trkpt lat="59.9361675" lon="17.8118343">
        <ele>18.8831</ele>
        <time>2013-05-30T16:30:24Z</time>
      </trkpt>
      <trkpt lat="59.9361282" lon="17.8117099">
        <ele>19.3638</ele>
        <time>2013-05-30T16:30:25Z</time>
      </trkpt>
      <trkpt lat="59.9360883" lon="17.8115847">
        <ele>19.3638</ele>
        <time>2013-05-30T16:30:26Z</time>
      </trkpt>
      <trkpt lat="59.9360475" lon="17.8114597">
        <ele>19.3638</ele>
        <time>2013-05-30T16:30:27Z</time>
      </trkpt>
      <trkpt lat="59.9360051" lon="17.8113328">
        <ele>19.3638</ele>
        <time>2013-05-30T16:30:28Z</time>
      </trkpt>
      <trkpt lat="59.9359623" lon="17.811205">
        <ele>19.3638</ele>
        <time>2013-05-30T16:30:29Z</time>
      </trkpt>
      <trkpt lat="59.9359179" lon="17.8110744">
        <ele>17.9218</ele>
        <time>2013-05-30T16:30:30Z</time>
      </trkpt>
      <trkpt lat="59.9358708" lon="17.8109481">
        <ele>18.4023</ele>
        <time>2013-05-30T16:30:31Z</time>
      </trkpt>
      <trkpt lat="59.9358271" lon="17.8108226">
        <ele>18.8831</ele>
        <time>2013-05-30T16:30:32Z</time>
      </trkpt>
      <trkpt lat="59.9357823" lon="17.8107001">
        <ele>19.3638</ele>
        <time>2013-05-30T16:30:33Z</time>
      </trkpt>
      <trkpt lat="59.9357403" lon="17.8105787">
        <ele>19.8444</ele>
        <time>2013-05-30T16:30:34Z</time>
      </trkpt>
      <trkpt lat="59.9356979" lon="17.8104595">
        <ele>20.8057</ele>
        <time>2013-05-30T16:30:35Z</time>
      </trkpt>
      <trkpt lat="59.9356577" lon="17.8103387">
        <ele>20.325</ele>
        <time>2013-05-30T16:30:36Z</time>
      </trkpt>
      <trkpt lat="59.9356178" lon="17.8102186">
        <ele>20.325</ele>
        <time>2013-05-30T16:30:37Z</time>
      </trkpt>
      <trkpt lat="59.9355782" lon="17.8100987">
        <ele>20.325</ele>
        <time>2013-05-30T16:30:38Z</time>
      </trkpt>
      <trkpt lat="59.9355388" lon="17.8099788">
        <ele>20.325</ele>
        <time>2013-05-30T16:30:39Z</time>
      </trkpt>
      <trkpt lat="59.9355015" lon="17.8098596">
        <ele>19.8444</ele>
        <time>2013-05-30T16:30:40Z</time>
      </trkpt>
      <trkpt lat="59.9354596" lon="17.8097353">
        <ele>18.4023</ele>
        <time>2013-05-30T16:30:41Z</time>
      </trkpt>
      <trkpt lat="59.9354207" lon="17.8096141">
        <ele>17.4412</ele>
        <time>2013-05-30T16:30:42Z</time>
      </trkpt>
      <trkpt lat="59.9353906" lon="17.8094981">
        <ele>16.9604</ele>
        <time>2013-05-30T16:30:43Z</time>
      </trkpt>
      <trkpt lat="59.9353579" lon="17.8093818">
        <ele>16.9604</ele>
        <time>2013-05-30T16:30:44Z</time>
      </trkpt>
      <trkpt lat="59.9353227" lon="17.8092639">
        <ele>16.9604</ele>
        <time>2013-05-30T16:30:45Z</time>
      </trkpt>
      <trkpt lat="59.9352856" lon="17.8091452">
        <ele>16.9604</ele>
        <time>2013-05-30T16:30:46Z</time>
      </trkpt>
      <trkpt lat="59.9352485" lon="17.8090266">
        <ele>17.4412</ele>
        <time>2013-05-30T16:30:47Z</time>
      </trkpt>
      <trkpt lat="59.9352134" lon="17.8089089">
        <ele>17.4412</ele>
        <time>2013-05-30T16:30:48Z</time>
      </trkpt>
      <trkpt lat="59.9351704" lon="17.8087887">
        <ele>17.4412</ele>
        <time>2013-05-30T16:30:49Z</time>
      </trkpt>
      <trkpt lat="59.9351186" lon="17.808665">
        <ele>18.4023</ele>
        <time>2013-05-30T16:30:50Z</time>
      </trkpt>
      <trkpt lat="59.9350762" lon="17.8085369">
        <ele>17.9218</ele>
        <time>2013-05-30T16:30:51Z</time>
      </trkpt>
      <trkpt lat="59.9350362" lon="17.8084081">
        <ele>17.9218</ele>
        <time>2013-05-30T16:30:52Z</time>
      </trkpt>
      <trkpt lat="59.9350254" lon="17.808286">
        <ele>17.9218</ele>
        <time>2013-05-30T16:30:53Z</time>
      </trkpt>
      <trkpt lat="59.9350027" lon="17.8081627">
        <ele>17.9218</ele>
        <time>2013-05-30T16:30:54Z</time>
      </trkpt>
      <trkpt lat="59.9349751" lon="17.8080367">
        <ele>17.4412</ele>
        <time>2013-05-30T16:30:55Z</time>
      </trkpt>
      <trkpt lat="59.9349239" lon="17.8079057">
        <ele>17.9218</ele>
        <time>2013-05-30T16:30:56Z</time>
      </trkpt>
      <trkpt lat="59.9348743" lon="17.8077765">
        <ele>17.9218</ele>
        <time>2013-05-30T16:30:57Z</time>
      </trkpt>
      <trkpt lat="59.9348227" lon="17.8076472">
        <ele>18.4023</ele>
        <time>2013-05-30T16:30:58Z</time>
      </trkpt>
      <trkpt lat="59.9347727" lon="17.8075181">
        <ele>18.4023</ele>
        <time>2013-05-30T16:30:59Z</time>
      </trkpt>
      <trkpt lat="59.9347203" lon="17.8073872">
        <ele>18.8831</ele>
        <time>2013-05-30T16:31:00Z</time>
      </trkpt>
      <trkpt lat="59.9346674" lon="17.8072544">
        <ele>18.4023</ele>
        <time>2013-05-30T16:31:01Z</time>
      </trkpt>
      <trkpt lat="59.9346123" lon="17.8071193">
        <ele>18.4023</ele>
        <time>2013-05-30T16:31:02Z</time>
      </trkpt>
      <trkpt lat="59.9345556" lon="17.806984">
        <ele>18.4023</ele>
        <time>2013-05-30T16:31:03Z</time>
      </trkpt>
      <trkpt lat="59.934498" lon="17.8068485">
        <ele>18.8831</ele>
        <time>2013-05-30T16:31:04Z</time>
      </trkpt>
      <trkpt lat="59.9344401" lon="17.8067131">
        <ele>18.8831</ele>
        <time>2013-05-30T16:31:05Z</time>
      </trkpt>
      <trkpt lat="59.9343826" lon="17.8065779">
        <ele>19.3638</ele>
        <time>2013-05-30T16:31:06Z</time>
      </trkpt>
      <trkpt lat="59.9343259" lon="17.8064436">
        <ele>20.325</ele>
        <time>2013-05-30T16:31:07Z</time>
      </trkpt>
      <trkpt lat="59.9342707" lon="17.8063097">
        <ele>20.8057</ele>
        <time>2013-05-30T16:31:08Z</time>
      </trkpt>
      <trkpt lat="59.9342138" lon="17.8061782">
        <ele>21.2864</ele>
        <time>2013-05-30T16:31:09Z</time>
      </trkpt>
      <trkpt lat="59.9341552" lon="17.8060522">
        <ele>22.2476</ele>
        <time>2013-05-30T16:31:10Z</time>
      </trkpt>
      <trkpt lat="59.9340977" lon="17.8059319">
        <ele>23.209</ele>
        <time>2013-05-30T16:31:11Z</time>
      </trkpt>
      <trkpt lat="59.9340433" lon="17.8058166">
        <ele>24.1703</ele>
        <time>2013-05-30T16:31:12Z</time>
      </trkpt>
      <trkpt lat="59.9339897" lon="17.8057045">
        <ele>25.1317</ele>
        <time>2013-05-30T16:31:13Z</time>
      </trkpt>
      <trkpt lat="59.9339355" lon="17.8055933">
        <ele>26.0929</ele>
        <time>2013-05-30T16:31:14Z</time>
      </trkpt>
      <trkpt lat="59.9338814" lon="17.8054844">
        <ele>26.5736</ele>
        <time>2013-05-30T16:31:15Z</time>
      </trkpt>
      <trkpt lat="59.9338272" lon="17.8053768">
        <ele>27.0543</ele>
        <time>2013-05-30T16:31:16Z</time>
      </trkpt>
      <trkpt lat="59.9337743" lon="17.8052702">
        <ele>28.0155</ele>
        <time>2013-05-30T16:31:17Z</time>
      </trkpt>
      <trkpt lat="59.9337246" lon="17.8051637">
        <ele>28.0155</ele>
        <time>2013-05-30T16:31:18Z</time>
      </trkpt>
      <trkpt lat="59.9336709" lon="17.805067">
        <ele>28.4962</ele>
        <time>2013-05-30T16:31:19Z</time>
      </trkpt>
      <trkpt lat="59.9336155" lon="17.8049727">
        <ele>28.9769</ele>
        <time>2013-05-30T16:31:20Z</time>
      </trkpt>
      <trkpt lat="59.9335624" lon="17.8048769">
        <ele>28.9769</ele>
        <time>2013-05-30T16:31:21Z</time>
      </trkpt>
      <trkpt lat="59.9335092" lon="17.8047817">
        <ele>29.4575</ele>
        <time>2013-05-30T16:31:22Z</time>
      </trkpt>
      <trkpt lat="59.9334564" lon="17.8046857">
        <ele>29.4575</ele>
        <time>2013-05-30T16:31:23Z</time>
      </trkpt>
      <trkpt lat="59.9333992" lon="17.8045842">
        <ele>27.5349</ele>
        <time>2013-05-30T16:31:24Z</time>
      </trkpt>
      <trkpt lat="59.9333425" lon="17.8044934">
        <ele>27.5349</ele>
        <time>2013-05-30T16:31:25Z</time>
      </trkpt>
      <trkpt lat="59.9332889" lon="17.8044059">
        <ele>27.5349</ele>
        <time>2013-05-30T16:31:26Z</time>
      </trkpt>
      <trkpt lat="59.9332342" lon="17.8043216">
        <ele>28.4962</ele>
        <time>2013-05-30T16:31:27Z</time>
      </trkpt>
      <trkpt lat="59.9331813" lon="17.8042382">
        <ele>28.9769</ele>
        <time>2013-05-30T16:31:28Z</time>
      </trkpt>
      <trkpt lat="59.9331289" lon="17.8041557">
        <ele>28.9769</ele>
        <time>2013-05-30T16:31:29Z</time>
      </trkpt>
      <trkpt lat="59.9330776" lon="17.8040759">
        <ele>29.4575</ele>
        <time>2013-05-30T16:31:30Z</time>
      </trkpt>
      <trkpt lat="59.9330285" lon="17.803995">
        <ele>29.4575</ele>
        <time>2013-05-30T16:31:31Z</time>
      </trkpt>
      <trkpt lat="59.9329807" lon="17.80392">
        <ele>30.4188</ele>
        <time>2013-05-30T16:31:32Z</time>
      </trkpt>
      <trkpt lat="59.9329326" lon="17.8038463">
        <ele>30.4188</ele>
        <time>2013-05-30T16:31:33Z</time>
      </trkpt>
      <trkpt lat="59.9328864" lon="17.8037744">
        <ele>30.8995</ele>
        <time>2013-05-30T16:31:34Z</time>
      </trkpt>
      <trkpt lat="59.9328414" lon="17.8037061">
        <ele>31.3801</ele>
        <time>2013-05-30T16:31:35Z</time>
      </trkpt>
      <trkpt lat="59.9327974" lon="17.8036391">
        <ele>31.8607</ele>
        <time>2013-05-30T16:31:36Z</time>
      </trkpt>
      <trkpt lat="59.9327533" lon="17.8035724">
        <ele>32.3416</ele>
        <time>2013-05-30T16:31:37Z</time>
      </trkpt>
      <trkpt lat="59.9327088" lon="17.8035057">
        <ele>32.3416</ele>
        <time>2013-05-30T16:31:38Z</time>
      </trkpt>
      <trkpt lat="59.9326653" lon="17.8034384">
        <ele>33.3029</ele>
        <time>2013-05-30T16:31:39Z</time>
      </trkpt>
      <trkpt lat="59.9326212" lon="17.80337">
        <ele>33.3029</ele>
        <time>2013-05-30T16:31:40Z</time>
      </trkpt>
      <trkpt lat="59.9325757" lon="17.8033027">
        <ele>33.7834</ele>
        <time>2013-05-30T16:31:41Z</time>
      </trkpt>
      <trkpt lat="59.9325326" lon="17.8032384">
        <ele>34.2642</ele>
        <time>2013-05-30T16:31:42Z</time>
      </trkpt>
      <trkpt lat="59.9324887" lon="17.8031727">
        <ele>34.7449</ele>
        <time>2013-05-30T16:31:43Z</time>
      </trkpt>
      <trkpt lat="59.932444" lon="17.8031051">
        <ele>34.7449</ele>
        <time>2013-05-30T16:31:44Z</time>
      </trkpt>
      <trkpt lat="59.9323991" lon="17.8030364">
        <ele>34.7449</ele>
        <time>2013-05-30T16:31:45Z</time>
      </trkpt>
      <trkpt lat="59.9323545" lon="17.8029675">
        <ele>35.2255</ele>
        <time>2013-05-30T16:31:46Z</time>
      </trkpt>
      <trkpt lat="59.9323094" lon="17.8028986">
        <ele>35.2255</ele>
        <time>2013-05-30T16:31:47Z</time>
      </trkpt>
      <trkpt lat="59.932265" lon="17.8028292">
        <ele>35.7061</ele>
        <time>2013-05-30T16:31:48Z</time>
      </trkpt>
      <trkpt lat="59.9322204" lon="17.802758">
        <ele>36.1868</ele>
        <time>2013-05-30T16:31:49Z</time>
      </trkpt>
      <trkpt lat="59.9321765" lon="17.8026867">
        <ele>36.1868</ele>
        <time>2013-05-30T16:31:50Z</time>
      </trkpt>
      <trkpt lat="59.9321359" lon="17.8026073">
        <ele>34.7449</ele>
        <time>2013-05-30T16:31:51Z</time>
      </trkpt>
      <trkpt lat="59.9320962" lon="17.8025311">
        <ele>34.2642</ele>
        <time>2013-05-30T16:31:52Z</time>
      </trkpt>
      <trkpt lat="59.9320552" lon="17.8024576">
        <ele>33.3029</ele>
        <time>2013-05-30T16:31:53Z</time>
      </trkpt>
      <trkpt lat="59.9320101" lon="17.8023889">
        <ele>33.7834</ele>
        <time>2013-05-30T16:31:54Z</time>
      </trkpt>
      <trkpt lat="59.931963" lon="17.8023185">
        <ele>33.3029</ele>
        <time>2013-05-30T16:31:55Z</time>
      </trkpt>
      <trkpt lat="59.9319154" lon="17.8022469">
        <ele>32.8223</ele>
        <time>2013-05-30T16:31:56Z</time>
      </trkpt>
      <trkpt lat="59.9318701" lon="17.8021744">
        <ele>32.8223</ele>
        <time>2013-05-30T16:31:57Z</time>
      </trkpt>
      <trkpt lat="59.9318251" lon="17.8021009">
        <ele>32.8223</ele>
        <time>2013-05-30T16:31:58Z</time>
      </trkpt>
      <trkpt lat="59.9317775" lon="17.8020268">
        <ele>32.3416</ele>
        <time>2013-05-30T16:31:59Z</time>
      </trkpt>
      <trkpt lat="59.9317255" lon="17.8019543">
        <ele>32.3416</ele>
        <time>2013-05-30T16:32:00Z</time>
      </trkpt>
      <trkpt lat="59.9316778" lon="17.8018787">
        <ele>31.3801</ele>
        <time>2013-05-30T16:32:01Z</time>
      </trkpt>
      <trkpt lat="59.9316271" lon="17.801803">
        <ele>30.8995</ele>
        <time>2013-05-30T16:32:02Z</time>
      </trkpt>
      <trkpt lat="59.9315802" lon="17.8017269">
        <ele>30.4188</ele>
        <time>2013-05-30T16:32:03Z</time>
      </trkpt>
      <trkpt lat="59.9315352" lon="17.8016485">
        <ele>28.9769</ele>
        <time>2013-05-30T16:32:04Z</time>
      </trkpt>
      <trkpt lat="59.9314884" lon="17.8015721">
        <ele>27.5349</ele>
        <time>2013-05-30T16:32:05Z</time>
      </trkpt>
      <trkpt lat="59.9314392" lon="17.8014943">
        <ele>25.6123</ele>
        <time>2013-05-30T16:32:06Z</time>
      </trkpt>
      <trkpt lat="59.9313957" lon="17.8014233">
        <ele>25.6123</ele>
        <time>2013-05-30T16:32:07Z</time>
      </trkpt>
      <trkpt lat="59.9313496" lon="17.8013517">
        <ele>25.6123</ele>
        <time>2013-05-30T16:32:08Z</time>
      </trkpt>
      <trkpt lat="59.9312999" lon="17.8012788">
        <ele>26.0929</ele>
        <time>2013-05-30T16:32:09Z</time>
      </trkpt>
      <trkpt lat="59.9312527" lon="17.8012088">
        <ele>26.5736</ele>
        <time>2013-05-30T16:32:10Z</time>
      </trkpt>
      <trkpt lat="59.931208" lon="17.8011394">
        <ele>27.0543</ele>
        <time>2013-05-30T16:32:11Z</time>
      </trkpt>
      <trkpt lat="59.9311569" lon="17.8010688">
        <ele>27.0543</ele>
        <time>2013-05-30T16:32:12Z</time>
      </trkpt>
      <trkpt lat="59.9311044" lon="17.8009949">
        <ele>26.0929</ele>
        <time>2013-05-30T16:32:13Z</time>
      </trkpt>
      <trkpt lat="59.9310486" lon="17.8009178">
        <ele>23.6896</ele>
        <time>2013-05-30T16:32:14Z</time>
      </trkpt>
      <trkpt lat="59.9309977" lon="17.800846">
        <ele>23.209</ele>
        <time>2013-05-30T16:32:15Z</time>
      </trkpt>
      <trkpt lat="59.9309431" lon="17.8007697">
        <ele>21.767</ele>
        <time>2013-05-30T16:32:16Z</time>
      </trkpt>
      <trkpt lat="59.9308917" lon="17.8006945">
        <ele>21.767</ele>
        <time>2013-05-30T16:32:17Z</time>
      </trkpt>
      <trkpt lat="59.9308366" lon="17.8006161">
        <ele>22.2476</ele>
        <time>2013-05-30T16:32:18Z</time>
      </trkpt>
      <trkpt lat="59.9307858" lon="17.8005417">
        <ele>22.2476</ele>
        <time>2013-05-30T16:32:19Z</time>
      </trkpt>
      <trkpt lat="59.930733" lon="17.8004654">
        <ele>22.7283</ele>
        <time>2013-05-30T16:32:20Z</time>
      </trkpt>
      <trkpt lat="59.9306814" lon="17.8003889">
        <ele>23.209</ele>
        <time>2013-05-30T16:32:21Z</time>
      </trkpt>
      <trkpt lat="59.9306292" lon="17.8003135">
        <ele>23.6896</ele>
        <time>2013-05-30T16:32:22Z</time>
      </trkpt>
      <trkpt lat="59.9305771" lon="17.8002338">
        <ele>22.7283</ele>
        <time>2013-05-30T16:32:23Z</time>
      </trkpt>
      <trkpt lat="59.930523" lon="17.8001572">
        <ele>21.767</ele>
        <time>2013-05-30T16:32:24Z</time>
      </trkpt>
      <trkpt lat="59.9304711" lon="17.8000852">
        <ele>22.2476</ele>
        <time>2013-05-30T16:32:25Z</time>
      </trkpt>
      <trkpt lat="59.9304193" lon="17.8000108">
        <ele>21.767</ele>
        <time>2013-05-30T16:32:26Z</time>
      </trkpt>
      <trkpt lat="59.9303659" lon="17.7999371">
        <ele>22.2476</ele>
        <time>2013-05-30T16:32:27Z</time>
      </trkpt>
      <trkpt lat="59.9303127" lon="17.7998609">
        <ele>22.7283</ele>
        <time>2013-05-30T16:32:28Z</time>
      </trkpt>
      <trkpt lat="59.9302675" lon="17.7997885">
        <ele>23.6896</ele>
        <time>2013-05-30T16:32:29Z</time>
      </trkpt>
      <trkpt lat="59.9302155" lon="17.7997118">
        <ele>23.209</ele>
        <time>2013-05-30T16:32:30Z</time>
      </trkpt>
      <trkpt lat="59.9301606" lon="17.7996336">
        <ele>21.767</ele>
        <time>2013-05-30T16:32:31Z</time>
      </trkpt>
      <trkpt lat="59.9301029" lon="17.7995522">
        <ele>19.3638</ele>
        <time>2013-05-30T16:32:32Z</time>
      </trkpt>
      <trkpt lat="59.9300556" lon="17.799474">
        <ele>18.4023</ele>
        <time>2013-05-30T16:32:33Z</time>
      </trkpt>
      <trkpt lat="59.9300016" lon="17.7993907">
        <ele>16.9604</ele>
        <time>2013-05-30T16:32:34Z</time>
      </trkpt>
      <trkpt lat="59.9299525" lon="17.7993094">
        <ele>16.4797</ele>
        <time>2013-05-30T16:32:35Z</time>
      </trkpt>
      <trkpt lat="59.9299013" lon="17.7992273">
        <ele>16.4797</ele>
        <time>2013-05-30T16:32:36Z</time>
      </trkpt>
      <trkpt lat="59.9298485" lon="17.7991403">
        <ele>15.5184</ele>
        <time>2013-05-30T16:32:37Z</time>
      </trkpt>
      <trkpt lat="59.9297888" lon="17.7990493">
        <ele>14.557</ele>
        <time>2013-05-30T16:32:38Z</time>
      </trkpt>
      <trkpt lat="59.9297282" lon="17.7989559">
        <ele>13.1151</ele>
        <time>2013-05-30T16:32:39Z</time>
      </trkpt>
      <trkpt lat="59.9296794" lon="17.7988648">
        <ele>12.6344</ele>
        <time>2013-05-30T16:32:40Z</time>
      </trkpt>
      <trkpt lat="59.9296283" lon="17.7987711">
        <ele>11.6732</ele>
        <time>2013-05-30T16:32:41Z</time>
      </trkpt>
      <trkpt lat="59.9295838" lon="17.7986792">
        <ele>11.6732</ele>
        <time>2013-05-30T16:32:42Z</time>
      </trkpt>
      <trkpt lat="59.9295308" lon="17.7985836">
        <ele>11.6732</ele>
        <time>2013-05-30T16:32:43Z</time>
      </trkpt>
      <trkpt lat="59.9294801" lon="17.7984898">
        <ele>12.6344</ele>
        <time>2013-05-30T16:32:44Z</time>
      </trkpt>
      <trkpt lat="59.9294232" lon="17.7983943">
        <ele>13.1151</ele>
        <time>2013-05-30T16:32:45Z</time>
      </trkpt>
      <trkpt lat="59.9293706" lon="17.7982935">
        <ele>11.6732</ele>
        <time>2013-05-30T16:32:46Z</time>
      </trkpt>
      <trkpt lat="59.9293142" lon="17.7981883">
        <ele>9.75061</ele>
        <time>2013-05-30T16:32:47Z</time>
      </trkpt>
      <trkpt lat="59.9292651" lon="17.7980902">
        <ele>9.75061</ele>
        <time>2013-05-30T16:32:48Z</time>
      </trkpt>
      <trkpt lat="59.9292149" lon="17.7979858">
        <ele>8.30859</ele>
        <time>2013-05-30T16:32:49Z</time>
      </trkpt>
      <trkpt lat="59.9291668" lon="17.7978892">
        <ele>9.75061</ele>
        <time>2013-05-30T16:32:50Z</time>
      </trkpt>
      <trkpt lat="59.9291184" lon="17.7977869">
        <ele>9.2699</ele>
        <time>2013-05-30T16:32:51Z</time>
      </trkpt>
      <trkpt lat="59.9290728" lon="17.7976834">
        <ele>8.30859</ele>
        <time>2013-05-30T16:32:52Z</time>
      </trkpt>
      <trkpt lat="59.929024" lon="17.7975858">
        <ele>9.2699</ele>
        <time>2013-05-30T16:32:53Z</time>
      </trkpt>
      <trkpt lat="59.928973" lon="17.7974824">
        <ele>9.2699</ele>
        <time>2013-05-30T16:32:54Z</time>
      </trkpt>
      <trkpt lat="59.928917" lon="17.7973748">
        <ele>9.2699</ele>
        <time>2013-05-30T16:32:55Z</time>
      </trkpt>
      <trkpt lat="59.9288653" lon="17.7972677">
        <ele>9.75061</ele>
        <time>2013-05-30T16:32:56Z</time>
      </trkpt>
      <trkpt lat="59.9288123" lon="17.7971576">
        <ele>9.2699</ele>
        <time>2013-05-30T16:32:57Z</time>
      </trkpt>
      <trkpt lat="59.928761" lon="17.7970469">
        <ele>9.75061</ele>
        <time>2013-05-30T16:32:58Z</time>
      </trkpt>
      <trkpt lat="59.9287082" lon="17.7969333">
        <ele>10.2312</ele>
        <time>2013-05-30T16:32:59Z</time>
      </trkpt>
      <trkpt lat="59.9286574" lon="17.7968208">
        <ele>10.7118</ele>
        <time>2013-05-30T16:33:00Z</time>
      </trkpt>
      <trkpt lat="59.9286066" lon="17.7967069">
        <ele>11.1925</ele>
        <time>2013-05-30T16:33:01Z</time>
      </trkpt>
      <trkpt lat="59.9285545" lon="17.7965903">
        <ele>11.6732</ele>
        <time>2013-05-30T16:33:02Z</time>
      </trkpt>
      <trkpt lat="59.9285031" lon="17.7964717">
        <ele>12.1538</ele>
        <time>2013-05-30T16:33:03Z</time>
      </trkpt>
      <trkpt lat="59.9284519" lon="17.796351">
        <ele>12.6344</ele>
        <time>2013-05-30T16:33:04Z</time>
      </trkpt>
      <trkpt lat="59.928402" lon="17.7962308">
        <ele>13.5958</ele>
        <time>2013-05-30T16:33:05Z</time>
      </trkpt>
      <trkpt lat="59.9283529" lon="17.7961089">
        <ele>14.557</ele>
        <time>2013-05-30T16:33:06Z</time>
      </trkpt>
      <trkpt lat="59.9283052" lon="17.7959863">
        <ele>15.0377</ele>
        <time>2013-05-30T16:33:07Z</time>
      </trkpt>
      <trkpt lat="59.9282576" lon="17.7958635">
        <ele>15.5184</ele>
        <time>2013-05-30T16:33:08Z</time>
      </trkpt>
      <trkpt lat="59.9282111" lon="17.7957408">
        <ele>16.4797</ele>
        <time>2013-05-30T16:33:09Z</time>
      </trkpt>
      <trkpt lat="59.9281633" lon="17.7956147">
        <ele>16.9604</ele>
        <time>2013-05-30T16:33:10Z</time>
      </trkpt>
      <trkpt lat="59.9281177" lon="17.7954864">
        <ele>17.4412</ele>
        <time>2013-05-30T16:33:11Z</time>
      </trkpt>
      <trkpt lat="59.9280727" lon="17.7953559">
        <ele>17.4412</ele>
        <time>2013-05-30T16:33:12Z</time>
      </trkpt>
      <trkpt lat="59.9280288" lon="17.7952192">
        <ele>16.9604</ele>
        <time>2013-05-30T16:33:13Z</time>
      </trkpt>
      <trkpt lat="59.9279855" lon="17.7950824">
        <ele>16.9604</ele>
        <time>2013-05-30T16:33:14Z</time>
      </trkpt>
      <trkpt lat="59.9279421" lon="17.7949433">
        <ele>16.4797</ele>
        <time>2013-05-30T16:33:15Z</time>
      </trkpt>
      <trkpt lat="59.9278979" lon="17.7947991">
        <ele>15.999</ele>
        <time>2013-05-30T16:33:16Z</time>
      </trkpt>
      <trkpt lat="59.9278535" lon="17.7946543">
        <ele>15.999</ele>
        <time>2013-05-30T16:33:17Z</time>
      </trkpt>
      <trkpt lat="59.9278089" lon="17.7945075">
        <ele>15.5184</ele>
        <time>2013-05-30T16:33:18Z</time>
      </trkpt>
      <trkpt lat="59.9277644" lon="17.7943587">
        <ele>15.5184</ele>
        <time>2013-05-30T16:33:19Z</time>
      </trkpt>
      <trkpt lat="59.9277199" lon="17.7942058">
        <ele>15.0377</ele>
        <time>2013-05-30T16:33:20Z</time>
      </trkpt>
      <trkpt lat="59.9276713" lon="17.7940423">
        <ele>11.6732</ele>
        <time>2013-05-30T16:33:21Z</time>
      </trkpt>
      <trkpt lat="59.9276304" lon="17.7938894">
        <ele>11.1925</ele>
        <time>2013-05-30T16:33:22Z</time>
      </trkpt>
      <trkpt lat="59.9275887" lon="17.7937308">
        <ele>10.7118</ele>
        <time>2013-05-30T16:33:23Z</time>
      </trkpt>
      <trkpt lat="59.9275413" lon="17.7935599">
        <ele>9.2699</ele>
        <time>2013-05-30T16:33:24Z</time>
      </trkpt>
      <trkpt lat="59.9274987" lon="17.7933953">
        <ele>8.78918</ele>
        <time>2013-05-30T16:33:25Z</time>
      </trkpt>
      <trkpt lat="59.9274594" lon="17.7932334">
        <ele>9.2699</ele>
        <time>2013-05-30T16:33:26Z</time>
      </trkpt>
      <trkpt lat="59.9274226" lon="17.7930731">
        <ele>10.2312</ele>
        <time>2013-05-30T16:33:27Z</time>
      </trkpt>
      <trkpt lat="59.9273815" lon="17.7929029">
        <ele>10.2312</ele>
        <time>2013-05-30T16:33:28Z</time>
      </trkpt>
      <trkpt lat="59.9273377" lon="17.7927247">
        <ele>9.2699</ele>
        <time>2013-05-30T16:33:29Z</time>
      </trkpt>
      <trkpt lat="59.9272977" lon="17.7925466">
        <ele>9.2699</ele>
        <time>2013-05-30T16:33:30Z</time>
      </trkpt>
      <trkpt lat="59.927264" lon="17.7923662">
        <ele>9.2699</ele>
        <time>2013-05-30T16:33:31Z</time>
      </trkpt>
      <trkpt lat="59.9272339" lon="17.7921835">
        <ele>9.75061</ele>
        <time>2013-05-30T16:33:32Z</time>
      </trkpt>
      <trkpt lat="59.9271981" lon="17.7919935">
        <ele>9.2699</ele>
        <time>2013-05-30T16:33:33Z</time>
      </trkpt>
      <trkpt lat="59.9271614" lon="17.7918049">
        <ele>8.78918</ele>
        <time>2013-05-30T16:33:34Z</time>
      </trkpt>
      <trkpt lat="59.9271233" lon="17.7916117">
        <ele>7.82788</ele>
        <time>2013-05-30T16:33:35Z</time>
      </trkpt>
      <trkpt lat="59.9270843" lon="17.7914147">
        <ele>6.86646</ele>
        <time>2013-05-30T16:33:36Z</time>
      </trkpt>
      <trkpt lat="59.9270443" lon="17.7912175">
        <ele>6.38586</ele>
        <time>2013-05-30T16:33:37Z</time>
      </trkpt>
      <trkpt lat="59.9270045" lon="17.7910201">
        <ele>5.90527</ele>
        <time>2013-05-30T16:33:38Z</time>
      </trkpt>
      <trkpt lat="59.9269671" lon="17.7908248">
        <ele>5.90527</ele>
        <time>2013-05-30T16:33:39Z</time>
      </trkpt>
      <trkpt lat="59.9269289" lon="17.7906289">
        <ele>5.90527</ele>
        <time>2013-05-30T16:33:40Z</time>
      </trkpt>
      <trkpt lat="59.9268971" lon="17.7904394">
        <ele>7.82788</ele>
        <time>2013-05-30T16:33:41Z</time>
      </trkpt>
      <trkpt lat="59.9268555" lon="17.7902388">
        <ele>7.34717</ele>
        <time>2013-05-30T16:33:42Z</time>
      </trkpt>
      <trkpt lat="59.9268138" lon="17.7900401">
        <ele>7.82788</ele>
        <time>2013-05-30T16:33:43Z</time>
      </trkpt>
      <trkpt lat="59.9267702" lon="17.7898422">
        <ele>8.30859</ele>
        <time>2013-05-30T16:33:44Z</time>
      </trkpt>
      <trkpt lat="59.9267295" lon="17.7896441">
        <ele>8.30859</ele>
        <time>2013-05-30T16:33:45Z</time>
      </trkpt>
      <trkpt lat="59.9266918" lon="17.7894503">
        <ele>7.82788</ele>
        <time>2013-05-30T16:33:46Z</time>
      </trkpt>
      <trkpt lat="59.9266557" lon="17.7892619">
        <ele>7.82788</ele>
        <time>2013-05-30T16:33:47Z</time>
      </trkpt>
      <trkpt lat="59.9266191" lon="17.7890787">
        <ele>7.82788</ele>
        <time>2013-05-30T16:33:48Z</time>
      </trkpt>
      <trkpt lat="59.9265829" lon="17.7889004">
        <ele>7.82788</ele>
        <time>2013-05-30T16:33:49Z</time>
      </trkpt>
      <trkpt lat="59.9265471" lon="17.7887252">
        <ele>7.82788</ele>
        <time>2013-05-30T16:33:50Z</time>
      </trkpt>
      <trkpt lat="59.9265109" lon="17.7885528">
        <ele>7.34717</ele>
        <time>2013-05-30T16:33:51Z</time>
      </trkpt>
      <trkpt lat="59.9264768" lon="17.788385">
        <ele>7.34717</ele>
        <time>2013-05-30T16:33:52Z</time>
      </trkpt>
      <trkpt lat="59.9264462" lon="17.7882221">
        <ele>7.34717</ele>
        <time>2013-05-30T16:33:53Z</time>
      </trkpt>
      <trkpt lat="59.9264159" lon="17.7880639">
        <ele>7.34717</ele>
        <time>2013-05-30T16:33:54Z</time>
      </trkpt>
      <trkpt lat="59.9263853" lon="17.7879096">
        <ele>7.34717</ele>
        <time>2013-05-30T16:33:55Z</time>
      </trkpt>
      <trkpt lat="59.9263548" lon="17.7877567">
        <ele>7.34717</ele>
        <time>2013-05-30T16:33:56Z</time>
      </trkpt>
      <trkpt lat="59.9263243" lon="17.7876045">
        <ele>7.34717</ele>
        <time>2013-05-30T16:33:57Z</time>
      </trkpt>
      <trkpt lat="59.9262943" lon="17.7874531">
        <ele>7.34717</ele>
        <time>2013-05-30T16:33:58Z</time>
      </trkpt>
      <trkpt lat="59.9262648" lon="17.7873013">
        <ele>7.34717</ele>
        <time>2013-05-30T16:33:59Z</time>
      </trkpt>
      <trkpt lat="59.9262349" lon="17.7871496">
        <ele>7.34717</ele>
        <time>2013-05-30T16:34:00Z</time>
      </trkpt>
      <trkpt lat="59.9262052" lon="17.7869976">
        <ele>7.34717</ele>
        <time>2013-05-30T16:34:01Z</time>
      </trkpt>
      <trkpt lat="59.9261747" lon="17.7868445">
        <ele>7.34717</ele>
        <time>2013-05-30T16:34:02Z</time>
      </trkpt>
      <trkpt lat="59.9261441" lon="17.7866907">
        <ele>7.34717</ele>
        <time>2013-05-30T16:34:03Z</time>
      </trkpt>
      <trkpt lat="59.9261141" lon="17.7865357">
        <ele>7.34717</ele>
        <time>2013-05-30T16:34:04Z</time>
      </trkpt>
      <trkpt lat="59.926084" lon="17.7863809">
        <ele>6.86646</ele>
        <time>2013-05-30T16:34:05Z</time>
      </trkpt>
      <trkpt lat="59.9260543" lon="17.7862265">
        <ele>7.34717</ele>
        <time>2013-05-30T16:34:06Z</time>
      </trkpt>
      <trkpt lat="59.9260251" lon="17.7860716">
        <ele>6.86646</ele>
        <time>2013-05-30T16:34:07Z</time>
      </trkpt>
      <trkpt lat="59.9259949" lon="17.7859156">
        <ele>7.34717</ele>
        <time>2013-05-30T16:34:08Z</time>
      </trkpt>
      <trkpt lat="59.9259638" lon="17.7857572">
        <ele>6.86646</ele>
        <time>2013-05-30T16:34:09Z</time>
      </trkpt>
      <trkpt lat="59.9259323" lon="17.7855991">
        <ele>6.86646</ele>
        <time>2013-05-30T16:34:10Z</time>
      </trkpt>
      <trkpt lat="59.9259007" lon="17.7854411">
        <ele>7.34717</ele>
        <time>2013-05-30T16:34:11Z</time>
      </trkpt>
      <trkpt lat="59.9258706" lon="17.7852832">
        <ele>7.34717</ele>
        <time>2013-05-30T16:34:12Z</time>
      </trkpt>
      <trkpt lat="59.9258421" lon="17.7851257">
        <ele>6.86646</ele>
        <time>2013-05-30T16:34:13Z</time>
      </trkpt>
      <trkpt lat="59.9258099" lon="17.784969">
        <ele>8.30859</ele>
        <time>2013-05-30T16:34:14Z</time>
      </trkpt>
      <trkpt lat="59.9257792" lon="17.7848169">
        <ele>10.2312</ele>
        <time>2013-05-30T16:34:15Z</time>
      </trkpt>
      <trkpt lat="59.9257482" lon="17.7846646">
        <ele>11.6732</ele>
        <time>2013-05-30T16:34:16Z</time>
      </trkpt>
      <trkpt lat="59.9257157" lon="17.7845093">
        <ele>11.6732</ele>
        <time>2013-05-30T16:34:17Z</time>
      </trkpt>
      <trkpt lat="59.9256846" lon="17.7843553">
        <ele>11.1925</ele>
        <time>2013-05-30T16:34:18Z</time>
      </trkpt>
      <trkpt lat="59.9256536" lon="17.784201">
        <ele>11.1925</ele>
        <time>2013-05-30T16:34:19Z</time>
      </trkpt>
      <trkpt lat="59.925624" lon="17.7840461">
        <ele>10.7118</ele>
        <time>2013-05-30T16:34:20Z</time>
      </trkpt>
      <trkpt lat="59.9255934" lon="17.7838895">
        <ele>10.2312</ele>
        <time>2013-05-30T16:34:21Z</time>
      </trkpt>
      <trkpt lat="59.9255612" lon="17.7837317">
        <ele>10.2312</ele>
        <time>2013-05-30T16:34:22Z</time>
      </trkpt>
      <trkpt lat="59.9255308" lon="17.7835741">
        <ele>9.75061</ele>
        <time>2013-05-30T16:34:23Z</time>
      </trkpt>
      <trkpt lat="59.9255023" lon="17.7834164">
        <ele>9.75061</ele>
        <time>2013-05-30T16:34:24Z</time>
      </trkpt>
      <trkpt lat="59.9254747" lon="17.7832582">
        <ele>9.2699</ele>
        <time>2013-05-30T16:34:25Z</time>
      </trkpt>
      <trkpt lat="59.9254472" lon="17.7830993">
        <ele>9.2699</ele>
        <time>2013-05-30T16:34:26Z</time>
      </trkpt>
      <trkpt lat="59.9254206" lon="17.7829403">
        <ele>8.78918</ele>
        <time>2013-05-30T16:34:27Z</time>
      </trkpt>
      <trkpt lat="59.9253951" lon="17.7827796">
        <ele>8.78918</ele>
        <time>2013-05-30T16:34:28Z</time>
      </trkpt>
      <trkpt lat="59.92537" lon="17.782618">
        <ele>8.78918</ele>
        <time>2013-05-30T16:34:29Z</time>
      </trkpt>
      <trkpt lat="59.9253454" lon="17.7824556">
        <ele>8.30859</ele>
        <time>2013-05-30T16:34:30Z</time>
      </trkpt>
      <trkpt lat="59.925321" lon="17.782292">
        <ele>8.30859</ele>
        <time>2013-05-30T16:34:31Z</time>
      </trkpt>
      <trkpt lat="59.925297" lon="17.7821269">
        <ele>7.82788</ele>
        <time>2013-05-30T16:34:32Z</time>
      </trkpt>
      <trkpt lat="59.925277" lon="17.7819635">
        <ele>8.30859</ele>
        <time>2013-05-30T16:34:33Z</time>
      </trkpt>
      <trkpt lat="59.9252522" lon="17.7817952">
        <ele>8.78918</ele>
        <time>2013-05-30T16:34:34Z</time>
      </trkpt>
      <trkpt lat="59.9252314" lon="17.7816325">
        <ele>9.75061</ele>
        <time>2013-05-30T16:34:35Z</time>
      </trkpt>
      <trkpt lat="59.9252156" lon="17.7814768">
        <ele>10.2312</ele>
        <time>2013-05-30T16:34:36Z</time>
      </trkpt>
      <trkpt lat="59.9251977" lon="17.7813203">
        <ele>10.7118</ele>
        <time>2013-05-30T16:34:37Z</time>
      </trkpt>
      <trkpt lat="59.9251817" lon="17.7811668">
        <ele>10.7118</ele>
        <time>2013-05-30T16:34:38Z</time>
      </trkpt>
      <trkpt lat="59.9251672" lon="17.7810153">
        <ele>11.1925</ele>
        <time>2013-05-30T16:34:39Z</time>
      </trkpt>
      <trkpt lat="59.9251537" lon="17.780864">
        <ele>11.1925</ele>
        <time>2013-05-30T16:34:40Z</time>
      </trkpt>
      <trkpt lat="59.9251413" lon="17.780712">
        <ele>11.6732</ele>
        <time>2013-05-30T16:34:41Z</time>
      </trkpt>
      <trkpt lat="59.9251292" lon="17.7805598">
        <ele>11.6732</ele>
        <time>2013-05-30T16:34:42Z</time>
      </trkpt>
      <trkpt lat="59.9251159" lon="17.7804061">
        <ele>12.1538</ele>
        <time>2013-05-30T16:34:43Z</time>
      </trkpt>
      <trkpt lat="59.9251022" lon="17.7802507">
        <ele>12.1538</ele>
        <time>2013-05-30T16:34:44Z</time>
      </trkpt>
      <trkpt lat="59.9250895" lon="17.7800954">
        <ele>12.1538</ele>
        <time>2013-05-30T16:34:45Z</time>
      </trkpt>
      <trkpt lat="59.925077" lon="17.7799395">
        <ele>12.6344</ele>
        <time>2013-05-30T16:34:46Z</time>
      </trkpt>
      <trkpt lat="59.9250661" lon="17.7797845">
        <ele>12.6344</ele>
        <time>2013-05-30T16:34:47Z</time>
      </trkpt>
      <trkpt lat="59.9250554" lon="17.7796292">
        <ele>13.1151</ele>
        <time>2013-05-30T16:34:48Z</time>
      </trkpt>
      <trkpt lat="59.9250464" lon="17.7794751">
        <ele>13.1151</ele>
        <time>2013-05-30T16:34:49Z</time>
      </trkpt>
      <trkpt lat="59.9250365" lon="17.7793191">
        <ele>13.1151</ele>
        <time>2013-05-30T16:34:50Z</time>
      </trkpt>
      <trkpt lat="59.9250271" lon="17.7791624">
        <ele>13.5958</ele>
        <time>2013-05-30T16:34:51Z</time>
      </trkpt>
      <trkpt lat="59.92502" lon="17.7790076">
        <ele>13.5958</ele>
        <time>2013-05-30T16:34:52Z</time>
      </trkpt>
      <trkpt lat="59.9250132" lon="17.7788518">
        <ele>13.5958</ele>
        <time>2013-05-30T16:34:53Z</time>
      </trkpt>
      <trkpt lat="59.9250076" lon="17.7786956">
        <ele>14.0764</ele>
        <time>2013-05-30T16:34:54Z</time>
      </trkpt>
      <trkpt lat="59.9250022" lon="17.7785403">
        <ele>14.0764</ele>
        <time>2013-05-30T16:34:55Z</time>
      </trkpt>
      <trkpt lat="59.9249971" lon="17.7783868">
        <ele>14.0764</ele>
        <time>2013-05-30T16:34:56Z</time>
      </trkpt>
      <trkpt lat="59.9249922" lon="17.7782336">
        <ele>14.557</ele>
        <time>2013-05-30T16:34:57Z</time>
      </trkpt>
      <trkpt lat="59.9249862" lon="17.7780807">
        <ele>14.557</ele>
        <time>2013-05-30T16:34:58Z</time>
      </trkpt>
      <trkpt lat="59.9249807" lon="17.7779294">
        <ele>14.557</ele>
        <time>2013-05-30T16:34:59Z</time>
      </trkpt>
      <trkpt lat="59.924977" lon="17.7777804">
        <ele>14.557</ele>
        <time>2013-05-30T16:35:00Z</time>
      </trkpt>
      <trkpt lat="59.9249693" lon="17.7776332">
        <ele>15.0377</ele>
        <time>2013-05-30T16:35:01Z</time>
      </trkpt>
      <trkpt lat="59.9249587" lon="17.7774866">
        <ele>15.5184</ele>
        <time>2013-05-30T16:35:02Z</time>
      </trkpt>
      <trkpt lat="59.9249468" lon="17.7773408">
        <ele>15.999</ele>
        <time>2013-05-30T16:35:03Z</time>
      </trkpt>
      <trkpt lat="59.9249346" lon="17.7771934">
        <ele>15.999</ele>
        <time>2013-05-30T16:35:04Z</time>
      </trkpt>
      <trkpt lat="59.924922" lon="17.7770461">
        <ele>16.4797</ele>
        <time>2013-05-30T16:35:05Z</time>
      </trkpt>
      <trkpt lat="59.9249082" lon="17.7768984">
        <ele>17.4412</ele>
        <time>2013-05-30T16:35:06Z</time>
      </trkpt>
      <trkpt lat="59.9248938" lon="17.7767496">
        <ele>17.9218</ele>
        <time>2013-05-30T16:35:07Z</time>
      </trkpt>
      <trkpt lat="59.9248793" lon="17.7765997">
        <ele>18.4023</ele>
        <time>2013-05-30T16:35:08Z</time>
      </trkpt>
      <trkpt lat="59.9248657" lon="17.7764485">
        <ele>18.8831</ele>
        <time>2013-05-30T16:35:09Z</time>
      </trkpt>
      <trkpt lat="59.9248538" lon="17.7762967">
        <ele>19.3638</ele>
        <time>2013-05-30T16:35:10Z</time>
      </trkpt>
      <trkpt lat="59.9248398" lon="17.776145">
        <ele>19.8444</ele>
        <time>2013-05-30T16:35:11Z</time>
      </trkpt>
      <trkpt lat="59.9248233" lon="17.7759921">
        <ele>20.325</ele>
        <time>2013-05-30T16:35:12Z</time>
      </trkpt>
      <trkpt lat="59.9248049" lon="17.7758313">
        <ele>19.3638</ele>
        <time>2013-05-30T16:35:13Z</time>
      </trkpt>
      <trkpt lat="59.9247883" lon="17.775674">
        <ele>19.3638</ele>
        <time>2013-05-30T16:35:14Z</time>
      </trkpt>
      <trkpt lat="59.9247714" lon="17.7755218">
        <ele>19.3638</ele>
        <time>2013-05-30T16:35:15Z</time>
      </trkpt>
      <trkpt lat="59.9247541" lon="17.7753737">
        <ele>19.3638</ele>
        <time>2013-05-30T16:35:16Z</time>
      </trkpt>
      <trkpt lat="59.9247362" lon="17.7752281">
        <ele>19.8444</ele>
        <time>2013-05-30T16:35:17Z</time>
      </trkpt>
      <trkpt lat="59.9247184" lon="17.775084">
        <ele>20.325</ele>
        <time>2013-05-30T16:35:18Z</time>
      </trkpt>
      <trkpt lat="59.9246987" lon="17.7749401">
        <ele>21.2864</ele>
        <time>2013-05-30T16:35:19Z</time>
      </trkpt>
      <trkpt lat="59.9246751" lon="17.7747961">
        <ele>21.767</ele>
        <time>2013-05-30T16:35:20Z</time>
      </trkpt>
      <trkpt lat="59.924652" lon="17.774652">
        <ele>22.7283</ele>
        <time>2013-05-30T16:35:21Z</time>
      </trkpt>
      <trkpt lat="59.92463" lon="17.774508">
        <ele>23.209</ele>
        <time>2013-05-30T16:35:22Z</time>
      </trkpt>
      <trkpt lat="59.9246087" lon="17.7743643">
        <ele>24.1703</ele>
        <time>2013-05-30T16:35:23Z</time>
      </trkpt>
      <trkpt lat="59.9245865" lon="17.7742194">
        <ele>24.651</ele>
        <time>2013-05-30T16:35:24Z</time>
      </trkpt>
      <trkpt lat="59.9245636" lon="17.7740739">
        <ele>25.6123</ele>
        <time>2013-05-30T16:35:25Z</time>
      </trkpt>
      <trkpt lat="59.9245414" lon="17.7739294">
        <ele>26.0929</ele>
        <time>2013-05-30T16:35:26Z</time>
      </trkpt>
      <trkpt lat="59.9245165" lon="17.7737828">
        <ele>27.0543</ele>
        <time>2013-05-30T16:35:27Z</time>
      </trkpt>
      <trkpt lat="59.9244936" lon="17.7736384">
        <ele>27.5349</ele>
        <time>2013-05-30T16:35:28Z</time>
      </trkpt>
      <trkpt lat="59.9244714" lon="17.7734948">
        <ele>28.0155</ele>
        <time>2013-05-30T16:35:29Z</time>
      </trkpt>
      <trkpt lat="59.9244492" lon="17.7733518">
        <ele>28.9769</ele>
        <time>2013-05-30T16:35:30Z</time>
      </trkpt>
      <trkpt lat="59.9244264" lon="17.7732071">
        <ele>29.4575</ele>
        <time>2013-05-30T16:35:31Z</time>
      </trkpt>
      <trkpt lat="59.9244039" lon="17.7730621">
        <ele>29.9381</ele>
        <time>2013-05-30T16:35:32Z</time>
      </trkpt>
      <trkpt lat="59.9243813" lon="17.7729193">
        <ele>30.4188</ele>
        <time>2013-05-30T16:35:33Z</time>
      </trkpt>
      <trkpt lat="59.9243591" lon="17.7727789">
        <ele>31.3801</ele>
        <time>2013-05-30T16:35:34Z</time>
      </trkpt>
      <trkpt lat="59.9243366" lon="17.7726396">
        <ele>31.8607</ele>
        <time>2013-05-30T16:35:35Z</time>
      </trkpt>
      <trkpt lat="59.9243129" lon="17.7725019">
        <ele>33.3029</ele>
        <time>2013-05-30T16:35:36Z</time>
      </trkpt>
      <trkpt lat="59.92429" lon="17.7723653">
        <ele>33.7834</ele>
        <time>2013-05-30T16:35:37Z</time>
      </trkpt>
      <trkpt lat="59.9242683" lon="17.7722315">
        <ele>34.7449</ele>
        <time>2013-05-30T16:35:38Z</time>
      </trkpt>
      <trkpt lat="59.9242468" lon="17.7721011">
        <ele>35.2255</ele>
        <time>2013-05-30T16:35:39Z</time>
      </trkpt>
      <trkpt lat="59.9242263" lon="17.7719727">
        <ele>35.7061</ele>
        <time>2013-05-30T16:35:40Z</time>
      </trkpt>
      <trkpt lat="59.9242078" lon="17.771851">
        <ele>36.6675</ele>
        <time>2013-05-30T16:35:41Z</time>
      </trkpt>
      <trkpt lat="59.924187" lon="17.7717303">
        <ele>37.6287</ele>
        <time>2013-05-30T16:35:42Z</time>
      </trkpt>
      <trkpt lat="59.9241663" lon="17.7716135">
        <ele>38.5901</ele>
        <time>2013-05-30T16:35:43Z</time>
      </trkpt>
      <trkpt lat="59.9241436" lon="17.7714963">
        <ele>39.5513</ele>
        <time>2013-05-30T16:35:44Z</time>
      </trkpt>
      <trkpt lat="59.9241224" lon="17.7713832">
        <ele>40.5128</ele>
        <time>2013-05-30T16:35:45Z</time>
      </trkpt>
      <trkpt lat="59.9241009" lon="17.7712736">
        <ele>41.474</ele>
        <time>2013-05-30T16:35:46Z</time>
      </trkpt>
      <trkpt lat="59.9240787" lon="17.7711649">
        <ele>41.9547</ele>
        <time>2013-05-30T16:35:47Z</time>
      </trkpt>
      <trkpt lat="59.924059" lon="17.7710586">
        <ele>42.916</ele>
        <time>2013-05-30T16:35:48Z</time>
      </trkpt>
      <trkpt lat="59.9240384" lon="17.7709525">
        <ele>43.3966</ele>
        <time>2013-05-30T16:35:49Z</time>
      </trkpt>
      <trkpt lat="59.9240146" lon="17.7708451">
        <ele>44.358</ele>
        <time>2013-05-30T16:35:50Z</time>
      </trkpt>
      <trkpt lat="59.9239908" lon="17.7707398">
        <ele>45.3192</ele>
        <time>2013-05-30T16:35:51Z</time>
      </trkpt>
      <trkpt lat="59.9239649" lon="17.7706192">
        <ele>41.474</ele>
        <time>2013-05-30T16:35:52Z</time>
      </trkpt>
      <trkpt lat="59.9239348" lon="17.7704997">
        <ele>38.5901</ele>
        <time>2013-05-30T16:35:53Z</time>
      </trkpt>
      <trkpt lat="59.9239114" lon="17.7703953">
        <ele>39.0707</ele>
        <time>2013-05-30T16:35:54Z</time>
      </trkpt>
      <trkpt lat="59.9238895" lon="17.7702919">
        <ele>39.5513</ele>
        <time>2013-05-30T16:35:55Z</time>
      </trkpt>
      <trkpt lat="59.9238652" lon="17.7701759">
        <ele>36.6675</ele>
        <time>2013-05-30T16:35:56Z</time>
      </trkpt>
      <trkpt lat="59.9238412" lon="17.770067">
        <ele>35.7061</ele>
        <time>2013-05-30T16:35:57Z</time>
      </trkpt>
      <trkpt lat="59.9238222" lon="17.7699635">
        <ele>35.7061</ele>
        <time>2013-05-30T16:35:58Z</time>
      </trkpt>
      <trkpt lat="59.9238021" lon="17.7698595">
        <ele>35.2255</ele>
        <time>2013-05-30T16:35:59Z</time>
      </trkpt>
      <trkpt lat="59.9237861" lon="17.7697554">
        <ele>34.2642</ele>
        <time>2013-05-30T16:36:00Z</time>
      </trkpt>
      <trkpt lat="59.9237619" lon="17.7696491">
        <ele>33.3029</ele>
        <time>2013-05-30T16:36:01Z</time>
      </trkpt>
      <trkpt lat="59.9237404" lon="17.7695476">
        <ele>33.7834</ele>
        <time>2013-05-30T16:36:02Z</time>
      </trkpt>
      <trkpt lat="59.9237157" lon="17.7694441">
        <ele>33.7834</ele>
        <time>2013-05-30T16:36:03Z</time>
      </trkpt>
      <trkpt lat="59.9236834" lon="17.7693379">
        <ele>33.7834</ele>
        <time>2013-05-30T16:36:04Z</time>
      </trkpt>
      <trkpt lat="59.9236598" lon="17.7692337">
        <ele>33.7834</ele>
        <time>2013-05-30T16:36:05Z</time>
      </trkpt>
      <trkpt lat="59.9236386" lon="17.7691289">
        <ele>32.8223</ele>
        <time>2013-05-30T16:36:06Z</time>
      </trkpt>
      <trkpt lat="59.9236152" lon="17.7690243">
        <ele>32.8223</ele>
        <time>2013-05-30T16:36:07Z</time>
      </trkpt>
      <trkpt lat="59.9235861" lon="17.7689146">
        <ele>31.8607</ele>
        <time>2013-05-30T16:36:08Z</time>
      </trkpt>
      <trkpt lat="59.9235609" lon="17.7688037">
        <ele>29.9381</ele>
        <time>2013-05-30T16:36:09Z</time>
      </trkpt>
      <trkpt lat="59.9235411" lon="17.7687006">
        <ele>29.9381</ele>
        <time>2013-05-30T16:36:10Z</time>
      </trkpt>
      <trkpt lat="59.9235147" lon="17.7685963">
        <ele>29.9381</ele>
        <time>2013-05-30T16:36:11Z</time>
      </trkpt>
      <trkpt lat="59.9234888" lon="17.7684917">
        <ele>30.4188</ele>
        <time>2013-05-30T16:36:12Z</time>
      </trkpt>
      <trkpt lat="59.9234624" lon="17.7683851">
        <ele>30.4188</ele>
        <time>2013-05-30T16:36:13Z</time>
      </trkpt>
      <trkpt lat="59.9234349" lon="17.7682764">
        <ele>30.4188</ele>
        <time>2013-05-30T16:36:14Z</time>
      </trkpt>
      <trkpt lat="59.9234054" lon="17.7681679">
        <ele>30.4188</ele>
        <time>2013-05-30T16:36:15Z</time>
      </trkpt>
      <trkpt lat="59.9233707" lon="17.7680573">
        <ele>30.4188</ele>
        <time>2013-05-30T16:36:16Z</time>
      </trkpt>
      <trkpt lat="59.923337" lon="17.767942">
        <ele>29.9381</ele>
        <time>2013-05-30T16:36:17Z</time>
      </trkpt>
      <trkpt lat="59.9233054" lon="17.7678278">
        <ele>29.9381</ele>
        <time>2013-05-30T16:36:18Z</time>
      </trkpt>
      <trkpt lat="59.9232728" lon="17.7677123">
        <ele>30.4188</ele>
        <time>2013-05-30T16:36:19Z</time>
      </trkpt>
      <trkpt lat="59.9232392" lon="17.7675932">
        <ele>29.9381</ele>
        <time>2013-05-30T16:36:20Z</time>
      </trkpt>
      <trkpt lat="59.9232053" lon="17.7674745">
        <ele>29.9381</ele>
        <time>2013-05-30T16:36:21Z</time>
      </trkpt>
      <trkpt lat="59.9231706" lon="17.7673553">
        <ele>30.4188</ele>
        <time>2013-05-30T16:36:22Z</time>
      </trkpt>
      <trkpt lat="59.9231351" lon="17.7672346">
        <ele>30.4188</ele>
        <time>2013-05-30T16:36:23Z</time>
      </trkpt>
      <trkpt lat="59.9230983" lon="17.7671129">
        <ele>30.4188</ele>
        <time>2013-05-30T16:36:24Z</time>
      </trkpt>
      <trkpt lat="59.9230605" lon="17.7669891">
        <ele>30.4188</ele>
        <time>2013-05-30T16:36:25Z</time>
      </trkpt>
      <trkpt lat="59.9230224" lon="17.7668642">
        <ele>30.8995</ele>
        <time>2013-05-30T16:36:26Z</time>
      </trkpt>
      <trkpt lat="59.9229827" lon="17.766738">
        <ele>30.8995</ele>
        <time>2013-05-30T16:36:27Z</time>
      </trkpt>
      <trkpt lat="59.9229442" lon="17.7666094">
        <ele>30.8995</ele>
        <time>2013-05-30T16:36:28Z</time>
      </trkpt>
      <trkpt lat="59.9229045" lon="17.7664811">
        <ele>30.8995</ele>
        <time>2013-05-30T16:36:29Z</time>
      </trkpt>
      <trkpt lat="59.922862" lon="17.766353">
        <ele>31.3801</ele>
        <time>2013-05-30T16:36:30Z</time>
      </trkpt>
      <trkpt lat="59.9228211" lon="17.7662244">
        <ele>31.3801</ele>
        <time>2013-05-30T16:36:31Z</time>
      </trkpt>
      <trkpt lat="59.9227791" lon="17.7660953">
        <ele>31.3801</ele>
        <time>2013-05-30T16:36:32Z</time>
      </trkpt>
      <trkpt lat="59.9227367" lon="17.7659661">
        <ele>31.3801</ele>
        <time>2013-05-30T16:36:33Z</time>
      </trkpt>
      <trkpt lat="59.9226937" lon="17.765836">
        <ele>31.3801</ele>
        <time>2013-05-30T16:36:34Z</time>
      </trkpt>
      <trkpt lat="59.9226499" lon="17.7657085">
        <ele>31.8607</ele>
        <time>2013-05-30T16:36:35Z</time>
      </trkpt>
      <trkpt lat="59.9226061" lon="17.7655808">
        <ele>31.8607</ele>
        <time>2013-05-30T16:36:36Z</time>
      </trkpt>
      <trkpt lat="59.9225626" lon="17.7654537">
        <ele>32.3416</ele>
        <time>2013-05-30T16:36:37Z</time>
      </trkpt>
      <trkpt lat="59.9225189" lon="17.7653263">
        <ele>32.3416</ele>
        <time>2013-05-30T16:36:38Z</time>
      </trkpt>
      <trkpt lat="59.9224746" lon="17.7652">
        <ele>32.8223</ele>
        <time>2013-05-30T16:36:39Z</time>
      </trkpt>
      <trkpt lat="59.92243" lon="17.7650761">
        <ele>33.3029</ele>
        <time>2013-05-30T16:36:40Z</time>
      </trkpt>
      <trkpt lat="59.9223844" lon="17.7649538">
        <ele>33.3029</ele>
        <time>2013-05-30T16:36:41Z</time>
      </trkpt>
      <trkpt lat="59.9223381" lon="17.764832">
        <ele>33.3029</ele>
        <time>2013-05-30T16:36:42Z</time>
      </trkpt>
      <trkpt lat="59.9222944" lon="17.7647133">
        <ele>33.7834</ele>
        <time>2013-05-30T16:36:43Z</time>
      </trkpt>
      <trkpt lat="59.9222522" lon="17.7645963">
        <ele>34.2642</ele>
        <time>2013-05-30T16:36:44Z</time>
      </trkpt>
      <trkpt lat="59.9222097" lon="17.7644815">
        <ele>34.2642</ele>
        <time>2013-05-30T16:36:45Z</time>
      </trkpt>
      <trkpt lat="59.9221668" lon="17.764369">
        <ele>34.7449</ele>
        <time>2013-05-30T16:36:46Z</time>
      </trkpt>
      <trkpt lat="59.9221257" lon="17.7642562">
        <ele>34.2642</ele>
        <time>2013-05-30T16:36:47Z</time>
      </trkpt>
      <trkpt lat="59.9220825" lon="17.7641463">
        <ele>34.2642</ele>
        <time>2013-05-30T16:36:48Z</time>
      </trkpt>
      <trkpt lat="59.9220404" lon="17.7640375">
        <ele>33.7834</ele>
        <time>2013-05-30T16:36:49Z</time>
      </trkpt>
      <trkpt lat="59.9219999" lon="17.7639312">
        <ele>33.3029</ele>
        <time>2013-05-30T16:36:50Z</time>
      </trkpt>
      <trkpt lat="59.9219581" lon="17.7638267">
        <ele>33.3029</ele>
        <time>2013-05-30T16:36:51Z</time>
      </trkpt>
      <trkpt lat="59.9219182" lon="17.7637245">
        <ele>32.8223</ele>
        <time>2013-05-30T16:36:52Z</time>
      </trkpt>
      <trkpt lat="59.9218766" lon="17.7636225">
        <ele>32.8223</ele>
        <time>2013-05-30T16:36:53Z</time>
      </trkpt>
      <trkpt lat="59.9218354" lon="17.7635236">
        <ele>32.8223</ele>
        <time>2013-05-30T16:36:54Z</time>
      </trkpt>
      <trkpt lat="59.9217944" lon="17.7634283">
        <ele>32.8223</ele>
        <time>2013-05-30T16:36:55Z</time>
      </trkpt>
      <trkpt lat="59.9217548" lon="17.7633396">
        <ele>33.7834</ele>
        <time>2013-05-30T16:36:56Z</time>
      </trkpt>
      <trkpt lat="59.9217158" lon="17.7632527">
        <ele>35.7061</ele>
        <time>2013-05-30T16:36:57Z</time>
      </trkpt>
      <trkpt lat="59.9216774" lon="17.7631698">
        <ele>37.1481</ele>
        <time>2013-05-30T16:36:58Z</time>
      </trkpt>
      <trkpt lat="59.9216374" lon="17.7630854">
        <ele>38.5901</ele>
        <time>2013-05-30T16:36:59Z</time>
      </trkpt>
      <trkpt lat="59.9215989" lon="17.7630036">
        <ele>39.5513</ele>
        <time>2013-05-30T16:37:00Z</time>
      </trkpt>
      <trkpt lat="59.9215591" lon="17.7629201">
        <ele>40.5128</ele>
        <time>2013-05-30T16:37:01Z</time>
      </trkpt>
      <trkpt lat="59.9215204" lon="17.7628347">
        <ele>41.474</ele>
        <time>2013-05-30T16:37:02Z</time>
      </trkpt>
      <trkpt lat="59.9214813" lon="17.7627493">
        <ele>42.4354</ele>
        <time>2013-05-30T16:37:03Z</time>
      </trkpt>
      <trkpt lat="59.9214411" lon="17.7626643">
        <ele>43.3966</ele>
        <time>2013-05-30T16:37:04Z</time>
      </trkpt>
      <trkpt lat="59.9214011" lon="17.7625793">
        <ele>43.8773</ele>
        <time>2013-05-30T16:37:05Z</time>
      </trkpt>
      <trkpt lat="59.9213606" lon="17.7624947">
        <ele>44.358</ele>
        <time>2013-05-30T16:37:06Z</time>
      </trkpt>
      <trkpt lat="59.9213214" lon="17.7624095">
        <ele>45.3192</ele>
        <time>2013-05-30T16:37:07Z</time>
      </trkpt>
      <trkpt lat="59.9212822" lon="17.7623208">
        <ele>45.3192</ele>
        <time>2013-05-30T16:37:08Z</time>
      </trkpt>
      <trkpt lat="59.9212432" lon="17.762231">
        <ele>45.7999</ele>
        <time>2013-05-30T16:37:09Z</time>
      </trkpt>
      <trkpt lat="59.9212023" lon="17.762143">
        <ele>45.7999</ele>
        <time>2013-05-30T16:37:10Z</time>
      </trkpt>
      <trkpt lat="59.9211588" lon="17.7620504">
        <ele>45.7999</ele>
        <time>2013-05-30T16:37:11Z</time>
      </trkpt>
      <trkpt lat="59.9211148" lon="17.7619583">
        <ele>46.2806</ele>
        <time>2013-05-30T16:37:12Z</time>
      </trkpt>
      <trkpt lat="59.9210691" lon="17.7618627">
        <ele>45.7999</ele>
        <time>2013-05-30T16:37:13Z</time>
      </trkpt>
      <trkpt lat="59.9210231" lon="17.7617694">
        <ele>46.2806</ele>
        <time>2013-05-30T16:37:14Z</time>
      </trkpt>
      <trkpt lat="59.9209765" lon="17.7616759">
        <ele>46.2806</ele>
        <time>2013-05-30T16:37:15Z</time>
      </trkpt>
      <trkpt lat="59.9209268" lon="17.7615826">
        <ele>46.7612</ele>
        <time>2013-05-30T16:37:16Z</time>
      </trkpt>
      <trkpt lat="59.920878" lon="17.7614902">
        <ele>46.7612</ele>
        <time>2013-05-30T16:37:17Z</time>
      </trkpt>
      <trkpt lat="59.9208294" lon="17.7613978">
        <ele>46.7612</ele>
        <time>2013-05-30T16:37:18Z</time>
      </trkpt>
      <trkpt lat="59.9207826" lon="17.7613049">
        <ele>46.7612</ele>
        <time>2013-05-30T16:37:19Z</time>
      </trkpt>
      <trkpt lat="59.920735" lon="17.7612112">
        <ele>47.2418</ele>
        <time>2013-05-30T16:37:20Z</time>
      </trkpt>
      <trkpt lat="59.920687" lon="17.7611194">
        <ele>47.7225</ele>
        <time>2013-05-30T16:37:21Z</time>
      </trkpt>
      <trkpt lat="59.9206372" lon="17.7610262">
        <ele>47.7225</ele>
        <time>2013-05-30T16:37:22Z</time>
      </trkpt>
      <trkpt lat="59.9205879" lon="17.7609331">
        <ele>47.7225</ele>
        <time>2013-05-30T16:37:23Z</time>
      </trkpt>
      <trkpt lat="59.9205378" lon="17.7608381">
        <ele>47.7225</ele>
        <time>2013-05-30T16:37:24Z</time>
      </trkpt>
      <trkpt lat="59.920487" lon="17.7607418">
        <ele>47.7225</ele>
        <time>2013-05-30T16:37:25Z</time>
      </trkpt>
      <trkpt lat="59.9204351" lon="17.760646">
        <ele>47.7225</ele>
        <time>2013-05-30T16:37:26Z</time>
      </trkpt>
      <trkpt lat="59.9203823" lon="17.7605511">
        <ele>47.7225</ele>
        <time>2013-05-30T16:37:27Z</time>
      </trkpt>
      <trkpt lat="59.9203288" lon="17.7604563">
        <ele>47.7225</ele>
        <time>2013-05-30T16:37:28Z</time>
      </trkpt>
      <trkpt lat="59.9202745" lon="17.7603615">
        <ele>47.7225</ele>
        <time>2013-05-30T16:37:29Z</time>
      </trkpt>
      <trkpt lat="59.9202196" lon="17.7602659">
        <ele>47.7225</ele>
        <time>2013-05-30T16:37:30Z</time>
      </trkpt>
      <trkpt lat="59.920164" lon="17.76017">
        <ele>47.7225</ele>
        <time>2013-05-30T16:37:31Z</time>
      </trkpt>
      <trkpt lat="59.9201068" lon="17.7600741">
        <ele>47.7225</ele>
        <time>2013-05-30T16:37:32Z</time>
      </trkpt>
      <trkpt lat="59.9200492" lon="17.7599772">
        <ele>47.2418</ele>
        <time>2013-05-30T16:37:33Z</time>
      </trkpt>
      <trkpt lat="59.9199912" lon="17.7598794">
        <ele>47.2418</ele>
        <time>2013-05-30T16:37:34Z</time>
      </trkpt>
      <trkpt lat="59.919933" lon="17.7597826">
        <ele>47.2418</ele>
        <time>2013-05-30T16:37:35Z</time>
      </trkpt>
      <trkpt lat="59.9198731" lon="17.7596851">
        <ele>47.2418</ele>
        <time>2013-05-30T16:37:36Z</time>
      </trkpt>
      <trkpt lat="59.9198115" lon="17.7595847">
        <ele>46.7612</ele>
        <time>2013-05-30T16:37:37Z</time>
      </trkpt>
      <trkpt lat="59.9197496" lon="17.7594838">
        <ele>46.2806</ele>
        <time>2013-05-30T16:37:38Z</time>
      </trkpt>
      <trkpt lat="59.9196881" lon="17.7593842">
        <ele>46.2806</ele>
        <time>2013-05-30T16:37:39Z</time>
      </trkpt>
      <trkpt lat="59.9196268" lon="17.7592845">
        <ele>45.7999</ele>
        <time>2013-05-30T16:37:40Z</time>
      </trkpt>
      <trkpt lat="59.919566" lon="17.7591858">
        <ele>45.7999</ele>
        <time>2013-05-30T16:37:41Z</time>
      </trkpt>
      <trkpt lat="59.9195052" lon="17.7590879">
        <ele>45.7999</ele>
        <time>2013-05-30T16:37:42Z</time>
      </trkpt>
      <trkpt lat="59.9194447" lon="17.7589893">
        <ele>45.7999</ele>
        <time>2013-05-30T16:37:43Z</time>
      </trkpt>
      <trkpt lat="59.9193846" lon="17.758891">
        <ele>45.7999</ele>
        <time>2013-05-30T16:37:44Z</time>
      </trkpt>
      <trkpt lat="59.9193245" lon="17.7587926">
        <ele>45.7999</ele>
        <time>2013-05-30T16:37:45Z</time>
      </trkpt>
      <trkpt lat="59.9192633" lon="17.7586927">
        <ele>45.7999</ele>
        <time>2013-05-30T16:37:46Z</time>
      </trkpt>
      <trkpt lat="59.9192019" lon="17.7585932">
        <ele>45.7999</ele>
        <time>2013-05-30T16:37:47Z</time>
      </trkpt>
      <trkpt lat="59.91914" lon="17.7584935">
        <ele>45.3192</ele>
        <time>2013-05-30T16:37:48Z</time>
      </trkpt>
      <trkpt lat="59.9190774" lon="17.7583927">
        <ele>45.3192</ele>
        <time>2013-05-30T16:37:49Z</time>
      </trkpt>
      <trkpt lat="59.9190147" lon="17.7582901">
        <ele>45.3192</ele>
        <time>2013-05-30T16:37:50Z</time>
      </trkpt>
      <trkpt lat="59.9189529" lon="17.7581854">
        <ele>44.8386</ele>
        <time>2013-05-30T16:37:51Z</time>
      </trkpt>
      <trkpt lat="59.9188916" lon="17.7580804">
        <ele>44.8386</ele>
        <time>2013-05-30T16:37:52Z</time>
      </trkpt>
      <trkpt lat="59.9188301" lon="17.7579757">
        <ele>44.8386</ele>
        <time>2013-05-30T16:37:53Z</time>
      </trkpt>
      <trkpt lat="59.9187686" lon="17.7578711">
        <ele>44.358</ele>
        <time>2013-05-30T16:37:54Z</time>
      </trkpt>
      <trkpt lat="59.9187077" lon="17.7577649">
        <ele>44.358</ele>
        <time>2013-05-30T16:37:55Z</time>
      </trkpt>
      <trkpt lat="59.918647" lon="17.7576576">
        <ele>44.358</ele>
        <time>2013-05-30T16:37:56Z</time>
      </trkpt>
      <trkpt lat="59.9185865" lon="17.7575479">
        <ele>43.8773</ele>
        <time>2013-05-30T16:37:57Z</time>
      </trkpt>
      <trkpt lat="59.9185263" lon="17.7574356">
        <ele>43.8773</ele>
        <time>2013-05-30T16:37:58Z</time>
      </trkpt>
      <trkpt lat="59.9184657" lon="17.7573218">
        <ele>43.8773</ele>
        <time>2013-05-30T16:37:59Z</time>
      </trkpt>
      <trkpt lat="59.9184048" lon="17.7572061">
        <ele>43.3966</ele>
        <time>2013-05-30T16:38:00Z</time>
      </trkpt>
      <trkpt lat="59.9183439" lon="17.7570867">
        <ele>43.3966</ele>
        <time>2013-05-30T16:38:01Z</time>
      </trkpt>
      <trkpt lat="59.9182827" lon="17.756964">
        <ele>43.3966</ele>
        <time>2013-05-30T16:38:02Z</time>
      </trkpt>
      <trkpt lat="59.9182206" lon="17.7568402">
        <ele>42.916</ele>
        <time>2013-05-30T16:38:03Z</time>
      </trkpt>
      <trkpt lat="59.918158" lon="17.7567148">
        <ele>42.916</ele>
        <time>2013-05-30T16:38:04Z</time>
      </trkpt>
      <trkpt lat="59.9180957" lon="17.756585">
        <ele>42.916</ele>
        <time>2013-05-30T16:38:05Z</time>
      </trkpt>
      <trkpt lat="59.9180332" lon="17.7564523">
        <ele>42.4354</ele>
        <time>2013-05-30T16:38:06Z</time>
      </trkpt>
      <trkpt lat="59.9179713" lon="17.7563174">
        <ele>41.9547</ele>
        <time>2013-05-30T16:38:07Z</time>
      </trkpt>
      <trkpt lat="59.9179096" lon="17.7561815">
        <ele>41.9547</ele>
        <time>2013-05-30T16:38:08Z</time>
      </trkpt>
      <trkpt lat="59.9178481" lon="17.7560465">
        <ele>41.474</ele>
        <time>2013-05-30T16:38:09Z</time>
      </trkpt>
      <trkpt lat="59.9177879" lon="17.7559114">
        <ele>41.474</ele>
        <time>2013-05-30T16:38:10Z</time>
      </trkpt>
      <trkpt lat="59.9177294" lon="17.755775">
        <ele>40.9934</ele>
        <time>2013-05-30T16:38:11Z</time>
      </trkpt>
      <trkpt lat="59.9176721" lon="17.7556396">
        <ele>40.9934</ele>
        <time>2013-05-30T16:38:12Z</time>
      </trkpt>
      <trkpt lat="59.9176151" lon="17.7555052">
        <ele>40.9934</ele>
        <time>2013-05-30T16:38:13Z</time>
      </trkpt>
      <trkpt lat="59.9175589" lon="17.7553712">
        <ele>40.5128</ele>
        <time>2013-05-30T16:38:14Z</time>
      </trkpt>
      <trkpt lat="59.917504" lon="17.7552368">
        <ele>40.5128</ele>
        <time>2013-05-30T16:38:15Z</time>
      </trkpt>
      <trkpt lat="59.9174498" lon="17.7551006">
        <ele>40.0321</ele>
        <time>2013-05-30T16:38:16Z</time>
      </trkpt>
      <trkpt lat="59.9173961" lon="17.754962">
        <ele>40.0321</ele>
        <time>2013-05-30T16:38:17Z</time>
      </trkpt>
      <trkpt lat="59.9173421" lon="17.754822">
        <ele>40.0321</ele>
        <time>2013-05-30T16:38:18Z</time>
      </trkpt>
      <trkpt lat="59.9172876" lon="17.7546807">
        <ele>39.5513</ele>
        <time>2013-05-30T16:38:19Z</time>
      </trkpt>
      <trkpt lat="59.9172336" lon="17.7545372">
        <ele>39.5513</ele>
        <time>2013-05-30T16:38:20Z</time>
      </trkpt>
      <trkpt lat="59.9171806" lon="17.75439">
        <ele>39.0707</ele>
        <time>2013-05-30T16:38:21Z</time>
      </trkpt>
      <trkpt lat="59.9171281" lon="17.7542412">
        <ele>39.0707</ele>
        <time>2013-05-30T16:38:22Z</time>
      </trkpt>
      <trkpt lat="59.9170762" lon="17.7540916">
        <ele>39.0707</ele>
        <time>2013-05-30T16:38:23Z</time>
      </trkpt>
      <trkpt lat="59.9170245" lon="17.7539409">
        <ele>38.5901</ele>
        <time>2013-05-30T16:38:24Z</time>
      </trkpt>
      <trkpt lat="59.9169729" lon="17.75379">
        <ele>38.5901</ele>
        <time>2013-05-30T16:38:25Z</time>
      </trkpt>
      <trkpt lat="59.9169219" lon="17.7536375">
        <ele>38.1094</ele>
        <time>2013-05-30T16:38:26Z</time>
      </trkpt>
      <trkpt lat="59.9168717" lon="17.753484">
        <ele>38.1094</ele>
        <time>2013-05-30T16:38:27Z</time>
      </trkpt>
      <trkpt lat="59.9168198" lon="17.7533282">
        <ele>37.6287</ele>
        <time>2013-05-30T16:38:28Z</time>
      </trkpt>
      <trkpt lat="59.9167679" lon="17.7531727">
        <ele>36.6675</ele>
        <time>2013-05-30T16:38:29Z</time>
      </trkpt>
      <trkpt lat="59.916724" lon="17.7530214">
        <ele>36.1868</ele>
        <time>2013-05-30T16:38:30Z</time>
      </trkpt>
      <trkpt lat="59.9166774" lon="17.7528731">
        <ele>36.6675</ele>
        <time>2013-05-30T16:38:31Z</time>
      </trkpt>
      <trkpt lat="59.9166304" lon="17.7527279">
        <ele>36.6675</ele>
        <time>2013-05-30T16:38:32Z</time>
      </trkpt>
      <trkpt lat="59.9165846" lon="17.7525844">
        <ele>37.1481</ele>
        <time>2013-05-30T16:38:33Z</time>
      </trkpt>
      <trkpt lat="59.9165413" lon="17.752444">
        <ele>37.1481</ele>
        <time>2013-05-30T16:38:34Z</time>
      </trkpt>
      <trkpt lat="59.9164983" lon="17.7523039">
        <ele>37.1481</ele>
        <time>2013-05-30T16:38:35Z</time>
      </trkpt>
      <trkpt lat="59.9164549" lon="17.7521626">
        <ele>37.1481</ele>
        <time>2013-05-30T16:38:36Z</time>
      </trkpt>
      <trkpt lat="59.9164095" lon="17.7520201">
        <ele>37.1481</ele>
        <time>2013-05-30T16:38:37Z</time>
      </trkpt>
      <trkpt lat="59.9163739" lon="17.7518762">
        <ele>36.6675</ele>
        <time>2013-05-30T16:38:38Z</time>
      </trkpt>
      <trkpt lat="59.916338" lon="17.7517325">
        <ele>36.6675</ele>
        <time>2013-05-30T16:38:39Z</time>
      </trkpt>
      <trkpt lat="59.9162993" lon="17.7515883">
        <ele>36.1868</ele>
        <time>2013-05-30T16:38:40Z</time>
      </trkpt>
      <trkpt lat="59.9162563" lon="17.7514445">
        <ele>36.1868</ele>
        <time>2013-05-30T16:38:41Z</time>
      </trkpt>
      <trkpt lat="59.9162102" lon="17.7513003">
        <ele>35.7061</ele>
        <time>2013-05-30T16:38:42Z</time>
      </trkpt>
      <trkpt lat="59.9161621" lon="17.7511556">
        <ele>36.1868</ele>
        <time>2013-05-30T16:38:43Z</time>
      </trkpt>
      <trkpt lat="59.916114" lon="17.7510101">
        <ele>36.1868</ele>
        <time>2013-05-30T16:38:44Z</time>
      </trkpt>
      <trkpt lat="59.9160686" lon="17.7508661">
        <ele>36.6675</ele>
        <time>2013-05-30T16:38:45Z</time>
      </trkpt>
      <trkpt lat="59.9160211" lon="17.750722">
        <ele>37.1481</ele>
        <time>2013-05-30T16:38:46Z</time>
      </trkpt>
      <trkpt lat="59.9159733" lon="17.7505786">
        <ele>37.1481</ele>
        <time>2013-05-30T16:38:47Z</time>
      </trkpt>
      <trkpt lat="59.9159238" lon="17.750434">
        <ele>37.1481</ele>
        <time>2013-05-30T16:38:48Z</time>
      </trkpt>
      <trkpt lat="59.9158766" lon="17.7502903">
        <ele>37.1481</ele>
        <time>2013-05-30T16:38:49Z</time>
      </trkpt>
      <trkpt lat="59.9158298" lon="17.750147">
        <ele>37.1481</ele>
        <time>2013-05-30T16:38:50Z</time>
      </trkpt>
      <trkpt lat="59.9157844" lon="17.7500047">
        <ele>36.6675</ele>
        <time>2013-05-30T16:38:51Z</time>
      </trkpt>
      <trkpt lat="59.9157392" lon="17.7498614">
        <ele>36.6675</ele>
        <time>2013-05-30T16:38:52Z</time>
      </trkpt>
      <trkpt lat="59.9156952" lon="17.7497179">
        <ele>37.1481</ele>
        <time>2013-05-30T16:38:53Z</time>
      </trkpt>
      <trkpt lat="59.9156493" lon="17.7495701">
        <ele>35.2255</ele>
        <time>2013-05-30T16:38:54Z</time>
      </trkpt>
      <trkpt lat="59.9156014" lon="17.7494203">
        <ele>32.8223</ele>
        <time>2013-05-30T16:38:55Z</time>
      </trkpt>
      <trkpt lat="59.9155576" lon="17.7492752">
        <ele>32.3416</ele>
        <time>2013-05-30T16:38:56Z</time>
      </trkpt>
      <trkpt lat="59.9155108" lon="17.7491259">
        <ele>30.4188</ele>
        <time>2013-05-30T16:38:57Z</time>
      </trkpt>
      <trkpt lat="59.9154616" lon="17.7489767">
        <ele>28.9769</ele>
        <time>2013-05-30T16:38:58Z</time>
      </trkpt>
      <trkpt lat="59.9154135" lon="17.7488307">
        <ele>28.4962</ele>
        <time>2013-05-30T16:38:59Z</time>
      </trkpt>
      <trkpt lat="59.9153679" lon="17.7486843">
        <ele>28.4962</ele>
        <time>2013-05-30T16:39:00Z</time>
      </trkpt>
      <trkpt lat="59.9153203" lon="17.7485376">
        <ele>28.0155</ele>
        <time>2013-05-30T16:39:01Z</time>
      </trkpt>
      <trkpt lat="59.915271" lon="17.7483884">
        <ele>28.0155</ele>
        <time>2013-05-30T16:39:02Z</time>
      </trkpt>
      <trkpt lat="59.9152238" lon="17.7482403">
        <ele>27.5349</ele>
        <time>2013-05-30T16:39:03Z</time>
      </trkpt>
      <trkpt lat="59.9151768" lon="17.7480916">
        <ele>27.0543</ele>
        <time>2013-05-30T16:39:04Z</time>
      </trkpt>
      <trkpt lat="59.9151297" lon="17.7479412">
        <ele>27.0543</ele>
        <time>2013-05-30T16:39:05Z</time>
      </trkpt>
      <trkpt lat="59.9150816" lon="17.7477913">
        <ele>26.5736</ele>
        <time>2013-05-30T16:39:06Z</time>
      </trkpt>
      <trkpt lat="59.9150323" lon="17.7476441">
        <ele>26.5736</ele>
        <time>2013-05-30T16:39:07Z</time>
      </trkpt>
      <trkpt lat="59.9149844" lon="17.7474986">
        <ele>26.0929</ele>
        <time>2013-05-30T16:39:08Z</time>
      </trkpt>
      <trkpt lat="59.914938" lon="17.747355">
        <ele>26.5736</ele>
        <time>2013-05-30T16:39:09Z</time>
      </trkpt>
      <trkpt lat="59.9148934" lon="17.7472125">
        <ele>26.5736</ele>
        <time>2013-05-30T16:39:10Z</time>
      </trkpt>
      <trkpt lat="59.9148448" lon="17.7470686">
        <ele>25.6123</ele>
        <time>2013-05-30T16:39:11Z</time>
      </trkpt>
      <trkpt lat="59.9147961" lon="17.7469245">
        <ele>24.1703</ele>
        <time>2013-05-30T16:39:12Z</time>
      </trkpt>
      <trkpt lat="59.9147503" lon="17.7467831">
        <ele>23.6896</ele>
        <time>2013-05-30T16:39:13Z</time>
      </trkpt>
      <trkpt lat="59.9147039" lon="17.7466413">
        <ele>23.6896</ele>
        <time>2013-05-30T16:39:14Z</time>
      </trkpt>
      <trkpt lat="59.9146583" lon="17.7464991">
        <ele>23.6896</ele>
        <time>2013-05-30T16:39:15Z</time>
      </trkpt>
      <trkpt lat="59.9146122" lon="17.7463566">
        <ele>23.6896</ele>
        <time>2013-05-30T16:39:16Z</time>
      </trkpt>
      <trkpt lat="59.9145659" lon="17.7462142">
        <ele>23.6896</ele>
        <time>2013-05-30T16:39:17Z</time>
      </trkpt>
      <trkpt lat="59.9145205" lon="17.7460725">
        <ele>23.6896</ele>
        <time>2013-05-30T16:39:18Z</time>
      </trkpt>
      <trkpt lat="59.9144748" lon="17.7459316">
        <ele>24.1703</ele>
        <time>2013-05-30T16:39:19Z</time>
      </trkpt>
      <trkpt lat="59.9144291" lon="17.7457904">
        <ele>24.1703</ele>
        <time>2013-05-30T16:39:20Z</time>
      </trkpt>
      <trkpt lat="59.9143837" lon="17.7456492">
        <ele>23.6896</ele>
        <time>2013-05-30T16:39:21Z</time>
      </trkpt>
      <trkpt lat="59.9143387" lon="17.7455098">
        <ele>24.1703</ele>
        <time>2013-05-30T16:39:22Z</time>
      </trkpt>
      <trkpt lat="59.9142937" lon="17.7453706">
        <ele>24.1703</ele>
        <time>2013-05-30T16:39:23Z</time>
      </trkpt>
      <trkpt lat="59.9142501" lon="17.745233">
        <ele>24.651</ele>
        <time>2013-05-30T16:39:24Z</time>
      </trkpt>
      <trkpt lat="59.9142065" lon="17.7450984">
        <ele>25.6123</ele>
        <time>2013-05-30T16:39:25Z</time>
      </trkpt>
      <trkpt lat="59.9141649" lon="17.7449662">
        <ele>26.5736</ele>
        <time>2013-05-30T16:39:26Z</time>
      </trkpt>
      <trkpt lat="59.9141264" lon="17.744845">
        <ele>28.0155</ele>
        <time>2013-05-30T16:39:27Z</time>
      </trkpt>
      <trkpt lat="59.9140898" lon="17.7447274">
        <ele>29.4575</ele>
        <time>2013-05-30T16:39:28Z</time>
      </trkpt>
      <trkpt lat="59.9140507" lon="17.7446057">
        <ele>30.8995</ele>
        <time>2013-05-30T16:39:29Z</time>
      </trkpt>
      <trkpt lat="59.91401" lon="17.7444803">
        <ele>32.3416</ele>
        <time>2013-05-30T16:39:30Z</time>
      </trkpt>
      <trkpt lat="59.9139684" lon="17.7443524">
        <ele>32.8223</ele>
        <time>2013-05-30T16:39:31Z</time>
      </trkpt>
      <trkpt lat="59.9139278" lon="17.7442239">
        <ele>33.3029</ele>
        <time>2013-05-30T16:39:32Z</time>
      </trkpt>
      <trkpt lat="59.9138874" lon="17.744094">
        <ele>33.7834</ele>
        <time>2013-05-30T16:39:33Z</time>
      </trkpt>
      <trkpt lat="59.9138511" lon="17.7439634">
        <ele>33.7834</ele>
        <time>2013-05-30T16:39:34Z</time>
      </trkpt>
      <trkpt lat="59.9138114" lon="17.743831">
        <ele>33.7834</ele>
        <time>2013-05-30T16:39:35Z</time>
      </trkpt>
      <trkpt lat="59.9137705" lon="17.7436973">
        <ele>33.7834</ele>
        <time>2013-05-30T16:39:36Z</time>
      </trkpt>
      <trkpt lat="59.9137295" lon="17.7435624">
        <ele>33.7834</ele>
        <time>2013-05-30T16:39:37Z</time>
      </trkpt>
      <trkpt lat="59.9136879" lon="17.7434262">
        <ele>33.7834</ele>
        <time>2013-05-30T16:39:38Z</time>
      </trkpt>
      <trkpt lat="59.9136465" lon="17.7432881">
        <ele>33.7834</ele>
        <time>2013-05-30T16:39:39Z</time>
      </trkpt>
      <trkpt lat="59.9136041" lon="17.7431488">
        <ele>33.7834</ele>
        <time>2013-05-30T16:39:40Z</time>
      </trkpt>
      <trkpt lat="59.9135607" lon="17.7430094">
        <ele>33.7834</ele>
        <time>2013-05-30T16:39:41Z</time>
      </trkpt>
      <trkpt lat="59.9135186" lon="17.7428709">
        <ele>33.7834</ele>
        <time>2013-05-30T16:39:42Z</time>
      </trkpt>
      <trkpt lat="59.9134741" lon="17.7427323">
        <ele>33.7834</ele>
        <time>2013-05-30T16:39:43Z</time>
      </trkpt>
      <trkpt lat="59.9134281" lon="17.7425959">
        <ele>34.2642</ele>
        <time>2013-05-30T16:39:44Z</time>
      </trkpt>
      <trkpt lat="59.9133824" lon="17.7424583">
        <ele>34.7449</ele>
        <time>2013-05-30T16:39:45Z</time>
      </trkpt>
      <trkpt lat="59.9133373" lon="17.7423221">
        <ele>34.7449</ele>
        <time>2013-05-30T16:39:46Z</time>
      </trkpt>
      <trkpt lat="59.9132923" lon="17.7421868">
        <ele>34.7449</ele>
        <time>2013-05-30T16:39:47Z</time>
      </trkpt>
      <trkpt lat="59.9132475" lon="17.7420511">
        <ele>34.7449</ele>
        <time>2013-05-30T16:39:48Z</time>
      </trkpt>
      <trkpt lat="59.9132028" lon="17.7419164">
        <ele>35.2255</ele>
        <time>2013-05-30T16:39:49Z</time>
      </trkpt>
      <trkpt lat="59.9131581" lon="17.7417822">
        <ele>35.2255</ele>
        <time>2013-05-30T16:39:50Z</time>
      </trkpt>
      <trkpt lat="59.9131127" lon="17.7416466">
        <ele>35.2255</ele>
        <time>2013-05-30T16:39:51Z</time>
      </trkpt>
      <trkpt lat="59.9130678" lon="17.7415125">
        <ele>35.7061</ele>
        <time>2013-05-30T16:39:52Z</time>
      </trkpt>
      <trkpt lat="59.9130225" lon="17.7413791">
        <ele>35.7061</ele>
        <time>2013-05-30T16:39:53Z</time>
      </trkpt>
      <trkpt lat="59.9129773" lon="17.7412466">
        <ele>35.7061</ele>
        <time>2013-05-30T16:39:54Z</time>
      </trkpt>
      <trkpt lat="59.9129322" lon="17.7411155">
        <ele>35.7061</ele>
        <time>2013-05-30T16:39:55Z</time>
      </trkpt>
      <trkpt lat="59.9128861" lon="17.740986">
        <ele>35.7061</ele>
        <time>2013-05-30T16:39:56Z</time>
      </trkpt>
      <trkpt lat="59.9128393" lon="17.7408571">
        <ele>35.7061</ele>
        <time>2013-05-30T16:39:57Z</time>
      </trkpt>
      <trkpt lat="59.9127924" lon="17.7407281">
        <ele>35.7061</ele>
        <time>2013-05-30T16:39:58Z</time>
      </trkpt>
      <trkpt lat="59.9127454" lon="17.7405979">
        <ele>36.1868</ele>
        <time>2013-05-30T16:39:59Z</time>
      </trkpt>
      <trkpt lat="59.9126992" lon="17.7404675">
        <ele>36.1868</ele>
        <time>2013-05-30T16:40:00Z</time>
      </trkpt>
      <trkpt lat="59.9126521" lon="17.7403358">
        <ele>36.1868</ele>
        <time>2013-05-30T16:40:01Z</time>
      </trkpt>
      <trkpt lat="59.9126054" lon="17.7402054">
        <ele>36.1868</ele>
        <time>2013-05-30T16:40:02Z</time>
      </trkpt>
      <trkpt lat="59.9125583" lon="17.7400753">
        <ele>36.6675</ele>
        <time>2013-05-30T16:40:03Z</time>
      </trkpt>
      <trkpt lat="59.9125109" lon="17.7399433">
        <ele>36.6675</ele>
        <time>2013-05-30T16:40:04Z</time>
      </trkpt>
      <trkpt lat="59.9124614" lon="17.7398117">
        <ele>36.6675</ele>
        <time>2013-05-30T16:40:05Z</time>
      </trkpt>
      <trkpt lat="59.9124112" lon="17.7396813">
        <ele>36.6675</ele>
        <time>2013-05-30T16:40:06Z</time>
      </trkpt>
      <trkpt lat="59.9123636" lon="17.7395487">
        <ele>38.1094</ele>
        <time>2013-05-30T16:40:07Z</time>
      </trkpt>
      <trkpt lat="59.912318" lon="17.7394116">
        <ele>38.1094</ele>
        <time>2013-05-30T16:40:08Z</time>
      </trkpt>
      <trkpt lat="59.9122661" lon="17.7392751">
        <ele>38.5901</ele>
        <time>2013-05-30T16:40:09Z</time>
      </trkpt>
      <trkpt lat="59.9122102" lon="17.7391393">
        <ele>38.5901</ele>
        <time>2013-05-30T16:40:10Z</time>
      </trkpt>
      <trkpt lat="59.9121615" lon="17.7390013">
        <ele>38.1094</ele>
        <time>2013-05-30T16:40:11Z</time>
      </trkpt>
      <trkpt lat="59.9121122" lon="17.7388638">
        <ele>38.1094</ele>
        <time>2013-05-30T16:40:12Z</time>
      </trkpt>
      <trkpt lat="59.9120618" lon="17.7387281">
        <ele>38.1094</ele>
        <time>2013-05-30T16:40:13Z</time>
      </trkpt>
      <trkpt lat="59.9120126" lon="17.7385921">
        <ele>38.1094</ele>
        <time>2013-05-30T16:40:14Z</time>
      </trkpt>
      <trkpt lat="59.911965" lon="17.738456">
        <ele>38.1094</ele>
        <time>2013-05-30T16:40:15Z</time>
      </trkpt>
      <trkpt lat="59.9119165" lon="17.7383193">
        <ele>38.1094</ele>
        <time>2013-05-30T16:40:16Z</time>
      </trkpt>
      <trkpt lat="59.9118672" lon="17.7381803">
        <ele>37.6287</ele>
        <time>2013-05-30T16:40:17Z</time>
      </trkpt>
      <trkpt lat="59.9118165" lon="17.7380391">
        <ele>38.1094</ele>
        <time>2013-05-30T16:40:18Z</time>
      </trkpt>
      <trkpt lat="59.9117645" lon="17.7378956">
        <ele>38.1094</ele>
        <time>2013-05-30T16:40:19Z</time>
      </trkpt>
      <trkpt lat="59.9117123" lon="17.7377516">
        <ele>37.6287</ele>
        <time>2013-05-30T16:40:20Z</time>
      </trkpt>
      <trkpt lat="59.9116609" lon="17.7376094">
        <ele>37.1481</ele>
        <time>2013-05-30T16:40:21Z</time>
      </trkpt>
      <trkpt lat="59.9116086" lon="17.737468">
        <ele>37.1481</ele>
        <time>2013-05-30T16:40:22Z</time>
      </trkpt>
      <trkpt lat="59.9115457" lon="17.7373097">
        <ele>31.8607</ele>
        <time>2013-05-30T16:40:23Z</time>
      </trkpt>
      <trkpt lat="59.91149" lon="17.7371604">
        <ele>29.4575</ele>
        <time>2013-05-30T16:40:24Z</time>
      </trkpt>
      <trkpt lat="59.9114392" lon="17.737018">
        <ele>29.4575</ele>
        <time>2013-05-30T16:40:25Z</time>
      </trkpt>
      <trkpt lat="59.9113871" lon="17.7368762">
        <ele>28.9769</ele>
        <time>2013-05-30T16:40:26Z</time>
      </trkpt>
      <trkpt lat="59.9113352" lon="17.7367353">
        <ele>28.9769</ele>
        <time>2013-05-30T16:40:27Z</time>
      </trkpt>
      <trkpt lat="59.9112841" lon="17.7365933">
        <ele>28.9769</ele>
        <time>2013-05-30T16:40:28Z</time>
      </trkpt>
      <trkpt lat="59.9112323" lon="17.7364487">
        <ele>28.9769</ele>
        <time>2013-05-30T16:40:29Z</time>
      </trkpt>
      <trkpt lat="59.9111808" lon="17.7363026">
        <ele>29.4575</ele>
        <time>2013-05-30T16:40:30Z</time>
      </trkpt>
      <trkpt lat="59.9111311" lon="17.736153">
        <ele>29.4575</ele>
        <time>2013-05-30T16:40:31Z</time>
      </trkpt>
      <trkpt lat="59.9110838" lon="17.7359984">
        <ele>29.4575</ele>
        <time>2013-05-30T16:40:32Z</time>
      </trkpt>
      <trkpt lat="59.911039" lon="17.7358412">
        <ele>29.4575</ele>
        <time>2013-05-30T16:40:33Z</time>
      </trkpt>
      <trkpt lat="59.9109958" lon="17.7356851">
        <ele>29.9381</ele>
        <time>2013-05-30T16:40:34Z</time>
      </trkpt>
      <trkpt lat="59.9109531" lon="17.7355272">
        <ele>29.9381</ele>
        <time>2013-05-30T16:40:35Z</time>
      </trkpt>
      <trkpt lat="59.9109119" lon="17.7353671">
        <ele>30.4188</ele>
        <time>2013-05-30T16:40:36Z</time>
      </trkpt>
      <trkpt lat="59.9108701" lon="17.7352043">
        <ele>30.4188</ele>
        <time>2013-05-30T16:40:37Z</time>
      </trkpt>
      <trkpt lat="59.9108274" lon="17.7350417">
        <ele>30.8995</ele>
        <time>2013-05-30T16:40:38Z</time>
      </trkpt>
      <trkpt lat="59.9107846" lon="17.7348797">
        <ele>30.8995</ele>
        <time>2013-05-30T16:40:39Z</time>
      </trkpt>
      <trkpt lat="59.9107425" lon="17.7347172">
        <ele>30.8995</ele>
        <time>2013-05-30T16:40:40Z</time>
      </trkpt>
      <trkpt lat="59.9107002" lon="17.7345534">
        <ele>30.8995</ele>
        <time>2013-05-30T16:40:41Z</time>
      </trkpt>
      <trkpt lat="59.9106592" lon="17.7343898">
        <ele>30.8995</ele>
        <time>2013-05-30T16:40:42Z</time>
      </trkpt>
      <trkpt lat="59.9106186" lon="17.734225">
        <ele>30.4188</ele>
        <time>2013-05-30T16:40:43Z</time>
      </trkpt>
      <trkpt lat="59.9105777" lon="17.73406">
        <ele>30.4188</ele>
        <time>2013-05-30T16:40:44Z</time>
      </trkpt>
      <trkpt lat="59.910537" lon="17.7338945">
        <ele>30.4188</ele>
        <time>2013-05-30T16:40:45Z</time>
      </trkpt>
      <trkpt lat="59.910497" lon="17.7337313">
        <ele>30.4188</ele>
        <time>2013-05-30T16:40:46Z</time>
      </trkpt>
      <trkpt lat="59.9104588" lon="17.7335714">
        <ele>30.4188</ele>
        <time>2013-05-30T16:40:47Z</time>
      </trkpt>
      <trkpt lat="59.9104221" lon="17.7334127">
        <ele>30.4188</ele>
        <time>2013-05-30T16:40:48Z</time>
      </trkpt>
      <trkpt lat="59.9103858" lon="17.7332563">
        <ele>30.4188</ele>
        <time>2013-05-30T16:40:49Z</time>
      </trkpt>
      <trkpt lat="59.9103488" lon="17.7331015">
        <ele>30.4188</ele>
        <time>2013-05-30T16:40:50Z</time>
      </trkpt>
      <trkpt lat="59.9103115" lon="17.7329455">
        <ele>30.4188</ele>
        <time>2013-05-30T16:40:51Z</time>
      </trkpt>
      <trkpt lat="59.9102734" lon="17.732788">
        <ele>29.9381</ele>
        <time>2013-05-30T16:40:52Z</time>
      </trkpt>
      <trkpt lat="59.9102345" lon="17.7326296">
        <ele>30.4188</ele>
        <time>2013-05-30T16:40:53Z</time>
      </trkpt>
      <trkpt lat="59.910195" lon="17.73247">
        <ele>30.4188</ele>
        <time>2013-05-30T16:40:54Z</time>
      </trkpt>
      <trkpt lat="59.9101545" lon="17.7323083">
        <ele>29.9381</ele>
        <time>2013-05-30T16:40:55Z</time>
      </trkpt>
      <trkpt lat="59.9101139" lon="17.7321455">
        <ele>29.9381</ele>
        <time>2013-05-30T16:40:56Z</time>
      </trkpt>
      <trkpt lat="59.9100729" lon="17.7319818">
        <ele>29.4575</ele>
        <time>2013-05-30T16:40:57Z</time>
      </trkpt>
      <trkpt lat="59.910032" lon="17.7318188">
        <ele>29.9381</ele>
        <time>2013-05-30T16:40:58Z</time>
      </trkpt>
      <trkpt lat="59.9099896" lon="17.7316544">
        <ele>29.4575</ele>
        <time>2013-05-30T16:40:59Z</time>
      </trkpt>
      <trkpt lat="59.9099461" lon="17.7314892">
        <ele>29.4575</ele>
        <time>2013-05-30T16:41:00Z</time>
      </trkpt>
      <trkpt lat="59.9099017" lon="17.7313237">
        <ele>29.4575</ele>
        <time>2013-05-30T16:41:01Z</time>
      </trkpt>
      <trkpt lat="59.9098559" lon="17.7311573">
        <ele>29.4575</ele>
        <time>2013-05-30T16:41:02Z</time>
      </trkpt>
      <trkpt lat="59.9098112" lon="17.7309931">
        <ele>29.4575</ele>
        <time>2013-05-30T16:41:03Z</time>
      </trkpt>
      <trkpt lat="59.9097678" lon="17.7308299">
        <ele>29.9381</ele>
        <time>2013-05-30T16:41:04Z</time>
      </trkpt>
      <trkpt lat="59.9097261" lon="17.7306668">
        <ele>30.4188</ele>
        <time>2013-05-30T16:41:05Z</time>
      </trkpt>
      <trkpt lat="59.9096844" lon="17.7305051">
        <ele>31.3801</ele>
        <time>2013-05-30T16:41:06Z</time>
      </trkpt>
      <trkpt lat="59.9096424" lon="17.7303444">
        <ele>31.3801</ele>
        <time>2013-05-30T16:41:07Z</time>
      </trkpt>
      <trkpt lat="59.9096007" lon="17.7301831">
        <ele>31.3801</ele>
        <time>2013-05-30T16:41:08Z</time>
      </trkpt>
      <trkpt lat="59.90956" lon="17.7300222">
        <ele>31.8607</ele>
        <time>2013-05-30T16:41:09Z</time>
      </trkpt>
      <trkpt lat="59.9095191" lon="17.7298592">
        <ele>31.8607</ele>
        <time>2013-05-30T16:41:10Z</time>
      </trkpt>
      <trkpt lat="59.9094785" lon="17.7296943">
        <ele>31.8607</ele>
        <time>2013-05-30T16:41:11Z</time>
      </trkpt>
      <trkpt lat="59.9094368" lon="17.7295271">
        <ele>31.3801</ele>
        <time>2013-05-30T16:41:12Z</time>
      </trkpt>
      <trkpt lat="59.9093937" lon="17.7293591">
        <ele>31.3801</ele>
        <time>2013-05-30T16:41:13Z</time>
      </trkpt>
      <trkpt lat="59.9093466" lon="17.7291869">
        <ele>31.8607</ele>
        <time>2013-05-30T16:41:14Z</time>
      </trkpt>
      <trkpt lat="59.9093034" lon="17.7290151">
        <ele>31.3801</ele>
        <time>2013-05-30T16:41:15Z</time>
      </trkpt>
      <trkpt lat="59.9092614" lon="17.7288422">
        <ele>31.3801</ele>
        <time>2013-05-30T16:41:16Z</time>
      </trkpt>
      <trkpt lat="59.9092192" lon="17.7286665">
        <ele>31.3801</ele>
        <time>2013-05-30T16:41:17Z</time>
      </trkpt>
      <trkpt lat="59.9091773" lon="17.7284892">
        <ele>30.8995</ele>
        <time>2013-05-30T16:41:18Z</time>
      </trkpt>
      <trkpt lat="59.9091353" lon="17.7283117">
        <ele>30.8995</ele>
        <time>2013-05-30T16:41:19Z</time>
      </trkpt>
      <trkpt lat="59.9090958" lon="17.7281352">
        <ele>30.8995</ele>
        <time>2013-05-30T16:41:20Z</time>
      </trkpt>
      <trkpt lat="59.9090582" lon="17.7279596">
        <ele>30.8995</ele>
        <time>2013-05-30T16:41:21Z</time>
      </trkpt>
      <trkpt lat="59.9090218" lon="17.7277859">
        <ele>31.3801</ele>
        <time>2013-05-30T16:41:22Z</time>
      </trkpt>
      <trkpt lat="59.9089851" lon="17.7276124">
        <ele>31.3801</ele>
        <time>2013-05-30T16:41:23Z</time>
      </trkpt>
      <trkpt lat="59.9089483" lon="17.7274363">
        <ele>31.3801</ele>
        <time>2013-05-30T16:41:24Z</time>
      </trkpt>
      <trkpt lat="59.908913" lon="17.7272623">
        <ele>31.3801</ele>
        <time>2013-05-30T16:41:25Z</time>
      </trkpt>
      <trkpt lat="59.9088783" lon="17.7270892">
        <ele>31.3801</ele>
        <time>2013-05-30T16:41:26Z</time>
      </trkpt>
      <trkpt lat="59.9088436" lon="17.726917">
        <ele>31.3801</ele>
        <time>2013-05-30T16:41:27Z</time>
      </trkpt>
      <trkpt lat="59.9088084" lon="17.7267459">
        <ele>31.3801</ele>
        <time>2013-05-30T16:41:28Z</time>
      </trkpt>
      <trkpt lat="59.9087732" lon="17.7265751">
        <ele>31.3801</ele>
        <time>2013-05-30T16:41:29Z</time>
      </trkpt>
      <trkpt lat="59.9087373" lon="17.7264067">
        <ele>31.3801</ele>
        <time>2013-05-30T16:41:30Z</time>
      </trkpt>
      <trkpt lat="59.9086996" lon="17.7262415">
        <ele>31.8607</ele>
        <time>2013-05-30T16:41:31Z</time>
      </trkpt>
      <trkpt lat="59.908659" lon="17.726078">
        <ele>31.3801</ele>
        <time>2013-05-30T16:41:32Z</time>
      </trkpt>
      <trkpt lat="59.9086172" lon="17.7259151">
        <ele>31.3801</ele>
        <time>2013-05-30T16:41:33Z</time>
      </trkpt>
      <trkpt lat="59.9085761" lon="17.725752">
        <ele>31.3801</ele>
        <time>2013-05-30T16:41:34Z</time>
      </trkpt>
      <trkpt lat="59.9085363" lon="17.7255911">
        <ele>31.8607</ele>
        <time>2013-05-30T16:41:35Z</time>
      </trkpt>
      <trkpt lat="59.9084966" lon="17.7254334">
        <ele>31.8607</ele>
        <time>2013-05-30T16:41:36Z</time>
      </trkpt>
      <trkpt lat="59.9084573" lon="17.7252795">
        <ele>31.8607</ele>
        <time>2013-05-30T16:41:37Z</time>
      </trkpt>
      <trkpt lat="59.9084198" lon="17.725128">
        <ele>32.3416</ele>
        <time>2013-05-30T16:41:38Z</time>
      </trkpt>
      <trkpt lat="59.9083826" lon="17.7249773">
        <ele>32.3416</ele>
        <time>2013-05-30T16:41:39Z</time>
      </trkpt>
      <trkpt lat="59.9083453" lon="17.7248288">
        <ele>32.3416</ele>
        <time>2013-05-30T16:41:40Z</time>
      </trkpt>
      <trkpt lat="59.908308" lon="17.724681">
        <ele>32.3416</ele>
        <time>2013-05-30T16:41:41Z</time>
      </trkpt>
      <trkpt lat="59.9082717" lon="17.7245334">
        <ele>32.3416</ele>
        <time>2013-05-30T16:41:42Z</time>
      </trkpt>
      <trkpt lat="59.908237" lon="17.7243869">
        <ele>32.8223</ele>
        <time>2013-05-30T16:41:43Z</time>
      </trkpt>
      <trkpt lat="59.9082019" lon="17.7242419">
        <ele>32.8223</ele>
        <time>2013-05-30T16:41:44Z</time>
      </trkpt>
      <trkpt lat="59.9081654" lon="17.7240957">
        <ele>32.8223</ele>
        <time>2013-05-30T16:41:45Z</time>
      </trkpt>
      <trkpt lat="59.9081298" lon="17.7239508">
        <ele>32.8223</ele>
        <time>2013-05-30T16:41:46Z</time>
      </trkpt>
      <trkpt lat="59.9080941" lon="17.7238061">
        <ele>32.3416</ele>
        <time>2013-05-30T16:41:47Z</time>
      </trkpt>
      <trkpt lat="59.9080583" lon="17.7236633">
        <ele>32.3416</ele>
        <time>2013-05-30T16:41:48Z</time>
      </trkpt>
      <trkpt lat="59.9080284" lon="17.7235311">
        <ele>33.3029</ele>
        <time>2013-05-30T16:41:49Z</time>
      </trkpt>
      <trkpt lat="59.9079967" lon="17.7233975">
        <ele>33.7834</ele>
        <time>2013-05-30T16:41:50Z</time>
      </trkpt>
      <trkpt lat="59.9079578" lon="17.7232541">
        <ele>33.3029</ele>
        <time>2013-05-30T16:41:51Z</time>
      </trkpt>
      <trkpt lat="59.9079216" lon="17.723116">
        <ele>33.3029</ele>
        <time>2013-05-30T16:41:52Z</time>
      </trkpt>
      <trkpt lat="59.9078822" lon="17.7229707">
        <ele>31.8607</ele>
        <time>2013-05-30T16:41:53Z</time>
      </trkpt>
      <trkpt lat="59.9078386" lon="17.7228231">
        <ele>30.4188</ele>
        <time>2013-05-30T16:41:54Z</time>
      </trkpt>
      <trkpt lat="59.9077974" lon="17.7226776">
        <ele>28.4962</ele>
        <time>2013-05-30T16:41:55Z</time>
      </trkpt>
      <trkpt lat="59.9077625" lon="17.7225341">
        <ele>27.0543</ele>
        <time>2013-05-30T16:41:56Z</time>
      </trkpt>
      <trkpt lat="59.9077266" lon="17.7223961">
        <ele>26.0929</ele>
        <time>2013-05-30T16:41:57Z</time>
      </trkpt>
      <trkpt lat="59.9076899" lon="17.7222615">
        <ele>25.6123</ele>
        <time>2013-05-30T16:41:58Z</time>
      </trkpt>
      <trkpt lat="59.9076461" lon="17.7221305">
        <ele>25.1317</ele>
        <time>2013-05-30T16:41:59Z</time>
      </trkpt>
      <trkpt lat="59.9075987" lon="17.7219988">
        <ele>24.651</ele>
        <time>2013-05-30T16:42:00Z</time>
      </trkpt>
      <trkpt lat="59.9075481" lon="17.7218641">
        <ele>24.1703</ele>
        <time>2013-05-30T16:42:01Z</time>
      </trkpt>
      <trkpt lat="59.907494" lon="17.7217295">
        <ele>23.6896</ele>
        <time>2013-05-30T16:42:02Z</time>
      </trkpt>
      <trkpt lat="59.9074451" lon="17.721598">
        <ele>23.6896</ele>
        <time>2013-05-30T16:42:03Z</time>
      </trkpt>
      <trkpt lat="59.9073926" lon="17.7214722">
        <ele>24.1703</ele>
        <time>2013-05-30T16:42:04Z</time>
      </trkpt>
      <trkpt lat="59.9073398" lon="17.7213529">
        <ele>26.0929</ele>
        <time>2013-05-30T16:42:05Z</time>
      </trkpt>
      <trkpt lat="59.9072829" lon="17.7212318">
        <ele>27.0543</ele>
        <time>2013-05-30T16:42:06Z</time>
      </trkpt>
      <trkpt lat="59.9072305" lon="17.7211186">
        <ele>30.4188</ele>
        <time>2013-05-30T16:42:07Z</time>
      </trkpt>
      <trkpt lat="59.9071757" lon="17.7210043">
        <ele>31.8607</ele>
        <time>2013-05-30T16:42:08Z</time>
      </trkpt>
      <trkpt lat="59.9071197" lon="17.7208884">
        <ele>31.3801</ele>
        <time>2013-05-30T16:42:09Z</time>
      </trkpt>
      <trkpt lat="59.907063" lon="17.7207724">
        <ele>30.8995</ele>
        <time>2013-05-30T16:42:10Z</time>
      </trkpt>
      <trkpt lat="59.9070051" lon="17.7206578">
        <ele>30.4188</ele>
        <time>2013-05-30T16:42:11Z</time>
      </trkpt>
      <trkpt lat="59.9069462" lon="17.7205419">
        <ele>29.9381</ele>
        <time>2013-05-30T16:42:12Z</time>
      </trkpt>
      <trkpt lat="59.9068866" lon="17.7204299">
        <ele>29.4575</ele>
        <time>2013-05-30T16:42:13Z</time>
      </trkpt>
      <trkpt lat="59.9068264" lon="17.7203225">
        <ele>28.9769</ele>
        <time>2013-05-30T16:42:14Z</time>
      </trkpt>
      <trkpt lat="59.9067654" lon="17.7202164">
        <ele>28.9769</ele>
        <time>2013-05-30T16:42:15Z</time>
      </trkpt>
      <trkpt lat="59.9067031" lon="17.7201127">
        <ele>28.4962</ele>
        <time>2013-05-30T16:42:16Z</time>
      </trkpt>
      <trkpt lat="59.9066382" lon="17.7200101">
        <ele>28.0155</ele>
        <time>2013-05-30T16:42:17Z</time>
      </trkpt>
      <trkpt lat="59.9065722" lon="17.7199066">
        <ele>27.0543</ele>
        <time>2013-05-30T16:42:18Z</time>
      </trkpt>
      <trkpt lat="59.9065057" lon="17.7198054">
        <ele>27.0543</ele>
        <time>2013-05-30T16:42:19Z</time>
      </trkpt>
      <trkpt lat="59.9064376" lon="17.7197052">
        <ele>27.0543</ele>
        <time>2013-05-30T16:42:20Z</time>
      </trkpt>
      <trkpt lat="59.9063686" lon="17.7196073">
        <ele>27.0543</ele>
        <time>2013-05-30T16:42:21Z</time>
      </trkpt>
      <trkpt lat="59.906299" lon="17.719513">
        <ele>27.0543</ele>
        <time>2013-05-30T16:42:22Z</time>
      </trkpt>
      <trkpt lat="59.9062292" lon="17.7194211">
        <ele>27.0543</ele>
        <time>2013-05-30T16:42:23Z</time>
      </trkpt>
      <trkpt lat="59.9061609" lon="17.7193291">
        <ele>27.5349</ele>
        <time>2013-05-30T16:42:24Z</time>
      </trkpt>
      <trkpt lat="59.9060929" lon="17.7192369">
        <ele>27.5349</ele>
        <time>2013-05-30T16:42:25Z</time>
      </trkpt>
      <trkpt lat="59.906024" lon="17.7191465">
        <ele>28.0155</ele>
        <time>2013-05-30T16:42:26Z</time>
      </trkpt>
      <trkpt lat="59.9059556" lon="17.7190566">
        <ele>28.4962</ele>
        <time>2013-05-30T16:42:27Z</time>
      </trkpt>
      <trkpt lat="59.9058868" lon="17.7189647">
        <ele>28.4962</ele>
        <time>2013-05-30T16:42:28Z</time>
      </trkpt>
      <trkpt lat="59.9058178" lon="17.7188726">
        <ele>28.9769</ele>
        <time>2013-05-30T16:42:29Z</time>
      </trkpt>
      <trkpt lat="59.905749" lon="17.718779">
        <ele>28.9769</ele>
        <time>2013-05-30T16:42:30Z</time>
      </trkpt>
      <trkpt lat="59.905681" lon="17.718686">
        <ele>29.4575</ele>
        <time>2013-05-30T16:42:31Z</time>
      </trkpt>
      <trkpt lat="59.9056133" lon="17.7185946">
        <ele>29.4575</ele>
        <time>2013-05-30T16:42:32Z</time>
      </trkpt>
      <trkpt lat="59.9055464" lon="17.7185037">
        <ele>29.9381</ele>
        <time>2013-05-30T16:42:33Z</time>
      </trkpt>
      <trkpt lat="59.9054806" lon="17.7184092">
        <ele>29.9381</ele>
        <time>2013-05-30T16:42:34Z</time>
      </trkpt>
      <trkpt lat="59.9054161" lon="17.718312">
        <ele>29.9381</ele>
        <time>2013-05-30T16:42:35Z</time>
      </trkpt>
      <trkpt lat="59.9053498" lon="17.7182123">
        <ele>30.4188</ele>
        <time>2013-05-30T16:42:36Z</time>
      </trkpt>
      <trkpt lat="59.9052845" lon="17.7181117">
        <ele>30.4188</ele>
        <time>2013-05-30T16:42:37Z</time>
      </trkpt>
      <trkpt lat="59.905217" lon="17.7180092">
        <ele>30.8995</ele>
        <time>2013-05-30T16:42:38Z</time>
      </trkpt>
      <trkpt lat="59.9051479" lon="17.7179044">
        <ele>30.8995</ele>
        <time>2013-05-30T16:42:39Z</time>
      </trkpt>
      <trkpt lat="59.9050787" lon="17.7177973">
        <ele>31.3801</ele>
        <time>2013-05-30T16:42:40Z</time>
      </trkpt>
      <trkpt lat="59.9050078" lon="17.7176865">
        <ele>31.3801</ele>
        <time>2013-05-30T16:42:41Z</time>
      </trkpt>
      <trkpt lat="59.9049398" lon="17.7175713">
        <ele>31.3801</ele>
        <time>2013-05-30T16:42:42Z</time>
      </trkpt>
      <trkpt lat="59.9048689" lon="17.7174549">
        <ele>31.8607</ele>
        <time>2013-05-30T16:42:43Z</time>
      </trkpt>
      <trkpt lat="59.9047949" lon="17.7173346">
        <ele>31.8607</ele>
        <time>2013-05-30T16:42:44Z</time>
      </trkpt>
      <trkpt lat="59.9047201" lon="17.7172172">
        <ele>30.8995</ele>
        <time>2013-05-30T16:42:45Z</time>
      </trkpt>
      <trkpt lat="59.904645" lon="17.7171014">
        <ele>30.8995</ele>
        <time>2013-05-30T16:42:46Z</time>
      </trkpt>
      <trkpt lat="59.9045707" lon="17.7169816">
        <ele>31.3801</ele>
        <time>2013-05-30T16:42:47Z</time>
      </trkpt>
      <trkpt lat="59.904497" lon="17.7168607">
        <ele>31.3801</ele>
        <time>2013-05-30T16:42:48Z</time>
      </trkpt>
      <trkpt lat="59.9044193" lon="17.716738">
        <ele>31.8607</ele>
        <time>2013-05-30T16:42:49Z</time>
      </trkpt>
      <trkpt lat="59.9043416" lon="17.7166155">
        <ele>31.8607</ele>
        <time>2013-05-30T16:42:50Z</time>
      </trkpt>
      <trkpt lat="59.9042624" lon="17.7164918">
        <ele>31.8607</ele>
        <time>2013-05-30T16:42:51Z</time>
      </trkpt>
      <trkpt lat="59.9041801" lon="17.7163697">
        <ele>31.8607</ele>
        <time>2013-05-30T16:42:52Z</time>
      </trkpt>
      <trkpt lat="59.9040966" lon="17.7162464">
        <ele>31.8607</ele>
        <time>2013-05-30T16:42:53Z</time>
      </trkpt>
      <trkpt lat="59.9040138" lon="17.7161186">
        <ele>31.3801</ele>
        <time>2013-05-30T16:42:54Z</time>
      </trkpt>
      <trkpt lat="59.9039313" lon="17.7159875">
        <ele>31.3801</ele>
        <time>2013-05-30T16:42:55Z</time>
      </trkpt>
      <trkpt lat="59.9038485" lon="17.7158557">
        <ele>30.8995</ele>
        <time>2013-05-30T16:42:56Z</time>
      </trkpt>
      <trkpt lat="59.9037686" lon="17.7157191">
        <ele>30.8995</ele>
        <time>2013-05-30T16:42:57Z</time>
      </trkpt>
      <trkpt lat="59.9036873" lon="17.7155839">
        <ele>30.4188</ele>
        <time>2013-05-30T16:42:58Z</time>
      </trkpt>
      <trkpt lat="59.903605" lon="17.7154482">
        <ele>30.4188</ele>
        <time>2013-05-30T16:42:59Z</time>
      </trkpt>
      <trkpt lat="59.9035229" lon="17.7153135">
        <ele>29.9381</ele>
        <time>2013-05-30T16:43:00Z</time>
      </trkpt>
      <trkpt lat="59.9034417" lon="17.7151817">
        <ele>29.4575</ele>
        <time>2013-05-30T16:43:01Z</time>
      </trkpt>
      <trkpt lat="59.9033595" lon="17.7150523">
        <ele>29.4575</ele>
        <time>2013-05-30T16:43:02Z</time>
      </trkpt>
      <trkpt lat="59.9032769" lon="17.714924">
        <ele>28.9769</ele>
        <time>2013-05-30T16:43:03Z</time>
      </trkpt>
      <trkpt lat="59.9031932" lon="17.7147976">
        <ele>28.9769</ele>
        <time>2013-05-30T16:43:04Z</time>
      </trkpt>
      <trkpt lat="59.9031083" lon="17.7146685">
        <ele>28.4962</ele>
        <time>2013-05-30T16:43:05Z</time>
      </trkpt>
      <trkpt lat="59.9030199" lon="17.7145528">
        <ele>28.4962</ele>
        <time>2013-05-30T16:43:06Z</time>
      </trkpt>
      <trkpt lat="59.9029317" lon="17.7144379">
        <ele>28.4962</ele>
        <time>2013-05-30T16:43:07Z</time>
      </trkpt>
      <trkpt lat="59.902843" lon="17.7143261">
        <ele>28.0155</ele>
        <time>2013-05-30T16:43:08Z</time>
      </trkpt>
      <trkpt lat="59.9027538" lon="17.7142195">
        <ele>28.0155</ele>
        <time>2013-05-30T16:43:09Z</time>
      </trkpt>
      <trkpt lat="59.9026657" lon="17.7141162">
        <ele>28.0155</ele>
        <time>2013-05-30T16:43:10Z</time>
      </trkpt>
      <trkpt lat="59.9025792" lon="17.7140146">
        <ele>27.5349</ele>
        <time>2013-05-30T16:43:11Z</time>
      </trkpt>
      <trkpt lat="59.9024936" lon="17.7139152">
        <ele>27.5349</ele>
        <time>2013-05-30T16:43:12Z</time>
      </trkpt>
      <trkpt lat="59.9024082" lon="17.713819">
        <ele>27.5349</ele>
        <time>2013-05-30T16:43:13Z</time>
      </trkpt>
      <trkpt lat="59.902323" lon="17.7137259">
        <ele>27.0543</ele>
        <time>2013-05-30T16:43:14Z</time>
      </trkpt>
      <trkpt lat="59.9022388" lon="17.7136341">
        <ele>27.0543</ele>
        <time>2013-05-30T16:43:15Z</time>
      </trkpt>
      <trkpt lat="59.9021547" lon="17.7135435">
        <ele>27.0543</ele>
        <time>2013-05-30T16:43:16Z</time>
      </trkpt>
      <trkpt lat="59.902072" lon="17.7134549">
        <ele>27.0543</ele>
        <time>2013-05-30T16:43:17Z</time>
      </trkpt>
      <trkpt lat="59.9019919" lon="17.7133671">
        <ele>27.0543</ele>
        <time>2013-05-30T16:43:18Z</time>
      </trkpt>
      <trkpt lat="59.9019138" lon="17.7132814">
        <ele>27.0543</ele>
        <time>2013-05-30T16:43:19Z</time>
      </trkpt>
      <trkpt lat="59.9018364" lon="17.713198">
        <ele>27.0543</ele>
        <time>2013-05-30T16:43:20Z</time>
      </trkpt>
      <trkpt lat="59.9017604" lon="17.713117">
        <ele>27.0543</ele>
        <time>2013-05-30T16:43:21Z</time>
      </trkpt>
      <trkpt lat="59.9016858" lon="17.7130404">
        <ele>27.0543</ele>
        <time>2013-05-30T16:43:22Z</time>
      </trkpt>
      <trkpt lat="59.9016125" lon="17.712967">
        <ele>27.0543</ele>
        <time>2013-05-30T16:43:23Z</time>
      </trkpt>
      <trkpt lat="59.9015412" lon="17.7128928">
        <ele>27.0543</ele>
        <time>2013-05-30T16:43:24Z</time>
      </trkpt>
      <trkpt lat="59.9014713" lon="17.7128208">
        <ele>27.5349</ele>
        <time>2013-05-30T16:43:25Z</time>
      </trkpt>
      <trkpt lat="59.9014023" lon="17.7127548">
        <ele>27.5349</ele>
        <time>2013-05-30T16:43:26Z</time>
      </trkpt>
      <trkpt lat="59.9013377" lon="17.7126928">
        <ele>27.5349</ele>
        <time>2013-05-30T16:43:27Z</time>
      </trkpt>
      <trkpt lat="59.9012806" lon="17.7126354">
        <ele>28.0155</ele>
        <time>2013-05-30T16:43:28Z</time>
      </trkpt>
      <trkpt lat="59.901231" lon="17.7125851">
        <ele>28.0155</ele>
        <time>2013-05-30T16:43:29Z</time>
      </trkpt>
      <trkpt lat="59.9011873" lon="17.7125381">
        <ele>28.0155</ele>
        <time>2013-05-30T16:43:30Z</time>
      </trkpt>
      <trkpt lat="59.9011468" lon="17.7124922">
        <ele>28.0155</ele>
        <time>2013-05-30T16:43:31Z</time>
      </trkpt>
      <trkpt lat="59.9011065" lon="17.7124541">
        <ele>28.0155</ele>
        <time>2013-05-30T16:43:32Z</time>
      </trkpt>
      <trkpt lat="59.9010661" lon="17.7124442">
        <ele>28.4962</ele>
        <time>2013-05-30T16:43:33Z</time>
      </trkpt>
      <trkpt lat="59.9010295" lon="17.712468">
        <ele>27.0543</ele>
        <time>2013-05-30T16:43:34Z</time>
      </trkpt>
      <trkpt lat="59.9009978" lon="17.7125146">
        <ele>27.0543</ele>
        <time>2013-05-30T16:43:35Z</time>
      </trkpt>
      <trkpt lat="59.9009601" lon="17.7125348">
        <ele>28.0155</ele>
        <time>2013-05-30T16:43:36Z</time>
      </trkpt>
      <trkpt lat="59.9009197" lon="17.7125469">
        <ele>28.0155</ele>
        <time>2013-05-30T16:43:37Z</time>
      </trkpt>
      <trkpt lat="59.9008937" lon="17.712507">
        <ele>28.0155</ele>
        <time>2013-05-30T16:43:38Z</time>
      </trkpt>
      <trkpt lat="59.9008567" lon="17.7124546">
        <ele>28.0155</ele>
        <time>2013-05-30T16:43:39Z</time>
      </trkpt>
      <trkpt lat="59.9008176" lon="17.7124011">
        <ele>27.5349</ele>
        <time>2013-05-30T16:43:40Z</time>
      </trkpt>
      <trkpt lat="59.9007752" lon="17.7123505">
        <ele>27.5349</ele>
        <time>2013-05-30T16:43:41Z</time>
      </trkpt>
      <trkpt lat="59.9007305" lon="17.7123012">
        <ele>27.5349</ele>
        <time>2013-05-30T16:43:42Z</time>
      </trkpt>
      <trkpt lat="59.900682" lon="17.7122557">
        <ele>28.0155</ele>
        <time>2013-05-30T16:43:43Z</time>
      </trkpt>
      <trkpt lat="59.9006333" lon="17.7122044">
        <ele>28.0155</ele>
        <time>2013-05-30T16:43:44Z</time>
      </trkpt>
      <trkpt lat="59.9005845" lon="17.7121484">
        <ele>28.4962</ele>
        <time>2013-05-30T16:43:45Z</time>
      </trkpt>
      <trkpt lat="59.900534" lon="17.7120872">
        <ele>28.4962</ele>
        <time>2013-05-30T16:43:46Z</time>
      </trkpt>
      <trkpt lat="59.9004822" lon="17.7120201">
        <ele>28.0155</ele>
        <time>2013-05-30T16:43:47Z</time>
      </trkpt>
      <trkpt lat="59.90043" lon="17.711954">
        <ele>27.5349</ele>
        <time>2013-05-30T16:43:48Z</time>
      </trkpt>
      <trkpt lat="59.9003769" lon="17.7118879">
        <ele>27.5349</ele>
        <time>2013-05-30T16:43:49Z</time>
      </trkpt>
      <trkpt lat="59.9003228" lon="17.7118212">
        <ele>27.0543</ele>
        <time>2013-05-30T16:43:50Z</time>
      </trkpt>
      <trkpt lat="59.9002667" lon="17.7117543">
        <ele>27.0543</ele>
        <time>2013-05-30T16:43:51Z</time>
      </trkpt>
      <trkpt lat="59.900209" lon="17.7116864">
        <ele>27.0543</ele>
        <time>2013-05-30T16:43:52Z</time>
      </trkpt>
      <trkpt lat="59.9001514" lon="17.7116163">
        <ele>26.5736</ele>
        <time>2013-05-30T16:43:53Z</time>
      </trkpt>
      <trkpt lat="59.9000923" lon="17.711544">
        <ele>26.0929</ele>
        <time>2013-05-30T16:43:54Z</time>
      </trkpt>
      <trkpt lat="59.9000316" lon="17.711473">
        <ele>26.5736</ele>
        <time>2013-05-30T16:43:55Z</time>
      </trkpt>
      <trkpt lat="59.8999706" lon="17.7114055">
        <ele>28.4962</ele>
        <time>2013-05-30T16:43:56Z</time>
      </trkpt>
      <trkpt lat="59.8999085" lon="17.711332">
        <ele>28.0155</ele>
        <time>2013-05-30T16:43:57Z</time>
      </trkpt>
      <trkpt lat="59.8998448" lon="17.7112585">
        <ele>28.0155</ele>
        <time>2013-05-30T16:43:58Z</time>
      </trkpt>
      <trkpt lat="59.8997806" lon="17.711185">
        <ele>28.0155</ele>
        <time>2013-05-30T16:43:59Z</time>
      </trkpt>
      <trkpt lat="59.8997179" lon="17.7111089">
        <ele>28.0155</ele>
        <time>2013-05-30T16:44:00Z</time>
      </trkpt>
      <trkpt lat="59.8996567" lon="17.711031">
        <ele>27.5349</ele>
        <time>2013-05-30T16:44:01Z</time>
      </trkpt>
      <trkpt lat="59.8995949" lon="17.7109537">
        <ele>27.5349</ele>
        <time>2013-05-30T16:44:02Z</time>
      </trkpt>
      <trkpt lat="59.8995324" lon="17.7108747">
        <ele>27.5349</ele>
        <time>2013-05-30T16:44:03Z</time>
      </trkpt>
      <trkpt lat="59.8994691" lon="17.7107959">
        <ele>27.0543</ele>
        <time>2013-05-30T16:44:04Z</time>
      </trkpt>
      <trkpt lat="59.899405" lon="17.7107168">
        <ele>27.0543</ele>
        <time>2013-05-30T16:44:05Z</time>
      </trkpt>
      <trkpt lat="59.8993402" lon="17.7106367">
        <ele>26.5736</ele>
        <time>2013-05-30T16:44:06Z</time>
      </trkpt>
      <trkpt lat="59.899274" lon="17.7105561">
        <ele>26.5736</ele>
        <time>2013-05-30T16:44:07Z</time>
      </trkpt>
      <trkpt lat="59.8992069" lon="17.7104747">
        <ele>26.5736</ele>
        <time>2013-05-30T16:44:08Z</time>
      </trkpt>
      <trkpt lat="59.8991397" lon="17.7103903">
        <ele>26.5736</ele>
        <time>2013-05-30T16:44:09Z</time>
      </trkpt>
      <trkpt lat="59.899073" lon="17.7103028">
        <ele>26.5736</ele>
        <time>2013-05-30T16:44:10Z</time>
      </trkpt>
      <trkpt lat="59.8990077" lon="17.7102125">
        <ele>26.5736</ele>
        <time>2013-05-30T16:44:11Z</time>
      </trkpt>
      <trkpt lat="59.8989424" lon="17.7101226">
        <ele>26.0929</ele>
        <time>2013-05-30T16:44:12Z</time>
      </trkpt>
      <trkpt lat="59.898877" lon="17.7100344">
        <ele>26.0929</ele>
        <time>2013-05-30T16:44:13Z</time>
      </trkpt>
      <trkpt lat="59.8988108" lon="17.7099462">
        <ele>25.6123</ele>
        <time>2013-05-30T16:44:14Z</time>
      </trkpt>
      <trkpt lat="59.8987445" lon="17.7098595">
        <ele>25.6123</ele>
        <time>2013-05-30T16:44:15Z</time>
      </trkpt>
      <trkpt lat="59.8986767" lon="17.7097731">
        <ele>25.6123</ele>
        <time>2013-05-30T16:44:16Z</time>
      </trkpt>
      <trkpt lat="59.8986072" lon="17.7096875">
        <ele>25.6123</ele>
        <time>2013-05-30T16:44:17Z</time>
      </trkpt>
      <trkpt lat="59.8985374" lon="17.7095998">
        <ele>25.6123</ele>
        <time>2013-05-30T16:44:18Z</time>
      </trkpt>
      <trkpt lat="59.8984679" lon="17.7095108">
        <ele>25.6123</ele>
        <time>2013-05-30T16:44:19Z</time>
      </trkpt>
      <trkpt lat="59.8983985" lon="17.7094217">
        <ele>25.6123</ele>
        <time>2013-05-30T16:44:20Z</time>
      </trkpt>
      <trkpt lat="59.8983291" lon="17.7093336">
        <ele>25.6123</ele>
        <time>2013-05-30T16:44:21Z</time>
      </trkpt>
      <trkpt lat="59.8982607" lon="17.7092434">
        <ele>26.0929</ele>
        <time>2013-05-30T16:44:22Z</time>
      </trkpt>
      <trkpt lat="59.8981928" lon="17.7091507">
        <ele>26.0929</ele>
        <time>2013-05-30T16:44:23Z</time>
      </trkpt>
      <trkpt lat="59.8981245" lon="17.7090578">
        <ele>25.6123</ele>
        <time>2013-05-30T16:44:24Z</time>
      </trkpt>
      <trkpt lat="59.8980555" lon="17.7089643">
        <ele>25.6123</ele>
        <time>2013-05-30T16:44:25Z</time>
      </trkpt>
      <trkpt lat="59.8979871" lon="17.7088703">
        <ele>25.6123</ele>
        <time>2013-05-30T16:44:26Z</time>
      </trkpt>
      <trkpt lat="59.8979184" lon="17.7087777">
        <ele>25.6123</ele>
        <time>2013-05-30T16:44:27Z</time>
      </trkpt>
      <trkpt lat="59.8978489" lon="17.708687">
        <ele>25.6123</ele>
        <time>2013-05-30T16:44:28Z</time>
      </trkpt>
      <trkpt lat="59.897779" lon="17.7085991">
        <ele>25.6123</ele>
        <time>2013-05-30T16:44:29Z</time>
      </trkpt>
      <trkpt lat="59.8977094" lon="17.7085142">
        <ele>25.1317</ele>
        <time>2013-05-30T16:44:30Z</time>
      </trkpt>
      <trkpt lat="59.8976361" lon="17.7084372">
        <ele>25.6123</ele>
        <time>2013-05-30T16:44:31Z</time>
      </trkpt>
      <trkpt lat="59.8975614" lon="17.708368">
        <ele>26.0929</ele>
        <time>2013-05-30T16:44:32Z</time>
      </trkpt>
      <trkpt lat="59.8974934" lon="17.7082814">
        <ele>26.0929</ele>
        <time>2013-05-30T16:44:33Z</time>
      </trkpt>
      <trkpt lat="59.8974267" lon="17.7081897">
        <ele>26.5736</ele>
        <time>2013-05-30T16:44:34Z</time>
      </trkpt>
      <trkpt lat="59.8973622" lon="17.7080924">
        <ele>27.0543</ele>
        <time>2013-05-30T16:44:35Z</time>
      </trkpt>
      <trkpt lat="59.8973016" lon="17.7079862">
        <ele>27.0543</ele>
        <time>2013-05-30T16:44:36Z</time>
      </trkpt>
      <trkpt lat="59.8972386" lon="17.7078847">
        <ele>26.5736</ele>
        <time>2013-05-30T16:44:37Z</time>
      </trkpt>
      <trkpt lat="59.8971735" lon="17.7077883">
        <ele>26.5736</ele>
        <time>2013-05-30T16:44:38Z</time>
      </trkpt>
      <trkpt lat="59.8971048" lon="17.7076975">
        <ele>27.0543</ele>
        <time>2013-05-30T16:44:39Z</time>
      </trkpt>
      <trkpt lat="59.8970338" lon="17.7076092">
        <ele>27.0543</ele>
        <time>2013-05-30T16:44:40Z</time>
      </trkpt>
      <trkpt lat="59.8969677" lon="17.707511">
        <ele>26.5736</ele>
        <time>2013-05-30T16:44:41Z</time>
      </trkpt>
      <trkpt lat="59.8969008" lon="17.7074133">
        <ele>25.6123</ele>
        <time>2013-05-30T16:44:42Z</time>
      </trkpt>
      <trkpt lat="59.8968342" lon="17.7073226">
        <ele>25.6123</ele>
        <time>2013-05-30T16:44:43Z</time>
      </trkpt>
      <trkpt lat="59.8967698" lon="17.7072365">
        <ele>25.6123</ele>
        <time>2013-05-30T16:44:44Z</time>
      </trkpt>
      <trkpt lat="59.896705" lon="17.7071541">
        <ele>25.1317</ele>
        <time>2013-05-30T16:44:45Z</time>
      </trkpt>
      <trkpt lat="59.8966432" lon="17.7070657">
        <ele>24.651</ele>
        <time>2013-05-30T16:44:46Z</time>
      </trkpt>
      <trkpt lat="59.8965808" lon="17.7069788">
        <ele>24.1703</ele>
        <time>2013-05-30T16:44:47Z</time>
      </trkpt>
      <trkpt lat="59.8965153" lon="17.7068896">
        <ele>23.6896</ele>
        <time>2013-05-30T16:44:48Z</time>
      </trkpt>
      <trkpt lat="59.8964502" lon="17.7068063">
        <ele>23.6896</ele>
        <time>2013-05-30T16:44:49Z</time>
      </trkpt>
      <trkpt lat="59.8963849" lon="17.7067241">
        <ele>24.1703</ele>
        <time>2013-05-30T16:44:50Z</time>
      </trkpt>
      <trkpt lat="59.8963223" lon="17.7066376">
        <ele>24.651</ele>
        <time>2013-05-30T16:44:51Z</time>
      </trkpt>
      <trkpt lat="59.8962595" lon="17.7065508">
        <ele>24.651</ele>
        <time>2013-05-30T16:44:52Z</time>
      </trkpt>
      <trkpt lat="59.8961964" lon="17.7064632">
        <ele>24.651</ele>
        <time>2013-05-30T16:44:53Z</time>
      </trkpt>
      <trkpt lat="59.8961328" lon="17.7063747">
        <ele>24.651</ele>
        <time>2013-05-30T16:44:54Z</time>
      </trkpt>
      <trkpt lat="59.8960678" lon="17.7062935">
        <ele>24.651</ele>
        <time>2013-05-30T16:44:55Z</time>
      </trkpt>
      <trkpt lat="59.8959996" lon="17.7062075">
        <ele>25.1317</ele>
        <time>2013-05-30T16:44:56Z</time>
      </trkpt>
      <trkpt lat="59.8959327" lon="17.7061198">
        <ele>25.6123</ele>
        <time>2013-05-30T16:44:57Z</time>
      </trkpt>
      <trkpt lat="59.8958688" lon="17.7060357">
        <ele>25.1317</ele>
        <time>2013-05-30T16:44:58Z</time>
      </trkpt>
      <trkpt lat="59.8958043" lon="17.7059533">
        <ele>24.651</ele>
        <time>2013-05-30T16:44:59Z</time>
      </trkpt>
      <trkpt lat="59.8957393" lon="17.7058699">
        <ele>24.1703</ele>
        <time>2013-05-30T16:45:00Z</time>
      </trkpt>
      <trkpt lat="59.8956732" lon="17.7057866">
        <ele>24.1703</ele>
        <time>2013-05-30T16:45:01Z</time>
      </trkpt>
      <trkpt lat="59.8956069" lon="17.7057035">
        <ele>23.6896</ele>
        <time>2013-05-30T16:45:02Z</time>
      </trkpt>
      <trkpt lat="59.8955416" lon="17.7056172">
        <ele>23.209</ele>
        <time>2013-05-30T16:45:03Z</time>
      </trkpt>
      <trkpt lat="59.8954705" lon="17.7055257">
        <ele>23.209</ele>
        <time>2013-05-30T16:45:04Z</time>
      </trkpt>
      <trkpt lat="59.8953996" lon="17.7054364">
        <ele>23.209</ele>
        <time>2013-05-30T16:45:05Z</time>
      </trkpt>
      <trkpt lat="59.8953308" lon="17.7053616">
        <ele>22.7283</ele>
        <time>2013-05-30T16:45:06Z</time>
      </trkpt>
      <trkpt lat="59.8952586" lon="17.7052851">
        <ele>22.2476</ele>
        <time>2013-05-30T16:45:07Z</time>
      </trkpt>
      <trkpt lat="59.8951885" lon="17.7051963">
        <ele>21.767</ele>
        <time>2013-05-30T16:45:08Z</time>
      </trkpt>
      <trkpt lat="59.8951185" lon="17.7050956">
        <ele>21.767</ele>
        <time>2013-05-30T16:45:09Z</time>
      </trkpt>
      <trkpt lat="59.8950514" lon="17.704989">
        <ele>21.767</ele>
        <time>2013-05-30T16:45:10Z</time>
      </trkpt>
      <trkpt lat="59.8949888" lon="17.7048873">
        <ele>22.2476</ele>
        <time>2013-05-30T16:45:11Z</time>
      </trkpt>
      <trkpt lat="59.8949238" lon="17.7047894">
        <ele>22.2476</ele>
        <time>2013-05-30T16:45:12Z</time>
      </trkpt>
      <trkpt lat="59.8948595" lon="17.7046983">
        <ele>22.2476</ele>
        <time>2013-05-30T16:45:13Z</time>
      </trkpt>
      <trkpt lat="59.8947988" lon="17.7046186">
        <ele>22.2476</ele>
        <time>2013-05-30T16:45:14Z</time>
      </trkpt>
      <trkpt lat="59.8947304" lon="17.7045317">
        <ele>22.7283</ele>
        <time>2013-05-30T16:45:15Z</time>
      </trkpt>
      <trkpt lat="59.8946652" lon="17.7044459">
        <ele>22.7283</ele>
        <time>2013-05-30T16:45:16Z</time>
      </trkpt>
      <trkpt lat="59.8945994" lon="17.7043615">
        <ele>22.7283</ele>
        <time>2013-05-30T16:45:17Z</time>
      </trkpt>
      <trkpt lat="59.8945322" lon="17.7042746">
        <ele>22.7283</ele>
        <time>2013-05-30T16:45:18Z</time>
      </trkpt>
      <trkpt lat="59.8944645" lon="17.7041888">
        <ele>23.209</ele>
        <time>2013-05-30T16:45:19Z</time>
      </trkpt>
      <trkpt lat="59.8943974" lon="17.7041044">
        <ele>23.209</ele>
        <time>2013-05-30T16:45:20Z</time>
      </trkpt>
      <trkpt lat="59.8943296" lon="17.7040209">
        <ele>23.209</ele>
        <time>2013-05-30T16:45:21Z</time>
      </trkpt>
      <trkpt lat="59.8942585" lon="17.703936">
        <ele>23.6896</ele>
        <time>2013-05-30T16:45:22Z</time>
      </trkpt>
      <trkpt lat="59.8941931" lon="17.7038466">
        <ele>23.6896</ele>
        <time>2013-05-30T16:45:23Z</time>
      </trkpt>
      <trkpt lat="59.8941273" lon="17.7037556">
        <ele>23.6896</ele>
        <time>2013-05-30T16:45:24Z</time>
      </trkpt>
      <trkpt lat="59.8940656" lon="17.703664">
        <ele>24.1703</ele>
        <time>2013-05-30T16:45:25Z</time>
      </trkpt>
      <trkpt lat="59.8940011" lon="17.7035737">
        <ele>24.651</ele>
        <time>2013-05-30T16:45:26Z</time>
      </trkpt>
      <trkpt lat="59.8939359" lon="17.7034872">
        <ele>24.651</ele>
        <time>2013-05-30T16:45:27Z</time>
      </trkpt>
      <trkpt lat="59.8938705" lon="17.7034045">
        <ele>24.651</ele>
        <time>2013-05-30T16:45:28Z</time>
      </trkpt>
      <trkpt lat="59.8938042" lon="17.7033184">
        <ele>24.651</ele>
        <time>2013-05-30T16:45:29Z</time>
      </trkpt>
      <trkpt lat="59.8937401" lon="17.7032324">
        <ele>24.651</ele>
        <time>2013-05-30T16:45:30Z</time>
      </trkpt>
      <trkpt lat="59.8936769" lon="17.7031397">
        <ele>24.651</ele>
        <time>2013-05-30T16:45:31Z</time>
      </trkpt>
      <trkpt lat="59.893616" lon="17.7030479">
        <ele>25.1317</ele>
        <time>2013-05-30T16:45:32Z</time>
      </trkpt>
      <trkpt lat="59.8935525" lon="17.7029574">
        <ele>25.1317</ele>
        <time>2013-05-30T16:45:33Z</time>
      </trkpt>
      <trkpt lat="59.8934883" lon="17.7028705">
        <ele>25.1317</ele>
        <time>2013-05-30T16:45:34Z</time>
      </trkpt>
      <trkpt lat="59.893424" lon="17.7027905">
        <ele>25.1317</ele>
        <time>2013-05-30T16:45:35Z</time>
      </trkpt>
      <trkpt lat="59.8933593" lon="17.7027108">
        <ele>24.651</ele>
        <time>2013-05-30T16:45:36Z</time>
      </trkpt>
      <trkpt lat="59.8932948" lon="17.7026289">
        <ele>24.651</ele>
        <time>2013-05-30T16:45:37Z</time>
      </trkpt>
      <trkpt lat="59.8932309" lon="17.7025502">
        <ele>24.651</ele>
        <time>2013-05-30T16:45:38Z</time>
      </trkpt>
      <trkpt lat="59.8931688" lon="17.7024708">
        <ele>25.1317</ele>
        <time>2013-05-30T16:45:39Z</time>
      </trkpt>
      <trkpt lat="59.893108" lon="17.7023881">
        <ele>25.1317</ele>
        <time>2013-05-30T16:45:40Z</time>
      </trkpt>
      <trkpt lat="59.8930469" lon="17.7023034">
        <ele>25.1317</ele>
        <time>2013-05-30T16:45:41Z</time>
      </trkpt>
      <trkpt lat="59.8929857" lon="17.7022177">
        <ele>25.1317</ele>
        <time>2013-05-30T16:45:42Z</time>
      </trkpt>
      <trkpt lat="59.892923" lon="17.7021349">
        <ele>25.1317</ele>
        <time>2013-05-30T16:45:43Z</time>
      </trkpt>
      <trkpt lat="59.8928584" lon="17.7020563">
        <ele>25.1317</ele>
        <time>2013-05-30T16:45:44Z</time>
      </trkpt>
      <trkpt lat="59.8927926" lon="17.701982">
        <ele>25.1317</ele>
        <time>2013-05-30T16:45:45Z</time>
      </trkpt>
      <trkpt lat="59.8927248" lon="17.7019116">
        <ele>24.651</ele>
        <time>2013-05-30T16:45:46Z</time>
      </trkpt>
      <trkpt lat="59.8926583" lon="17.7018354">
        <ele>24.651</ele>
        <time>2013-05-30T16:45:47Z</time>
      </trkpt>
      <trkpt lat="59.8925932" lon="17.7017484">
        <ele>24.651</ele>
        <time>2013-05-30T16:45:48Z</time>
      </trkpt>
      <trkpt lat="59.8925306" lon="17.7016514">
        <ele>24.651</ele>
        <time>2013-05-30T16:45:49Z</time>
      </trkpt>
      <trkpt lat="59.8924697" lon="17.7015488">
        <ele>24.651</ele>
        <time>2013-05-30T16:45:50Z</time>
      </trkpt>
      <trkpt lat="59.8924076" lon="17.7014469">
        <ele>24.651</ele>
        <time>2013-05-30T16:45:51Z</time>
      </trkpt>
      <trkpt lat="59.8923419" lon="17.7013488">
        <ele>24.651</ele>
        <time>2013-05-30T16:45:52Z</time>
      </trkpt>
      <trkpt lat="59.8922747" lon="17.7012568">
        <ele>24.651</ele>
        <time>2013-05-30T16:45:53Z</time>
      </trkpt>
      <trkpt lat="59.8922065" lon="17.701164">
        <ele>24.651</ele>
        <time>2013-05-30T16:45:54Z</time>
      </trkpt>
      <trkpt lat="59.8921378" lon="17.7010728">
        <ele>24.651</ele>
        <time>2013-05-30T16:45:55Z</time>
      </trkpt>
      <trkpt lat="59.8920674" lon="17.7009791">
        <ele>24.651</ele>
        <time>2013-05-30T16:45:56Z</time>
      </trkpt>
      <trkpt lat="59.8919953" lon="17.7008868">
        <ele>24.651</ele>
        <time>2013-05-30T16:45:57Z</time>
      </trkpt>
      <trkpt lat="59.8919201" lon="17.7007955">
        <ele>24.651</ele>
        <time>2013-05-30T16:45:58Z</time>
      </trkpt>
      <trkpt lat="59.8918455" lon="17.7007014">
        <ele>25.1317</ele>
        <time>2013-05-30T16:45:59Z</time>
      </trkpt>
      <trkpt lat="59.8917762" lon="17.7006015">
        <ele>24.651</ele>
        <time>2013-05-30T16:46:00Z</time>
      </trkpt>
      <trkpt lat="59.8917053" lon="17.7005019">
        <ele>24.1703</ele>
        <time>2013-05-30T16:46:01Z</time>
      </trkpt>
      <trkpt lat="59.8916328" lon="17.7004015">
        <ele>22.2476</ele>
        <time>2013-05-30T16:46:02Z</time>
      </trkpt>
      <trkpt lat="59.8915613" lon="17.7003072">
        <ele>22.2476</ele>
        <time>2013-05-30T16:46:03Z</time>
      </trkpt>
      <trkpt lat="59.8914919" lon="17.7002153">
        <ele>22.2476</ele>
        <time>2013-05-30T16:46:04Z</time>
      </trkpt>
      <trkpt lat="59.8914225" lon="17.7001223">
        <ele>22.2476</ele>
        <time>2013-05-30T16:46:05Z</time>
      </trkpt>
      <trkpt lat="59.8913528" lon="17.7000302">
        <ele>22.7283</ele>
        <time>2013-05-30T16:46:06Z</time>
      </trkpt>
      <trkpt lat="59.8912824" lon="17.6999323">
        <ele>22.2476</ele>
        <time>2013-05-30T16:46:07Z</time>
      </trkpt>
      <trkpt lat="59.8912096" lon="17.6998377">
        <ele>22.7283</ele>
        <time>2013-05-30T16:46:08Z</time>
      </trkpt>
      <trkpt lat="59.891137" lon="17.6997456">
        <ele>22.7283</ele>
        <time>2013-05-30T16:46:09Z</time>
      </trkpt>
      <trkpt lat="59.8910635" lon="17.6996555">
        <ele>22.7283</ele>
        <time>2013-05-30T16:46:10Z</time>
      </trkpt>
      <trkpt lat="59.8909894" lon="17.699568">
        <ele>22.7283</ele>
        <time>2013-05-30T16:46:11Z</time>
      </trkpt>
      <trkpt lat="59.8909122" lon="17.6994924">
        <ele>22.7283</ele>
        <time>2013-05-30T16:46:12Z</time>
      </trkpt>
      <trkpt lat="59.8908324" lon="17.6994245">
        <ele>22.7283</ele>
        <time>2013-05-30T16:46:13Z</time>
      </trkpt>
      <trkpt lat="59.8907543" lon="17.6993442">
        <ele>22.7283</ele>
        <time>2013-05-30T16:46:14Z</time>
      </trkpt>
      <trkpt lat="59.8906813" lon="17.6992423">
        <ele>22.7283</ele>
        <time>2013-05-30T16:46:15Z</time>
      </trkpt>
      <trkpt lat="59.8906122" lon="17.6991252">
        <ele>23.209</ele>
        <time>2013-05-30T16:46:16Z</time>
      </trkpt>
      <trkpt lat="59.890545" lon="17.6989994">
        <ele>23.209</ele>
        <time>2013-05-30T16:46:17Z</time>
      </trkpt>
      <trkpt lat="59.8904776" lon="17.6988806">
        <ele>23.6896</ele>
        <time>2013-05-30T16:46:18Z</time>
      </trkpt>
      <trkpt lat="59.8904071" lon="17.6987691">
        <ele>23.6896</ele>
        <time>2013-05-30T16:46:19Z</time>
      </trkpt>
      <trkpt lat="59.8903336" lon="17.6986626">
        <ele>24.1703</ele>
        <time>2013-05-30T16:46:20Z</time>
      </trkpt>
      <trkpt lat="59.8902591" lon="17.6985589">
        <ele>24.1703</ele>
        <time>2013-05-30T16:46:21Z</time>
      </trkpt>
      <trkpt lat="59.8901843" lon="17.6984594">
        <ele>24.1703</ele>
        <time>2013-05-30T16:46:22Z</time>
      </trkpt>
      <trkpt lat="59.8901099" lon="17.6983604">
        <ele>24.1703</ele>
        <time>2013-05-30T16:46:23Z</time>
      </trkpt>
      <trkpt lat="59.8900358" lon="17.6982604">
        <ele>24.1703</ele>
        <time>2013-05-30T16:46:24Z</time>
      </trkpt>
      <trkpt lat="59.8899609" lon="17.6981612">
        <ele>23.6896</ele>
        <time>2013-05-30T16:46:25Z</time>
      </trkpt>
      <trkpt lat="59.8898865" lon="17.698062">
        <ele>24.1703</ele>
        <time>2013-05-30T16:46:26Z</time>
      </trkpt>
      <trkpt lat="59.8898104" lon="17.6979621">
        <ele>23.6896</ele>
        <time>2013-05-30T16:46:27Z</time>
      </trkpt>
      <trkpt lat="59.8897345" lon="17.6978603">
        <ele>23.6896</ele>
        <time>2013-05-30T16:46:28Z</time>
      </trkpt>
      <trkpt lat="59.8896581" lon="17.6977579">
        <ele>23.6896</ele>
        <time>2013-05-30T16:46:29Z</time>
      </trkpt>
      <trkpt lat="59.8895814" lon="17.6976566">
        <ele>23.6896</ele>
        <time>2013-05-30T16:46:30Z</time>
      </trkpt>
      <trkpt lat="59.8895049" lon="17.6975557">
        <ele>23.209</ele>
        <time>2013-05-30T16:46:31Z</time>
      </trkpt>
      <trkpt lat="59.889428" lon="17.6974547">
        <ele>23.209</ele>
        <time>2013-05-30T16:46:32Z</time>
      </trkpt>
      <trkpt lat="59.8893504" lon="17.6973519">
        <ele>23.209</ele>
        <time>2013-05-30T16:46:33Z</time>
      </trkpt>
      <trkpt lat="59.8892717" lon="17.6972466">
        <ele>23.209</ele>
        <time>2013-05-30T16:46:34Z</time>
      </trkpt>
      <trkpt lat="59.8891919" lon="17.6971421">
        <ele>23.209</ele>
        <time>2013-05-30T16:46:35Z</time>
      </trkpt>
      <trkpt lat="59.889112" lon="17.6970379">
        <ele>23.209</ele>
        <time>2013-05-30T16:46:36Z</time>
      </trkpt>
      <trkpt lat="59.8890323" lon="17.6969328">
        <ele>22.7283</ele>
        <time>2013-05-30T16:46:37Z</time>
      </trkpt>
      <trkpt lat="59.8889529" lon="17.6968276">
        <ele>22.7283</ele>
        <time>2013-05-30T16:46:38Z</time>
      </trkpt>
      <trkpt lat="59.8888738" lon="17.6967234">
        <ele>22.7283</ele>
        <time>2013-05-30T16:46:39Z</time>
      </trkpt>
      <trkpt lat="59.8887956" lon="17.6966201">
        <ele>22.7283</ele>
        <time>2013-05-30T16:46:40Z</time>
      </trkpt>
      <trkpt lat="59.8887185" lon="17.6965171">
        <ele>22.7283</ele>
        <time>2013-05-30T16:46:41Z</time>
      </trkpt>
      <trkpt lat="59.8886426" lon="17.6964144">
        <ele>22.7283</ele>
        <time>2013-05-30T16:46:42Z</time>
      </trkpt>
      <trkpt lat="59.8885666" lon="17.6963134">
        <ele>22.2476</ele>
        <time>2013-05-30T16:46:43Z</time>
      </trkpt>
      <trkpt lat="59.8884905" lon="17.6962124">
        <ele>22.2476</ele>
        <time>2013-05-30T16:46:44Z</time>
      </trkpt>
      <trkpt lat="59.8884139" lon="17.6961107">
        <ele>22.2476</ele>
        <time>2013-05-30T16:46:45Z</time>
      </trkpt>
      <trkpt lat="59.8883368" lon="17.6960103">
        <ele>22.2476</ele>
        <time>2013-05-30T16:46:46Z</time>
      </trkpt>
      <trkpt lat="59.8882599" lon="17.6959097">
        <ele>22.2476</ele>
        <time>2013-05-30T16:46:47Z</time>
      </trkpt>
      <trkpt lat="59.8881831" lon="17.6958077">
        <ele>22.2476</ele>
        <time>2013-05-30T16:46:48Z</time>
      </trkpt>
      <trkpt lat="59.8881062" lon="17.6957056">
        <ele>21.767</ele>
        <time>2013-05-30T16:46:49Z</time>
      </trkpt>
      <trkpt lat="59.888029" lon="17.6956043">
        <ele>21.767</ele>
        <time>2013-05-30T16:46:50Z</time>
      </trkpt>
      <trkpt lat="59.8879519" lon="17.6955037">
        <ele>21.767</ele>
        <time>2013-05-30T16:46:51Z</time>
      </trkpt>
      <trkpt lat="59.8878751" lon="17.6954036">
        <ele>21.767</ele>
        <time>2013-05-30T16:46:52Z</time>
      </trkpt>
      <trkpt lat="59.887799" lon="17.6953012">
        <ele>21.767</ele>
        <time>2013-05-30T16:46:53Z</time>
      </trkpt>
      <trkpt lat="59.8877218" lon="17.6952048">
        <ele>21.767</ele>
        <time>2013-05-30T16:46:54Z</time>
      </trkpt>
      <trkpt lat="59.8876442" lon="17.695113">
        <ele>21.2864</ele>
        <time>2013-05-30T16:46:55Z</time>
      </trkpt>
      <trkpt lat="59.8875642" lon="17.6950277">
        <ele>21.2864</ele>
        <time>2013-05-30T16:46:56Z</time>
      </trkpt>
      <trkpt lat="59.8874808" lon="17.694953">
        <ele>21.767</ele>
        <time>2013-05-30T16:46:57Z</time>
      </trkpt>
      <trkpt lat="59.8873968" lon="17.6948909">
        <ele>21.767</ele>
        <time>2013-05-30T16:46:58Z</time>
      </trkpt>
      <trkpt lat="59.8873124" lon="17.6948371">
        <ele>22.2476</ele>
        <time>2013-05-30T16:46:59Z</time>
      </trkpt>
      <trkpt lat="59.8872286" lon="17.6947925">
        <ele>22.2476</ele>
        <time>2013-05-30T16:47:00Z</time>
      </trkpt>
      <trkpt lat="59.8871478" lon="17.6947557">
        <ele>22.7283</ele>
        <time>2013-05-30T16:47:01Z</time>
      </trkpt>
      <trkpt lat="59.8870699" lon="17.694719">
        <ele>22.7283</ele>
        <time>2013-05-30T16:47:02Z</time>
      </trkpt>
      <trkpt lat="59.8869955" lon="17.6946768">
        <ele>23.209</ele>
        <time>2013-05-30T16:47:03Z</time>
      </trkpt>
      <trkpt lat="59.8869304" lon="17.6946118">
        <ele>23.209</ele>
        <time>2013-05-30T16:47:04Z</time>
      </trkpt>
      <trkpt lat="59.8868801" lon="17.6945157">
        <ele>23.209</ele>
        <time>2013-05-30T16:47:05Z</time>
      </trkpt>
      <trkpt lat="59.8868425" lon="17.6943955">
        <ele>22.7283</ele>
        <time>2013-05-30T16:47:06Z</time>
      </trkpt>
      <trkpt lat="59.8868184" lon="17.6942577">
        <ele>22.7283</ele>
        <time>2013-05-30T16:47:07Z</time>
      </trkpt>
      <trkpt lat="59.886808" lon="17.6941091">
        <ele>22.7283</ele>
        <time>2013-05-30T16:47:08Z</time>
      </trkpt>
      <trkpt lat="59.8867988" lon="17.6939576">
        <ele>22.2476</ele>
        <time>2013-05-30T16:47:09Z</time>
      </trkpt>
      <trkpt lat="59.8867788" lon="17.6938125">
        <ele>22.2476</ele>
        <time>2013-05-30T16:47:10Z</time>
      </trkpt>
      <trkpt lat="59.8867401" lon="17.6937155">
        <ele>20.8057</ele>
        <time>2013-05-30T16:47:11Z</time>
      </trkpt>
      <trkpt lat="59.8866843" lon="17.6936268">
        <ele>20.325</ele>
        <time>2013-05-30T16:47:12Z</time>
      </trkpt>
      <trkpt lat="59.8866159" lon="17.6935394">
        <ele>19.8444</ele>
        <time>2013-05-30T16:47:13Z</time>
      </trkpt>
      <trkpt lat="59.8865505" lon="17.6934477">
        <ele>19.3638</ele>
        <time>2013-05-30T16:47:14Z</time>
      </trkpt>
      <trkpt lat="59.8864761" lon="17.693351">
        <ele>19.3638</ele>
        <time>2013-05-30T16:47:15Z</time>
      </trkpt>
      <trkpt lat="59.8864015" lon="17.6932481">
        <ele>18.4023</ele>
        <time>2013-05-30T16:47:16Z</time>
      </trkpt>
      <trkpt lat="59.8863284" lon="17.693144">
        <ele>17.9218</ele>
        <time>2013-05-30T16:47:17Z</time>
      </trkpt>
      <trkpt lat="59.8862509" lon="17.6930384">
        <ele>17.9218</ele>
        <time>2013-05-30T16:47:18Z</time>
      </trkpt>
      <trkpt lat="59.8861725" lon="17.6929348">
        <ele>17.9218</ele>
        <time>2013-05-30T16:47:19Z</time>
      </trkpt>
      <trkpt lat="59.8860945" lon="17.6928313">
        <ele>17.9218</ele>
        <time>2013-05-30T16:47:20Z</time>
      </trkpt>
      <trkpt lat="59.8860138" lon="17.6927299">
        <ele>18.4023</ele>
        <time>2013-05-30T16:47:21Z</time>
      </trkpt>
      <trkpt lat="59.8859375" lon="17.6926288">
        <ele>18.4023</ele>
        <time>2013-05-30T16:47:22Z</time>
      </trkpt>
      <trkpt lat="59.8858578" lon="17.6925247">
        <ele>18.8831</ele>
        <time>2013-05-30T16:47:23Z</time>
      </trkpt>
      <trkpt lat="59.8857778" lon="17.6924224">
        <ele>18.8831</ele>
        <time>2013-05-30T16:47:24Z</time>
      </trkpt>
      <trkpt lat="59.8856984" lon="17.6923186">
        <ele>18.8831</ele>
        <time>2013-05-30T16:47:25Z</time>
      </trkpt>
      <trkpt lat="59.8856232" lon="17.692214">
        <ele>18.8831</ele>
        <time>2013-05-30T16:47:26Z</time>
      </trkpt>
      <trkpt lat="59.8855482" lon="17.6921086">
        <ele>18.4023</ele>
        <time>2013-05-30T16:47:27Z</time>
      </trkpt>
      <trkpt lat="59.8854714" lon="17.6920031">
        <ele>18.4023</ele>
        <time>2013-05-30T16:47:28Z</time>
      </trkpt>
      <trkpt lat="59.8853944" lon="17.691898">
        <ele>18.4023</ele>
        <time>2013-05-30T16:47:29Z</time>
      </trkpt>
      <trkpt lat="59.8853172" lon="17.6917942">
        <ele>18.4023</ele>
        <time>2013-05-30T16:47:30Z</time>
      </trkpt>
      <trkpt lat="59.8852408" lon="17.6916891">
        <ele>18.4023</ele>
        <time>2013-05-30T16:47:31Z</time>
      </trkpt>
      <trkpt lat="59.8851639" lon="17.6915849">
        <ele>18.4023</ele>
        <time>2013-05-30T16:47:32Z</time>
      </trkpt>
      <trkpt lat="59.8850867" lon="17.691481">
        <ele>17.9218</ele>
        <time>2013-05-30T16:47:33Z</time>
      </trkpt>
      <trkpt lat="59.8850089" lon="17.6913778">
        <ele>17.9218</ele>
        <time>2013-05-30T16:47:34Z</time>
      </trkpt>
      <trkpt lat="59.8849305" lon="17.6912758">
        <ele>17.9218</ele>
        <time>2013-05-30T16:47:35Z</time>
      </trkpt>
      <trkpt lat="59.8848536" lon="17.6911741">
        <ele>17.9218</ele>
        <time>2013-05-30T16:47:36Z</time>
      </trkpt>
      <trkpt lat="59.8847779" lon="17.6910716">
        <ele>17.4412</ele>
        <time>2013-05-30T16:47:37Z</time>
      </trkpt>
      <trkpt lat="59.8847028" lon="17.6909685">
        <ele>16.9604</ele>
        <time>2013-05-30T16:47:38Z</time>
      </trkpt>
      <trkpt lat="59.8846278" lon="17.6908663">
        <ele>16.9604</ele>
        <time>2013-05-30T16:47:39Z</time>
      </trkpt>
      <trkpt lat="59.8845526" lon="17.6907644">
        <ele>16.9604</ele>
        <time>2013-05-30T16:47:40Z</time>
      </trkpt>
      <trkpt lat="59.8844785" lon="17.690662">
        <ele>16.9604</ele>
        <time>2013-05-30T16:47:41Z</time>
      </trkpt>
      <trkpt lat="59.8844034" lon="17.6905591">
        <ele>16.9604</ele>
        <time>2013-05-30T16:47:42Z</time>
      </trkpt>
      <trkpt lat="59.8843278" lon="17.6904562">
        <ele>16.9604</ele>
        <time>2013-05-30T16:47:43Z</time>
      </trkpt>
      <trkpt lat="59.8842512" lon="17.6903532">
        <ele>16.9604</ele>
        <time>2013-05-30T16:47:44Z</time>
      </trkpt>
      <trkpt lat="59.884174" lon="17.6902499">
        <ele>16.9604</ele>
        <time>2013-05-30T16:47:45Z</time>
      </trkpt>
      <trkpt lat="59.8840965" lon="17.6901478">
        <ele>16.9604</ele>
        <time>2013-05-30T16:47:46Z</time>
      </trkpt>
      <trkpt lat="59.8840185" lon="17.690047">
        <ele>17.4412</ele>
        <time>2013-05-30T16:47:47Z</time>
      </trkpt>
      <trkpt lat="59.8839419" lon="17.6899482">
        <ele>17.4412</ele>
        <time>2013-05-30T16:47:48Z</time>
      </trkpt>
      <trkpt lat="59.8838683" lon="17.689849">
        <ele>17.4412</ele>
        <time>2013-05-30T16:47:49Z</time>
      </trkpt>
      <trkpt lat="59.8837953" lon="17.6897496">
        <ele>17.4412</ele>
        <time>2013-05-30T16:47:50Z</time>
      </trkpt>
      <trkpt lat="59.8837228" lon="17.6896502">
        <ele>17.9218</ele>
        <time>2013-05-30T16:47:51Z</time>
      </trkpt>
      <trkpt lat="59.8836512" lon="17.6895523">
        <ele>17.4412</ele>
        <time>2013-05-30T16:47:52Z</time>
      </trkpt>
      <trkpt lat="59.883579" lon="17.6894583">
        <ele>17.4412</ele>
        <time>2013-05-30T16:47:53Z</time>
      </trkpt>
      <trkpt lat="59.8835063" lon="17.6893657">
        <ele>17.9218</ele>
        <time>2013-05-30T16:47:54Z</time>
      </trkpt>
      <trkpt lat="59.883434" lon="17.6892729">
        <ele>17.9218</ele>
        <time>2013-05-30T16:47:55Z</time>
      </trkpt>
      <trkpt lat="59.8833618" lon="17.68918">
        <ele>17.9218</ele>
        <time>2013-05-30T16:47:56Z</time>
      </trkpt>
      <trkpt lat="59.8832893" lon="17.6890885">
        <ele>17.9218</ele>
        <time>2013-05-30T16:47:57Z</time>
      </trkpt>
      <trkpt lat="59.8832172" lon="17.688997">
        <ele>17.9218</ele>
        <time>2013-05-30T16:47:58Z</time>
      </trkpt>
      <trkpt lat="59.8831471" lon="17.6889037">
        <ele>17.4412</ele>
        <time>2013-05-30T16:47:59Z</time>
      </trkpt>
      <trkpt lat="59.8830774" lon="17.6888096">
        <ele>17.4412</ele>
        <time>2013-05-30T16:48:00Z</time>
      </trkpt>
      <trkpt lat="59.8830088" lon="17.6887134">
        <ele>17.9218</ele>
        <time>2013-05-30T16:48:01Z</time>
      </trkpt>
      <trkpt lat="59.8829421" lon="17.6886156">
        <ele>17.9218</ele>
        <time>2013-05-30T16:48:02Z</time>
      </trkpt>
      <trkpt lat="59.8828758" lon="17.68852">
        <ele>17.9218</ele>
        <time>2013-05-30T16:48:03Z</time>
      </trkpt>
      <trkpt lat="59.8828094" lon="17.6884278">
        <ele>18.4023</ele>
        <time>2013-05-30T16:48:04Z</time>
      </trkpt>
      <trkpt lat="59.8827438" lon="17.6883364">
        <ele>18.4023</ele>
        <time>2013-05-30T16:48:05Z</time>
      </trkpt>
      <trkpt lat="59.8826795" lon="17.6882469">
        <ele>18.4023</ele>
        <time>2013-05-30T16:48:06Z</time>
      </trkpt>
      <trkpt lat="59.8826145" lon="17.6881615">
        <ele>18.4023</ele>
        <time>2013-05-30T16:48:07Z</time>
      </trkpt>
      <trkpt lat="59.8825501" lon="17.6880759">
        <ele>18.8831</ele>
        <time>2013-05-30T16:48:08Z</time>
      </trkpt>
      <trkpt lat="59.8824873" lon="17.687989">
        <ele>18.8831</ele>
        <time>2013-05-30T16:48:09Z</time>
      </trkpt>
      <trkpt lat="59.8824251" lon="17.6879024">
        <ele>18.8831</ele>
        <time>2013-05-30T16:48:10Z</time>
      </trkpt>
      <trkpt lat="59.8823638" lon="17.6878161">
        <ele>18.8831</ele>
        <time>2013-05-30T16:48:11Z</time>
      </trkpt>
      <trkpt lat="59.8823034" lon="17.6877315">
        <ele>18.8831</ele>
        <time>2013-05-30T16:48:12Z</time>
      </trkpt>
      <trkpt lat="59.8822427" lon="17.6876491">
        <ele>19.3638</ele>
        <time>2013-05-30T16:48:13Z</time>
      </trkpt>
      <trkpt lat="59.8821817" lon="17.6875682">
        <ele>19.3638</ele>
        <time>2013-05-30T16:48:14Z</time>
      </trkpt>
      <trkpt lat="59.8821216" lon="17.6874885">
        <ele>19.3638</ele>
        <time>2013-05-30T16:48:15Z</time>
      </trkpt>
      <trkpt lat="59.882061" lon="17.6874114">
        <ele>19.3638</ele>
        <time>2013-05-30T16:48:16Z</time>
      </trkpt>
      <trkpt lat="59.8820003" lon="17.6873352">
        <ele>19.8444</ele>
        <time>2013-05-30T16:48:17Z</time>
      </trkpt>
      <trkpt lat="59.8819411" lon="17.6872569">
        <ele>19.8444</ele>
        <time>2013-05-30T16:48:18Z</time>
      </trkpt>
      <trkpt lat="59.8818825" lon="17.6871783">
        <ele>19.8444</ele>
        <time>2013-05-30T16:48:19Z</time>
      </trkpt>
      <trkpt lat="59.8818247" lon="17.6871016">
        <ele>20.325</ele>
        <time>2013-05-30T16:48:20Z</time>
      </trkpt>
      <trkpt lat="59.8817682" lon="17.6870245">
        <ele>20.325</ele>
        <time>2013-05-30T16:48:21Z</time>
      </trkpt>
      <trkpt lat="59.8817114" lon="17.6869463">
        <ele>20.8057</ele>
        <time>2013-05-30T16:48:22Z</time>
      </trkpt>
      <trkpt lat="59.8816544" lon="17.686868">
        <ele>20.8057</ele>
        <time>2013-05-30T16:48:23Z</time>
      </trkpt>
      <trkpt lat="59.8815978" lon="17.6867908">
        <ele>20.8057</ele>
        <time>2013-05-30T16:48:24Z</time>
      </trkpt>
      <trkpt lat="59.8815413" lon="17.6867132">
        <ele>20.325</ele>
        <time>2013-05-30T16:48:25Z</time>
      </trkpt>
      <trkpt lat="59.8814845" lon="17.6866349">
        <ele>20.325</ele>
        <time>2013-05-30T16:48:26Z</time>
      </trkpt>
      <trkpt lat="59.8814273" lon="17.6865557">
        <ele>20.325</ele>
        <time>2013-05-30T16:48:27Z</time>
      </trkpt>
      <trkpt lat="59.8813689" lon="17.686476">
        <ele>20.325</ele>
        <time>2013-05-30T16:48:28Z</time>
      </trkpt>
      <trkpt lat="59.8813088" lon="17.6863957">
        <ele>20.325</ele>
        <time>2013-05-30T16:48:29Z</time>
      </trkpt>
      <trkpt lat="59.8812471" lon="17.6863133">
        <ele>20.325</ele>
        <time>2013-05-30T16:48:30Z</time>
      </trkpt>
      <trkpt lat="59.8811833" lon="17.6862299">
        <ele>20.325</ele>
        <time>2013-05-30T16:48:31Z</time>
      </trkpt>
      <trkpt lat="59.8811178" lon="17.6861459">
        <ele>20.325</ele>
        <time>2013-05-30T16:48:32Z</time>
      </trkpt>
      <trkpt lat="59.8810519" lon="17.6860583">
        <ele>19.8444</ele>
        <time>2013-05-30T16:48:33Z</time>
      </trkpt>
      <trkpt lat="59.880985" lon="17.6859676">
        <ele>19.8444</ele>
        <time>2013-05-30T16:48:34Z</time>
      </trkpt>
      <trkpt lat="59.8809136" lon="17.6858781">
        <ele>20.325</ele>
        <time>2013-05-30T16:48:35Z</time>
      </trkpt>
      <trkpt lat="59.8808457" lon="17.6857874">
        <ele>20.325</ele>
        <time>2013-05-30T16:48:36Z</time>
      </trkpt>
      <trkpt lat="59.8807792" lon="17.6856957">
        <ele>19.3638</ele>
        <time>2013-05-30T16:48:37Z</time>
      </trkpt>
      <trkpt lat="59.880713" lon="17.6856092">
        <ele>18.8831</ele>
        <time>2013-05-30T16:48:38Z</time>
      </trkpt>
      <trkpt lat="59.8806479" lon="17.6855253">
        <ele>18.8831</ele>
        <time>2013-05-30T16:48:39Z</time>
      </trkpt>
      <trkpt lat="59.8805837" lon="17.6854425">
        <ele>18.8831</ele>
        <time>2013-05-30T16:48:40Z</time>
      </trkpt>
      <trkpt lat="59.880521" lon="17.6853594">
        <ele>18.8831</ele>
        <time>2013-05-30T16:48:41Z</time>
      </trkpt>
      <trkpt lat="59.8804577" lon="17.6852772">
        <ele>18.8831</ele>
        <time>2013-05-30T16:48:42Z</time>
      </trkpt>
      <trkpt lat="59.8803939" lon="17.6851952">
        <ele>19.3638</ele>
        <time>2013-05-30T16:48:43Z</time>
      </trkpt>
      <trkpt lat="59.8803319" lon="17.6851108">
        <ele>19.3638</ele>
        <time>2013-05-30T16:48:44Z</time>
      </trkpt>
      <trkpt lat="59.880271" lon="17.6850265">
        <ele>19.3638</ele>
        <time>2013-05-30T16:48:45Z</time>
      </trkpt>
      <trkpt lat="59.8802106" lon="17.6849451">
        <ele>19.3638</ele>
        <time>2013-05-30T16:48:46Z</time>
      </trkpt>
      <trkpt lat="59.8801521" lon="17.6848669">
        <ele>19.3638</ele>
        <time>2013-05-30T16:48:47Z</time>
      </trkpt>
      <trkpt lat="59.8800967" lon="17.6847864">
        <ele>19.3638</ele>
        <time>2013-05-30T16:48:48Z</time>
      </trkpt>
      <trkpt lat="59.8800483" lon="17.6846949">
        <ele>19.8444</ele>
        <time>2013-05-30T16:48:49Z</time>
      </trkpt>
      <trkpt lat="59.8800054" lon="17.6845953">
        <ele>20.325</ele>
        <time>2013-05-30T16:48:50Z</time>
      </trkpt>
      <trkpt lat="59.879964" lon="17.6844949">
        <ele>20.8057</ele>
        <time>2013-05-30T16:48:51Z</time>
      </trkpt>
      <trkpt lat="59.8799224" lon="17.6843955">
        <ele>21.767</ele>
        <time>2013-05-30T16:48:52Z</time>
      </trkpt>
      <trkpt lat="59.8798777" lon="17.6842974">
        <ele>21.2864</ele>
        <time>2013-05-30T16:48:53Z</time>
      </trkpt>
      <trkpt lat="59.879829" lon="17.6842101">
        <ele>21.2864</ele>
        <time>2013-05-30T16:48:54Z</time>
      </trkpt>
      <trkpt lat="59.8797756" lon="17.6841342">
        <ele>21.2864</ele>
        <time>2013-05-30T16:48:55Z</time>
      </trkpt>
      <trkpt lat="59.8797214" lon="17.6840633">
        <ele>21.2864</ele>
        <time>2013-05-30T16:48:56Z</time>
      </trkpt>
      <trkpt lat="59.8796678" lon="17.6839902">
        <ele>21.2864</ele>
        <time>2013-05-30T16:48:57Z</time>
      </trkpt>
      <trkpt lat="59.8796148" lon="17.683918">
        <ele>21.767</ele>
        <time>2013-05-30T16:48:58Z</time>
      </trkpt>
      <trkpt lat="59.8795621" lon="17.683849">
        <ele>21.767</ele>
        <time>2013-05-30T16:48:59Z</time>
      </trkpt>
      <trkpt lat="59.8795106" lon="17.6837812">
        <ele>21.767</ele>
        <time>2013-05-30T16:49:00Z</time>
      </trkpt>
      <trkpt lat="59.8794591" lon="17.6837128">
        <ele>22.2476</ele>
        <time>2013-05-30T16:49:01Z</time>
      </trkpt>
      <trkpt lat="59.8794087" lon="17.6836438">
        <ele>21.767</ele>
        <time>2013-05-30T16:49:02Z</time>
      </trkpt>
      <trkpt lat="59.8793578" lon="17.6835797">
        <ele>22.7283</ele>
        <time>2013-05-30T16:49:03Z</time>
      </trkpt>
      <trkpt lat="59.8793075" lon="17.6835184">
        <ele>23.209</ele>
        <time>2013-05-30T16:49:04Z</time>
      </trkpt>
      <trkpt lat="59.8792573" lon="17.683458">
        <ele>23.6896</ele>
        <time>2013-05-30T16:49:05Z</time>
      </trkpt>
      <trkpt lat="59.8792072" lon="17.6833994">
        <ele>24.651</ele>
        <time>2013-05-30T16:49:06Z</time>
      </trkpt>
      <trkpt lat="59.8791606" lon="17.6833313">
        <ele>25.1317</ele>
        <time>2013-05-30T16:49:07Z</time>
      </trkpt>
      <trkpt lat="59.8791143" lon="17.6832657">
        <ele>25.1317</ele>
        <time>2013-05-30T16:49:08Z</time>
      </trkpt>
      <trkpt lat="59.8790677" lon="17.683199">
        <ele>25.1317</ele>
        <time>2013-05-30T16:49:09Z</time>
      </trkpt>
      <trkpt lat="59.8790198" lon="17.6831312">
        <ele>25.1317</ele>
        <time>2013-05-30T16:49:10Z</time>
      </trkpt>
      <trkpt lat="59.8789739" lon="17.683061">
        <ele>25.1317</ele>
        <time>2013-05-30T16:49:11Z</time>
      </trkpt>
      <trkpt lat="59.8789286" lon="17.6829874">
        <ele>25.1317</ele>
        <time>2013-05-30T16:49:12Z</time>
      </trkpt>
      <trkpt lat="59.8788828" lon="17.6829125">
        <ele>25.1317</ele>
        <time>2013-05-30T16:49:13Z</time>
      </trkpt>
      <trkpt lat="59.8788374" lon="17.6828331">
        <ele>25.6123</ele>
        <time>2013-05-30T16:49:14Z</time>
      </trkpt>
      <trkpt lat="59.8787887" lon="17.6827576">
        <ele>26.5736</ele>
        <time>2013-05-30T16:49:15Z</time>
      </trkpt>
      <trkpt lat="59.8787399" lon="17.6826828">
        <ele>26.5736</ele>
        <time>2013-05-30T16:49:16Z</time>
      </trkpt>
      <trkpt lat="59.8786903" lon="17.6826058">
        <ele>27.5349</ele>
        <time>2013-05-30T16:49:17Z</time>
      </trkpt>
      <trkpt lat="59.8786427" lon="17.6825237">
        <ele>26.0929</ele>
        <time>2013-05-30T16:49:18Z</time>
      </trkpt>
      <trkpt lat="59.8785913" lon="17.6824422">
        <ele>26.5736</ele>
        <time>2013-05-30T16:49:19Z</time>
      </trkpt>
      <trkpt lat="59.8785425" lon="17.6823561">
        <ele>26.5736</ele>
        <time>2013-05-30T16:49:20Z</time>
      </trkpt>
      <trkpt lat="59.8784943" lon="17.682264">
        <ele>24.651</ele>
        <time>2013-05-30T16:49:21Z</time>
      </trkpt>
      <trkpt lat="59.8784432" lon="17.6821729">
        <ele>23.6896</ele>
        <time>2013-05-30T16:49:22Z</time>
      </trkpt>
      <trkpt lat="59.8783892" lon="17.6820822">
        <ele>23.6896</ele>
        <time>2013-05-30T16:49:23Z</time>
      </trkpt>
      <trkpt lat="59.8783361" lon="17.6819833">
        <ele>22.7283</ele>
        <time>2013-05-30T16:49:24Z</time>
      </trkpt>
      <trkpt lat="59.8782798" lon="17.6818814">
        <ele>21.767</ele>
        <time>2013-05-30T16:49:25Z</time>
      </trkpt>
      <trkpt lat="59.8782282" lon="17.6817695">
        <ele>20.8057</ele>
        <time>2013-05-30T16:49:26Z</time>
      </trkpt>
      <trkpt lat="59.8781759" lon="17.6816546">
        <ele>20.8057</ele>
        <time>2013-05-30T16:49:27Z</time>
      </trkpt>
      <trkpt lat="59.8781216" lon="17.6815351">
        <ele>20.8057</ele>
        <time>2013-05-30T16:49:28Z</time>
      </trkpt>
      <trkpt lat="59.8780666" lon="17.6814133">
        <ele>20.8057</ele>
        <time>2013-05-30T16:49:29Z</time>
      </trkpt>
      <trkpt lat="59.878011" lon="17.6812876">
        <ele>20.8057</ele>
        <time>2013-05-30T16:49:30Z</time>
      </trkpt>
      <trkpt lat="59.8779525" lon="17.6811589">
        <ele>20.8057</ele>
        <time>2013-05-30T16:49:31Z</time>
      </trkpt>
      <trkpt lat="59.8778918" lon="17.6810265">
        <ele>20.8057</ele>
        <time>2013-05-30T16:49:32Z</time>
      </trkpt>
      <trkpt lat="59.8778293" lon="17.6808912">
        <ele>20.8057</ele>
        <time>2013-05-30T16:49:33Z</time>
      </trkpt>
      <trkpt lat="59.877765" lon="17.6807527">
        <ele>20.8057</ele>
        <time>2013-05-30T16:49:34Z</time>
      </trkpt>
      <trkpt lat="59.8777001" lon="17.6806098">
        <ele>20.8057</ele>
        <time>2013-05-30T16:49:35Z</time>
      </trkpt>
      <trkpt lat="59.8776341" lon="17.6804639">
        <ele>20.8057</ele>
        <time>2013-05-30T16:49:36Z</time>
      </trkpt>
      <trkpt lat="59.8775672" lon="17.680317">
        <ele>21.2864</ele>
        <time>2013-05-30T16:49:37Z</time>
      </trkpt>
      <trkpt lat="59.8775029" lon="17.6801658">
        <ele>21.2864</ele>
        <time>2013-05-30T16:49:38Z</time>
      </trkpt>
      <trkpt lat="59.8774424" lon="17.6800109">
        <ele>21.2864</ele>
        <time>2013-05-30T16:49:39Z</time>
      </trkpt>
      <trkpt lat="59.8773842" lon="17.6798573">
        <ele>21.2864</ele>
        <time>2013-05-30T16:49:40Z</time>
      </trkpt>
      <trkpt lat="59.8773249" lon="17.6797107">
        <ele>21.2864</ele>
        <time>2013-05-30T16:49:41Z</time>
      </trkpt>
      <trkpt lat="59.8772629" lon="17.6795729">
        <ele>21.2864</ele>
        <time>2013-05-30T16:49:42Z</time>
      </trkpt>
      <trkpt lat="59.8772001" lon="17.6794414">
        <ele>21.2864</ele>
        <time>2013-05-30T16:49:43Z</time>
      </trkpt>
      <trkpt lat="59.8771352" lon="17.6793128">
        <ele>22.2476</ele>
        <time>2013-05-30T16:49:44Z</time>
      </trkpt>
      <trkpt lat="59.8770714" lon="17.6791859">
        <ele>22.2476</ele>
        <time>2013-05-30T16:49:45Z</time>
      </trkpt>
      <trkpt lat="59.8770109" lon="17.6790595">
        <ele>22.7283</ele>
        <time>2013-05-30T16:49:46Z</time>
      </trkpt>
      <trkpt lat="59.8769542" lon="17.6789367">
        <ele>23.209</ele>
        <time>2013-05-30T16:49:47Z</time>
      </trkpt>
      <trkpt lat="59.8769" lon="17.6788163">
        <ele>23.6896</ele>
        <time>2013-05-30T16:49:48Z</time>
      </trkpt>
      <trkpt lat="59.8768491" lon="17.6786986">
        <ele>23.6896</ele>
        <time>2013-05-30T16:49:49Z</time>
      </trkpt>
      <trkpt lat="59.8768015" lon="17.6785876">
        <ele>23.6896</ele>
        <time>2013-05-30T16:49:50Z</time>
      </trkpt>
      <trkpt lat="59.8767572" lon="17.6784843">
        <ele>23.6896</ele>
        <time>2013-05-30T16:49:51Z</time>
      </trkpt>
      <trkpt lat="59.8767204" lon="17.6783908">
        <ele>23.6896</ele>
        <time>2013-05-30T16:49:52Z</time>
      </trkpt>
      <trkpt lat="59.8766928" lon="17.6783157">
        <ele>23.6896</ele>
        <time>2013-05-30T16:49:53Z</time>
      </trkpt>
      <trkpt lat="59.8766741" lon="17.6782608">
        <ele>23.6896</ele>
        <time>2013-05-30T16:49:54Z</time>
      </trkpt>
      <trkpt lat="59.8766654" lon="17.678226">
        <ele>23.209</ele>
        <time>2013-05-30T16:49:55Z</time>
      </trkpt>
      <trkpt lat="59.8766618" lon="17.6782036">
        <ele>23.209</ele>
        <time>2013-05-30T16:49:56Z</time>
      </trkpt>
      <trkpt lat="59.8766561" lon="17.6781828">
        <ele>23.209</ele>
        <time>2013-05-30T16:49:57Z</time>
      </trkpt>
      <trkpt lat="59.8766525" lon="17.6781597">
        <ele>23.209</ele>
        <time>2013-05-30T16:49:58Z</time>
      </trkpt>
      <trkpt lat="59.8766489" lon="17.6781295">
        <ele>23.209</ele>
        <time>2013-05-30T16:49:59Z</time>
      </trkpt>
      <trkpt lat="59.8766483" lon="17.678085">
        <ele>23.6896</ele>
        <time>2013-05-30T16:50:00Z</time>
      </trkpt>
      <trkpt lat="59.8766478" lon="17.678039">
        <ele>24.1703</ele>
        <time>2013-05-30T16:50:01Z</time>
      </trkpt>
      <trkpt lat="59.8766475" lon="17.6779834">
        <ele>24.1703</ele>
        <time>2013-05-30T16:50:02Z</time>
      </trkpt>
      <trkpt lat="59.876651" lon="17.6778986">
        <ele>23.6896</ele>
        <time>2013-05-30T16:50:03Z</time>
      </trkpt>
      <trkpt lat="59.8766482" lon="17.6777935">
        <ele>23.209</ele>
        <time>2013-05-30T16:50:04Z</time>
      </trkpt>
      <trkpt lat="59.8766351" lon="17.6776759">
        <ele>23.6896</ele>
        <time>2013-05-30T16:50:05Z</time>
      </trkpt>
      <trkpt lat="59.8766111" lon="17.6775609">
        <ele>23.6896</ele>
        <time>2013-05-30T16:50:06Z</time>
      </trkpt>
      <trkpt lat="59.8765831" lon="17.6774697">
        <ele>24.1703</ele>
        <time>2013-05-30T16:50:07Z</time>
      </trkpt>
      <trkpt lat="59.8765244" lon="17.6773562">
        <ele>23.6896</ele>
        <time>2013-05-30T16:50:08Z</time>
      </trkpt>
      <trkpt lat="59.8764576" lon="17.6772825">
        <ele>23.209</ele>
        <time>2013-05-30T16:50:09Z</time>
      </trkpt>
      <trkpt lat="59.8763634" lon="17.6772454">
        <ele>23.6896</ele>
        <time>2013-05-30T16:50:10Z</time>
      </trkpt>
      <trkpt lat="59.8762697" lon="17.6772164">
        <ele>24.1703</ele>
        <time>2013-05-30T16:50:11Z</time>
      </trkpt>
      <trkpt lat="59.876191" lon="17.6771589">
        <ele>24.1703</ele>
        <time>2013-05-30T16:50:12Z</time>
      </trkpt>
      <trkpt lat="59.8761193" lon="17.6770671">
        <ele>24.1703</ele>
        <time>2013-05-30T16:50:13Z</time>
      </trkpt>
      <trkpt lat="59.8760555" lon="17.6769553">
        <ele>23.6896</ele>
        <time>2013-05-30T16:50:14Z</time>
      </trkpt>
      <trkpt lat="59.8759965" lon="17.676834">
        <ele>23.209</ele>
        <time>2013-05-30T16:50:15Z</time>
      </trkpt>
      <trkpt lat="59.8759453" lon="17.6767057">
        <ele>22.7283</ele>
        <time>2013-05-30T16:50:16Z</time>
      </trkpt>
      <trkpt lat="59.8759011" lon="17.6765735">
        <ele>21.767</ele>
        <time>2013-05-30T16:50:17Z</time>
      </trkpt>
      <trkpt lat="59.875849" lon="17.6764425">
        <ele>21.2864</ele>
        <time>2013-05-30T16:50:18Z</time>
      </trkpt>
      <trkpt lat="59.8757977" lon="17.6763107">
        <ele>20.8057</ele>
        <time>2013-05-30T16:50:19Z</time>
      </trkpt>
      <trkpt lat="59.8757428" lon="17.6761794">
        <ele>20.325</ele>
        <time>2013-05-30T16:50:20Z</time>
      </trkpt>
      <trkpt lat="59.8756832" lon="17.6760481">
        <ele>19.8444</ele>
        <time>2013-05-30T16:50:21Z</time>
      </trkpt>
      <trkpt lat="59.8756221" lon="17.6759153">
        <ele>19.3638</ele>
        <time>2013-05-30T16:50:22Z</time>
      </trkpt>
      <trkpt lat="59.8755585" lon="17.6757743">
        <ele>19.3638</ele>
        <time>2013-05-30T16:50:23Z</time>
      </trkpt>
      <trkpt lat="59.8755007" lon="17.675636">
        <ele>18.8831</ele>
        <time>2013-05-30T16:50:24Z</time>
      </trkpt>
      <trkpt lat="59.8754469" lon="17.6754988">
        <ele>18.4023</ele>
        <time>2013-05-30T16:50:25Z</time>
      </trkpt>
      <trkpt lat="59.8753868" lon="17.6753662">
        <ele>18.4023</ele>
        <time>2013-05-30T16:50:26Z</time>
      </trkpt>
      <trkpt lat="59.8753305" lon="17.6752346">
        <ele>18.4023</ele>
        <time>2013-05-30T16:50:27Z</time>
      </trkpt>
      <trkpt lat="59.8752696" lon="17.6751086">
        <ele>18.4023</ele>
        <time>2013-05-30T16:50:28Z</time>
      </trkpt>
      <trkpt lat="59.8752127" lon="17.6749848">
        <ele>18.4023</ele>
        <time>2013-05-30T16:50:29Z</time>
      </trkpt>
      <trkpt lat="59.8751554" lon="17.67486">
        <ele>18.4023</ele>
        <time>2013-05-30T16:50:30Z</time>
      </trkpt>
      <trkpt lat="59.8751019" lon="17.6747306">
        <ele>18.4023</ele>
        <time>2013-05-30T16:50:31Z</time>
      </trkpt>
      <trkpt lat="59.8750547" lon="17.6746024">
        <ele>18.4023</ele>
        <time>2013-05-30T16:50:32Z</time>
      </trkpt>
      <trkpt lat="59.8750129" lon="17.6744865">
        <ele>18.4023</ele>
        <time>2013-05-30T16:50:33Z</time>
      </trkpt>
      <trkpt lat="59.8749844" lon="17.6743937">
        <ele>17.9218</ele>
        <time>2013-05-30T16:50:34Z</time>
      </trkpt>
      <trkpt lat="59.8749664" lon="17.6743155">
        <ele>17.9218</ele>
        <time>2013-05-30T16:50:35Z</time>
      </trkpt>
      <trkpt lat="59.8749554" lon="17.6742383">
        <ele>17.9218</ele>
        <time>2013-05-30T16:50:36Z</time>
      </trkpt>
      <trkpt lat="59.8749513" lon="17.6741525">
        <ele>17.9218</ele>
        <time>2013-05-30T16:50:37Z</time>
      </trkpt>
      <trkpt lat="59.8749588" lon="17.6740524">
        <ele>18.8831</ele>
        <time>2013-05-30T16:50:38Z</time>
      </trkpt>
      <trkpt lat="59.8749636" lon="17.6739509">
        <ele>19.3638</ele>
        <time>2013-05-30T16:50:39Z</time>
      </trkpt>
      <trkpt lat="59.8749559" lon="17.6738562">
        <ele>20.325</ele>
        <time>2013-05-30T16:50:40Z</time>
      </trkpt>
      <trkpt lat="59.8749348" lon="17.6737673">
        <ele>20.8057</ele>
        <time>2013-05-30T16:50:41Z</time>
      </trkpt>
      <trkpt lat="59.874893" lon="17.6736829">
        <ele>20.8057</ele>
        <time>2013-05-30T16:50:42Z</time>
      </trkpt>
      <trkpt lat="59.874843" lon="17.6736083">
        <ele>20.8057</ele>
        <time>2013-05-30T16:50:43Z</time>
      </trkpt>
      <trkpt lat="59.8747863" lon="17.6735363">
        <ele>20.8057</ele>
        <time>2013-05-30T16:50:44Z</time>
      </trkpt>
      <trkpt lat="59.8747275" lon="17.6734718">
        <ele>21.2864</ele>
        <time>2013-05-30T16:50:45Z</time>
      </trkpt>
      <trkpt lat="59.874668" lon="17.6734034">
        <ele>21.767</ele>
        <time>2013-05-30T16:50:46Z</time>
      </trkpt>
      <trkpt lat="59.8746083" lon="17.6733303">
        <ele>22.2476</ele>
        <time>2013-05-30T16:50:47Z</time>
      </trkpt>
      <trkpt lat="59.8745501" lon="17.6732486">
        <ele>22.2476</ele>
        <time>2013-05-30T16:50:48Z</time>
      </trkpt>
      <trkpt lat="59.8745019" lon="17.6731599">
        <ele>21.767</ele>
        <time>2013-05-30T16:50:49Z</time>
      </trkpt>
      <trkpt lat="59.8744541" lon="17.673066">
        <ele>21.767</ele>
        <time>2013-05-30T16:50:50Z</time>
      </trkpt>
      <trkpt lat="59.8744049" lon="17.6729676">
        <ele>21.2864</ele>
        <time>2013-05-30T16:50:51Z</time>
      </trkpt>
      <trkpt lat="59.8743561" lon="17.6728642">
        <ele>21.2864</ele>
        <time>2013-05-30T16:50:52Z</time>
      </trkpt>
      <trkpt lat="59.8743132" lon="17.6727559">
        <ele>20.8057</ele>
        <time>2013-05-30T16:50:53Z</time>
      </trkpt>
      <trkpt lat="59.8742722" lon="17.672646">
        <ele>20.325</ele>
        <time>2013-05-30T16:50:54Z</time>
      </trkpt>
      <trkpt lat="59.8742272" lon="17.6725366">
        <ele>19.8444</ele>
        <time>2013-05-30T16:50:55Z</time>
      </trkpt>
      <trkpt lat="59.8741758" lon="17.6724285">
        <ele>19.8444</ele>
        <time>2013-05-30T16:50:56Z</time>
      </trkpt>
      <trkpt lat="59.8741239" lon="17.672321">
        <ele>20.325</ele>
        <time>2013-05-30T16:50:57Z</time>
      </trkpt>
      <trkpt lat="59.8740726" lon="17.6722092">
        <ele>20.8057</ele>
        <time>2013-05-30T16:50:58Z</time>
      </trkpt>
      <trkpt lat="59.874024" lon="17.6720999">
        <ele>21.2864</ele>
        <time>2013-05-30T16:50:59Z</time>
      </trkpt>
      <trkpt lat="59.8739783" lon="17.6719931">
        <ele>21.767</ele>
        <time>2013-05-30T16:51:00Z</time>
      </trkpt>
      <trkpt lat="59.8739307" lon="17.6718895">
        <ele>21.2864</ele>
        <time>2013-05-30T16:51:01Z</time>
      </trkpt>
      <trkpt lat="59.8738821" lon="17.6717857">
        <ele>21.2864</ele>
        <time>2013-05-30T16:51:02Z</time>
      </trkpt>
      <trkpt lat="59.8738301" lon="17.6716862">
        <ele>22.2476</ele>
        <time>2013-05-30T16:51:03Z</time>
      </trkpt>
      <trkpt lat="59.8737781" lon="17.6715894">
        <ele>22.7283</ele>
        <time>2013-05-30T16:51:04Z</time>
      </trkpt>
      <trkpt lat="59.8737296" lon="17.6714909">
        <ele>22.7283</ele>
        <time>2013-05-30T16:51:05Z</time>
      </trkpt>
      <trkpt lat="59.8736763" lon="17.6713922">
        <ele>22.7283</ele>
        <time>2013-05-30T16:51:06Z</time>
      </trkpt>
      <trkpt lat="59.8736286" lon="17.6712948">
        <ele>22.2476</ele>
        <time>2013-05-30T16:51:07Z</time>
      </trkpt>
      <trkpt lat="59.8735778" lon="17.671192">
        <ele>22.7283</ele>
        <time>2013-05-30T16:51:08Z</time>
      </trkpt>
      <trkpt lat="59.8735274" lon="17.6710843">
        <ele>22.2476</ele>
        <time>2013-05-30T16:51:09Z</time>
      </trkpt>
      <trkpt lat="59.873476" lon="17.6709744">
        <ele>22.2476</ele>
        <time>2013-05-30T16:51:10Z</time>
      </trkpt>
      <trkpt lat="59.8734243" lon="17.6708615">
        <ele>22.2476</ele>
        <time>2013-05-30T16:51:11Z</time>
      </trkpt>
      <trkpt lat="59.8733719" lon="17.6707455">
        <ele>21.767</ele>
        <time>2013-05-30T16:51:12Z</time>
      </trkpt>
      <trkpt lat="59.8733169" lon="17.6706285">
        <ele>21.767</ele>
        <time>2013-05-30T16:51:13Z</time>
      </trkpt>
      <trkpt lat="59.8732601" lon="17.6705104">
        <ele>21.767</ele>
        <time>2013-05-30T16:51:14Z</time>
      </trkpt>
      <trkpt lat="59.8732034" lon="17.6703895">
        <ele>21.767</ele>
        <time>2013-05-30T16:51:15Z</time>
      </trkpt>
      <trkpt lat="59.8731459" lon="17.6702646">
        <ele>22.2476</ele>
        <time>2013-05-30T16:51:16Z</time>
      </trkpt>
      <trkpt lat="59.8730874" lon="17.6701357">
        <ele>22.2476</ele>
        <time>2013-05-30T16:51:17Z</time>
      </trkpt>
      <trkpt lat="59.8730279" lon="17.6700021">
        <ele>22.2476</ele>
        <time>2013-05-30T16:51:18Z</time>
      </trkpt>
      <trkpt lat="59.8729671" lon="17.6698648">
        <ele>22.2476</ele>
        <time>2013-05-30T16:51:19Z</time>
      </trkpt>
      <trkpt lat="59.8729042" lon="17.6697248">
        <ele>22.2476</ele>
        <time>2013-05-30T16:51:20Z</time>
      </trkpt>
      <trkpt lat="59.8728378" lon="17.6695844">
        <ele>22.2476</ele>
        <time>2013-05-30T16:51:21Z</time>
      </trkpt>
      <trkpt lat="59.8727709" lon="17.6694406">
        <ele>22.2476</ele>
        <time>2013-05-30T16:51:22Z</time>
      </trkpt>
      <trkpt lat="59.8727035" lon="17.6692944">
        <ele>21.767</ele>
        <time>2013-05-30T16:51:23Z</time>
      </trkpt>
      <trkpt lat="59.8726337" lon="17.669148">
        <ele>21.767</ele>
        <time>2013-05-30T16:51:24Z</time>
      </trkpt>
      <trkpt lat="59.8725632" lon="17.6689966">
        <ele>22.2476</ele>
        <time>2013-05-30T16:51:25Z</time>
      </trkpt>
      <trkpt lat="59.8724885" lon="17.6688457">
        <ele>21.767</ele>
        <time>2013-05-30T16:51:26Z</time>
      </trkpt>
      <trkpt lat="59.8724159" lon="17.6686848">
        <ele>19.8444</ele>
        <time>2013-05-30T16:51:27Z</time>
      </trkpt>
      <trkpt lat="59.8723444" lon="17.6685276">
        <ele>17.4412</ele>
        <time>2013-05-30T16:51:28Z</time>
      </trkpt>
      <trkpt lat="59.8722855" lon="17.6683733">
        <ele>16.9604</ele>
        <time>2013-05-30T16:51:29Z</time>
      </trkpt>
      <trkpt lat="59.8722043" lon="17.6682298">
        <ele>16.4797</ele>
        <time>2013-05-30T16:51:30Z</time>
      </trkpt>
      <trkpt lat="59.8721306" lon="17.6680818">
        <ele>16.4797</ele>
        <time>2013-05-30T16:51:31Z</time>
      </trkpt>
      <trkpt lat="59.872057" lon="17.6679312">
        <ele>15.999</ele>
        <time>2013-05-30T16:51:32Z</time>
      </trkpt>
      <trkpt lat="59.8719853" lon="17.6677772">
        <ele>15.999</ele>
        <time>2013-05-30T16:51:33Z</time>
      </trkpt>
      <trkpt lat="59.8719146" lon="17.6676191">
        <ele>15.999</ele>
        <time>2013-05-30T16:51:34Z</time>
      </trkpt>
      <trkpt lat="59.871842" lon="17.667459">
        <ele>15.999</ele>
        <time>2013-05-30T16:51:35Z</time>
      </trkpt>
      <trkpt lat="59.871767" lon="17.667297">
        <ele>15.5184</ele>
        <time>2013-05-30T16:51:36Z</time>
      </trkpt>
      <trkpt lat="59.8716892" lon="17.667136">
        <ele>15.0377</ele>
        <time>2013-05-30T16:51:37Z</time>
      </trkpt>
      <trkpt lat="59.8716178" lon="17.6669779">
        <ele>14.557</ele>
        <time>2013-05-30T16:51:38Z</time>
      </trkpt>
      <trkpt lat="59.8715421" lon="17.6668146">
        <ele>14.0764</ele>
        <time>2013-05-30T16:51:39Z</time>
      </trkpt>
      <trkpt lat="59.8714676" lon="17.6666566">
        <ele>13.5958</ele>
        <time>2013-05-30T16:51:40Z</time>
      </trkpt>
      <trkpt lat="59.8713931" lon="17.6664996">
        <ele>13.5958</ele>
        <time>2013-05-30T16:51:41Z</time>
      </trkpt>
      <trkpt lat="59.8713169" lon="17.666338">
        <ele>13.1151</ele>
        <time>2013-05-30T16:51:42Z</time>
      </trkpt>
      <trkpt lat="59.8712442" lon="17.6661812">
        <ele>12.6344</ele>
        <time>2013-05-30T16:51:43Z</time>
      </trkpt>
      <trkpt lat="59.8711712" lon="17.6660264">
        <ele>12.6344</ele>
        <time>2013-05-30T16:51:44Z</time>
      </trkpt>
      <trkpt lat="59.8710983" lon="17.6658713">
        <ele>12.1538</ele>
        <time>2013-05-30T16:51:45Z</time>
      </trkpt>
      <trkpt lat="59.8710269" lon="17.6657171">
        <ele>11.6732</ele>
        <time>2013-05-30T16:51:46Z</time>
      </trkpt>
      <trkpt lat="59.8709578" lon="17.6655648">
        <ele>11.1925</ele>
        <time>2013-05-30T16:51:47Z</time>
      </trkpt>
      <trkpt lat="59.8708897" lon="17.665413">
        <ele>11.1925</ele>
        <time>2013-05-30T16:51:48Z</time>
      </trkpt>
      <trkpt lat="59.8708216" lon="17.6652605">
        <ele>10.7118</ele>
        <time>2013-05-30T16:51:49Z</time>
      </trkpt>
      <trkpt lat="59.8707542" lon="17.665107">
        <ele>10.7118</ele>
        <time>2013-05-30T16:51:50Z</time>
      </trkpt>
      <trkpt lat="59.870684" lon="17.664952">
        <ele>10.2312</ele>
        <time>2013-05-30T16:51:51Z</time>
      </trkpt>
      <trkpt lat="59.8706081" lon="17.6647996">
        <ele>10.2312</ele>
        <time>2013-05-30T16:51:52Z</time>
      </trkpt>
      <trkpt lat="59.8705342" lon="17.6646484">
        <ele>9.75061</ele>
        <time>2013-05-30T16:51:53Z</time>
      </trkpt>
      <trkpt lat="59.8704692" lon="17.6644983">
        <ele>9.75061</ele>
        <time>2013-05-30T16:51:54Z</time>
      </trkpt>
      <trkpt lat="59.8704077" lon="17.6643573">
        <ele>9.75061</ele>
        <time>2013-05-30T16:51:55Z</time>
      </trkpt>
      <trkpt lat="59.870341" lon="17.6642129">
        <ele>9.2699</ele>
        <time>2013-05-30T16:51:56Z</time>
      </trkpt>
      <trkpt lat="59.870276" lon="17.6640807">
        <ele>8.78918</ele>
        <time>2013-05-30T16:51:57Z</time>
      </trkpt>
      <trkpt lat="59.8702036" lon="17.6639393">
        <ele>8.78918</ele>
        <time>2013-05-30T16:51:58Z</time>
      </trkpt>
      <trkpt lat="59.870141" lon="17.6638">
        <ele>8.78918</ele>
        <time>2013-05-30T16:51:59Z</time>
      </trkpt>
      <trkpt lat="59.87008" lon="17.6636641">
        <ele>8.30859</ele>
        <time>2013-05-30T16:52:00Z</time>
      </trkpt>
      <trkpt lat="59.8700178" lon="17.6635285">
        <ele>8.78918</ele>
        <time>2013-05-30T16:52:01Z</time>
      </trkpt>
      <trkpt lat="59.8699492" lon="17.6633624">
        <ele>8.30859</ele>
        <time>2013-05-30T16:52:02Z</time>
      </trkpt>
      <trkpt lat="59.8698877" lon="17.6632405">
        <ele>8.30859</ele>
        <time>2013-05-30T16:52:03Z</time>
      </trkpt>
      <trkpt lat="59.8698272" lon="17.6631295">
        <ele>8.78918</ele>
        <time>2013-05-30T16:52:04Z</time>
      </trkpt>
      <trkpt lat="59.8697732" lon="17.6630106">
        <ele>8.78918</ele>
        <time>2013-05-30T16:52:05Z</time>
      </trkpt>
      <trkpt lat="59.8697136" lon="17.6628993">
        <ele>9.75061</ele>
        <time>2013-05-30T16:52:06Z</time>
      </trkpt>
      <trkpt lat="59.8696587" lon="17.662783">
        <ele>9.75061</ele>
        <time>2013-05-30T16:52:07Z</time>
      </trkpt>
      <trkpt lat="59.8696044" lon="17.6626726">
        <ele>9.75061</ele>
        <time>2013-05-30T16:52:08Z</time>
      </trkpt>
      <trkpt lat="59.8695529" lon="17.6625551">
        <ele>7.82788</ele>
        <time>2013-05-30T16:52:09Z</time>
      </trkpt>
      <trkpt lat="59.8694985" lon="17.6624449">
        <ele>6.86646</ele>
        <time>2013-05-30T16:52:10Z</time>
      </trkpt>
      <trkpt lat="59.8694526" lon="17.6623381">
        <ele>5.42456</ele>
        <time>2013-05-30T16:52:11Z</time>
      </trkpt>
      <trkpt lat="59.869408" lon="17.6622417">
        <ele>4.46326</ele>
        <time>2013-05-30T16:52:12Z</time>
      </trkpt>
      <trkpt lat="59.8693664" lon="17.6621487">
        <ele>3.02124</ele>
        <time>2013-05-30T16:52:13Z</time>
      </trkpt>
      <trkpt lat="59.8693322" lon="17.6620637">
        <ele>3.02124</ele>
        <time>2013-05-30T16:52:14Z</time>
      </trkpt>
      <trkpt lat="59.8693013" lon="17.6619884">
        <ele>2.54065</ele>
        <time>2013-05-30T16:52:15Z</time>
      </trkpt>
      <trkpt lat="59.8692716" lon="17.6619192">
        <ele>2.54065</ele>
        <time>2013-05-30T16:52:16Z</time>
      </trkpt>
      <trkpt lat="59.8692465" lon="17.6618539">
        <ele>2.06006</ele>
        <time>2013-05-30T16:52:17Z</time>
      </trkpt>
      <trkpt lat="59.8692232" lon="17.6617963">
        <ele>2.06006</ele>
        <time>2013-05-30T16:52:18Z</time>
      </trkpt>
      <trkpt lat="59.8692025" lon="17.6617475">
        <ele>1.57935</ele>
        <time>2013-05-30T16:52:19Z</time>
      </trkpt>
      <trkpt lat="59.8691843" lon="17.6617067">
        <ele>1.57935</ele>
        <time>2013-05-30T16:52:20Z</time>
      </trkpt>
      <trkpt lat="59.8691707" lon="17.6616771">
        <ele>1.57935</ele>
        <time>2013-05-30T16:52:21Z</time>
      </trkpt>
      <trkpt lat="59.8691512" lon="17.6616394">
        <ele>2.06006</ele>
        <time>2013-05-30T16:52:22Z</time>
      </trkpt>
      <trkpt lat="59.86914" lon="17.6616156">
        <ele>2.54065</ele>
        <time>2013-05-30T16:52:23Z</time>
      </trkpt>
      <trkpt lat="59.8691314" lon="17.6615943">
        <ele>2.54065</ele>
        <time>2013-05-30T16:52:24Z</time>
      </trkpt>
      <trkpt lat="59.8691222" lon="17.6615744">
        <ele>3.02124</ele>
        <time>2013-05-30T16:52:25Z</time>
      </trkpt>
      <trkpt lat="59.8691148" lon="17.6615559">
        <ele>3.50195</ele>
        <time>2013-05-30T16:52:26Z</time>
      </trkpt>
      <trkpt lat="59.8691102" lon="17.6615438">
        <ele>3.50195</ele>
        <time>2013-05-30T16:52:27Z</time>
      </trkpt>
      <trkpt lat="59.8691051" lon="17.661528">
        <ele>3.98267</ele>
        <time>2013-05-30T16:52:28Z</time>
      </trkpt>
      <trkpt lat="59.8690992" lon="17.6615108">
        <ele>3.50195</ele>
        <time>2013-05-30T16:52:29Z</time>
      </trkpt>
      <trkpt lat="59.869096" lon="17.6615036">
        <ele>3.50195</ele>
        <time>2013-05-30T16:52:30Z</time>
      </trkpt>
      <trkpt lat="59.8690972" lon="17.6615025">
        <ele>3.50195</ele>
        <time>2013-05-30T16:52:31Z</time>
      </trkpt>
      <trkpt lat="59.8690983" lon="17.6615057">
        <ele>4.94385</ele>
        <time>2013-05-30T16:52:32Z</time>
      </trkpt>
      <trkpt lat="59.8690624" lon="17.6614922">
        <ele>15.5184</ele>
        <time>2013-05-30T16:52:45Z</time>
      </trkpt>
      <trkpt lat="59.8690542" lon="17.6614705">
        <ele>15.0377</ele>
        <time>2013-05-30T16:52:46Z</time>
      </trkpt>
      <trkpt lat="59.8690422" lon="17.6614346">
        <ele>15.0377</ele>
        <time>2013-05-30T16:52:47Z</time>
      </trkpt>
      <trkpt lat="59.8690227" lon="17.6613827">
        <ele>14.557</ele>
        <time>2013-05-30T16:52:48Z</time>
      </trkpt>
      <trkpt lat="59.8689973" lon="17.661315">
        <ele>14.557</ele>
        <time>2013-05-30T16:52:49Z</time>
      </trkpt>
      <trkpt lat="59.8689787" lon="17.6612316">
        <ele>14.0764</ele>
        <time>2013-05-30T16:52:50Z</time>
      </trkpt>
      <trkpt lat="59.8689624" lon="17.6611377">
        <ele>13.1151</ele>
        <time>2013-05-30T16:52:51Z</time>
      </trkpt>
      <trkpt lat="59.8689352" lon="17.6610295">
        <ele>12.6344</ele>
        <time>2013-05-30T16:52:52Z</time>
      </trkpt>
      <trkpt lat="59.868904" lon="17.6609208">
        <ele>12.1538</ele>
        <time>2013-05-30T16:52:53Z</time>
      </trkpt>
      <trkpt lat="59.868876" lon="17.6607659">
        <ele>11.6732</ele>
        <time>2013-05-30T16:52:54Z</time>
      </trkpt>
      <trkpt lat="59.8688314" lon="17.6606591">
        <ele>11.6732</ele>
        <time>2013-05-30T16:52:55Z</time>
      </trkpt>
      <trkpt lat="59.8687832" lon="17.6605412">
        <ele>11.1925</ele>
        <time>2013-05-30T16:52:56Z</time>
      </trkpt>
      <trkpt lat="59.8687384" lon="17.6604246">
        <ele>11.1925</ele>
        <time>2013-05-30T16:52:57Z</time>
      </trkpt>
      <trkpt lat="59.8686941" lon="17.6603092">
        <ele>10.7118</ele>
        <time>2013-05-30T16:52:58Z</time>
      </trkpt>
      <trkpt lat="59.8686489" lon="17.6602033">
        <ele>10.7118</ele>
        <time>2013-05-30T16:52:59Z</time>
      </trkpt>
      <trkpt lat="59.868606" lon="17.6600972">
        <ele>10.7118</ele>
        <time>2013-05-30T16:53:00Z</time>
      </trkpt>
      <trkpt lat="59.8685683" lon="17.6599841">
        <ele>10.2312</ele>
        <time>2013-05-30T16:53:01Z</time>
      </trkpt>
      <trkpt lat="59.8685343" lon="17.6598943">
        <ele>9.75061</ele>
        <time>2013-05-30T16:53:02Z</time>
      </trkpt>
      <trkpt lat="59.8685057" lon="17.6598284">
        <ele>8.78918</ele>
        <time>2013-05-30T16:53:03Z</time>
      </trkpt>
      <trkpt lat="59.8684842" lon="17.6597871">
        <ele>8.30859</ele>
        <time>2013-05-30T16:53:04Z</time>
      </trkpt>
      <trkpt lat="59.868468" lon="17.6597598">
        <ele>8.78918</ele>
        <time>2013-05-30T16:53:05Z</time>
      </trkpt>
      <trkpt lat="59.8684538" lon="17.6597438">
        <ele>8.78918</ele>
        <time>2013-05-30T16:53:06Z</time>
      </trkpt>
      <trkpt lat="59.8684417" lon="17.6597247">
        <ele>8.78918</ele>
        <time>2013-05-30T16:53:07Z</time>
      </trkpt>
      <trkpt lat="59.8684279" lon="17.6597013">
        <ele>8.78918</ele>
        <time>2013-05-30T16:53:08Z</time>
      </trkpt>
      <trkpt lat="59.8684113" lon="17.6596686">
        <ele>8.78918</ele>
        <time>2013-05-30T16:53:09Z</time>
      </trkpt>
      <trkpt lat="59.8683871" lon="17.6596295">
        <ele>8.30859</ele>
        <time>2013-05-30T16:53:10Z</time>
      </trkpt>
      <trkpt lat="59.8683594" lon="17.6595785">
        <ele>8.30859</ele>
        <time>2013-05-30T16:53:11Z</time>
      </trkpt>
      <trkpt lat="59.8683363" lon="17.6595232">
        <ele>7.82788</ele>
        <time>2013-05-30T16:53:12Z</time>
      </trkpt>
      <trkpt lat="59.8683087" lon="17.659455">
        <ele>7.34717</ele>
        <time>2013-05-30T16:53:13Z</time>
      </trkpt>
      <trkpt lat="59.8682771" lon="17.6593876">
        <ele>6.86646</ele>
        <time>2013-05-30T16:53:14Z</time>
      </trkpt>
      <trkpt lat="59.8682461" lon="17.6593022">
        <ele>7.34717</ele>
        <time>2013-05-30T16:53:15Z</time>
      </trkpt>
      <trkpt lat="59.8682229" lon="17.6592045">
        <ele>7.34717</ele>
        <time>2013-05-30T16:53:16Z</time>
      </trkpt>
      <trkpt lat="59.8682126" lon="17.6590919">
        <ele>7.34717</ele>
        <time>2013-05-30T16:53:17Z</time>
      </trkpt>
      <trkpt lat="59.8682104" lon="17.6589767">
        <ele>7.82788</ele>
        <time>2013-05-30T16:53:18Z</time>
      </trkpt>
      <trkpt lat="59.8682088" lon="17.6588616">
        <ele>8.30859</ele>
        <time>2013-05-30T16:53:19Z</time>
      </trkpt>
      <trkpt lat="59.8682011" lon="17.658756">
        <ele>8.78918</ele>
        <time>2013-05-30T16:53:20Z</time>
      </trkpt>
      <trkpt lat="59.8681757" lon="17.6586499">
        <ele>8.30859</ele>
        <time>2013-05-30T16:53:21Z</time>
      </trkpt>
      <trkpt lat="59.8681299" lon="17.6585412">
        <ele>8.78918</ele>
        <time>2013-05-30T16:53:22Z</time>
      </trkpt>
      <trkpt lat="59.8680817" lon="17.6584329">
        <ele>9.2699</ele>
        <time>2013-05-30T16:53:23Z</time>
      </trkpt>
      <trkpt lat="59.8680297" lon="17.6583235">
        <ele>9.2699</ele>
        <time>2013-05-30T16:53:24Z</time>
      </trkpt>
      <trkpt lat="59.8679758" lon="17.658212">
        <ele>9.2699</ele>
        <time>2013-05-30T16:53:25Z</time>
      </trkpt>
      <trkpt lat="59.8679223" lon="17.6580989">
        <ele>9.2699</ele>
        <time>2013-05-30T16:53:26Z</time>
      </trkpt>
      <trkpt lat="59.8678696" lon="17.6579812">
        <ele>9.2699</ele>
        <time>2013-05-30T16:53:27Z</time>
      </trkpt>
      <trkpt lat="59.8678146" lon="17.6578634">
        <ele>9.2699</ele>
        <time>2013-05-30T16:53:28Z</time>
      </trkpt>
      <trkpt lat="59.8677566" lon="17.6577496">
        <ele>9.75061</ele>
        <time>2013-05-30T16:53:29Z</time>
      </trkpt>
      <trkpt lat="59.8677002" lon="17.6576315">
        <ele>9.75061</ele>
        <time>2013-05-30T16:53:30Z</time>
      </trkpt>
      <trkpt lat="59.867644" lon="17.6575127">
        <ele>10.2312</ele>
        <time>2013-05-30T16:53:31Z</time>
      </trkpt>
      <trkpt lat="59.8675881" lon="17.6573886">
        <ele>10.2312</ele>
        <time>2013-05-30T16:53:32Z</time>
      </trkpt>
      <trkpt lat="59.8675328" lon="17.6572611">
        <ele>10.2312</ele>
        <time>2013-05-30T16:53:33Z</time>
      </trkpt>
      <trkpt lat="59.8674794" lon="17.6571328">
        <ele>9.75061</ele>
        <time>2013-05-30T16:53:34Z</time>
      </trkpt>
      <trkpt lat="59.8674251" lon="17.6570089">
        <ele>10.2312</ele>
        <time>2013-05-30T16:53:35Z</time>
      </trkpt>
      <trkpt lat="59.8673702" lon="17.6568852">
        <ele>9.75061</ele>
        <time>2013-05-30T16:53:36Z</time>
      </trkpt>
      <trkpt lat="59.8673177" lon="17.6567639">
        <ele>9.75061</ele>
        <time>2013-05-30T16:53:37Z</time>
      </trkpt>
      <trkpt lat="59.8672649" lon="17.6566478">
        <ele>9.75061</ele>
        <time>2013-05-30T16:53:38Z</time>
      </trkpt>
      <trkpt lat="59.8672154" lon="17.6565302">
        <ele>9.75061</ele>
        <time>2013-05-30T16:53:39Z</time>
      </trkpt>
      <trkpt lat="59.8671614" lon="17.6564136">
        <ele>9.2699</ele>
        <time>2013-05-30T16:53:40Z</time>
      </trkpt>
      <trkpt lat="59.8671074" lon="17.6562997">
        <ele>9.2699</ele>
        <time>2013-05-30T16:53:41Z</time>
      </trkpt>
      <trkpt lat="59.8670524" lon="17.6561888">
        <ele>9.75061</ele>
        <time>2013-05-30T16:53:42Z</time>
      </trkpt>
      <trkpt lat="59.8669983" lon="17.6560754">
        <ele>9.2699</ele>
        <time>2013-05-30T16:53:43Z</time>
      </trkpt>
      <trkpt lat="59.8669449" lon="17.6559614">
        <ele>9.2699</ele>
        <time>2013-05-30T16:53:44Z</time>
      </trkpt>
      <trkpt lat="59.8668921" lon="17.655848">
        <ele>9.2699</ele>
        <time>2013-05-30T16:53:45Z</time>
      </trkpt>
      <trkpt lat="59.8668399" lon="17.6557318">
        <ele>9.2699</ele>
        <time>2013-05-30T16:53:46Z</time>
      </trkpt>
      <trkpt lat="59.8667878" lon="17.6556132">
        <ele>9.2699</ele>
        <time>2013-05-30T16:53:47Z</time>
      </trkpt>
      <trkpt lat="59.866734" lon="17.6554935">
        <ele>8.78918</ele>
        <time>2013-05-30T16:53:48Z</time>
      </trkpt>
      <trkpt lat="59.8666781" lon="17.6553781">
        <ele>9.2699</ele>
        <time>2013-05-30T16:53:49Z</time>
      </trkpt>
      <trkpt lat="59.8666222" lon="17.655263">
        <ele>8.78918</ele>
        <time>2013-05-30T16:53:50Z</time>
      </trkpt>
      <trkpt lat="59.8665655" lon="17.6551497">
        <ele>8.78918</ele>
        <time>2013-05-30T16:53:51Z</time>
      </trkpt>
      <trkpt lat="59.8665135" lon="17.6550393">
        <ele>8.78918</ele>
        <time>2013-05-30T16:53:52Z</time>
      </trkpt>
      <trkpt lat="59.8664567" lon="17.65494">
        <ele>8.78918</ele>
        <time>2013-05-30T16:53:53Z</time>
      </trkpt>
      <trkpt lat="59.8664015" lon="17.6548465">
        <ele>8.78918</ele>
        <time>2013-05-30T16:53:54Z</time>
      </trkpt>
      <trkpt lat="59.8663497" lon="17.6547374">
        <ele>8.78918</ele>
        <time>2013-05-30T16:53:55Z</time>
      </trkpt>
      <trkpt lat="59.8662972" lon="17.6546274">
        <ele>8.78918</ele>
        <time>2013-05-30T16:53:56Z</time>
      </trkpt>
      <trkpt lat="59.8662451" lon="17.6545232">
        <ele>8.78918</ele>
        <time>2013-05-30T16:53:57Z</time>
      </trkpt>
      <trkpt lat="59.8661903" lon="17.6544264">
        <ele>8.78918</ele>
        <time>2013-05-30T16:53:58Z</time>
      </trkpt>
      <trkpt lat="59.8661399" lon="17.6543192">
        <ele>8.78918</ele>
        <time>2013-05-30T16:53:59Z</time>
      </trkpt>
      <trkpt lat="59.8660928" lon="17.654211">
        <ele>9.2699</ele>
        <time>2013-05-30T16:54:00Z</time>
      </trkpt>
      <trkpt lat="59.866043" lon="17.6541043">
        <ele>9.2699</ele>
        <time>2013-05-30T16:54:01Z</time>
      </trkpt>
      <trkpt lat="59.8659944" lon="17.6539944">
        <ele>9.2699</ele>
        <time>2013-05-30T16:54:02Z</time>
      </trkpt>
      <trkpt lat="59.8659496" lon="17.6538848">
        <ele>9.2699</ele>
        <time>2013-05-30T16:54:03Z</time>
      </trkpt>
      <trkpt lat="59.8658969" lon="17.6537755">
        <ele>9.2699</ele>
        <time>2013-05-30T16:54:04Z</time>
      </trkpt>
      <trkpt lat="59.8658483" lon="17.6536661">
        <ele>9.75061</ele>
        <time>2013-05-30T16:54:05Z</time>
      </trkpt>
      <trkpt lat="59.865799" lon="17.6535505">
        <ele>9.75061</ele>
        <time>2013-05-30T16:54:06Z</time>
      </trkpt>
      <trkpt lat="59.8657504" lon="17.6534543">
        <ele>10.2312</ele>
        <time>2013-05-30T16:54:07Z</time>
      </trkpt>
      <trkpt lat="59.8657094" lon="17.6533269">
        <ele>10.7118</ele>
        <time>2013-05-30T16:54:08Z</time>
      </trkpt>
      <trkpt lat="59.8656634" lon="17.6532076">
        <ele>11.1925</ele>
        <time>2013-05-30T16:54:09Z</time>
      </trkpt>
      <trkpt lat="59.8656162" lon="17.6530881">
        <ele>11.1925</ele>
        <time>2013-05-30T16:54:10Z</time>
      </trkpt>
      <trkpt lat="59.8655665" lon="17.6529733">
        <ele>10.7118</ele>
        <time>2013-05-30T16:54:11Z</time>
      </trkpt>
      <trkpt lat="59.8655155" lon="17.6528616">
        <ele>10.7118</ele>
        <time>2013-05-30T16:54:12Z</time>
      </trkpt>
      <trkpt lat="59.8654644" lon="17.6527523">
        <ele>11.1925</ele>
        <time>2013-05-30T16:54:13Z</time>
      </trkpt>
      <trkpt lat="59.8654117" lon="17.6526425">
        <ele>11.6732</ele>
        <time>2013-05-30T16:54:14Z</time>
      </trkpt>
      <trkpt lat="59.8653685" lon="17.6525323">
        <ele>11.1925</ele>
        <time>2013-05-30T16:54:15Z</time>
      </trkpt>
      <trkpt lat="59.8653234" lon="17.652422">
        <ele>10.7118</ele>
        <time>2013-05-30T16:54:16Z</time>
      </trkpt>
      <trkpt lat="59.8652744" lon="17.6523121">
        <ele>10.2312</ele>
        <time>2013-05-30T16:54:17Z</time>
      </trkpt>
      <trkpt lat="59.865227" lon="17.6522053">
        <ele>9.75061</ele>
        <time>2013-05-30T16:54:18Z</time>
      </trkpt>
      <trkpt lat="59.8651775" lon="17.6521046">
        <ele>9.75061</ele>
        <time>2013-05-30T16:54:19Z</time>
      </trkpt>
      <trkpt lat="59.8651334" lon="17.6520168">
        <ele>9.75061</ele>
        <time>2013-05-30T16:54:20Z</time>
      </trkpt>
      <trkpt lat="59.8650887" lon="17.6519199">
        <ele>9.2699</ele>
        <time>2013-05-30T16:54:21Z</time>
      </trkpt>
      <trkpt lat="59.865036" lon="17.6518544">
        <ele>9.75061</ele>
        <time>2013-05-30T16:54:22Z</time>
      </trkpt>
      <trkpt lat="59.8649868" lon="17.6517655">
        <ele>10.2312</ele>
        <time>2013-05-30T16:54:23Z</time>
      </trkpt>
      <trkpt lat="59.8649357" lon="17.6516732">
        <ele>9.75061</ele>
        <time>2013-05-30T16:54:24Z</time>
      </trkpt>
      <trkpt lat="59.8648833" lon="17.6515678">
        <ele>9.75061</ele>
        <time>2013-05-30T16:54:25Z</time>
      </trkpt>
      <trkpt lat="59.8648532" lon="17.6514717">
        <ele>9.2699</ele>
        <time>2013-05-30T16:54:26Z</time>
      </trkpt>
      <trkpt lat="59.8648106" lon="17.6513827">
        <ele>9.75061</ele>
        <time>2013-05-30T16:54:27Z</time>
      </trkpt>
      <trkpt lat="59.8647739" lon="17.651289">
        <ele>9.75061</ele>
        <time>2013-05-30T16:54:28Z</time>
      </trkpt>
      <trkpt lat="59.8647511" lon="17.651218">
        <ele>10.2312</ele>
        <time>2013-05-30T16:54:29Z</time>
      </trkpt>
      <trkpt lat="59.8647266" lon="17.651157">
        <ele>9.2699</ele>
        <time>2013-05-30T16:54:30Z</time>
      </trkpt>
      <trkpt lat="59.8647081" lon="17.65112">
        <ele>8.78918</ele>
        <time>2013-05-30T16:54:31Z</time>
      </trkpt>
      <trkpt lat="59.8646984" lon="17.6510987">
        <ele>8.78918</ele>
        <time>2013-05-30T16:54:32Z</time>
      </trkpt>
      <trkpt lat="59.8646914" lon="17.6510803">
        <ele>8.78918</ele>
        <time>2013-05-30T16:54:33Z</time>
      </trkpt>
      <trkpt lat="59.8646769" lon="17.6510616">
        <ele>8.78918</ele>
        <time>2013-05-30T16:54:34Z</time>
      </trkpt>
      <trkpt lat="59.8646575" lon="17.6510668">
        <ele>9.2699</ele>
        <time>2013-05-30T16:54:35Z</time>
      </trkpt>
      <trkpt lat="59.8646285" lon="17.651089">
        <ele>9.2699</ele>
        <time>2013-05-30T16:54:36Z</time>
      </trkpt>
      <trkpt lat="59.8646004" lon="17.6511231">
        <ele>7.34717</ele>
        <time>2013-05-30T16:54:37Z</time>
      </trkpt>
      <trkpt lat="59.8645771" lon="17.6511582">
        <ele>6.86646</ele>
        <time>2013-05-30T16:54:38Z</time>
      </trkpt>
      <trkpt lat="59.8645547" lon="17.6511859">
        <ele>7.34717</ele>
        <time>2013-05-30T16:54:39Z</time>
      </trkpt>
      <trkpt lat="59.8645285" lon="17.6512129">
        <ele>5.90527</ele>
        <time>2013-05-30T16:54:40Z</time>
      </trkpt>
      <trkpt lat="59.8645051" lon="17.6512476">
        <ele>5.90527</ele>
        <time>2013-05-30T16:54:41Z</time>
      </trkpt>
      <trkpt lat="59.8644796" lon="17.6512862">
        <ele>6.38586</ele>
        <time>2013-05-30T16:54:42Z</time>
      </trkpt>
      <trkpt lat="59.8644543" lon="17.6513292">
        <ele>6.86646</ele>
        <time>2013-05-30T16:54:43Z</time>
      </trkpt>
      <trkpt lat="59.8644377" lon="17.6513771">
        <ele>8.78918</ele>
        <time>2013-05-30T16:54:44Z</time>
      </trkpt>
      <trkpt lat="59.8644199" lon="17.6514292">
        <ele>8.78918</ele>
        <time>2013-05-30T16:54:45Z</time>
      </trkpt>
      <trkpt lat="59.8644041" lon="17.6514754">
        <ele>9.75061</ele>
        <time>2013-05-30T16:54:46Z</time>
      </trkpt>
      <trkpt lat="59.8643897" lon="17.6515131">
        <ele>10.7118</ele>
        <time>2013-05-30T16:54:47Z</time>
      </trkpt>
      <trkpt lat="59.864378" lon="17.6515522">
        <ele>10.7118</ele>
        <time>2013-05-30T16:54:48Z</time>
      </trkpt>
      <trkpt lat="59.8643691" lon="17.6515801">
        <ele>12.1538</ele>
        <time>2013-05-30T16:54:49Z</time>
      </trkpt>
      <trkpt lat="59.8643558" lon="17.6516087">
        <ele>13.1151</ele>
        <time>2013-05-30T16:54:50Z</time>
      </trkpt>
      <trkpt lat="59.8643446" lon="17.6516407">
        <ele>15.0377</ele>
        <time>2013-05-30T16:54:51Z</time>
      </trkpt>
      <trkpt lat="59.8643248" lon="17.6516556">
        <ele>15.5184</ele>
        <time>2013-05-30T16:54:52Z</time>
      </trkpt>
      <trkpt lat="59.8643137" lon="17.6516791">
        <ele>15.0377</ele>
        <time>2013-05-30T16:54:53Z</time>
      </trkpt>
      <trkpt lat="59.8643217" lon="17.6517133">
        <ele>16.4797</ele>
        <time>2013-05-30T16:54:54Z</time>
      </trkpt>
      <trkpt lat="59.8643419" lon="17.6517495">
        <ele>18.4023</ele>
        <time>2013-05-30T16:54:55Z</time>
      </trkpt>
      <trkpt lat="59.8643694" lon="17.6517797">
        <ele>18.8831</ele>
        <time>2013-05-30T16:54:56Z</time>
      </trkpt>
      <trkpt lat="59.8643983" lon="17.6518157">
        <ele>19.3638</ele>
        <time>2013-05-30T16:54:57Z</time>
      </trkpt>
      <trkpt lat="59.8644248" lon="17.6518422">
        <ele>18.8831</ele>
        <time>2013-05-30T16:54:58Z</time>
      </trkpt>
      <trkpt lat="59.8644569" lon="17.6518757">
        <ele>19.8444</ele>
        <time>2013-05-30T16:54:59Z</time>
      </trkpt>
      <trkpt lat="59.8644868" lon="17.6519111">
        <ele>20.8057</ele>
        <time>2013-05-30T16:55:00Z</time>
      </trkpt>
      <trkpt lat="59.864514" lon="17.6519368">
        <ele>22.2476</ele>
        <time>2013-05-30T16:55:01Z</time>
      </trkpt>
      <trkpt lat="59.8645377" lon="17.6519428">
        <ele>22.2476</ele>
        <time>2013-05-30T16:55:02Z</time>
      </trkpt>
      <trkpt lat="59.864559" lon="17.6519347">
        <ele>22.7283</ele>
        <time>2013-05-30T16:55:03Z</time>
      </trkpt>
      <trkpt lat="59.8645709" lon="17.6519257">
        <ele>22.2476</ele>
        <time>2013-05-30T16:55:04Z</time>
      </trkpt>
      <trkpt lat="59.8645759" lon="17.6519309">
        <ele>21.767</ele>
        <time>2013-05-30T16:55:05Z</time>
      </trkpt>
      <trkpt lat="59.8645807" lon="17.6519171">
        <ele>20.8057</ele>
        <time>2013-05-30T16:55:06Z</time>
      </trkpt>
      <trkpt lat="59.8645859" lon="17.6518975">
        <ele>20.8057</ele>
        <time>2013-05-30T16:55:07Z</time>
      </trkpt>
      <trkpt lat="59.8645904" lon="17.6518988">
        <ele>20.8057</ele>
        <time>2013-05-30T16:55:08Z</time>
      </trkpt>
      <trkpt lat="59.8645995" lon="17.6518877">
        <ele>21.767</ele>
        <time>2013-05-30T16:55:09Z</time>
      </trkpt>
      <trkpt lat="59.8646066" lon="17.6518841">
        <ele>22.7283</ele>
        <time>2013-05-30T16:55:10Z</time>
      </trkpt>
      <trkpt lat="59.8646129" lon="17.6518867">
        <ele>23.209</ele>
        <time>2013-05-30T16:55:11Z</time>
      </trkpt>
      <trkpt lat="59.8646162" lon="17.6518749">
        <ele>24.651</ele>
        <time>2013-05-30T16:55:12Z</time>
      </trkpt>
      <trkpt lat="59.8646154" lon="17.6518646">
        <ele>26.0929</ele>
        <time>2013-05-30T16:55:13Z</time>
      </trkpt>
      <trkpt lat="59.8646135" lon="17.6518541">
        <ele>27.5349</ele>
        <time>2013-05-30T16:55:14Z</time>
      </trkpt>
      <trkpt lat="59.8646067" lon="17.6518356">
        <ele>28.0155</ele>
        <time>2013-05-30T16:55:15Z</time>
      </trkpt>
      <trkpt lat="59.86461" lon="17.6518027">
        <ele>29.4575</ele>
        <time>2013-05-30T16:55:16Z</time>
      </trkpt>
      <trkpt lat="59.8645942" lon="17.6517521">
        <ele>28.9769</ele>
        <time>2013-05-30T16:55:17Z</time>
      </trkpt>
      <trkpt lat="59.8645789" lon="17.6516811">
        <ele>29.9381</ele>
        <time>2013-05-30T16:55:18Z</time>
      </trkpt>
      <trkpt lat="59.8645513" lon="17.6516195">
        <ele>29.4575</ele>
        <time>2013-05-30T16:55:19Z</time>
      </trkpt>
      <trkpt lat="59.8645145" lon="17.6515752">
        <ele>28.4962</ele>
        <time>2013-05-30T16:55:20Z</time>
      </trkpt>
      <trkpt lat="59.8643932" lon="17.651597">
        <ele>26.0929</ele>
        <time>2013-05-30T16:55:21Z</time>
      </trkpt>
      <trkpt lat="59.8643388" lon="17.6516372">
        <ele>27.0543</ele>
        <time>2013-05-30T16:55:22Z</time>
      </trkpt>
      <trkpt lat="59.8642646" lon="17.6516894">
        <ele>26.0929</ele>
        <time>2013-05-30T16:55:23Z</time>
      </trkpt>
      <trkpt lat="59.8642006" lon="17.6517266">
        <ele>24.1703</ele>
        <time>2013-05-30T16:55:24Z</time>
      </trkpt>
      <trkpt lat="59.8641524" lon="17.651798">
        <ele>21.2864</ele>
        <time>2013-05-30T16:55:25Z</time>
      </trkpt>
      <trkpt lat="59.8641015" lon="17.6518603">
        <ele>19.3638</ele>
        <time>2013-05-30T16:55:26Z</time>
      </trkpt>
      <trkpt lat="59.8640472" lon="17.6519386">
        <ele>17.9218</ele>
        <time>2013-05-30T16:55:27Z</time>
      </trkpt>
      <trkpt lat="59.8639881" lon="17.6520064">
        <ele>16.9604</ele>
        <time>2013-05-30T16:55:28Z</time>
      </trkpt>
      <trkpt lat="59.8639362" lon="17.6520658">
        <ele>16.4797</ele>
        <time>2013-05-30T16:55:29Z</time>
      </trkpt>
      <trkpt lat="59.8638818" lon="17.6521411">
        <ele>16.4797</ele>
        <time>2013-05-30T16:55:30Z</time>
      </trkpt>
      <trkpt lat="59.8638204" lon="17.6521601">
        <ele>15.5184</ele>
        <time>2013-05-30T16:55:31Z</time>
      </trkpt>
      <trkpt lat="59.8637632" lon="17.6522738">
        <ele>14.0764</ele>
        <time>2013-05-30T16:55:32Z</time>
      </trkpt>
      <trkpt lat="59.8637208" lon="17.6523793">
        <ele>13.5958</ele>
        <time>2013-05-30T16:55:33Z</time>
      </trkpt>
      <trkpt lat="59.8636695" lon="17.6524348">
        <ele>12.6344</ele>
        <time>2013-05-30T16:55:34Z</time>
      </trkpt>
      <trkpt lat="59.8636211" lon="17.6525111">
        <ele>11.6732</ele>
        <time>2013-05-30T16:55:35Z</time>
      </trkpt>
      <trkpt lat="59.8635685" lon="17.6525788">
        <ele>10.2312</ele>
        <time>2013-05-30T16:55:36Z</time>
      </trkpt>
      <trkpt lat="59.8635168" lon="17.6526569">
        <ele>8.78918</ele>
        <time>2013-05-30T16:55:37Z</time>
      </trkpt>
      <trkpt lat="59.8634628" lon="17.6527283">
        <ele>7.34717</ele>
        <time>2013-05-30T16:55:38Z</time>
      </trkpt>
      <trkpt lat="59.8634047" lon="17.6527963">
        <ele>6.38586</ele>
        <time>2013-05-30T16:55:39Z</time>
      </trkpt>
      <trkpt lat="59.863353" lon="17.6528693">
        <ele>6.38586</ele>
        <time>2013-05-30T16:55:40Z</time>
      </trkpt>
      <trkpt lat="59.863295" lon="17.6529363">
        <ele>5.42456</ele>
        <time>2013-05-30T16:55:41Z</time>
      </trkpt>
      <trkpt lat="59.8632376" lon="17.6530122">
        <ele>4.46326</ele>
        <time>2013-05-30T16:55:42Z</time>
      </trkpt>
      <trkpt lat="59.8631789" lon="17.6530816">
        <ele>3.02124</ele>
        <time>2013-05-30T16:55:43Z</time>
      </trkpt>
      <trkpt lat="59.8631188" lon="17.6531462">
        <ele>2.54065</ele>
        <time>2013-05-30T16:55:44Z</time>
      </trkpt>
      <trkpt lat="59.8630655" lon="17.6532233">
        <ele>2.06006</ele>
        <time>2013-05-30T16:55:45Z</time>
      </trkpt>
      <trkpt lat="59.8630118" lon="17.653302">
        <ele>2.54065</ele>
        <time>2013-05-30T16:55:46Z</time>
      </trkpt>
      <trkpt lat="59.8629519" lon="17.6533709">
        <ele>1.57935</ele>
        <time>2013-05-30T16:55:47Z</time>
      </trkpt>
      <trkpt lat="59.8629029" lon="17.6534588">
        <ele>0.618042</ele>
        <time>2013-05-30T16:55:48Z</time>
      </trkpt>
      <trkpt lat="59.8628692" lon="17.6535587">
        <ele>1.57935</ele>
        <time>2013-05-30T16:55:49Z</time>
      </trkpt>
      <trkpt lat="59.862835" lon="17.6536045">
        <ele>0.137451</ele>
        <time>2013-05-30T16:55:50Z</time>
      </trkpt>
      <trkpt lat="59.8628073" lon="17.6536433">
        <ele>0</ele>
        <time>2013-05-30T16:55:51Z</time>
      </trkpt>
      <trkpt lat="59.8627811" lon="17.6537064">
        <ele>0</ele>
        <time>2013-05-30T16:55:52Z</time>
      </trkpt>
      <trkpt lat="59.862763" lon="17.6537687">
        <ele>0</ele>
        <time>2013-05-30T16:55:53Z</time>
      </trkpt>
      <trkpt lat="59.8627376" lon="17.6538304">
        <ele>0</ele>
        <time>2013-05-30T16:55:54Z</time>
      </trkpt>
      <trkpt lat="59.8627029" lon="17.6538859">
        <ele>0</ele>
        <time>2013-05-30T16:55:55Z</time>
      </trkpt>
      <trkpt lat="59.8626625" lon="17.6539425">
        <ele>0</ele>
        <time>2013-05-30T16:55:56Z</time>
      </trkpt>
      <trkpt lat="59.8626164" lon="17.6539939">
        <ele>0</ele>
        <time>2013-05-30T16:55:57Z</time>
      </trkpt>
      <trkpt lat="59.8625733" lon="17.6540598">
        <ele>0.137451</ele>
        <time>2013-05-30T16:55:58Z</time>
      </trkpt>
      <trkpt lat="59.8625289" lon="17.6541218">
        <ele>0.618042</ele>
        <time>2013-05-30T16:55:59Z</time>
      </trkpt>
      <trkpt lat="59.8624852" lon="17.6541804">
        <ele>0.137451</ele>
        <time>2013-05-30T16:56:00Z</time>
      </trkpt>
      <trkpt lat="59.8624412" lon="17.6542437">
        <ele>0</ele>
        <time>2013-05-30T16:56:01Z</time>
      </trkpt>
      <trkpt lat="59.8623963" lon="17.6543095">
        <ele>0.137451</ele>
        <time>2013-05-30T16:56:02Z</time>
      </trkpt>
      <trkpt lat="59.8623512" lon="17.6543797">
        <ele>0.137451</ele>
        <time>2013-05-30T16:56:03Z</time>
      </trkpt>
      <trkpt lat="59.8623083" lon="17.654441">
        <ele>0</ele>
        <time>2013-05-30T16:56:04Z</time>
      </trkpt>
      <trkpt lat="59.8622634" lon="17.6544944">
        <ele>0</ele>
        <time>2013-05-30T16:56:05Z</time>
      </trkpt>
      <trkpt lat="59.8622236" lon="17.6545939">
        <ele>0</ele>
        <time>2013-05-30T16:56:06Z</time>
      </trkpt>
      <trkpt lat="59.8621871" lon="17.6546904">
        <ele>0</ele>
        <time>2013-05-30T16:56:07Z</time>
      </trkpt>
      <trkpt lat="59.8621146" lon="17.6547002">
        <ele>0</ele>
        <time>2013-05-30T16:56:08Z</time>
      </trkpt>
      <trkpt lat="59.8620595" lon="17.6547529">
        <ele>0</ele>
        <time>2013-05-30T16:56:09Z</time>
      </trkpt>
      <trkpt lat="59.8619969" lon="17.6547958">
        <ele>0</ele>
        <time>2013-05-30T16:56:10Z</time>
      </trkpt>
      <trkpt lat="59.8619373" lon="17.6548786">
        <ele>0</ele>
        <time>2013-05-30T16:56:11Z</time>
      </trkpt>
      <trkpt lat="59.8618829" lon="17.6549332">
        <ele>0</ele>
        <time>2013-05-30T16:56:12Z</time>
      </trkpt>
      <trkpt lat="59.8618214" lon="17.6549789">
        <ele>0</ele>
        <time>2013-05-30T16:56:13Z</time>
      </trkpt>
      <trkpt lat="59.8617622" lon="17.6550397">
        <ele>0.137451</ele>
        <time>2013-05-30T16:56:14Z</time>
      </trkpt>
      <trkpt lat="59.8617062" lon="17.6551377">
        <ele>1.09863</ele>
        <time>2013-05-30T16:56:15Z</time>
      </trkpt>
      <trkpt lat="59.8616615" lon="17.6552497">
        <ele>2.54065</ele>
        <time>2013-05-30T16:56:16Z</time>
      </trkpt>
      <trkpt lat="59.861609" lon="17.6553575">
        <ele>3.50195</ele>
        <time>2013-05-30T16:56:17Z</time>
      </trkpt>
      <trkpt lat="59.8615555" lon="17.6554652">
        <ele>5.42456</ele>
        <time>2013-05-30T16:56:18Z</time>
      </trkpt>
      <trkpt lat="59.8615025" lon="17.6555378">
        <ele>5.42456</ele>
        <time>2013-05-30T16:56:19Z</time>
      </trkpt>
      <trkpt lat="59.8614504" lon="17.6556052">
        <ele>5.90527</ele>
        <time>2013-05-30T16:56:20Z</time>
      </trkpt>
      <trkpt lat="59.8613911" lon="17.6556827">
        <ele>5.90527</ele>
        <time>2013-05-30T16:56:21Z</time>
      </trkpt>
      <trkpt lat="59.8613427" lon="17.6557411">
        <ele>5.42456</ele>
        <time>2013-05-30T16:56:22Z</time>
      </trkpt>
      <trkpt lat="59.8612949" lon="17.6558086">
        <ele>4.94385</ele>
        <time>2013-05-30T16:56:23Z</time>
      </trkpt>
      <trkpt lat="59.8612535" lon="17.6558573">
        <ele>4.46326</ele>
        <time>2013-05-30T16:56:24Z</time>
      </trkpt>
      <trkpt lat="59.861209" lon="17.6559314">
        <ele>4.46326</ele>
        <time>2013-05-30T16:56:25Z</time>
      </trkpt>
      <trkpt lat="59.8611622" lon="17.6560063">
        <ele>5.42456</ele>
        <time>2013-05-30T16:56:26Z</time>
      </trkpt>
      <trkpt lat="59.8611249" lon="17.6560835">
        <ele>5.42456</ele>
        <time>2013-05-30T16:56:27Z</time>
      </trkpt>
      <trkpt lat="59.8610874" lon="17.6561477">
        <ele>5.42456</ele>
        <time>2013-05-30T16:56:28Z</time>
      </trkpt>
      <trkpt lat="59.8610501" lon="17.6562119">
        <ele>5.90527</ele>
        <time>2013-05-30T16:56:29Z</time>
      </trkpt>
      <trkpt lat="59.8610097" lon="17.6562707">
        <ele>6.86646</ele>
        <time>2013-05-30T16:56:30Z</time>
      </trkpt>
      <trkpt lat="59.8609706" lon="17.6563409">
        <ele>6.86646</ele>
        <time>2013-05-30T16:56:31Z</time>
      </trkpt>
      <trkpt lat="59.8609259" lon="17.6564073">
        <ele>7.34717</ele>
        <time>2013-05-30T16:56:32Z</time>
      </trkpt>
      <trkpt lat="59.860879" lon="17.6564644">
        <ele>7.34717</ele>
        <time>2013-05-30T16:56:33Z</time>
      </trkpt>
      <trkpt lat="59.8608363" lon="17.6565322">
        <ele>7.82788</ele>
        <time>2013-05-30T16:56:34Z</time>
      </trkpt>
      <trkpt lat="59.8607889" lon="17.6565986">
        <ele>7.34717</ele>
        <time>2013-05-30T16:56:35Z</time>
      </trkpt>
      <trkpt lat="59.8607412" lon="17.6566727">
        <ele>7.34717</ele>
        <time>2013-05-30T16:56:36Z</time>
      </trkpt>
      <trkpt lat="59.860693" lon="17.656745">
        <ele>7.82788</ele>
        <time>2013-05-30T16:56:37Z</time>
      </trkpt>
      <trkpt lat="59.8606433" lon="17.6568218">
        <ele>7.82788</ele>
        <time>2013-05-30T16:56:38Z</time>
      </trkpt>
      <trkpt lat="59.8605931" lon="17.6569082">
        <ele>7.34717</ele>
        <time>2013-05-30T16:56:39Z</time>
      </trkpt>
      <trkpt lat="59.8605437" lon="17.6569757">
        <ele>6.86646</ele>
        <time>2013-05-30T16:56:40Z</time>
      </trkpt>
      <trkpt lat="59.860497" lon="17.6570503">
        <ele>6.38586</ele>
        <time>2013-05-30T16:56:41Z</time>
      </trkpt>
      <trkpt lat="59.8604434" lon="17.6571196">
        <ele>5.90527</ele>
        <time>2013-05-30T16:56:42Z</time>
      </trkpt>
      <trkpt lat="59.8603924" lon="17.6571874">
        <ele>5.42456</ele>
        <time>2013-05-30T16:56:43Z</time>
      </trkpt>
      <trkpt lat="59.8603448" lon="17.6572606">
        <ele>4.46326</ele>
        <time>2013-05-30T16:56:44Z</time>
      </trkpt>
      <trkpt lat="59.8602988" lon="17.6573206">
        <ele>4.94385</ele>
        <time>2013-05-30T16:56:45Z</time>
      </trkpt>
      <trkpt lat="59.8602559" lon="17.6573721">
        <ele>4.94385</ele>
        <time>2013-05-30T16:56:46Z</time>
      </trkpt>
      <trkpt lat="59.8602223" lon="17.6574476">
        <ele>3.98267</ele>
        <time>2013-05-30T16:56:47Z</time>
      </trkpt>
      <trkpt lat="59.8601978" lon="17.657547">
        <ele>3.50195</ele>
        <time>2013-05-30T16:56:48Z</time>
      </trkpt>
      <trkpt lat="59.8601766" lon="17.657651">
        <ele>2.54065</ele>
        <time>2013-05-30T16:56:49Z</time>
      </trkpt>
      <trkpt lat="59.8601522" lon="17.6577444">
        <ele>1.57935</ele>
        <time>2013-05-30T16:56:50Z</time>
      </trkpt>
      <trkpt lat="59.8601227" lon="17.6578174">
        <ele>1.09863</ele>
        <time>2013-05-30T16:56:51Z</time>
      </trkpt>
      <trkpt lat="59.860089" lon="17.6578713">
        <ele>1.09863</ele>
        <time>2013-05-30T16:56:52Z</time>
      </trkpt>
      <trkpt lat="59.8600518" lon="17.657877">
        <ele>2.06006</ele>
        <time>2013-05-30T16:56:53Z</time>
      </trkpt>
      <trkpt lat="59.8600184" lon="17.6578429">
        <ele>2.54065</ele>
        <time>2013-05-30T16:56:54Z</time>
      </trkpt>
      <trkpt lat="59.8599792" lon="17.6577924">
        <ele>2.54065</ele>
        <time>2013-05-30T16:56:55Z</time>
      </trkpt>
      <trkpt lat="59.859941" lon="17.6577392">
        <ele>4.46326</ele>
        <time>2013-05-30T16:56:56Z</time>
      </trkpt>
      <trkpt lat="59.8599035" lon="17.6576905">
        <ele>4.94385</ele>
        <time>2013-05-30T16:56:57Z</time>
      </trkpt>
      <trkpt lat="59.859858" lon="17.6576332">
        <ele>3.50195</ele>
        <time>2013-05-30T16:56:58Z</time>
      </trkpt>
      <trkpt lat="59.8598047" lon="17.6575862">
        <ele>3.02124</ele>
        <time>2013-05-30T16:56:59Z</time>
      </trkpt>
      <trkpt lat="59.8597472" lon="17.6575398">
        <ele>2.06006</ele>
        <time>2013-05-30T16:57:00Z</time>
      </trkpt>
      <trkpt lat="59.8596865" lon="17.6575033">
        <ele>2.54065</ele>
        <time>2013-05-30T16:57:01Z</time>
      </trkpt>
      <trkpt lat="59.8596311" lon="17.6574466">
        <ele>3.50195</ele>
        <time>2013-05-30T16:57:02Z</time>
      </trkpt>
      <trkpt lat="59.8595772" lon="17.6573594">
        <ele>3.98267</ele>
        <time>2013-05-30T16:57:03Z</time>
      </trkpt>
      <trkpt lat="59.8595343" lon="17.6572854">
        <ele>4.94385</ele>
        <time>2013-05-30T16:57:04Z</time>
      </trkpt>
      <trkpt lat="59.8594969" lon="17.6572161">
        <ele>4.94385</ele>
        <time>2013-05-30T16:57:05Z</time>
      </trkpt>
      <trkpt lat="59.8594503" lon="17.6571507">
        <ele>4.46326</ele>
        <time>2013-05-30T16:57:06Z</time>
      </trkpt>
      <trkpt lat="59.8593979" lon="17.6571192">
        <ele>5.90527</ele>
        <time>2013-05-30T16:57:07Z</time>
      </trkpt>
      <trkpt lat="59.8593504" lon="17.6570768">
        <ele>6.38586</ele>
        <time>2013-05-30T16:57:08Z</time>
      </trkpt>
      <trkpt lat="59.8593074" lon="17.6570159">
        <ele>7.34717</ele>
        <time>2013-05-30T16:57:09Z</time>
      </trkpt>
      <trkpt lat="59.8592717" lon="17.6569316">
        <ele>7.34717</ele>
        <time>2013-05-30T16:57:10Z</time>
      </trkpt>
      <trkpt lat="59.8592269" lon="17.6568509">
        <ele>7.82788</ele>
        <time>2013-05-30T16:57:11Z</time>
      </trkpt>
      <trkpt lat="59.8591789" lon="17.6567727">
        <ele>8.30859</ele>
        <time>2013-05-30T16:57:12Z</time>
      </trkpt>
      <trkpt lat="59.8591354" lon="17.6567244">
        <ele>8.78918</ele>
        <time>2013-05-30T16:57:13Z</time>
      </trkpt>
      <trkpt lat="59.8590922" lon="17.6566742">
        <ele>8.78918</ele>
        <time>2013-05-30T16:57:14Z</time>
      </trkpt>
      <trkpt lat="59.8590497" lon="17.6566188">
        <ele>8.78918</ele>
        <time>2013-05-30T16:57:15Z</time>
      </trkpt>
      <trkpt lat="59.8590105" lon="17.6565552">
        <ele>8.78918</ele>
        <time>2013-05-30T16:57:16Z</time>
      </trkpt>
      <trkpt lat="59.8589782" lon="17.6564906">
        <ele>8.78918</ele>
        <time>2013-05-30T16:57:17Z</time>
      </trkpt>
      <trkpt lat="59.8589525" lon="17.6564611">
        <ele>7.82788</ele>
        <time>2013-05-30T16:57:18Z</time>
      </trkpt>
      <trkpt lat="59.8589055" lon="17.6564591">
        <ele>8.30859</ele>
        <time>2013-05-30T16:57:19Z</time>
      </trkpt>
      <trkpt lat="59.8588677" lon="17.6564581">
        <ele>8.30859</ele>
        <time>2013-05-30T16:57:20Z</time>
      </trkpt>
      <trkpt lat="59.8588334" lon="17.6564592">
        <ele>8.30859</ele>
        <time>2013-05-30T16:57:21Z</time>
      </trkpt>
      <trkpt lat="59.8588062" lon="17.6564706">
        <ele>8.30859</ele>
        <time>2013-05-30T16:57:22Z</time>
      </trkpt>
      <trkpt lat="59.8587822" lon="17.6564596">
        <ele>6.38586</ele>
        <time>2013-05-30T16:57:23Z</time>
      </trkpt>
      <trkpt lat="59.8587487" lon="17.6564274">
        <ele>6.86646</ele>
        <time>2013-05-30T16:57:24Z</time>
      </trkpt>
      <trkpt lat="59.8587197" lon="17.6563852">
        <ele>5.42456</ele>
        <time>2013-05-30T16:57:25Z</time>
      </trkpt>
      <trkpt lat="59.8586837" lon="17.6563442">
        <ele>4.94385</ele>
        <time>2013-05-30T16:57:26Z</time>
      </trkpt>
      <trkpt lat="59.858653" lon="17.6563044">
        <ele>4.94385</ele>
        <time>2013-05-30T16:57:27Z</time>
      </trkpt>
      <trkpt lat="59.8586255" lon="17.6562686">
        <ele>4.46326</ele>
        <time>2013-05-30T16:57:28Z</time>
      </trkpt>
      <trkpt lat="59.8586153" lon="17.6562496">
        <ele>5.42456</ele>
        <time>2013-05-30T16:57:29Z</time>
      </trkpt>
      <trkpt lat="59.8586009" lon="17.6562354">
        <ele>6.38586</ele>
        <time>2013-05-30T16:57:30Z</time>
      </trkpt>
      <trkpt lat="59.8585987" lon="17.6562278">
        <ele>7.34717</ele>
        <time>2013-05-30T16:57:31Z</time>
      </trkpt>
      <trkpt lat="59.8586059" lon="17.656211">
        <ele>6.86646</ele>
        <time>2013-05-30T16:57:32Z</time>
      </trkpt>
      <trkpt lat="59.8586101" lon="17.6562117">
        <ele>5.42456</ele>
        <time>2013-05-30T16:57:33Z</time>
      </trkpt>
      <trkpt lat="59.8586146" lon="17.656223">
        <ele>5.90527</ele>
        <time>2013-05-30T16:57:34Z</time>
      </trkpt>
      <trkpt lat="59.858619" lon="17.6562147">
        <ele>5.90527</ele>
        <time>2013-05-30T16:57:35Z</time>
      </trkpt>
      <trkpt lat="59.8586167" lon="17.6562039">
        <ele>5.42456</ele>
        <time>2013-05-30T16:57:36Z</time>
      </trkpt>
      <trkpt lat="59.8586194" lon="17.6561951">
        <ele>4.94385</ele>
        <time>2013-05-30T16:57:37Z</time>
      </trkpt>
      <trkpt lat="59.8586277" lon="17.6561938">
        <ele>4.94385</ele>
        <time>2013-05-30T16:57:38Z</time>
      </trkpt>
      <trkpt lat="59.858635" lon="17.6562032">
        <ele>5.42456</ele>
        <time>2013-05-30T16:57:39Z</time>
      </trkpt>
      <trkpt lat="59.8586469" lon="17.6562008">
        <ele>5.42456</ele>
        <time>2013-05-30T16:57:40Z</time>
      </trkpt>
      <trkpt lat="59.8586583" lon="17.6561985">
        <ele>5.42456</ele>
        <time>2013-05-30T16:57:41Z</time>
      </trkpt>
      <trkpt lat="59.8586147" lon="17.6560628">
        <ele>26.0929</ele>
        <time>2013-05-30T16:59:27Z</time>
      </trkpt>
      <trkpt lat="59.8586142" lon="17.6560681">
        <ele>30.4188</ele>
        <time>2013-05-30T16:59:28Z</time>
      </trkpt>
      <trkpt lat="59.8585817" lon="17.6560135">
        <ele>27.5349</ele>
        <time>2013-05-30T16:59:29Z</time>
      </trkpt>
      <trkpt lat="59.8585845" lon="17.6560044">
        <ele>26.5736</ele>
        <time>2013-05-30T16:59:30Z</time>
      </trkpt>
      <trkpt lat="59.8585993" lon="17.6560047">
        <ele>28.9769</ele>
        <time>2013-05-30T16:59:31Z</time>
      </trkpt>
      <trkpt lat="59.8585935" lon="17.6560047">
        <ele>30.4188</ele>
        <time>2013-05-30T16:59:32Z</time>
      </trkpt>
      <trkpt lat="59.8586113" lon="17.6560014">
        <ele>31.8607</ele>
        <time>2013-05-30T16:59:33Z</time>
      </trkpt>
      <trkpt lat="59.8585961" lon="17.6560012">
        <ele>32.8223</ele>
        <time>2013-05-30T16:59:34Z</time>
      </trkpt>
      <trkpt lat="59.8585811" lon="17.6559929">
        <ele>32.8223</ele>
        <time>2013-05-30T16:59:35Z</time>
      </trkpt>
      <trkpt lat="59.8585511" lon="17.6559791">
        <ele>32.8223</ele>
        <time>2013-05-30T16:59:36Z</time>
      </trkpt>
      <trkpt lat="59.8585222" lon="17.6559411">
        <ele>32.8223</ele>
        <time>2013-05-30T16:59:37Z</time>
      </trkpt>
      <trkpt lat="59.8584868" lon="17.6558925">
        <ele>31.8607</ele>
        <time>2013-05-30T16:59:38Z</time>
      </trkpt>
      <trkpt lat="59.858448" lon="17.6558439">
        <ele>31.3801</ele>
        <time>2013-05-30T16:59:39Z</time>
      </trkpt>
      <trkpt lat="59.8584107" lon="17.6558053">
        <ele>30.8995</ele>
        <time>2013-05-30T16:59:40Z</time>
      </trkpt>
      <trkpt lat="59.8583659" lon="17.6557834">
        <ele>29.9381</ele>
        <time>2013-05-30T16:59:41Z</time>
      </trkpt>
      <trkpt lat="59.858329" lon="17.655793">
        <ele>28.0155</ele>
        <time>2013-05-30T16:59:42Z</time>
      </trkpt>
      <trkpt lat="59.8582921" lon="17.6557914">
        <ele>26.5736</ele>
        <time>2013-05-30T16:59:43Z</time>
      </trkpt>
      <trkpt lat="59.8582541" lon="17.655787">
        <ele>25.1317</ele>
        <time>2013-05-30T16:59:44Z</time>
      </trkpt>
      <trkpt lat="59.8582219" lon="17.6558003">
        <ele>21.767</ele>
        <time>2013-05-30T16:59:45Z</time>
      </trkpt>
      <trkpt lat="59.8582029" lon="17.6558131">
        <ele>17.9218</ele>
        <time>2013-05-30T16:59:46Z</time>
      </trkpt>
      <trkpt lat="59.858178" lon="17.6558137">
        <ele>15.999</ele>
        <time>2013-05-30T16:59:47Z</time>
      </trkpt>
      <trkpt lat="59.8581562" lon="17.6558271">
        <ele>14.0764</ele>
        <time>2013-05-30T16:59:48Z</time>
      </trkpt>
      <trkpt lat="59.8581417" lon="17.6558754">
        <ele>11.6732</ele>
        <time>2013-05-30T16:59:49Z</time>
      </trkpt>
      <trkpt lat="59.8581361" lon="17.6559334">
        <ele>9.2699</ele>
        <time>2013-05-30T16:59:50Z</time>
      </trkpt>
      <trkpt lat="59.8581294" lon="17.6559992">
        <ele>6.86646</ele>
        <time>2013-05-30T16:59:51Z</time>
      </trkpt>
      <trkpt lat="59.8581171" lon="17.656094">
        <ele>3.98267</ele>
        <time>2013-05-30T16:59:52Z</time>
      </trkpt>
      <trkpt lat="59.8581017" lon="17.6562013">
        <ele>1.57935</ele>
        <time>2013-05-30T16:59:53Z</time>
      </trkpt>
      <trkpt lat="59.8580745" lon="17.6563909">
        <ele>0</ele>
        <time>2013-05-30T16:59:54Z</time>
      </trkpt>
      <trkpt lat="59.8580599" lon="17.6566158">
        <ele>0</ele>
        <time>2013-05-30T16:59:55Z</time>
      </trkpt>
      <trkpt lat="59.8580352" lon="17.6567419">
        <ele>0</ele>
        <time>2013-05-30T16:59:56Z</time>
      </trkpt>
      <trkpt lat="59.8580187" lon="17.6568446">
        <ele>0</ele>
        <time>2013-05-30T16:59:57Z</time>
      </trkpt>
      <trkpt lat="59.8579947" lon="17.656975">
        <ele>0</ele>
        <time>2013-05-30T16:59:58Z</time>
      </trkpt>
      <trkpt lat="59.8579554" lon="17.6571591">
        <ele>0</ele>
        <time>2013-05-30T16:59:59Z</time>
      </trkpt>
      <trkpt lat="59.8579129" lon="17.6572781">
        <ele>0</ele>
        <time>2013-05-30T17:00:00Z</time>
      </trkpt>
      <trkpt lat="59.857843" lon="17.6574435">
        <ele>0</ele>
        <time>2013-05-30T17:00:01Z</time>
      </trkpt>
      <trkpt lat="59.8578113" lon="17.6575341">
        <ele>0</ele>
        <time>2013-05-30T17:00:02Z</time>
      </trkpt>
      <trkpt lat="59.8578078" lon="17.6576625">
        <ele>0</ele>
        <time>2013-05-30T17:00:03Z</time>
      </trkpt>
      <trkpt lat="59.8577694" lon="17.6578028">
        <ele>1.09863</ele>
        <time>2013-05-30T17:00:04Z</time>
      </trkpt>
      <trkpt lat="59.857757" lon="17.6579444">
        <ele>1.57935</ele>
        <time>2013-05-30T17:00:05Z</time>
      </trkpt>
      <trkpt lat="59.8577456" lon="17.6580501">
        <ele>3.02124</ele>
        <time>2013-05-30T17:00:06Z</time>
      </trkpt>
      <trkpt lat="59.8577305" lon="17.6581816">
        <ele>4.46326</ele>
        <time>2013-05-30T17:00:07Z</time>
      </trkpt>
      <trkpt lat="59.857716" lon="17.6583135">
        <ele>6.38586</ele>
        <time>2013-05-30T17:00:08Z</time>
      </trkpt>
      <trkpt lat="59.8576677" lon="17.6584924">
        <ele>8.78918</ele>
        <time>2013-05-30T17:00:09Z</time>
      </trkpt>
      <trkpt lat="59.8576574" lon="17.6585892">
        <ele>10.2312</ele>
        <time>2013-05-30T17:00:10Z</time>
      </trkpt>
      <trkpt lat="59.8576409" lon="17.6586613">
        <ele>9.75061</ele>
        <time>2013-05-30T17:00:11Z</time>
      </trkpt>
      <trkpt lat="59.8576181" lon="17.6587851">
        <ele>10.7118</ele>
        <time>2013-05-30T17:00:12Z</time>
      </trkpt>
      <trkpt lat="59.8575917" lon="17.6589196">
        <ele>12.6344</ele>
        <time>2013-05-30T17:00:13Z</time>
      </trkpt>
      <trkpt lat="59.8575644" lon="17.6590415">
        <ele>13.1151</ele>
        <time>2013-05-30T17:00:14Z</time>
      </trkpt>
      <trkpt lat="59.8575429" lon="17.6591695">
        <ele>12.6344</ele>
        <time>2013-05-30T17:00:15Z</time>
      </trkpt>
      <trkpt lat="59.8575784" lon="17.6593072">
        <ele>12.6344</ele>
        <time>2013-05-30T17:00:16Z</time>
      </trkpt>
      <trkpt lat="59.8575502" lon="17.659436">
        <ele>12.1538</ele>
        <time>2013-05-30T17:00:17Z</time>
      </trkpt>
      <trkpt lat="59.8575275" lon="17.6595531">
        <ele>11.6732</ele>
        <time>2013-05-30T17:00:18Z</time>
      </trkpt>
      <trkpt lat="59.8575051" lon="17.659671">
        <ele>11.1925</ele>
        <time>2013-05-30T17:00:19Z</time>
      </trkpt>
      <trkpt lat="59.857481" lon="17.6597893">
        <ele>11.1925</ele>
        <time>2013-05-30T17:00:20Z</time>
      </trkpt>
      <trkpt lat="59.8574626" lon="17.6598973">
        <ele>10.7118</ele>
        <time>2013-05-30T17:00:21Z</time>
      </trkpt>
      <trkpt lat="59.8574477" lon="17.6599763">
        <ele>10.2312</ele>
        <time>2013-05-30T17:00:22Z</time>
      </trkpt>
      <trkpt lat="59.8574344" lon="17.6600485">
        <ele>10.2312</ele>
        <time>2013-05-30T17:00:23Z</time>
      </trkpt>
      <trkpt lat="59.8574208" lon="17.6601293">
        <ele>10.2312</ele>
        <time>2013-05-30T17:00:24Z</time>
      </trkpt>
      <trkpt lat="59.8574051" lon="17.6602165">
        <ele>9.75061</ele>
        <time>2013-05-30T17:00:25Z</time>
      </trkpt>
      <trkpt lat="59.8573897" lon="17.660312">
        <ele>9.2699</ele>
        <time>2013-05-30T17:00:26Z</time>
      </trkpt>
      <trkpt lat="59.8573751" lon="17.6604148">
        <ele>8.78918</ele>
        <time>2013-05-30T17:00:27Z</time>
      </trkpt>
      <trkpt lat="59.8573617" lon="17.660524">
        <ele>8.30859</ele>
        <time>2013-05-30T17:00:28Z</time>
      </trkpt>
      <trkpt lat="59.8573499" lon="17.6606399">
        <ele>7.82788</ele>
        <time>2013-05-30T17:00:29Z</time>
      </trkpt>
      <trkpt lat="59.8573384" lon="17.6607598">
        <ele>7.82788</ele>
        <time>2013-05-30T17:00:30Z</time>
      </trkpt>
      <trkpt lat="59.8573296" lon="17.6608851">
        <ele>7.34717</ele>
        <time>2013-05-30T17:00:31Z</time>
      </trkpt>
      <trkpt lat="59.8573225" lon="17.6610118">
        <ele>6.86646</ele>
        <time>2013-05-30T17:00:32Z</time>
      </trkpt>
      <trkpt lat="59.8573194" lon="17.6611408">
        <ele>6.38586</ele>
        <time>2013-05-30T17:00:33Z</time>
      </trkpt>
      <trkpt lat="59.8573199" lon="17.6612727">
        <ele>6.38586</ele>
        <time>2013-05-30T17:00:34Z</time>
      </trkpt>
      <trkpt lat="59.8573213" lon="17.661405">
        <ele>6.38586</ele>
        <time>2013-05-30T17:00:35Z</time>
      </trkpt>
      <trkpt lat="59.8573243" lon="17.6615372">
        <ele>5.90527</ele>
        <time>2013-05-30T17:00:36Z</time>
      </trkpt>
      <trkpt lat="59.8573287" lon="17.6616692">
        <ele>5.90527</ele>
        <time>2013-05-30T17:00:37Z</time>
      </trkpt>
      <trkpt lat="59.857332" lon="17.6617984">
        <ele>5.90527</ele>
        <time>2013-05-30T17:00:38Z</time>
      </trkpt>
      <trkpt lat="59.857337" lon="17.6619301">
        <ele>5.90527</ele>
        <time>2013-05-30T17:00:39Z</time>
      </trkpt>
      <trkpt lat="59.8573406" lon="17.6620618">
        <ele>5.90527</ele>
        <time>2013-05-30T17:00:40Z</time>
      </trkpt>
      <trkpt lat="59.8573441" lon="17.6621941">
        <ele>5.42456</ele>
        <time>2013-05-30T17:00:41Z</time>
      </trkpt>
      <trkpt lat="59.8573514" lon="17.6623297">
        <ele>5.90527</ele>
        <time>2013-05-30T17:00:42Z</time>
      </trkpt>
      <trkpt lat="59.8573574" lon="17.662465">
        <ele>5.90527</ele>
        <time>2013-05-30T17:00:43Z</time>
      </trkpt>
      <trkpt lat="59.8573638" lon="17.6626011">
        <ele>6.38586</ele>
        <time>2013-05-30T17:00:44Z</time>
      </trkpt>
      <trkpt lat="59.8573705" lon="17.6627411">
        <ele>5.90527</ele>
        <time>2013-05-30T17:00:45Z</time>
      </trkpt>
      <trkpt lat="59.8573765" lon="17.6628806">
        <ele>5.42456</ele>
        <time>2013-05-30T17:00:46Z</time>
      </trkpt>
      <trkpt lat="59.8573831" lon="17.6630199">
        <ele>4.94385</ele>
        <time>2013-05-30T17:00:47Z</time>
      </trkpt>
      <trkpt lat="59.8573901" lon="17.6631587">
        <ele>5.42456</ele>
        <time>2013-05-30T17:00:48Z</time>
      </trkpt>
      <trkpt lat="59.8573979" lon="17.6633027">
        <ele>5.42456</ele>
        <time>2013-05-30T17:00:49Z</time>
      </trkpt>
      <trkpt lat="59.8574048" lon="17.6634468">
        <ele>4.94385</ele>
        <time>2013-05-30T17:00:50Z</time>
      </trkpt>
      <trkpt lat="59.8574161" lon="17.6635938">
        <ele>5.42456</ele>
        <time>2013-05-30T17:00:51Z</time>
      </trkpt>
      <trkpt lat="59.8574265" lon="17.6637438">
        <ele>5.42456</ele>
        <time>2013-05-30T17:00:52Z</time>
      </trkpt>
      <trkpt lat="59.8574364" lon="17.6638911">
        <ele>5.90527</ele>
        <time>2013-05-30T17:00:53Z</time>
      </trkpt>
      <trkpt lat="59.8574429" lon="17.6640311">
        <ele>5.90527</ele>
        <time>2013-05-30T17:00:54Z</time>
      </trkpt>
      <trkpt lat="59.8574512" lon="17.6641719">
        <ele>6.38586</ele>
        <time>2013-05-30T17:00:55Z</time>
      </trkpt>
      <trkpt lat="59.8574587" lon="17.6643101">
        <ele>6.38586</ele>
        <time>2013-05-30T17:00:56Z</time>
      </trkpt>
      <trkpt lat="59.8574668" lon="17.6644433">
        <ele>6.38586</ele>
        <time>2013-05-30T17:00:57Z</time>
      </trkpt>
      <trkpt lat="59.8574752" lon="17.6645712">
        <ele>6.38586</ele>
        <time>2013-05-30T17:00:58Z</time>
      </trkpt>
      <trkpt lat="59.8574803" lon="17.6646951">
        <ele>6.86646</ele>
        <time>2013-05-30T17:00:59Z</time>
      </trkpt>
      <trkpt lat="59.8574718" lon="17.6648109">
        <ele>6.38586</ele>
        <time>2013-05-30T17:01:00Z</time>
      </trkpt>
      <trkpt lat="59.8574436" lon="17.664907">
        <ele>7.34717</ele>
        <time>2013-05-30T17:01:01Z</time>
      </trkpt>
      <trkpt lat="59.8574027" lon="17.6649756">
        <ele>7.34717</ele>
        <time>2013-05-30T17:01:02Z</time>
      </trkpt>
      <trkpt lat="59.8573534" lon="17.6649922">
        <ele>7.34717</ele>
        <time>2013-05-30T17:01:03Z</time>
      </trkpt>
      <trkpt lat="59.8572965" lon="17.6650023">
        <ele>6.86646</ele>
        <time>2013-05-30T17:01:04Z</time>
      </trkpt>
      <trkpt lat="59.8572363" lon="17.6649974">
        <ele>6.38586</ele>
        <time>2013-05-30T17:01:05Z</time>
      </trkpt>
      <trkpt lat="59.8571714" lon="17.6649969">
        <ele>5.90527</ele>
        <time>2013-05-30T17:01:06Z</time>
      </trkpt>
      <trkpt lat="59.8571023" lon="17.6649995">
        <ele>5.90527</ele>
        <time>2013-05-30T17:01:07Z</time>
      </trkpt>
      <trkpt lat="59.8570305" lon="17.6650024">
        <ele>5.90527</ele>
        <time>2013-05-30T17:01:08Z</time>
      </trkpt>
      <trkpt lat="59.8569567" lon="17.6650055">
        <ele>5.42456</ele>
        <time>2013-05-30T17:01:09Z</time>
      </trkpt>
      <trkpt lat="59.8568813" lon="17.66501">
        <ele>5.42456</ele>
        <time>2013-05-30T17:01:10Z</time>
      </trkpt>
      <trkpt lat="59.8568023" lon="17.6650181">
        <ele>5.42456</ele>
        <time>2013-05-30T17:01:11Z</time>
      </trkpt>
      <trkpt lat="59.856723" lon="17.6650307">
        <ele>5.42456</ele>
        <time>2013-05-30T17:01:12Z</time>
      </trkpt>
      <trkpt lat="59.856642" lon="17.6650396">
        <ele>4.94385</ele>
        <time>2013-05-30T17:01:13Z</time>
      </trkpt>
      <trkpt lat="59.8565661" lon="17.6650405">
        <ele>4.94385</ele>
        <time>2013-05-30T17:01:14Z</time>
      </trkpt>
      <trkpt lat="59.8564959" lon="17.665039">
        <ele>4.94385</ele>
        <time>2013-05-30T17:01:15Z</time>
      </trkpt>
      <trkpt lat="59.8564328" lon="17.6650462">
        <ele>4.94385</ele>
        <time>2013-05-30T17:01:16Z</time>
      </trkpt>
      <trkpt lat="59.8563733" lon="17.665052">
        <ele>5.42456</ele>
        <time>2013-05-30T17:01:17Z</time>
      </trkpt>
      <trkpt lat="59.8563134" lon="17.6650514">
        <ele>5.42456</ele>
        <time>2013-05-30T17:01:18Z</time>
      </trkpt>
      <trkpt lat="59.8562546" lon="17.6650458">
        <ele>5.90527</ele>
        <time>2013-05-30T17:01:19Z</time>
      </trkpt>
      <trkpt lat="59.8561962" lon="17.665024">
        <ele>5.90527</ele>
        <time>2013-05-30T17:01:20Z</time>
      </trkpt>
      <trkpt lat="59.85614" lon="17.6649851">
        <ele>5.90527</ele>
        <time>2013-05-30T17:01:21Z</time>
      </trkpt>
      <trkpt lat="59.8560842" lon="17.6649563">
        <ele>5.90527</ele>
        <time>2013-05-30T17:01:22Z</time>
      </trkpt>
      <trkpt lat="59.8560302" lon="17.6649627">
        <ele>5.90527</ele>
        <time>2013-05-30T17:01:23Z</time>
      </trkpt>
      <trkpt lat="59.8559863" lon="17.6650158">
        <ele>6.38586</ele>
        <time>2013-05-30T17:01:24Z</time>
      </trkpt>
      <trkpt lat="59.8559541" lon="17.6650934">
        <ele>6.38586</ele>
        <time>2013-05-30T17:01:25Z</time>
      </trkpt>
      <trkpt lat="59.8559314" lon="17.6651678">
        <ele>5.42456</ele>
        <time>2013-05-30T17:01:26Z</time>
      </trkpt>
      <trkpt lat="59.8559015" lon="17.665225">
        <ele>4.94385</ele>
        <time>2013-05-30T17:01:27Z</time>
      </trkpt>
      <trkpt lat="59.8558692" lon="17.6652689">
        <ele>3.98267</ele>
        <time>2013-05-30T17:01:28Z</time>
      </trkpt>
      <trkpt lat="59.8558434" lon="17.6653245">
        <ele>4.46326</ele>
        <time>2013-05-30T17:01:29Z</time>
      </trkpt>
      <trkpt lat="59.8558367" lon="17.665395">
        <ele>3.98267</ele>
        <time>2013-05-30T17:01:30Z</time>
      </trkpt>
      <trkpt lat="59.8558403" lon="17.6654829">
        <ele>3.98267</ele>
        <time>2013-05-30T17:01:31Z</time>
      </trkpt>
      <trkpt lat="59.8558313" lon="17.6655833">
        <ele>3.02124</ele>
        <time>2013-05-30T17:01:32Z</time>
      </trkpt>
      <trkpt lat="59.8558093" lon="17.6656869">
        <ele>3.02124</ele>
        <time>2013-05-30T17:01:33Z</time>
      </trkpt>
      <trkpt lat="59.855786" lon="17.6657946">
        <ele>2.54065</ele>
        <time>2013-05-30T17:01:34Z</time>
      </trkpt>
      <trkpt lat="59.8557569" lon="17.6658952">
        <ele>3.02124</ele>
        <time>2013-05-30T17:01:35Z</time>
      </trkpt>
      <trkpt lat="59.8557392" lon="17.6660084">
        <ele>3.50195</ele>
        <time>2013-05-30T17:01:36Z</time>
      </trkpt>
      <trkpt lat="59.8557309" lon="17.6661325">
        <ele>4.46326</ele>
        <time>2013-05-30T17:01:37Z</time>
      </trkpt>
      <trkpt lat="59.8557181" lon="17.6662507">
        <ele>3.98267</ele>
        <time>2013-05-30T17:01:38Z</time>
      </trkpt>
      <trkpt lat="59.8557001" lon="17.6663683">
        <ele>3.50195</ele>
        <time>2013-05-30T17:01:39Z</time>
      </trkpt>
      <trkpt lat="59.8556697" lon="17.6664792">
        <ele>3.02124</ele>
        <time>2013-05-30T17:01:40Z</time>
      </trkpt>
      <trkpt lat="59.8556373" lon="17.6665992">
        <ele>3.50195</ele>
        <time>2013-05-30T17:01:41Z</time>
      </trkpt>
      <trkpt lat="59.8556062" lon="17.6667241">
        <ele>2.54065</ele>
        <time>2013-05-30T17:01:42Z</time>
      </trkpt>
      <trkpt lat="59.8555785" lon="17.6668449">
        <ele>2.06006</ele>
        <time>2013-05-30T17:01:43Z</time>
      </trkpt>
      <trkpt lat="59.8555521" lon="17.6669648">
        <ele>1.57935</ele>
        <time>2013-05-30T17:01:44Z</time>
      </trkpt>
      <trkpt lat="59.8555268" lon="17.667081">
        <ele>1.09863</ele>
        <time>2013-05-30T17:01:45Z</time>
      </trkpt>
      <trkpt lat="59.855504" lon="17.6672023">
        <ele>0.618042</ele>
        <time>2013-05-30T17:01:46Z</time>
      </trkpt>
      <trkpt lat="59.8554889" lon="17.6673114">
        <ele>0.618042</ele>
        <time>2013-05-30T17:01:47Z</time>
      </trkpt>
      <trkpt lat="59.8554618" lon="17.6674355">
        <ele>0.137451</ele>
        <time>2013-05-30T17:01:48Z</time>
      </trkpt>
      <trkpt lat="59.8554332" lon="17.667568">
        <ele>0.137451</ele>
        <time>2013-05-30T17:01:49Z</time>
      </trkpt>
      <trkpt lat="59.8553974" lon="17.6676888">
        <ele>0.618042</ele>
        <time>2013-05-30T17:01:50Z</time>
      </trkpt>
      <trkpt lat="59.8553643" lon="17.6678006">
        <ele>0.618042</ele>
        <time>2013-05-30T17:01:51Z</time>
      </trkpt>
      <trkpt lat="59.8553323" lon="17.6679103">
        <ele>1.09863</ele>
        <time>2013-05-30T17:01:52Z</time>
      </trkpt>
      <trkpt lat="59.8553029" lon="17.6680073">
        <ele>1.09863</ele>
        <time>2013-05-30T17:01:53Z</time>
      </trkpt>
      <trkpt lat="59.8552774" lon="17.6681062">
        <ele>1.09863</ele>
        <time>2013-05-30T17:01:54Z</time>
      </trkpt>
      <trkpt lat="59.8552532" lon="17.6682125">
        <ele>0.137451</ele>
        <time>2013-05-30T17:01:55Z</time>
      </trkpt>
      <trkpt lat="59.8552305" lon="17.6683248">
        <ele>0</ele>
        <time>2013-05-30T17:01:56Z</time>
      </trkpt>
      <trkpt lat="59.8551984" lon="17.668435">
        <ele>0.137451</ele>
        <time>2013-05-30T17:01:57Z</time>
      </trkpt>
      <trkpt lat="59.855167" lon="17.6685443">
        <ele>0</ele>
        <time>2013-05-30T17:01:58Z</time>
      </trkpt>
      <trkpt lat="59.8551348" lon="17.6686678">
        <ele>0.618042</ele>
        <time>2013-05-30T17:01:59Z</time>
      </trkpt>
      <trkpt lat="59.8551015" lon="17.6687825">
        <ele>1.57935</ele>
        <time>2013-05-30T17:02:00Z</time>
      </trkpt>
      <trkpt lat="59.8550702" lon="17.6688987">
        <ele>3.02124</ele>
        <time>2013-05-30T17:02:01Z</time>
      </trkpt>
      <trkpt lat="59.8550424" lon="17.6690213">
        <ele>3.98267</ele>
        <time>2013-05-30T17:02:02Z</time>
      </trkpt>
      <trkpt lat="59.8550151" lon="17.6691194">
        <ele>3.50195</ele>
        <time>2013-05-30T17:02:03Z</time>
      </trkpt>
      <trkpt lat="59.8549861" lon="17.6692288">
        <ele>3.50195</ele>
        <time>2013-05-30T17:02:04Z</time>
      </trkpt>
      <trkpt lat="59.8549619" lon="17.6693415">
        <ele>3.50195</ele>
        <time>2013-05-30T17:02:05Z</time>
      </trkpt>
      <trkpt lat="59.8549352" lon="17.6694725">
        <ele>3.02124</ele>
        <time>2013-05-30T17:02:06Z</time>
      </trkpt>
      <trkpt lat="59.854907" lon="17.6695917">
        <ele>2.54065</ele>
        <time>2013-05-30T17:02:07Z</time>
      </trkpt>
      <trkpt lat="59.854879" lon="17.6697185">
        <ele>3.02124</ele>
        <time>2013-05-30T17:02:08Z</time>
      </trkpt>
      <trkpt lat="59.8548502" lon="17.6698413">
        <ele>3.02124</ele>
        <time>2013-05-30T17:02:09Z</time>
      </trkpt>
      <trkpt lat="59.8548172" lon="17.6699642">
        <ele>3.50195</ele>
        <time>2013-05-30T17:02:10Z</time>
      </trkpt>
      <trkpt lat="59.8547872" lon="17.6700896">
        <ele>3.50195</ele>
        <time>2013-05-30T17:02:11Z</time>
      </trkpt>
      <trkpt lat="59.8547556" lon="17.6702164">
        <ele>4.46326</ele>
        <time>2013-05-30T17:02:12Z</time>
      </trkpt>
      <trkpt lat="59.8547256" lon="17.6703396">
        <ele>4.94385</ele>
        <time>2013-05-30T17:02:13Z</time>
      </trkpt>
      <trkpt lat="59.8546975" lon="17.6704651">
        <ele>4.94385</ele>
        <time>2013-05-30T17:02:14Z</time>
      </trkpt>
      <trkpt lat="59.8546689" lon="17.6705896">
        <ele>5.42456</ele>
        <time>2013-05-30T17:02:15Z</time>
      </trkpt>
      <trkpt lat="59.8546431" lon="17.6707136">
        <ele>5.42456</ele>
        <time>2013-05-30T17:02:16Z</time>
      </trkpt>
      <trkpt lat="59.8546169" lon="17.6708414">
        <ele>5.42456</ele>
        <time>2013-05-30T17:02:17Z</time>
      </trkpt>
      <trkpt lat="59.8545904" lon="17.6709733">
        <ele>5.42456</ele>
        <time>2013-05-30T17:02:18Z</time>
      </trkpt>
      <trkpt lat="59.8545625" lon="17.671103">
        <ele>4.94385</ele>
        <time>2013-05-30T17:02:19Z</time>
      </trkpt>
      <trkpt lat="59.8545334" lon="17.6712307">
        <ele>4.94385</ele>
        <time>2013-05-30T17:02:20Z</time>
      </trkpt>
      <trkpt lat="59.854518" lon="17.6713702">
        <ele>5.42456</ele>
        <time>2013-05-30T17:02:21Z</time>
      </trkpt>
      <trkpt lat="59.8544929" lon="17.6715148">
        <ele>5.42456</ele>
        <time>2013-05-30T17:02:22Z</time>
      </trkpt>
      <trkpt lat="59.8544632" lon="17.6716565">
        <ele>5.90527</ele>
        <time>2013-05-30T17:02:23Z</time>
      </trkpt>
      <trkpt lat="59.854435" lon="17.6717934">
        <ele>5.90527</ele>
        <time>2013-05-30T17:02:24Z</time>
      </trkpt>
      <trkpt lat="59.8544063" lon="17.6719219">
        <ele>5.90527</ele>
        <time>2013-05-30T17:02:25Z</time>
      </trkpt>
      <trkpt lat="59.8543786" lon="17.6720478">
        <ele>6.38586</ele>
        <time>2013-05-30T17:02:26Z</time>
      </trkpt>
      <trkpt lat="59.8543495" lon="17.6721685">
        <ele>6.38586</ele>
        <time>2013-05-30T17:02:27Z</time>
      </trkpt>
      <trkpt lat="59.8543196" lon="17.672284">
        <ele>6.38586</ele>
        <time>2013-05-30T17:02:28Z</time>
      </trkpt>
      <trkpt lat="59.8543029" lon="17.6724244">
        <ele>6.86646</ele>
        <time>2013-05-30T17:02:29Z</time>
      </trkpt>
      <trkpt lat="59.8542635" lon="17.6725273">
        <ele>6.86646</ele>
        <time>2013-05-30T17:02:30Z</time>
      </trkpt>
      <trkpt lat="59.8542447" lon="17.6726446">
        <ele>6.86646</ele>
        <time>2013-05-30T17:02:31Z</time>
      </trkpt>
      <trkpt lat="59.8542184" lon="17.6727496">
        <ele>7.34717</ele>
        <time>2013-05-30T17:02:32Z</time>
      </trkpt>
      <trkpt lat="59.8541928" lon="17.6728535">
        <ele>7.82788</ele>
        <time>2013-05-30T17:02:33Z</time>
      </trkpt>
      <trkpt lat="59.8541714" lon="17.6729743">
        <ele>8.30859</ele>
        <time>2013-05-30T17:02:34Z</time>
      </trkpt>
      <trkpt lat="59.854146" lon="17.6730748">
        <ele>8.78918</ele>
        <time>2013-05-30T17:02:35Z</time>
      </trkpt>
      <trkpt lat="59.8541248" lon="17.673175">
        <ele>8.78918</ele>
        <time>2013-05-30T17:02:36Z</time>
      </trkpt>
      <trkpt lat="59.8541077" lon="17.6732696">
        <ele>9.2699</ele>
        <time>2013-05-30T17:02:37Z</time>
      </trkpt>
      <trkpt lat="59.8540877" lon="17.6733633">
        <ele>9.2699</ele>
        <time>2013-05-30T17:02:38Z</time>
      </trkpt>
      <trkpt lat="59.8540677" lon="17.6734544">
        <ele>10.2312</ele>
        <time>2013-05-30T17:02:39Z</time>
      </trkpt>
      <trkpt lat="59.8540564" lon="17.6735535">
        <ele>10.7118</ele>
        <time>2013-05-30T17:02:40Z</time>
      </trkpt>
      <trkpt lat="59.8540459" lon="17.6736503">
        <ele>10.7118</ele>
        <time>2013-05-30T17:02:41Z</time>
      </trkpt>
      <trkpt lat="59.8540345" lon="17.6737525">
        <ele>10.7118</ele>
        <time>2013-05-30T17:02:42Z</time>
      </trkpt>
      <trkpt lat="59.8540203" lon="17.673852">
        <ele>10.7118</ele>
        <time>2013-05-30T17:02:43Z</time>
      </trkpt>
      <trkpt lat="59.8540067" lon="17.6739535">
        <ele>10.7118</ele>
        <time>2013-05-30T17:02:44Z</time>
      </trkpt>
      <trkpt lat="59.8539921" lon="17.674056">
        <ele>11.6732</ele>
        <time>2013-05-30T17:02:45Z</time>
      </trkpt>
      <trkpt lat="59.8539799" lon="17.6741502">
        <ele>11.6732</ele>
        <time>2013-05-30T17:02:46Z</time>
      </trkpt>
      <trkpt lat="59.8539663" lon="17.6742456">
        <ele>12.1538</ele>
        <time>2013-05-30T17:02:47Z</time>
      </trkpt>
      <trkpt lat="59.8539506" lon="17.674341">
        <ele>12.1538</ele>
        <time>2013-05-30T17:02:48Z</time>
      </trkpt>
      <trkpt lat="59.8539375" lon="17.6744372">
        <ele>12.1538</ele>
        <time>2013-05-30T17:02:49Z</time>
      </trkpt>
      <trkpt lat="59.8539242" lon="17.6745367">
        <ele>12.1538</ele>
        <time>2013-05-30T17:02:50Z</time>
      </trkpt>
      <trkpt lat="59.8539107" lon="17.6746379">
        <ele>12.1538</ele>
        <time>2013-05-30T17:02:51Z</time>
      </trkpt>
      <trkpt lat="59.8538978" lon="17.6747398">
        <ele>12.1538</ele>
        <time>2013-05-30T17:02:52Z</time>
      </trkpt>
      <trkpt lat="59.8538843" lon="17.6748415">
        <ele>11.6732</ele>
        <time>2013-05-30T17:02:53Z</time>
      </trkpt>
      <trkpt lat="59.8538671" lon="17.674942">
        <ele>11.1925</ele>
        <time>2013-05-30T17:02:54Z</time>
      </trkpt>
      <trkpt lat="59.8538521" lon="17.6750485">
        <ele>10.7118</ele>
        <time>2013-05-30T17:02:55Z</time>
      </trkpt>
      <trkpt lat="59.8538388" lon="17.6751599">
        <ele>10.2312</ele>
        <time>2013-05-30T17:02:56Z</time>
      </trkpt>
      <trkpt lat="59.8538227" lon="17.6752696">
        <ele>9.2699</ele>
        <time>2013-05-30T17:02:57Z</time>
      </trkpt>
      <trkpt lat="59.8538113" lon="17.6753762">
        <ele>8.78918</ele>
        <time>2013-05-30T17:02:58Z</time>
      </trkpt>
      <trkpt lat="59.8538023" lon="17.675492">
        <ele>8.78918</ele>
        <time>2013-05-30T17:02:59Z</time>
      </trkpt>
      <trkpt lat="59.85379" lon="17.6755909">
        <ele>8.30859</ele>
        <time>2013-05-30T17:03:00Z</time>
      </trkpt>
      <trkpt lat="59.8537776" lon="17.6757">
        <ele>7.82788</ele>
        <time>2013-05-30T17:03:01Z</time>
      </trkpt>
      <trkpt lat="59.853763" lon="17.6758022">
        <ele>7.34717</ele>
        <time>2013-05-30T17:03:02Z</time>
      </trkpt>
      <trkpt lat="59.8537543" lon="17.6759176">
        <ele>7.82788</ele>
        <time>2013-05-30T17:03:03Z</time>
      </trkpt>
      <trkpt lat="59.8537472" lon="17.6760355">
        <ele>7.82788</ele>
        <time>2013-05-30T17:03:04Z</time>
      </trkpt>
      <trkpt lat="59.8537403" lon="17.6761567">
        <ele>7.82788</ele>
        <time>2013-05-30T17:03:05Z</time>
      </trkpt>
      <trkpt lat="59.8537355" lon="17.6762742">
        <ele>7.82788</ele>
        <time>2013-05-30T17:03:06Z</time>
      </trkpt>
      <trkpt lat="59.8537318" lon="17.6763932">
        <ele>7.82788</ele>
        <time>2013-05-30T17:03:07Z</time>
      </trkpt>
      <trkpt lat="59.8537351" lon="17.6765413">
        <ele>7.82788</ele>
        <time>2013-05-30T17:03:08Z</time>
      </trkpt>
      <trkpt lat="59.8537349" lon="17.676686">
        <ele>8.78918</ele>
        <time>2013-05-30T17:03:09Z</time>
      </trkpt>
      <trkpt lat="59.8537329" lon="17.67682">
        <ele>9.2699</ele>
        <time>2013-05-30T17:03:10Z</time>
      </trkpt>
      <trkpt lat="59.8537243" lon="17.6768947">
        <ele>8.78918</ele>
        <time>2013-05-30T17:03:11Z</time>
      </trkpt>
      <trkpt lat="59.8537121" lon="17.6769995">
        <ele>8.78918</ele>
        <time>2013-05-30T17:03:12Z</time>
      </trkpt>
      <trkpt lat="59.8536984" lon="17.6771138">
        <ele>8.30859</ele>
        <time>2013-05-30T17:03:13Z</time>
      </trkpt>
      <trkpt lat="59.8536952" lon="17.6772369">
        <ele>8.30859</ele>
        <time>2013-05-30T17:03:14Z</time>
      </trkpt>
      <trkpt lat="59.853694" lon="17.6773635">
        <ele>8.78918</ele>
        <time>2013-05-30T17:03:15Z</time>
      </trkpt>
      <trkpt lat="59.8536876" lon="17.6774856">
        <ele>9.2699</ele>
        <time>2013-05-30T17:03:16Z</time>
      </trkpt>
      <trkpt lat="59.853686" lon="17.6776115">
        <ele>9.75061</ele>
        <time>2013-05-30T17:03:17Z</time>
      </trkpt>
      <trkpt lat="59.8536854" lon="17.6777404">
        <ele>10.7118</ele>
        <time>2013-05-30T17:03:18Z</time>
      </trkpt>
      <trkpt lat="59.8536761" lon="17.6778649">
        <ele>11.1925</ele>
        <time>2013-05-30T17:03:19Z</time>
      </trkpt>
      <trkpt lat="59.8536669" lon="17.6779888">
        <ele>11.6732</ele>
        <time>2013-05-30T17:03:20Z</time>
      </trkpt>
      <trkpt lat="59.853661" lon="17.6781146">
        <ele>11.1925</ele>
        <time>2013-05-30T17:03:21Z</time>
      </trkpt>
      <trkpt lat="59.8536626" lon="17.678238">
        <ele>12.1538</ele>
        <time>2013-05-30T17:03:22Z</time>
      </trkpt>
      <trkpt lat="59.8536662" lon="17.6783641">
        <ele>12.6344</ele>
        <time>2013-05-30T17:03:23Z</time>
      </trkpt>
      <trkpt lat="59.8536662" lon="17.6784918">
        <ele>12.6344</ele>
        <time>2013-05-30T17:03:24Z</time>
      </trkpt>
      <trkpt lat="59.853664" lon="17.6786217">
        <ele>13.1151</ele>
        <time>2013-05-30T17:03:25Z</time>
      </trkpt>
      <trkpt lat="59.8536603" lon="17.6787519">
        <ele>14.0764</ele>
        <time>2013-05-30T17:03:26Z</time>
      </trkpt>
      <trkpt lat="59.8536577" lon="17.6788847">
        <ele>15.5184</ele>
        <time>2013-05-30T17:03:27Z</time>
      </trkpt>
      <trkpt lat="59.8536503" lon="17.6790179">
        <ele>15.0377</ele>
        <time>2013-05-30T17:03:28Z</time>
      </trkpt>
      <trkpt lat="59.853646" lon="17.679143">
        <ele>15.5184</ele>
        <time>2013-05-30T17:03:29Z</time>
      </trkpt>
      <trkpt lat="59.8536379" lon="17.6792677">
        <ele>15.0377</ele>
        <time>2013-05-30T17:03:30Z</time>
      </trkpt>
      <trkpt lat="59.853632" lon="17.6793821">
        <ele>15.0377</ele>
        <time>2013-05-30T17:03:31Z</time>
      </trkpt>
      <trkpt lat="59.8536284" lon="17.6795023">
        <ele>14.557</ele>
        <time>2013-05-30T17:03:32Z</time>
      </trkpt>
      <trkpt lat="59.8536263" lon="17.6796198">
        <ele>14.0764</ele>
        <time>2013-05-30T17:03:33Z</time>
      </trkpt>
      <trkpt lat="59.8536212" lon="17.6797364">
        <ele>14.0764</ele>
        <time>2013-05-30T17:03:34Z</time>
      </trkpt>
      <trkpt lat="59.8536159" lon="17.6798575">
        <ele>14.0764</ele>
        <time>2013-05-30T17:03:35Z</time>
      </trkpt>
      <trkpt lat="59.8536098" lon="17.6799789">
        <ele>14.0764</ele>
        <time>2013-05-30T17:03:36Z</time>
      </trkpt>
      <trkpt lat="59.853605" lon="17.6800954">
        <ele>14.0764</ele>
        <time>2013-05-30T17:03:37Z</time>
      </trkpt>
      <trkpt lat="59.8536004" lon="17.6802126">
        <ele>14.0764</ele>
        <time>2013-05-30T17:03:38Z</time>
      </trkpt>
      <trkpt lat="59.8535926" lon="17.6803228">
        <ele>14.0764</ele>
        <time>2013-05-30T17:03:39Z</time>
      </trkpt>
      <trkpt lat="59.8535871" lon="17.6804344">
        <ele>14.557</ele>
        <time>2013-05-30T17:03:40Z</time>
      </trkpt>
      <trkpt lat="59.8535827" lon="17.6805429">
        <ele>15.5184</ele>
        <time>2013-05-30T17:03:41Z</time>
      </trkpt>
      <trkpt lat="59.8535804" lon="17.6806475">
        <ele>15.5184</ele>
        <time>2013-05-30T17:03:42Z</time>
      </trkpt>
      <trkpt lat="59.8535752" lon="17.6807416">
        <ele>15.0377</ele>
        <time>2013-05-30T17:03:43Z</time>
      </trkpt>
      <trkpt lat="59.8535683" lon="17.6808477">
        <ele>14.557</ele>
        <time>2013-05-30T17:03:44Z</time>
      </trkpt>
      <trkpt lat="59.8535676" lon="17.6809415">
        <ele>15.0377</ele>
        <time>2013-05-30T17:03:45Z</time>
      </trkpt>
      <trkpt lat="59.8535647" lon="17.6810293">
        <ele>15.5184</ele>
        <time>2013-05-30T17:03:46Z</time>
      </trkpt>
      <trkpt lat="59.8535614" lon="17.6811124">
        <ele>15.5184</ele>
        <time>2013-05-30T17:03:47Z</time>
      </trkpt>
      <trkpt lat="59.8535612" lon="17.6811942">
        <ele>15.999</ele>
        <time>2013-05-30T17:03:48Z</time>
      </trkpt>
      <trkpt lat="59.8535569" lon="17.6812678">
        <ele>15.999</ele>
        <time>2013-05-30T17:03:49Z</time>
      </trkpt>
      <trkpt lat="59.8535498" lon="17.6813362">
        <ele>15.999</ele>
        <time>2013-05-30T17:03:50Z</time>
      </trkpt>
      <trkpt lat="59.8535445" lon="17.681404">
        <ele>15.999</ele>
        <time>2013-05-30T17:03:51Z</time>
      </trkpt>
      <trkpt lat="59.8535409" lon="17.6814649">
        <ele>15.999</ele>
        <time>2013-05-30T17:03:52Z</time>
      </trkpt>
      <trkpt lat="59.8535367" lon="17.6815164">
        <ele>15.999</ele>
        <time>2013-05-30T17:03:53Z</time>
      </trkpt>
      <trkpt lat="59.8535362" lon="17.6815729">
        <ele>15.999</ele>
        <time>2013-05-30T17:03:54Z</time>
      </trkpt>
      <trkpt lat="59.853544" lon="17.6816418">
        <ele>16.4797</ele>
        <time>2013-05-30T17:03:55Z</time>
      </trkpt>
      <trkpt lat="59.8535512" lon="17.6817169">
        <ele>16.4797</ele>
        <time>2013-05-30T17:03:56Z</time>
      </trkpt>
      <trkpt lat="59.8535572" lon="17.6818012">
        <ele>16.4797</ele>
        <time>2013-05-30T17:03:57Z</time>
      </trkpt>
      <trkpt lat="59.8535667" lon="17.6818861">
        <ele>16.9604</ele>
        <time>2013-05-30T17:03:58Z</time>
      </trkpt>
      <trkpt lat="59.853587" lon="17.6819587">
        <ele>17.9218</ele>
        <time>2013-05-30T17:03:59Z</time>
      </trkpt>
      <trkpt lat="59.8536109" lon="17.6819897">
        <ele>17.9218</ele>
        <time>2013-05-30T17:04:00Z</time>
      </trkpt>
      <trkpt lat="59.8536476" lon="17.6820085">
        <ele>17.9218</ele>
        <time>2013-05-30T17:04:01Z</time>
      </trkpt>
      <trkpt lat="59.853689" lon="17.6820189">
        <ele>17.9218</ele>
        <time>2013-05-30T17:04:02Z</time>
      </trkpt>
      <trkpt lat="59.8537354" lon="17.6820281">
        <ele>18.8831</ele>
        <time>2013-05-30T17:04:03Z</time>
      </trkpt>
      <trkpt lat="59.8537849" lon="17.682052">
        <ele>18.8831</ele>
        <time>2013-05-30T17:04:04Z</time>
      </trkpt>
      <trkpt lat="59.8538299" lon="17.6821006">
        <ele>19.3638</ele>
        <time>2013-05-30T17:04:05Z</time>
      </trkpt>
      <trkpt lat="59.8538641" lon="17.6821679">
        <ele>19.3638</ele>
        <time>2013-05-30T17:04:06Z</time>
      </trkpt>
      <trkpt lat="59.8538967" lon="17.6822358">
        <ele>19.8444</ele>
        <time>2013-05-30T17:04:07Z</time>
      </trkpt>
      <trkpt lat="59.8539285" lon="17.6823038">
        <ele>19.3638</ele>
        <time>2013-05-30T17:04:08Z</time>
      </trkpt>
      <trkpt lat="59.8539649" lon="17.6823653">
        <ele>19.8444</ele>
        <time>2013-05-30T17:04:09Z</time>
      </trkpt>
      <trkpt lat="59.8540027" lon="17.6824209">
        <ele>19.8444</ele>
        <time>2013-05-30T17:04:10Z</time>
      </trkpt>
      <trkpt lat="59.8540413" lon="17.6824792">
        <ele>19.8444</ele>
        <time>2013-05-30T17:04:11Z</time>
      </trkpt>
      <trkpt lat="59.8540785" lon="17.6825414">
        <ele>19.8444</ele>
        <time>2013-05-30T17:04:12Z</time>
      </trkpt>
      <trkpt lat="59.8541123" lon="17.6826023">
        <ele>19.8444</ele>
        <time>2013-05-30T17:04:13Z</time>
      </trkpt>
      <trkpt lat="59.8541469" lon="17.6826611">
        <ele>20.325</ele>
        <time>2013-05-30T17:04:14Z</time>
      </trkpt>
      <trkpt lat="59.8541842" lon="17.6827125">
        <ele>20.325</ele>
        <time>2013-05-30T17:04:15Z</time>
      </trkpt>
      <trkpt lat="59.8542222" lon="17.6827592">
        <ele>20.8057</ele>
        <time>2013-05-30T17:04:16Z</time>
      </trkpt>
      <trkpt lat="59.8542543" lon="17.6828183">
        <ele>20.8057</ele>
        <time>2013-05-30T17:04:17Z</time>
      </trkpt>
      <trkpt lat="59.8542778" lon="17.6828923">
        <ele>21.2864</ele>
        <time>2013-05-30T17:04:18Z</time>
      </trkpt>
      <trkpt lat="59.8542889" lon="17.6829775">
        <ele>20.325</ele>
        <time>2013-05-30T17:04:19Z</time>
      </trkpt>
      <trkpt lat="59.8542893" lon="17.683058">
        <ele>20.8057</ele>
        <time>2013-05-30T17:04:20Z</time>
      </trkpt>
      <trkpt lat="59.8542832" lon="17.6831201">
        <ele>21.2864</ele>
        <time>2013-05-30T17:04:21Z</time>
      </trkpt>
      <trkpt lat="59.8542722" lon="17.6831356">
        <ele>19.8444</ele>
        <time>2013-05-30T17:04:22Z</time>
      </trkpt>
      <trkpt lat="59.8542587" lon="17.6831132">
        <ele>18.8831</ele>
        <time>2013-05-30T17:04:23Z</time>
      </trkpt>
      <trkpt lat="59.8542506" lon="17.6830839">
        <ele>19.3638</ele>
        <time>2013-05-30T17:04:24Z</time>
      </trkpt>
      <trkpt lat="59.8542455" lon="17.6830682">
        <ele>18.4023</ele>
        <time>2013-05-30T17:04:25Z</time>
      </trkpt>
      <trkpt lat="59.854238" lon="17.6830456">
        <ele>17.9218</ele>
        <time>2013-05-30T17:04:26Z</time>
      </trkpt>
      <trkpt lat="59.8542393" lon="17.6830383">
        <ele>18.8831</ele>
        <time>2013-05-30T17:04:27Z</time>
      </trkpt>
      <trkpt lat="59.8542407" lon="17.6830227">
        <ele>19.3638</ele>
        <time>2013-05-30T17:04:28Z</time>
      </trkpt>
      <trkpt lat="59.85424" lon="17.6830198">
        <ele>18.8831</ele>
        <time>2013-05-30T17:04:29Z</time>
      </trkpt>
      <trkpt lat="59.8542414" lon="17.683019">
        <ele>18.8831</ele>
        <time>2013-05-30T17:04:30Z</time>
      </trkpt>
      <trkpt lat="59.854075" lon="17.6830387">
        <ele>29.9381</ele>
        <time>2013-05-30T17:16:08Z</time>
      </trkpt>
      <trkpt lat="59.8540506" lon="17.6830626">
        <ele>28.9769</ele>
        <time>2013-05-30T17:16:09Z</time>
      </trkpt>
      <trkpt lat="59.8540271" lon="17.6830853">
        <ele>28.4962</ele>
        <time>2013-05-30T17:16:10Z</time>
      </trkpt>
      <trkpt lat="59.8540038" lon="17.683103">
        <ele>28.4962</ele>
        <time>2013-05-30T17:16:11Z</time>
      </trkpt>
      <trkpt lat="59.8539756" lon="17.6831247">
        <ele>27.5349</ele>
        <time>2013-05-30T17:16:12Z</time>
      </trkpt>
      <trkpt lat="59.8539432" lon="17.6831522">
        <ele>27.5349</ele>
        <time>2013-05-30T17:16:13Z</time>
      </trkpt>
      <trkpt lat="59.8539132" lon="17.6831806">
        <ele>27.5349</ele>
        <time>2013-05-30T17:16:14Z</time>
      </trkpt>
      <trkpt lat="59.8538946" lon="17.6832078">
        <ele>27.5349</ele>
        <time>2013-05-30T17:16:15Z</time>
      </trkpt>
      <trkpt lat="59.8538771" lon="17.6832217">
        <ele>27.5349</ele>
        <time>2013-05-30T17:16:16Z</time>
      </trkpt>
      <trkpt lat="59.8538476" lon="17.6832243">
        <ele>27.5349</ele>
        <time>2013-05-30T17:16:17Z</time>
      </trkpt>
      <trkpt lat="59.8538092" lon="17.6832218">
        <ele>27.0543</ele>
        <time>2013-05-30T17:16:18Z</time>
      </trkpt>
      <trkpt lat="59.8537702" lon="17.6832144">
        <ele>27.0543</ele>
        <time>2013-05-30T17:16:19Z</time>
      </trkpt>
      <trkpt lat="59.8537342" lon="17.6831993">
        <ele>26.5736</ele>
        <time>2013-05-30T17:16:20Z</time>
      </trkpt>
      <trkpt lat="59.8537051" lon="17.6831776">
        <ele>26.0929</ele>
        <time>2013-05-30T17:16:21Z</time>
      </trkpt>
      <trkpt lat="59.8536797" lon="17.6831555">
        <ele>26.0929</ele>
        <time>2013-05-30T17:16:22Z</time>
      </trkpt>
      <trkpt lat="59.8536578" lon="17.6831358">
        <ele>25.6123</ele>
        <time>2013-05-30T17:16:23Z</time>
      </trkpt>
      <trkpt lat="59.8536392" lon="17.6831175">
        <ele>25.6123</ele>
        <time>2013-05-30T17:16:24Z</time>
      </trkpt>
      <trkpt lat="59.8536238" lon="17.6830941">
        <ele>25.6123</ele>
        <time>2013-05-30T17:16:25Z</time>
      </trkpt>
      <trkpt lat="59.8536116" lon="17.6830773">
        <ele>26.0929</ele>
        <time>2013-05-30T17:16:26Z</time>
      </trkpt>
      <trkpt lat="59.8535994" lon="17.683064">
        <ele>26.0929</ele>
        <time>2013-05-30T17:16:27Z</time>
      </trkpt>
      <trkpt lat="59.8535886" lon="17.6830554">
        <ele>26.0929</ele>
        <time>2013-05-30T17:16:28Z</time>
      </trkpt>
      <trkpt lat="59.8535813" lon="17.6830482">
        <ele>26.0929</ele>
        <time>2013-05-30T17:16:29Z</time>
      </trkpt>
      <trkpt lat="59.8535782" lon="17.6830373">
        <ele>27.0543</ele>
        <time>2013-05-30T17:16:30Z</time>
      </trkpt>
      <trkpt lat="59.853576" lon="17.6830293">
        <ele>27.0543</ele>
        <time>2013-05-30T17:16:31Z</time>
      </trkpt>
      <trkpt lat="59.8535642" lon="17.6830212">
        <ele>26.5736</ele>
        <time>2013-05-30T17:16:32Z</time>
      </trkpt>
      <trkpt lat="59.8535472" lon="17.6830093">
        <ele>26.5736</ele>
        <time>2013-05-30T17:16:33Z</time>
      </trkpt>
      <trkpt lat="59.8535316" lon="17.6829933">
        <ele>26.0929</ele>
        <time>2013-05-30T17:16:34Z</time>
      </trkpt>
      <trkpt lat="59.8535165" lon="17.6829752">
        <ele>25.6123</ele>
        <time>2013-05-30T17:16:35Z</time>
      </trkpt>
      <trkpt lat="59.8534992" lon="17.682956">
        <ele>25.1317</ele>
        <time>2013-05-30T17:16:36Z</time>
      </trkpt>
      <trkpt lat="59.8534771" lon="17.682943">
        <ele>25.1317</ele>
        <time>2013-05-30T17:16:37Z</time>
      </trkpt>
      <trkpt lat="59.8534533" lon="17.6829306">
        <ele>24.651</ele>
        <time>2013-05-30T17:16:38Z</time>
      </trkpt>
      <trkpt lat="59.8534289" lon="17.6829283">
        <ele>24.651</ele>
        <time>2013-05-30T17:16:39Z</time>
      </trkpt>
      <trkpt lat="59.8534042" lon="17.6829461">
        <ele>24.651</ele>
        <time>2013-05-30T17:16:40Z</time>
      </trkpt>
      <trkpt lat="59.8533808" lon="17.6829823">
        <ele>24.651</ele>
        <time>2013-05-30T17:16:41Z</time>
      </trkpt>
      <trkpt lat="59.8533552" lon="17.6830327">
        <ele>25.1317</ele>
        <time>2013-05-30T17:16:42Z</time>
      </trkpt>
      <trkpt lat="59.8533278" lon="17.6830949">
        <ele>25.6123</ele>
        <time>2013-05-30T17:16:43Z</time>
      </trkpt>
      <trkpt lat="59.8533001" lon="17.6831588">
        <ele>26.0929</ele>
        <time>2013-05-30T17:16:44Z</time>
      </trkpt>
      <trkpt lat="59.8532647" lon="17.683215">
        <ele>25.6123</ele>
        <time>2013-05-30T17:16:45Z</time>
      </trkpt>
      <trkpt lat="59.8532253" lon="17.6832591">
        <ele>25.1317</ele>
        <time>2013-05-30T17:16:46Z</time>
      </trkpt>
      <trkpt lat="59.8531862" lon="17.6832899">
        <ele>25.1317</ele>
        <time>2013-05-30T17:16:47Z</time>
      </trkpt>
      <trkpt lat="59.8531467" lon="17.6833101">
        <ele>24.651</ele>
        <time>2013-05-30T17:16:48Z</time>
      </trkpt>
      <trkpt lat="59.8531084" lon="17.6833274">
        <ele>24.1703</ele>
        <time>2013-05-30T17:16:49Z</time>
      </trkpt>
      <trkpt lat="59.8530768" lon="17.6833352">
        <ele>24.1703</ele>
        <time>2013-05-30T17:16:50Z</time>
      </trkpt>
      <trkpt lat="59.8530524" lon="17.6833423">
        <ele>24.651</ele>
        <time>2013-05-30T17:16:51Z</time>
      </trkpt>
      <trkpt lat="59.8530341" lon="17.6833528">
        <ele>24.1703</ele>
        <time>2013-05-30T17:16:52Z</time>
      </trkpt>
      <trkpt lat="59.8530194" lon="17.6833692">
        <ele>24.1703</ele>
        <time>2013-05-30T17:16:53Z</time>
      </trkpt>
      <trkpt lat="59.853012" lon="17.6833876">
        <ele>24.1703</ele>
        <time>2013-05-30T17:16:54Z</time>
      </trkpt>
      <trkpt lat="59.8530099" lon="17.6834057">
        <ele>24.1703</ele>
        <time>2013-05-30T17:16:55Z</time>
      </trkpt>
      <trkpt lat="59.8530098" lon="17.6834147">
        <ele>24.1703</ele>
        <time>2013-05-30T17:16:56Z</time>
      </trkpt>
      <trkpt lat="59.8530092" lon="17.683416">
        <ele>24.1703</ele>
        <time>2013-05-30T17:16:57Z</time>
      </trkpt>
      <trkpt lat="59.8530082" lon="17.6834166">
        <ele>24.1703</ele>
        <time>2013-05-30T17:16:58Z</time>
      </trkpt>
      <trkpt lat="59.8529851" lon="17.6834751">
        <ele>22.7283</ele>
        <time>2013-05-30T17:17:12Z</time>
      </trkpt>
      <trkpt lat="59.8529797" lon="17.6835271">
        <ele>22.7283</ele>
        <time>2013-05-30T17:17:13Z</time>
      </trkpt>
      <trkpt lat="59.8529769" lon="17.6835864">
        <ele>22.2476</ele>
        <time>2013-05-30T17:17:14Z</time>
      </trkpt>
      <trkpt lat="59.8529735" lon="17.6836491">
        <ele>21.767</ele>
        <time>2013-05-30T17:17:15Z</time>
      </trkpt>
      <trkpt lat="59.8529693" lon="17.6837131">
        <ele>21.767</ele>
        <time>2013-05-30T17:17:16Z</time>
      </trkpt>
      <trkpt lat="59.8529683" lon="17.6837782">
        <ele>21.767</ele>
        <time>2013-05-30T17:17:17Z</time>
      </trkpt>
      <trkpt lat="59.8529743" lon="17.6838423">
        <ele>21.767</ele>
        <time>2013-05-30T17:17:18Z</time>
      </trkpt>
      <trkpt lat="59.8529908" lon="17.6839028">
        <ele>22.2476</ele>
        <time>2013-05-30T17:17:19Z</time>
      </trkpt>
      <trkpt lat="59.8530121" lon="17.6839618">
        <ele>22.2476</ele>
        <time>2013-05-30T17:17:20Z</time>
      </trkpt>
      <trkpt lat="59.8530338" lon="17.6840223">
        <ele>21.2864</ele>
        <time>2013-05-30T17:17:21Z</time>
      </trkpt>
      <trkpt lat="59.853055" lon="17.6840817">
        <ele>20.325</ele>
        <time>2013-05-30T17:17:22Z</time>
      </trkpt>
      <trkpt lat="59.8530742" lon="17.6841465">
        <ele>19.8444</ele>
        <time>2013-05-30T17:17:23Z</time>
      </trkpt>
      <trkpt lat="59.8530854" lon="17.6842246">
        <ele>18.8831</ele>
        <time>2013-05-30T17:17:24Z</time>
      </trkpt>
      <trkpt lat="59.8530892" lon="17.6843075">
        <ele>18.8831</ele>
        <time>2013-05-30T17:17:25Z</time>
      </trkpt>
      <trkpt lat="59.8530907" lon="17.6843883">
        <ele>18.4023</ele>
        <time>2013-05-30T17:17:26Z</time>
      </trkpt>
      <trkpt lat="59.8530844" lon="17.6844706">
        <ele>18.4023</ele>
        <time>2013-05-30T17:17:27Z</time>
      </trkpt>
      <trkpt lat="59.8530726" lon="17.6845531">
        <ele>19.3638</ele>
        <time>2013-05-30T17:17:28Z</time>
      </trkpt>
      <trkpt lat="59.853055" lon="17.6846312">
        <ele>20.8057</ele>
        <time>2013-05-30T17:17:29Z</time>
      </trkpt>
      <trkpt lat="59.8530337" lon="17.6847046">
        <ele>21.767</ele>
        <time>2013-05-30T17:17:30Z</time>
      </trkpt>
      <trkpt lat="59.8530162" lon="17.684781">
        <ele>22.7283</ele>
        <time>2013-05-30T17:17:31Z</time>
      </trkpt>
      <trkpt lat="59.8529988" lon="17.6848574">
        <ele>23.209</ele>
        <time>2013-05-30T17:17:32Z</time>
      </trkpt>
      <trkpt lat="59.8529783" lon="17.6849313">
        <ele>23.6896</ele>
        <time>2013-05-30T17:17:33Z</time>
      </trkpt>
      <trkpt lat="59.8529565" lon="17.6850024">
        <ele>23.6896</ele>
        <time>2013-05-30T17:17:34Z</time>
      </trkpt>
      <trkpt lat="59.8529307" lon="17.6850638">
        <ele>24.1703</ele>
        <time>2013-05-30T17:17:35Z</time>
      </trkpt>
      <trkpt lat="59.8529048" lon="17.6851271">
        <ele>24.651</ele>
        <time>2013-05-30T17:17:36Z</time>
      </trkpt>
      <trkpt lat="59.852879" lon="17.6851926">
        <ele>24.651</ele>
        <time>2013-05-30T17:17:37Z</time>
      </trkpt>
      <trkpt lat="59.852854" lon="17.6852571">
        <ele>25.1317</ele>
        <time>2013-05-30T17:17:38Z</time>
      </trkpt>
      <trkpt lat="59.8528315" lon="17.6853212">
        <ele>25.1317</ele>
        <time>2013-05-30T17:17:39Z</time>
      </trkpt>
      <trkpt lat="59.8528099" lon="17.6853845">
        <ele>25.6123</ele>
        <time>2013-05-30T17:17:40Z</time>
      </trkpt>
      <trkpt lat="59.8527875" lon="17.685445">
        <ele>25.6123</ele>
        <time>2013-05-30T17:17:41Z</time>
      </trkpt>
      <trkpt lat="59.8527644" lon="17.6855046">
        <ele>26.0929</ele>
        <time>2013-05-30T17:17:42Z</time>
      </trkpt>
      <trkpt lat="59.8527427" lon="17.6855626">
        <ele>26.0929</ele>
        <time>2013-05-30T17:17:43Z</time>
      </trkpt>
      <trkpt lat="59.8527213" lon="17.6856216">
        <ele>26.5736</ele>
        <time>2013-05-30T17:17:44Z</time>
      </trkpt>
      <trkpt lat="59.8526973" lon="17.6856781">
        <ele>26.5736</ele>
        <time>2013-05-30T17:17:45Z</time>
      </trkpt>
      <trkpt lat="59.8526669" lon="17.6857221">
        <ele>25.6123</ele>
        <time>2013-05-30T17:17:46Z</time>
      </trkpt>
      <trkpt lat="59.8526306" lon="17.6857478">
        <ele>23.6896</ele>
        <time>2013-05-30T17:17:47Z</time>
      </trkpt>
      <trkpt lat="59.8525984" lon="17.6857123">
        <ele>23.6896</ele>
        <time>2013-05-30T17:17:48Z</time>
      </trkpt>
      <trkpt lat="59.8525655" lon="17.6856629">
        <ele>23.209</ele>
        <time>2013-05-30T17:17:49Z</time>
      </trkpt>
      <trkpt lat="59.8525314" lon="17.685603">
        <ele>22.7283</ele>
        <time>2013-05-30T17:17:50Z</time>
      </trkpt>
      <trkpt lat="59.8524883" lon="17.6855603">
        <ele>22.7283</ele>
        <time>2013-05-30T17:17:51Z</time>
      </trkpt>
      <trkpt lat="59.8524385" lon="17.685532">
        <ele>21.767</ele>
        <time>2013-05-30T17:17:52Z</time>
      </trkpt>
      <trkpt lat="59.8523873" lon="17.6855056">
        <ele>21.2864</ele>
        <time>2013-05-30T17:17:53Z</time>
      </trkpt>
      <trkpt lat="59.8523373" lon="17.6854749">
        <ele>21.2864</ele>
        <time>2013-05-30T17:17:54Z</time>
      </trkpt>
      <trkpt lat="59.8522872" lon="17.6854313">
        <ele>20.8057</ele>
        <time>2013-05-30T17:17:55Z</time>
      </trkpt>
      <trkpt lat="59.8522385" lon="17.6853926">
        <ele>20.325</ele>
        <time>2013-05-30T17:17:56Z</time>
      </trkpt>
      <trkpt lat="59.8521894" lon="17.6853595">
        <ele>19.8444</ele>
        <time>2013-05-30T17:17:57Z</time>
      </trkpt>
      <trkpt lat="59.8521416" lon="17.6853301">
        <ele>19.8444</ele>
        <time>2013-05-30T17:17:58Z</time>
      </trkpt>
      <trkpt lat="59.8520997" lon="17.6853">
        <ele>19.3638</ele>
        <time>2013-05-30T17:17:59Z</time>
      </trkpt>
      <trkpt lat="59.8520578" lon="17.6852642">
        <ele>18.8831</ele>
        <time>2013-05-30T17:18:00Z</time>
      </trkpt>
      <trkpt lat="59.8520174" lon="17.6852394">
        <ele>18.8831</ele>
        <time>2013-05-30T17:18:01Z</time>
      </trkpt>
      <trkpt lat="59.8519739" lon="17.6852161">
        <ele>18.4023</ele>
        <time>2013-05-30T17:18:02Z</time>
      </trkpt>
      <trkpt lat="59.8519334" lon="17.6851892">
        <ele>18.4023</ele>
        <time>2013-05-30T17:18:03Z</time>
      </trkpt>
      <trkpt lat="59.8518934" lon="17.6851602">
        <ele>18.4023</ele>
        <time>2013-05-30T17:18:04Z</time>
      </trkpt>
      <trkpt lat="59.8518535" lon="17.6851321">
        <ele>18.4023</ele>
        <time>2013-05-30T17:18:05Z</time>
      </trkpt>
      <trkpt lat="59.8518153" lon="17.6851019">
        <ele>18.4023</ele>
        <time>2013-05-30T17:18:06Z</time>
      </trkpt>
      <trkpt lat="59.8517776" lon="17.6850693">
        <ele>18.4023</ele>
        <time>2013-05-30T17:18:07Z</time>
      </trkpt>
      <trkpt lat="59.851733" lon="17.6850373">
        <ele>18.4023</ele>
        <time>2013-05-30T17:18:08Z</time>
      </trkpt>
      <trkpt lat="59.85169" lon="17.6850121">
        <ele>17.9218</ele>
        <time>2013-05-30T17:18:09Z</time>
      </trkpt>
      <trkpt lat="59.8516556" lon="17.6849923">
        <ele>18.4023</ele>
        <time>2013-05-30T17:18:10Z</time>
      </trkpt>
      <trkpt lat="59.851621" lon="17.6849684">
        <ele>18.4023</ele>
        <time>2013-05-30T17:18:11Z</time>
      </trkpt>
      <trkpt lat="59.8515884" lon="17.6849387">
        <ele>18.4023</ele>
        <time>2013-05-30T17:18:12Z</time>
      </trkpt>
      <trkpt lat="59.851552" lon="17.6849051">
        <ele>18.4023</ele>
        <time>2013-05-30T17:18:13Z</time>
      </trkpt>
      <trkpt lat="59.851515" lon="17.6848782">
        <ele>18.4023</ele>
        <time>2013-05-30T17:18:14Z</time>
      </trkpt>
      <trkpt lat="59.8514821" lon="17.6848554">
        <ele>17.4412</ele>
        <time>2013-05-30T17:18:15Z</time>
      </trkpt>
      <trkpt lat="59.8514453" lon="17.6848669">
        <ele>18.4023</ele>
        <time>2013-05-30T17:18:16Z</time>
      </trkpt>
      <trkpt lat="59.8514135" lon="17.6848937">
        <ele>19.3638</ele>
        <time>2013-05-30T17:18:17Z</time>
      </trkpt>
      <trkpt lat="59.8513921" lon="17.6849343">
        <ele>20.325</ele>
        <time>2013-05-30T17:18:18Z</time>
      </trkpt>
      <trkpt lat="59.8513721" lon="17.6849778">
        <ele>20.8057</ele>
        <time>2013-05-30T17:18:19Z</time>
      </trkpt>
      <trkpt lat="59.8513533" lon="17.6850212">
        <ele>20.8057</ele>
        <time>2013-05-30T17:18:20Z</time>
      </trkpt>
      <trkpt lat="59.8513402" lon="17.6850687">
        <ele>21.2864</ele>
        <time>2013-05-30T17:18:21Z</time>
      </trkpt>
      <trkpt lat="59.8513346" lon="17.6851244">
        <ele>21.767</ele>
        <time>2013-05-30T17:18:22Z</time>
      </trkpt>
      <trkpt lat="59.8513502" lon="17.6851684">
        <ele>22.2476</ele>
        <time>2013-05-30T17:18:23Z</time>
      </trkpt>
      <trkpt lat="59.8513746" lon="17.6851886">
        <ele>22.2476</ele>
        <time>2013-05-30T17:18:24Z</time>
      </trkpt>
      <trkpt lat="59.8514008" lon="17.6851793">
        <ele>22.2476</ele>
        <time>2013-05-30T17:18:25Z</time>
      </trkpt>
      <trkpt lat="59.851422" lon="17.6851533">
        <ele>21.767</ele>
        <time>2013-05-30T17:18:26Z</time>
      </trkpt>
      <trkpt lat="59.8514357" lon="17.6851187">
        <ele>21.2864</ele>
        <time>2013-05-30T17:18:27Z</time>
      </trkpt>
      <trkpt lat="59.8514477" lon="17.6850797">
        <ele>21.2864</ele>
        <time>2013-05-30T17:18:28Z</time>
      </trkpt>
      <trkpt lat="59.8514599" lon="17.6850414">
        <ele>21.2864</ele>
        <time>2013-05-30T17:18:29Z</time>
      </trkpt>
      <trkpt lat="59.8514703" lon="17.6850109">
        <ele>20.8057</ele>
        <time>2013-05-30T17:18:30Z</time>
      </trkpt>
      <trkpt lat="59.8514835" lon="17.6849822">
        <ele>20.8057</ele>
        <time>2013-05-30T17:18:31Z</time>
      </trkpt>
      <trkpt lat="59.8515008" lon="17.6849571">
        <ele>20.325</ele>
        <time>2013-05-30T17:18:32Z</time>
      </trkpt>
      <trkpt lat="59.8515237" lon="17.6849436">
        <ele>19.8444</ele>
        <time>2013-05-30T17:18:33Z</time>
      </trkpt>
      <trkpt lat="59.8515508" lon="17.6849462">
        <ele>19.8444</ele>
        <time>2013-05-30T17:18:34Z</time>
      </trkpt>
      <trkpt lat="59.8515714" lon="17.6849719">
        <ele>19.3638</ele>
        <time>2013-05-30T17:18:35Z</time>
      </trkpt>
      <trkpt lat="59.8515868" lon="17.6850052">
        <ele>19.3638</ele>
        <time>2013-05-30T17:18:36Z</time>
      </trkpt>
      <trkpt lat="59.8516023" lon="17.685029">
        <ele>19.8444</ele>
        <time>2013-05-30T17:18:37Z</time>
      </trkpt>
      <trkpt lat="59.8516129" lon="17.685041">
        <ele>19.8444</ele>
        <time>2013-05-30T17:18:38Z</time>
      </trkpt>
      <trkpt lat="59.851614" lon="17.6850482">
        <ele>20.325</ele>
        <time>2013-05-30T17:18:39Z</time>
      </trkpt>
      <trkpt lat="59.8516165" lon="17.6850497">
        <ele>20.325</ele>
        <time>2013-05-30T17:18:40Z</time>
      </trkpt>
    </trkseg>
  </trk>
</gpx>